<?xml version="1.0" encoding="utf-8"?>
<gpx xmlns:xsi="http://www.w3.org/2001/XMLSchema-instance" xmlns:xsd="http://www.w3.org/2001/XMLSchema" version="1.1" creator="Shapelink.com" xmlns="http://www.topografix.com/GPX/1/1" xmlns:gpxtpx="http://www.garmin.com/xmlschemas/TrackPointExtension/v1">
  <metadata>
    <name>Löpning 49.44 km, 2011-05-07</name>
    <desc></desc>
    <author><name>Jojje Borssén</name></author> 
    <time>2011-05-07T09:00:12Z</time>
  </metadata>
  <trk>
    <name>Löpning 49.44 km, 2011-05-07</name>
    <trkseg>
      <trkpt lat="59.3706657819" lon="18.1579433221">
        <ele>8.2</ele>
        <time>2011-05-07T09:00:12Z</time>
      </trkpt>
      <trkpt lat="59.3705206912" lon="18.1578509536">
        <ele>8.2</ele>
        <time>2011-05-07T09:00:18Z</time>
      </trkpt>
      <trkpt lat="59.3703923643" lon="18.1577301704">
        <ele>8.2</ele>
        <time>2011-05-07T09:00:24Z</time>
      </trkpt>
      <trkpt lat="59.3703496167" lon="18.1576436692">
        <ele>8.2</ele>
        <time>2011-05-07T09:00:26Z</time>
      </trkpt>
      <trkpt lat="59.3703575795" lon="18.1575746023">
        <ele>8.2</ele>
        <time>2011-05-07T09:00:31Z</time>
      </trkpt>
      <trkpt lat="59.3703517121" lon="18.1576020949">
        <ele>8.2</ele>
        <time>2011-05-07T09:00:48Z</time>
      </trkpt>
      <trkpt lat="59.370295721" lon="18.1576193617">
        <ele>8.2</ele>
        <time>2011-05-07T09:00:51Z</time>
      </trkpt>
      <trkpt lat="59.3702555717" lon="18.1574159329">
        <ele>7.4</ele>
        <time>2011-05-07T09:00:56Z</time>
      </trkpt>
      <trkpt lat="59.3702579187" lon="18.1573504703">
        <ele>7.2</ele>
        <time>2011-05-07T09:00:57Z</time>
      </trkpt>
      <trkpt lat="59.3703051926" lon="18.1570518232">
        <ele>6.6</ele>
        <time>2011-05-07T09:01:04Z</time>
      </trkpt>
      <trkpt lat="59.3703844854" lon="18.1568200637">
        <ele>6.4</ele>
        <time>2011-05-07T09:01:11Z</time>
      </trkpt>
      <trkpt lat="59.3705076155" lon="18.1566599694">
        <ele>6.2</ele>
        <time>2011-05-07T09:01:16Z</time>
      </trkpt>
      <trkpt lat="59.3706581544" lon="18.1566401043">
        <ele>6.2</ele>
        <time>2011-05-07T09:01:22Z</time>
      </trkpt>
      <trkpt lat="59.3707848887" lon="18.1567325566">
        <ele>6.2</ele>
        <time>2011-05-07T09:01:28Z</time>
      </trkpt>
      <trkpt lat="59.3708878185" lon="18.1568164595">
        <ele>6.2</ele>
        <time>2011-05-07T09:01:33Z</time>
      </trkpt>
      <trkpt lat="59.3709689552" lon="18.1569074869">
        <ele>6.2</ele>
        <time>2011-05-07T09:01:37Z</time>
      </trkpt>
      <trkpt lat="59.3710754892" lon="18.1570285215">
        <ele>6.2</ele>
        <time>2011-05-07T09:01:43Z</time>
      </trkpt>
      <trkpt lat="59.371201553" lon="18.1571615423">
        <ele>6.2</ele>
        <time>2011-05-07T09:01:49Z</time>
      </trkpt>
      <trkpt lat="59.3713468113" lon="18.1573013524">
        <ele>6.2</ele>
        <time>2011-05-07T09:01:56Z</time>
      </trkpt>
      <trkpt lat="59.371453932" lon="18.1574062938">
        <ele>6.2</ele>
        <time>2011-05-07T09:02:01Z</time>
      </trkpt>
      <trkpt lat="59.371535404" lon="18.1576206189">
        <ele>6.2</ele>
        <time>2011-05-07T09:02:07Z</time>
      </trkpt>
      <trkpt lat="59.3715666685" lon="18.1578725789">
        <ele>6.2</ele>
        <time>2011-05-07T09:02:13Z</time>
      </trkpt>
      <trkpt lat="59.3715481445" lon="18.1580969623">
        <ele>6.2</ele>
        <time>2011-05-07T09:02:18Z</time>
      </trkpt>
      <trkpt lat="59.3714934107" lon="18.1583038276">
        <ele>7</ele>
        <time>2011-05-07T09:02:23Z</time>
      </trkpt>
      <trkpt lat="59.3713934985" lon="18.1584666879">
        <ele>7.4</ele>
        <time>2011-05-07T09:02:28Z</time>
      </trkpt>
      <trkpt lat="59.3712559515" lon="18.1586566218">
        <ele>7.8</ele>
        <time>2011-05-07T09:02:34Z</time>
      </trkpt>
      <trkpt lat="59.3712418699" lon="18.1586961844">
        <ele>7.8</ele>
        <time>2011-05-07T09:02:35Z</time>
      </trkpt>
      <trkpt lat="59.371269614" lon="18.1588648282">
        <ele>8</ele>
        <time>2011-05-07T09:02:39Z</time>
      </trkpt>
      <trkpt lat="59.3714480646" lon="18.159044117">
        <ele>8</ele>
        <time>2011-05-07T09:02:46Z</time>
      </trkpt>
      <trkpt lat="59.3715437859" lon="18.1591062269">
        <ele>8</ele>
        <time>2011-05-07T09:02:52Z</time>
      </trkpt>
      <trkpt lat="59.3715548501" lon="18.1591230745">
        <ele>8</ele>
        <time>2011-05-07T09:02:53Z</time>
      </trkpt>
      <trkpt lat="59.371582678" lon="18.1592386609">
        <ele>8.2</ele>
        <time>2011-05-07T09:02:57Z</time>
      </trkpt>
      <trkpt lat="59.3715364099" lon="18.1594433469">
        <ele>8.2</ele>
        <time>2011-05-07T09:03:02Z</time>
      </trkpt>
      <trkpt lat="59.3715209034" lon="18.1594885254">
        <ele>8.2</ele>
        <time>2011-05-07T09:03:03Z</time>
      </trkpt>
      <trkpt lat="59.3715346497" lon="18.1597068739">
        <ele>8.2</ele>
        <time>2011-05-07T09:03:08Z</time>
      </trkpt>
      <trkpt lat="59.3715507429" lon="18.1597419102">
        <ele>8.2</ele>
        <time>2011-05-07T09:03:09Z</time>
      </trkpt>
      <trkpt lat="59.3716282755" lon="18.1598470192">
        <ele>8.2</ele>
        <time>2011-05-07T09:03:13Z</time>
      </trkpt>
      <trkpt lat="59.3717620506" lon="18.1597522199">
        <ele>8.2</ele>
        <time>2011-05-07T09:03:19Z</time>
      </trkpt>
      <trkpt lat="59.3718703448" lon="18.159660019">
        <ele>8.2</ele>
        <time>2011-05-07T09:03:24Z</time>
      </trkpt>
      <trkpt lat="59.3720426766" lon="18.1595621184">
        <ele>9</ele>
        <time>2011-05-07T09:03:32Z</time>
      </trkpt>
      <trkpt lat="59.3720590213" lon="18.1595553291">
        <ele>9</ele>
        <time>2011-05-07T09:03:33Z</time>
      </trkpt>
      <trkpt lat="59.3723985721" lon="18.1592933947">
        <ele>10</ele>
        <time>2011-05-07T09:03:50Z</time>
      </trkpt>
      <trkpt lat="59.3725245521" lon="18.1591782274">
        <ele>10</ele>
        <time>2011-05-07T09:03:55Z</time>
      </trkpt>
      <trkpt lat="59.3726527113" lon="18.1590074043">
        <ele>10</ele>
        <time>2011-05-07T09:04:00Z</time>
      </trkpt>
      <trkpt lat="59.3727486841" lon="18.1587497447">
        <ele>10.8</ele>
        <time>2011-05-07T09:04:06Z</time>
      </trkpt>
      <trkpt lat="59.3728775139" lon="18.1584733935">
        <ele>11.6</ele>
        <time>2011-05-07T09:04:12Z</time>
      </trkpt>
      <trkpt lat="59.3730129654" lon="18.1582402928">
        <ele>13</ele>
        <time>2011-05-07T09:04:18Z</time>
      </trkpt>
      <trkpt lat="59.3731618279" lon="18.1580340143">
        <ele>14.4</ele>
        <time>2011-05-07T09:04:24Z</time>
      </trkpt>
      <trkpt lat="59.3733194076" lon="18.1578118101">
        <ele>15.6</ele>
        <time>2011-05-07T09:04:30Z</time>
      </trkpt>
      <trkpt lat="59.3734432921" lon="18.1576735087">
        <ele>16.8</ele>
        <time>2011-05-07T09:04:35Z</time>
      </trkpt>
      <trkpt lat="59.3735976867" lon="18.1575100617">
        <ele>17.8</ele>
        <time>2011-05-07T09:04:42Z</time>
      </trkpt>
      <trkpt lat="59.3737504049" lon="18.1573560024">
        <ele>18.2</ele>
        <time>2011-05-07T09:04:49Z</time>
      </trkpt>
      <trkpt lat="59.3739040452" lon="18.1572575989">
        <ele>19.4</ele>
        <time>2011-05-07T09:04:56Z</time>
      </trkpt>
      <trkpt lat="59.3740622954" lon="18.1571589439">
        <ele>20</ele>
        <time>2011-05-07T09:05:02Z</time>
      </trkpt>
      <trkpt lat="59.374247284" lon="18.1570849317">
        <ele>20.4</ele>
        <time>2011-05-07T09:05:08Z</time>
      </trkpt>
      <trkpt lat="59.3744357929" lon="18.157064899">
        <ele>20.4</ele>
        <time>2011-05-07T09:05:14Z</time>
      </trkpt>
      <trkpt lat="59.3746285766" lon="18.1570058066">
        <ele>20.6</ele>
        <time>2011-05-07T09:05:20Z</time>
      </trkpt>
      <trkpt lat="59.3748086198" lon="18.1569451216">
        <ele>20.6</ele>
        <time>2011-05-07T09:05:26Z</time>
      </trkpt>
      <trkpt lat="59.374994698" lon="18.1569422718">
        <ele>20.6</ele>
        <time>2011-05-07T09:05:33Z</time>
      </trkpt>
      <trkpt lat="59.3750920957" lon="18.156941685">
        <ele>20.6</ele>
        <time>2011-05-07T09:05:37Z</time>
      </trkpt>
      <trkpt lat="59.3752557942" lon="18.1569149468">
        <ele>20.6</ele>
        <time>2011-05-07T09:05:44Z</time>
      </trkpt>
      <trkpt lat="59.3754007172" lon="18.1568528369">
        <ele>20.6</ele>
        <time>2011-05-07T09:05:50Z</time>
      </trkpt>
      <trkpt lat="59.3755727976" lon="18.1567628991">
        <ele>20.6</ele>
        <time>2011-05-07T09:05:57Z</time>
      </trkpt>
      <trkpt lat="59.3756213288" lon="18.1567416929">
        <ele>20.6</ele>
        <time>2011-05-07T09:05:59Z</time>
      </trkpt>
      <trkpt lat="59.3756142042" lon="18.1567422796">
        <ele>20.6</ele>
        <time>2011-05-07T09:06:02Z</time>
      </trkpt>
      <trkpt lat="59.375712021" lon="18.1565475681">
        <ele>20.6</ele>
        <time>2011-05-07T09:06:07Z</time>
      </trkpt>
      <trkpt lat="59.3758405155" lon="18.1563121205">
        <ele>20.6</ele>
        <time>2011-05-07T09:06:13Z</time>
      </trkpt>
      <trkpt lat="59.3759514919" lon="18.156168371">
        <ele>20</ele>
        <time>2011-05-07T09:06:18Z</time>
      </trkpt>
      <trkpt lat="59.3760037111" lon="18.1561179957">
        <ele>19.8</ele>
        <time>2011-05-07T09:06:20Z</time>
      </trkpt>
      <trkpt lat="59.3760881168" lon="18.1560918442">
        <ele>19.4</ele>
        <time>2011-05-07T09:06:23Z</time>
      </trkpt>
      <trkpt lat="59.3762523183" lon="18.1561612463">
        <ele>19</ele>
        <time>2011-05-07T09:06:29Z</time>
      </trkpt>
      <trkpt lat="59.3764424198" lon="18.1562614939">
        <ele>18.8</ele>
        <time>2011-05-07T09:06:36Z</time>
      </trkpt>
      <trkpt lat="59.3766031008" lon="18.1563430497">
        <ele>18.8</ele>
        <time>2011-05-07T09:06:42Z</time>
      </trkpt>
      <trkpt lat="59.3767533044" lon="18.156403148">
        <ele>18.8</ele>
        <time>2011-05-07T09:06:47Z</time>
      </trkpt>
      <trkpt lat="59.3768225389" lon="18.1564424591">
        <ele>18.8</ele>
        <time>2011-05-07T09:06:49Z</time>
      </trkpt>
      <trkpt lat="59.3768268137" lon="18.1565087599">
        <ele>18.6</ele>
        <time>2011-05-07T09:07:01Z</time>
      </trkpt>
      <trkpt lat="59.3768444157" lon="18.1565034793">
        <ele>19.4</ele>
        <time>2011-05-07T09:07:11Z</time>
      </trkpt>
      <trkpt lat="59.3769354431" lon="18.156507335">
        <ele>19.8</ele>
        <time>2011-05-07T09:07:15Z</time>
      </trkpt>
      <trkpt lat="59.3771440686" lon="18.1565682714">
        <ele>20.4</ele>
        <time>2011-05-07T09:07:21Z</time>
      </trkpt>
      <trkpt lat="59.3773358465" lon="18.1565951773">
        <ele>20.6</ele>
        <time>2011-05-07T09:07:27Z</time>
      </trkpt>
      <trkpt lat="59.3774444759" lon="18.1566193172">
        <ele>20.6</ele>
        <time>2011-05-07T09:07:31Z</time>
      </trkpt>
      <trkpt lat="59.3775987029" lon="18.1566604723">
        <ele>20.8</ele>
        <time>2011-05-07T09:07:37Z</time>
      </trkpt>
      <trkpt lat="59.3777729626" lon="18.1567443751">
        <ele>20.8</ele>
        <time>2011-05-07T09:07:44Z</time>
      </trkpt>
      <trkpt lat="59.3779414388" lon="18.156809251">
        <ele>20.8</ele>
        <time>2011-05-07T09:07:51Z</time>
      </trkpt>
      <trkpt lat="59.3780873676" lon="18.1568489812">
        <ele>20.8</ele>
        <time>2011-05-07T09:07:57Z</time>
      </trkpt>
      <trkpt lat="59.3782328774" lon="18.1568983506">
        <ele>20.8</ele>
        <time>2011-05-07T09:08:03Z</time>
      </trkpt>
      <trkpt lat="59.378359025" lon="18.1569328002">
        <ele>21.6</ele>
        <time>2011-05-07T09:08:08Z</time>
      </trkpt>
      <trkpt lat="59.3784824904" lon="18.1569689262">
        <ele>22.2</ele>
        <time>2011-05-07T09:08:13Z</time>
      </trkpt>
      <trkpt lat="59.3786094762" lon="18.156991725">
        <ele>22.4</ele>
        <time>2011-05-07T09:08:18Z</time>
      </trkpt>
      <trkpt lat="59.3787233024" lon="18.1567458">
        <ele>22.6</ele>
        <time>2011-05-07T09:08:24Z</time>
      </trkpt>
      <trkpt lat="59.3787826462" lon="18.156474897">
        <ele>22.8</ele>
        <time>2011-05-07T09:08:29Z</time>
      </trkpt>
      <trkpt lat="59.3788341111" lon="18.1561444825">
        <ele>22.8</ele>
        <time>2011-05-07T09:08:35Z</time>
      </trkpt>
      <trkpt lat="59.3789003281" lon="18.1558586597">
        <ele>22.8</ele>
        <time>2011-05-07T09:08:41Z</time>
      </trkpt>
      <trkpt lat="59.3789686406" lon="18.1556881719">
        <ele>22.8</ele>
        <time>2011-05-07T09:08:46Z</time>
      </trkpt>
      <trkpt lat="59.379053214" lon="18.155535286">
        <ele>22.8</ele>
        <time>2011-05-07T09:08:51Z</time>
      </trkpt>
      <trkpt lat="59.3791318362" lon="18.1553780416">
        <ele>22.8</ele>
        <time>2011-05-07T09:08:56Z</time>
      </trkpt>
      <trkpt lat="59.3791894198" lon="18.1553026883">
        <ele>22.8</ele>
        <time>2011-05-07T09:09:00Z</time>
      </trkpt>
      <trkpt lat="59.3792372805" lon="18.1552656403">
        <ele>22.8</ele>
        <time>2011-05-07T09:09:04Z</time>
      </trkpt>
      <trkpt lat="59.3792943612" lon="18.1552473678">
        <ele>22.8</ele>
        <time>2011-05-07T09:09:08Z</time>
      </trkpt>
      <trkpt lat="59.3793376118" lon="18.1552425901">
        <ele>22.8</ele>
        <time>2011-05-07T09:09:10Z</time>
      </trkpt>
      <trkpt lat="59.3794454869" lon="18.1551731041">
        <ele>22.8</ele>
        <time>2011-05-07T09:09:15Z</time>
      </trkpt>
      <trkpt lat="59.3794733148" lon="18.1551766245">
        <ele>22.8</ele>
        <time>2011-05-07T09:09:16Z</time>
      </trkpt>
      <trkpt lat="59.3795696228" lon="18.155189365">
        <ele>22.8</ele>
        <time>2011-05-07T09:09:20Z</time>
      </trkpt>
      <trkpt lat="59.3796474907" lon="18.155237561">
        <ele>23.6</ele>
        <time>2011-05-07T09:09:24Z</time>
      </trkpt>
      <trkpt lat="59.379802472" lon="18.1552275027">
        <ele>24.4</ele>
        <time>2011-05-07T09:09:32Z</time>
      </trkpt>
      <trkpt lat="59.3798555294" lon="18.1552212163">
        <ele>25</ele>
        <time>2011-05-07T09:09:35Z</time>
      </trkpt>
      <trkpt lat="59.379947898" lon="18.155194478">
        <ele>25.8</ele>
        <time>2011-05-07T09:09:40Z</time>
      </trkpt>
      <trkpt lat="59.3800237542" lon="18.1551538258">
        <ele>26.8</ele>
        <time>2011-05-07T09:09:45Z</time>
      </trkpt>
      <trkpt lat="59.3800406018" lon="18.1551472041">
        <ele>27</ele>
        <time>2011-05-07T09:09:46Z</time>
      </trkpt>
      <trkpt lat="59.3800711957" lon="18.1551380678">
        <ele>27.4</ele>
        <time>2011-05-07T09:09:48Z</time>
      </trkpt>
      <trkpt lat="59.3801485607" lon="18.1551511436">
        <ele>28.8</ele>
        <time>2011-05-07T09:09:53Z</time>
      </trkpt>
      <trkpt lat="59.3803112533" lon="18.1550923026">
        <ele>31.2</ele>
        <time>2011-05-07T09:10:01Z</time>
      </trkpt>
      <trkpt lat="59.3804633848" lon="18.1549639757">
        <ele>33</ele>
        <time>2011-05-07T09:10:07Z</time>
      </trkpt>
      <trkpt lat="59.3805729363" lon="18.1548456233">
        <ele>34.2</ele>
        <time>2011-05-07T09:10:12Z</time>
      </trkpt>
      <trkpt lat="59.3807018499" lon="18.1546727885">
        <ele>35.8</ele>
        <time>2011-05-07T09:10:18Z</time>
      </trkpt>
      <trkpt lat="59.3808618604" lon="18.1544610617">
        <ele>36.8</ele>
        <time>2011-05-07T09:10:24Z</time>
      </trkpt>
      <trkpt lat="59.3810088789" lon="18.1541764124">
        <ele>37.4</ele>
        <time>2011-05-07T09:10:30Z</time>
      </trkpt>
      <trkpt lat="59.3811279857" lon="18.1539668649">
        <ele>37.6</ele>
        <time>2011-05-07T09:10:35Z</time>
      </trkpt>
      <trkpt lat="59.3812853978" lon="18.1537661184">
        <ele>37.8</ele>
        <time>2011-05-07T09:10:41Z</time>
      </trkpt>
      <trkpt lat="59.3813957874" lon="18.1535234624">
        <ele>37.8</ele>
        <time>2011-05-07T09:10:46Z</time>
      </trkpt>
      <trkpt lat="59.3814139761" lon="18.1534729196">
        <ele>38</ele>
        <time>2011-05-07T09:10:47Z</time>
      </trkpt>
      <trkpt lat="59.3814668659" lon="18.1532125777">
        <ele>38</ele>
        <time>2011-05-07T09:10:52Z</time>
      </trkpt>
      <trkpt lat="59.3814796902" lon="18.1531557485">
        <ele>38</ele>
        <time>2011-05-07T09:10:53Z</time>
      </trkpt>
      <trkpt lat="59.3815485894" lon="18.1528519884">
        <ele>38</ele>
        <time>2011-05-07T09:10:58Z</time>
      </trkpt>
      <trkpt lat="59.381616399" lon="18.1524657504">
        <ele>38.8</ele>
        <time>2011-05-07T09:11:06Z</time>
      </trkpt>
      <trkpt lat="59.3816212605" lon="18.1524116034">
        <ele>38.8</ele>
        <time>2011-05-07T09:11:07Z</time>
      </trkpt>
      <trkpt lat="59.381639533" lon="18.1522132876">
        <ele>39.2</ele>
        <time>2011-05-07T09:11:11Z</time>
      </trkpt>
      <trkpt lat="59.3816476635" lon="18.1518759161">
        <ele>40</ele>
        <time>2011-05-07T09:11:17Z</time>
      </trkpt>
      <trkpt lat="59.3816637567" lon="18.1516092041">
        <ele>41</ele>
        <time>2011-05-07T09:11:22Z</time>
      </trkpt>
      <trkpt lat="59.3816671095" lon="18.1512340302">
        <ele>41.6</ele>
        <time>2011-05-07T09:11:29Z</time>
      </trkpt>
      <trkpt lat="59.3816610745" lon="18.1511384766">
        <ele>42.2</ele>
        <time>2011-05-07T09:11:31Z</time>
      </trkpt>
      <trkpt lat="59.381643724" lon="18.1508876063">
        <ele>43</ele>
        <time>2011-05-07T09:11:36Z</time>
      </trkpt>
      <trkpt lat="59.3816604878" lon="18.1506151946">
        <ele>43.6</ele>
        <time>2011-05-07T09:11:41Z</time>
      </trkpt>
      <trkpt lat="59.3816790118" lon="18.1504014561">
        <ele>43.8</ele>
        <time>2011-05-07T09:11:45Z</time>
      </trkpt>
      <trkpt lat="59.3817212566" lon="18.1502004582">
        <ele>44</ele>
        <time>2011-05-07T09:11:49Z</time>
      </trkpt>
      <trkpt lat="59.3817541974" lon="18.1500971093">
        <ele>44</ele>
        <time>2011-05-07T09:11:52Z</time>
      </trkpt>
      <trkpt lat="59.3818655091" lon="18.1498906631">
        <ele>44.2</ele>
        <time>2011-05-07T09:11:59Z</time>
      </trkpt>
      <trkpt lat="59.3819524294" lon="18.1497039982">
        <ele>44.2</ele>
        <time>2011-05-07T09:12:06Z</time>
      </trkpt>
      <trkpt lat="59.3819857055" lon="18.1496529524">
        <ele>44.2</ele>
        <time>2011-05-07T09:12:11Z</time>
      </trkpt>
      <trkpt lat="59.3821304609" lon="18.1495137291">
        <ele>40.2</ele>
        <time>2011-05-07T09:13:29Z</time>
      </trkpt>
      <trkpt lat="59.3822404314" lon="18.1493994">
        <ele>40.2</ele>
        <time>2011-05-07T09:13:34Z</time>
      </trkpt>
      <trkpt lat="59.3824215643" lon="18.1493921915">
        <ele>40</ele>
        <time>2011-05-07T09:13:40Z</time>
      </trkpt>
      <trkpt lat="59.3825375698" lon="18.1494253">
        <ele>40</ele>
        <time>2011-05-07T09:13:44Z</time>
      </trkpt>
      <trkpt lat="59.3826939761" lon="18.1493992323">
        <ele>40</ele>
        <time>2011-05-07T09:13:49Z</time>
      </trkpt>
      <trkpt lat="59.3827243185" lon="18.1494082848">
        <ele>40</ele>
        <time>2011-05-07T09:13:50Z</time>
      </trkpt>
      <trkpt lat="59.3828013482" lon="18.1492614339">
        <ele>40</ele>
        <time>2011-05-07T09:13:54Z</time>
      </trkpt>
      <trkpt lat="59.3828470296" lon="18.1488216356">
        <ele>39.4</ele>
        <time>2011-05-07T09:14:01Z</time>
      </trkpt>
      <trkpt lat="59.3828849996" lon="18.1485341364">
        <ele>38.8</ele>
        <time>2011-05-07T09:14:06Z</time>
      </trkpt>
      <trkpt lat="59.3829260709" lon="18.1481572862">
        <ele>38.4</ele>
        <time>2011-05-07T09:14:13Z</time>
      </trkpt>
      <trkpt lat="59.3829279987" lon="18.1480967689">
        <ele>38.4</ele>
        <time>2011-05-07T09:14:14Z</time>
      </trkpt>
      <trkpt lat="59.3829692377" lon="18.1477272947">
        <ele>38.4</ele>
        <time>2011-05-07T09:14:21Z</time>
      </trkpt>
      <trkpt lat="59.3829803018" lon="18.1474532904">
        <ele>39.2</ele>
        <time>2011-05-07T09:14:26Z</time>
      </trkpt>
      <trkpt lat="59.3830460997" lon="18.1470976464">
        <ele>40</ele>
        <time>2011-05-07T09:14:32Z</time>
      </trkpt>
      <trkpt lat="59.3831022584" lon="18.1467150127">
        <ele>41</ele>
        <time>2011-05-07T09:14:38Z</time>
      </trkpt>
      <trkpt lat="59.3830910267" lon="18.1464408407">
        <ele>41.8</ele>
        <time>2011-05-07T09:14:43Z</time>
      </trkpt>
      <trkpt lat="59.3829979038" lon="18.1461476419">
        <ele>42.8</ele>
        <time>2011-05-07T09:14:48Z</time>
      </trkpt>
      <trkpt lat="59.3829599337" lon="18.1458400261">
        <ele>43.4</ele>
        <time>2011-05-07T09:14:52Z</time>
      </trkpt>
      <trkpt lat="59.3829269091" lon="18.1455821989">
        <ele>43.6</ele>
        <time>2011-05-07T09:14:56Z</time>
      </trkpt>
      <trkpt lat="59.3828526454" lon="18.1453705559">
        <ele>43.8</ele>
        <time>2011-05-07T09:15:00Z</time>
      </trkpt>
      <trkpt lat="59.3828130829" lon="18.145100994">
        <ele>44</ele>
        <time>2011-05-07T09:15:05Z</time>
      </trkpt>
      <trkpt lat="59.3828809762" lon="18.1448734254">
        <ele>44.2</ele>
        <time>2011-05-07T09:15:09Z</time>
      </trkpt>
      <trkpt lat="59.3830388912" lon="18.1446993334">
        <ele>44.2</ele>
        <time>2011-05-07T09:15:14Z</time>
      </trkpt>
      <trkpt lat="59.3831544776" lon="18.1446412468">
        <ele>44.2</ele>
        <time>2011-05-07T09:15:18Z</time>
      </trkpt>
      <trkpt lat="59.3832564015" lon="18.144590201">
        <ele>44.6</ele>
        <time>2011-05-07T09:15:22Z</time>
      </trkpt>
      <trkpt lat="59.3834855627" lon="18.144611072">
        <ele>45.4</ele>
        <time>2011-05-07T09:15:28Z</time>
      </trkpt>
      <trkpt lat="59.3836524463" lon="18.1446293445">
        <ele>45.8</ele>
        <time>2011-05-07T09:15:32Z</time>
      </trkpt>
      <trkpt lat="59.383792005" lon="18.1446190348">
        <ele>46</ele>
        <time>2011-05-07T09:15:36Z</time>
      </trkpt>
      <trkpt lat="59.3839359222" lon="18.1445979962">
        <ele>46</ele>
        <time>2011-05-07T09:15:40Z</time>
      </trkpt>
      <trkpt lat="59.3841039793" lon="18.1445285102">
        <ele>46.2</ele>
        <time>2011-05-07T09:15:44Z</time>
      </trkpt>
      <trkpt lat="59.3842672587" lon="18.1444426796">
        <ele>45.6</ele>
        <time>2011-05-07T09:15:48Z</time>
      </trkpt>
      <trkpt lat="59.3843463838" lon="18.1443860179">
        <ele>45.4</ele>
        <time>2011-05-07T09:15:50Z</time>
      </trkpt>
      <trkpt lat="59.3844962522" lon="18.1442312881">
        <ele>45</ele>
        <time>2011-05-07T09:15:54Z</time>
      </trkpt>
      <trkpt lat="59.3847110803" lon="18.1440582018">
        <ele>43.8</ele>
        <time>2011-05-07T09:16:00Z</time>
      </trkpt>
      <trkpt lat="59.3848981643" lon="18.1439119377">
        <ele>43.2</ele>
        <time>2011-05-07T09:16:05Z</time>
      </trkpt>
      <trkpt lat="59.3850831528" lon="18.1438111872">
        <ele>42</ele>
        <time>2011-05-07T09:16:10Z</time>
      </trkpt>
      <trkpt lat="59.385230339" lon="18.1436976963">
        <ele>41.2</ele>
        <time>2011-05-07T09:16:14Z</time>
      </trkpt>
      <trkpt lat="59.3853878349" lon="18.1435263703">
        <ele>40.2</ele>
        <time>2011-05-07T09:16:19Z</time>
      </trkpt>
      <trkpt lat="59.3854798682" lon="18.1432802777">
        <ele>39.2</ele>
        <time>2011-05-07T09:16:24Z</time>
      </trkpt>
      <trkpt lat="59.3855247951" lon="18.1430409744">
        <ele>38.6</ele>
        <time>2011-05-07T09:16:29Z</time>
      </trkpt>
      <trkpt lat="59.385581373" lon="18.1427537267">
        <ele>38.2</ele>
        <time>2011-05-07T09:16:34Z</time>
      </trkpt>
      <trkpt lat="59.3856039203" lon="18.1425176086">
        <ele>38</ele>
        <time>2011-05-07T09:16:39Z</time>
      </trkpt>
      <trkpt lat="59.3856110449" lon="18.1424091468">
        <ele>38</ele>
        <time>2011-05-07T09:16:41Z</time>
      </trkpt>
      <trkpt lat="59.3856390404" lon="18.1421185464">
        <ele>38</ele>
        <time>2011-05-07T09:16:46Z</time>
      </trkpt>
      <trkpt lat="59.3856632641" lon="18.1417618965">
        <ele>37.8</ele>
        <time>2011-05-07T09:16:52Z</time>
      </trkpt>
      <trkpt lat="59.385713807" lon="18.1411098685">
        <ele>37.8</ele>
        <time>2011-05-07T09:17:02Z</time>
      </trkpt>
      <trkpt lat="59.3857319119" lon="18.1408565675">
        <ele>37.8</ele>
        <time>2011-05-07T09:17:06Z</time>
      </trkpt>
      <trkpt lat="59.3857419702" lon="18.1406614369">
        <ele>37.8</ele>
        <time>2011-05-07T09:17:09Z</time>
      </trkpt>
      <trkpt lat="59.3858250348" lon="18.1402979139">
        <ele>37.8</ele>
        <time>2011-05-07T09:17:15Z</time>
      </trkpt>
      <trkpt lat="59.38583283" lon="18.1402593571">
        <ele>37.8</ele>
        <time>2011-05-07T09:17:16Z</time>
      </trkpt>
      <trkpt lat="59.3858702971" lon="18.1400234066">
        <ele>37.8</ele>
        <time>2011-05-07T09:17:20Z</time>
      </trkpt>
      <trkpt lat="59.3859450636" lon="18.1396927407">
        <ele>38.4</ele>
        <time>2011-05-07T09:17:25Z</time>
      </trkpt>
      <trkpt lat="59.3860241049" lon="18.139386969">
        <ele>39</ele>
        <time>2011-05-07T09:17:30Z</time>
      </trkpt>
      <trkpt lat="59.386052771" lon="18.1391454864">
        <ele>39.2</ele>
        <time>2011-05-07T09:17:34Z</time>
      </trkpt>
      <trkpt lat="59.3860712112" lon="18.1389680416">
        <ele>40</ele>
        <time>2011-05-07T09:17:37Z</time>
      </trkpt>
      <trkpt lat="59.3861023081" lon="18.1386336876">
        <ele>40.8</ele>
        <time>2011-05-07T09:17:43Z</time>
      </trkpt>
      <trkpt lat="59.3861639988" lon="18.1382673148">
        <ele>41.4</ele>
        <time>2011-05-07T09:17:49Z</time>
      </trkpt>
      <trkpt lat="59.3861822714" lon="18.1379377385">
        <ele>42</ele>
        <time>2011-05-07T09:17:54Z</time>
      </trkpt>
      <trkpt lat="59.3861534376" lon="18.1376203159">
        <ele>42.8</ele>
        <time>2011-05-07T09:17:59Z</time>
      </trkpt>
      <trkpt lat="59.3861273699" lon="18.1373223394">
        <ele>43.4</ele>
        <time>2011-05-07T09:18:05Z</time>
      </trkpt>
      <trkpt lat="59.3861145456" lon="18.1371045776">
        <ele>43.4</ele>
        <time>2011-05-07T09:18:09Z</time>
      </trkpt>
      <trkpt lat="59.3861059123" lon="18.1367926033">
        <ele>43.6</ele>
        <time>2011-05-07T09:18:14Z</time>
      </trkpt>
      <trkpt lat="59.3860982847" lon="18.1365962992">
        <ele>44</ele>
        <time>2011-05-07T09:18:18Z</time>
      </trkpt>
      <trkpt lat="59.3860883103" lon="18.1365474327">
        <ele>44.2</ele>
        <time>2011-05-07T09:18:19Z</time>
      </trkpt>
      <trkpt lat="59.3860794255" lon="18.1362061217">
        <ele>45</ele>
        <time>2011-05-07T09:18:25Z</time>
      </trkpt>
      <trkpt lat="59.3860807666" lon="18.1361444309">
        <ele>45</ele>
        <time>2011-05-07T09:18:26Z</time>
      </trkpt>
      <trkpt lat="59.3860970275" lon="18.1359451932">
        <ele>45.4</ele>
        <time>2011-05-07T09:18:29Z</time>
      </trkpt>
      <trkpt lat="59.3861417868" lon="18.1356306205">
        <ele>45.6</ele>
        <time>2011-05-07T09:18:35Z</time>
      </trkpt>
      <trkpt lat="59.3861218379" lon="18.1352770719">
        <ele>46.6</ele>
        <time>2011-05-07T09:18:41Z</time>
      </trkpt>
      <trkpt lat="59.386172716" lon="18.1350063366">
        <ele>47.2</ele>
        <time>2011-05-07T09:18:46Z</time>
      </trkpt>
      <trkpt lat="59.3862769868" lon="18.13470836">
        <ele>47.6</ele>
        <time>2011-05-07T09:18:52Z</time>
      </trkpt>
      <trkpt lat="59.3863963451" lon="18.1343922786">
        <ele>48.6</ele>
        <time>2011-05-07T09:18:58Z</time>
      </trkpt>
      <trkpt lat="59.3865074891" lon="18.1338477903">
        <ele>49.6</ele>
        <time>2011-05-07T09:19:07Z</time>
      </trkpt>
      <trkpt lat="59.3865141946" lon="18.1336668251">
        <ele>49.8</ele>
        <time>2011-05-07T09:19:10Z</time>
      </trkpt>
      <trkpt lat="59.386459377" lon="18.1333630651">
        <ele>49.8</ele>
        <time>2011-05-07T09:19:15Z</time>
      </trkpt>
      <trkpt lat="59.3864278611" lon="18.1330284596">
        <ele>50</ele>
        <time>2011-05-07T09:19:19Z</time>
      </trkpt>
      <trkpt lat="59.386438087" lon="18.1327058403">
        <ele>50</ele>
        <time>2011-05-07T09:19:23Z</time>
      </trkpt>
      <trkpt lat="59.3864400986" lon="18.1324702251">
        <ele>50</ele>
        <time>2011-05-07T09:19:26Z</time>
      </trkpt>
      <trkpt lat="59.3864337284" lon="18.132317423">
        <ele>50</ele>
        <time>2011-05-07T09:19:28Z</time>
      </trkpt>
      <trkpt lat="59.3863406055" lon="18.1320460171">
        <ele>50</ele>
        <time>2011-05-07T09:19:33Z</time>
      </trkpt>
      <trkpt lat="59.3863081675" lon="18.1320028503">
        <ele>50</ele>
        <time>2011-05-07T09:19:34Z</time>
      </trkpt>
      <trkpt lat="59.3861606461" lon="18.1317528183">
        <ele>50.2</ele>
        <time>2011-05-07T09:19:39Z</time>
      </trkpt>
      <trkpt lat="59.3861119472" lon="18.1316395788">
        <ele>50.2</ele>
        <time>2011-05-07T09:19:41Z</time>
      </trkpt>
      <trkpt lat="59.3860727199" lon="18.131204642">
        <ele>50.2</ele>
        <time>2011-05-07T09:19:47Z</time>
      </trkpt>
      <trkpt lat="59.3860621588" lon="18.1308467349">
        <ele>50.2</ele>
        <time>2011-05-07T09:19:52Z</time>
      </trkpt>
      <trkpt lat="59.3861372606" lon="18.1306061743">
        <ele>50.2</ele>
        <time>2011-05-07T09:19:56Z</time>
      </trkpt>
      <trkpt lat="59.3861535215" lon="18.1305650192">
        <ele>50.2</ele>
        <time>2011-05-07T09:19:57Z</time>
      </trkpt>
      <trkpt lat="59.3861578801" lon="18.1301749256">
        <ele>50.2</ele>
        <time>2011-05-07T09:20:03Z</time>
      </trkpt>
      <trkpt lat="59.3861289625" lon="18.1298081336">
        <ele>50.2</ele>
        <time>2011-05-07T09:20:08Z</time>
      </trkpt>
      <trkpt lat="59.3861427088" lon="18.1294654816">
        <ele>50.2</ele>
        <time>2011-05-07T09:20:12Z</time>
      </trkpt>
      <trkpt lat="59.3861865461" lon="18.1292174611">
        <ele>50.2</ele>
        <time>2011-05-07T09:20:16Z</time>
      </trkpt>
      <trkpt lat="59.3862375081" lon="18.1290608873">
        <ele>50</ele>
        <time>2011-05-07T09:20:20Z</time>
      </trkpt>
      <trkpt lat="59.3862597201" lon="18.1288829395">
        <ele>49.2</ele>
        <time>2011-05-07T09:20:24Z</time>
      </trkpt>
      <trkpt lat="59.3861808465" lon="18.1285280499">
        <ele>48.4</ele>
        <time>2011-05-07T09:20:31Z</time>
      </trkpt>
      <trkpt lat="59.3861086783" lon="18.1281219468">
        <ele>47.4</ele>
        <time>2011-05-07T09:20:36Z</time>
      </trkpt>
      <trkpt lat="59.386124101" lon="18.1278339447">
        <ele>46.6</ele>
        <time>2011-05-07T09:20:40Z</time>
      </trkpt>
      <trkpt lat="59.3861950957" lon="18.1275610301">
        <ele>45.6</ele>
        <time>2011-05-07T09:20:45Z</time>
      </trkpt>
      <trkpt lat="59.3862384301" lon="18.1273797296">
        <ele>44.8</ele>
        <time>2011-05-07T09:20:49Z</time>
      </trkpt>
      <trkpt lat="59.3863007076" lon="18.127120645">
        <ele>43.8</ele>
        <time>2011-05-07T09:20:55Z</time>
      </trkpt>
      <trkpt lat="59.3863388453" lon="18.1269773146">
        <ele>43.2</ele>
        <time>2011-05-07T09:20:58Z</time>
      </trkpt>
      <trkpt lat="59.3864174675" lon="18.1267266957">
        <ele>42.6</ele>
        <time>2011-05-07T09:21:03Z</time>
      </trkpt>
      <trkpt lat="59.3864468041" lon="18.1266090139">
        <ele>42.4</ele>
        <time>2011-05-07T09:21:05Z</time>
      </trkpt>
      <trkpt lat="59.3865528352" lon="18.1263129652">
        <ele>42.2</ele>
        <time>2011-05-07T09:21:11Z</time>
      </trkpt>
      <trkpt lat="59.3866535018" lon="18.126132419">
        <ele>42</ele>
        <time>2011-05-07T09:21:16Z</time>
      </trkpt>
      <trkpt lat="59.3867338842" lon="18.1259149925">
        <ele>41.8</ele>
        <time>2011-05-07T09:21:21Z</time>
      </trkpt>
      <trkpt lat="59.3868037054" lon="18.1256259846">
        <ele>41.2</ele>
        <time>2011-05-07T09:21:26Z</time>
      </trkpt>
      <trkpt lat="59.3868778014" lon="18.1253687441">
        <ele>40.6</ele>
        <time>2011-05-07T09:21:31Z</time>
      </trkpt>
      <trkpt lat="59.3869793901" lon="18.1250839272">
        <ele>40.2</ele>
        <time>2011-05-07T09:21:36Z</time>
      </trkpt>
      <trkpt lat="59.3870861755" lon="18.1248477252">
        <ele>40</ele>
        <time>2011-05-07T09:21:40Z</time>
      </trkpt>
      <trkpt lat="59.3872008399" lon="18.1245393551">
        <ele>40</ele>
        <time>2011-05-07T09:21:46Z</time>
      </trkpt>
      <trkpt lat="59.387326736" lon="18.1242075157">
        <ele>39.2</ele>
        <time>2011-05-07T09:21:52Z</time>
      </trkpt>
      <trkpt lat="59.3873932883" lon="18.1239268897">
        <ele>38.8</ele>
        <time>2011-05-07T09:21:56Z</time>
      </trkpt>
      <trkpt lat="59.387487417" lon="18.1235992412">
        <ele>38.4</ele>
        <time>2011-05-07T09:22:01Z</time>
      </trkpt>
      <trkpt lat="59.3875887542" lon="18.1233082216">
        <ele>38</ele>
        <time>2011-05-07T09:22:06Z</time>
      </trkpt>
      <trkpt lat="59.3877348507" lon="18.1230726903">
        <ele>38</ele>
        <time>2011-05-07T09:22:11Z</time>
      </trkpt>
      <trkpt lat="59.3878585676" lon="18.1229446148">
        <ele>37.8</ele>
        <time>2011-05-07T09:22:15Z</time>
      </trkpt>
      <trkpt lat="59.3879768362" lon="18.1228472171">
        <ele>37.8</ele>
        <time>2011-05-07T09:22:19Z</time>
      </trkpt>
      <trkpt lat="59.3881521017" lon="18.1228453731">
        <ele>37.8</ele>
        <time>2011-05-07T09:22:25Z</time>
      </trkpt>
      <trkpt lat="59.3882666823" lon="18.1228480553">
        <ele>37.8</ele>
        <time>2011-05-07T09:22:29Z</time>
      </trkpt>
      <trkpt lat="59.3884109348" lon="18.1227706066">
        <ele>37.8</ele>
        <time>2011-05-07T09:22:34Z</time>
      </trkpt>
      <trkpt lat="59.3885173849" lon="18.1226216602">
        <ele>37.8</ele>
        <time>2011-05-07T09:22:38Z</time>
      </trkpt>
      <trkpt lat="59.3886374137" lon="18.1223334905">
        <ele>37.8</ele>
        <time>2011-05-07T09:22:44Z</time>
      </trkpt>
      <trkpt lat="59.3886913931" lon="18.1220466619">
        <ele>37.8</ele>
        <time>2011-05-07T09:22:48Z</time>
      </trkpt>
      <trkpt lat="59.3887077379" lon="18.1219755834">
        <ele>37.8</ele>
        <time>2011-05-07T09:22:49Z</time>
      </trkpt>
      <trkpt lat="59.3887906348" lon="18.1217339332">
        <ele>37.8</ele>
        <time>2011-05-07T09:22:53Z</time>
      </trkpt>
      <trkpt lat="59.3888823328" lon="18.1214217074">
        <ele>37.8</ele>
        <time>2011-05-07T09:22:58Z</time>
      </trkpt>
      <trkpt lat="59.3889870228" lon="18.1211340406">
        <ele>37.8</ele>
        <time>2011-05-07T09:23:03Z</time>
      </trkpt>
      <trkpt lat="59.3890812353" lon="18.1208503133">
        <ele>37.8</ele>
        <time>2011-05-07T09:23:08Z</time>
      </trkpt>
      <trkpt lat="59.389103615" lon="18.1206623073">
        <ele>37.4</ele>
        <time>2011-05-07T09:23:11Z</time>
      </trkpt>
      <trkpt lat="59.389058688" lon="18.1202739738">
        <ele>36.6</ele>
        <time>2011-05-07T09:23:17Z</time>
      </trkpt>
      <trkpt lat="59.3889949017" lon="18.1198908372">
        <ele>35.2</ele>
        <time>2011-05-07T09:23:23Z</time>
      </trkpt>
      <trkpt lat="59.3889306126" lon="18.1195553097">
        <ele>34</ele>
        <time>2011-05-07T09:23:28Z</time>
      </trkpt>
      <trkpt lat="59.3889196323" lon="18.1191673954">
        <ele>32.6</ele>
        <time>2011-05-07T09:23:33Z</time>
      </trkpt>
      <trkpt lat="59.3889543333" lon="18.1187885335">
        <ele>31.2</ele>
        <time>2011-05-07T09:23:38Z</time>
      </trkpt>
      <trkpt lat="59.3890349672" lon="18.1184634834">
        <ele>29.8</ele>
        <time>2011-05-07T09:23:43Z</time>
      </trkpt>
      <trkpt lat="59.3891228095" lon="18.1180794248">
        <ele>28.2</ele>
        <time>2011-05-07T09:23:49Z</time>
      </trkpt>
      <trkpt lat="59.389166144" lon="18.1176987189">
        <ele>26.8</ele>
        <time>2011-05-07T09:23:54Z</time>
      </trkpt>
      <trkpt lat="59.3892135017" lon="18.1170655502">
        <ele>24.4</ele>
        <time>2011-05-07T09:24:04Z</time>
      </trkpt>
      <trkpt lat="59.3892240629" lon="18.1168212178">
        <ele>23.8</ele>
        <time>2011-05-07T09:24:08Z</time>
      </trkpt>
      <trkpt lat="59.38924485" lon="18.1166459523">
        <ele>23.4</ele>
        <time>2011-05-07T09:24:12Z</time>
      </trkpt>
      <trkpt lat="59.3892330315" lon="18.1164164558">
        <ele>23.2</ele>
        <time>2011-05-07T09:24:16Z</time>
      </trkpt>
      <trkpt lat="59.3892387312" lon="18.1161423677">
        <ele>23</ele>
        <time>2011-05-07T09:24:21Z</time>
      </trkpt>
      <trkpt lat="59.3892525614" lon="18.1158983706">
        <ele>22.8</ele>
        <time>2011-05-07T09:24:26Z</time>
      </trkpt>
      <trkpt lat="59.3893001705" lon="18.1156310718">
        <ele>22.8</ele>
        <time>2011-05-07T09:24:32Z</time>
      </trkpt>
      <trkpt lat="59.389347193" lon="18.115339214">
        <ele>22.6</ele>
        <time>2011-05-07T09:24:38Z</time>
      </trkpt>
      <trkpt lat="59.3893886834" lon="18.1151302533">
        <ele>22.6</ele>
        <time>2011-05-07T09:24:43Z</time>
      </trkpt>
      <trkpt lat="59.3894867516" lon="18.1148703306">
        <ele>22.6</ele>
        <time>2011-05-07T09:24:50Z</time>
      </trkpt>
      <trkpt lat="59.389581048" lon="18.1146865155">
        <ele>22</ele>
        <time>2011-05-07T09:24:55Z</time>
      </trkpt>
      <trkpt lat="59.3896544735" lon="18.114422318">
        <ele>21.4</ele>
        <time>2011-05-07T09:25:01Z</time>
      </trkpt>
      <trkpt lat="59.3896939522" lon="18.1141667539">
        <ele>21.2</ele>
        <time>2011-05-07T09:25:06Z</time>
      </trkpt>
      <trkpt lat="59.3897197685" lon="18.1139038137">
        <ele>21</ele>
        <time>2011-05-07T09:25:11Z</time>
      </trkpt>
      <trkpt lat="59.3897203552" lon="18.1135987963">
        <ele>20.8</ele>
        <time>2011-05-07T09:25:17Z</time>
      </trkpt>
      <trkpt lat="59.3897368675" lon="18.1134193398">
        <ele>20.2</ele>
        <time>2011-05-07T09:25:21Z</time>
      </trkpt>
      <trkpt lat="59.3897745023" lon="18.1131840599">
        <ele>19.6</ele>
        <time>2011-05-07T09:25:26Z</time>
      </trkpt>
      <trkpt lat="59.3897726582" lon="18.1131470119">
        <ele>19.4</ele>
        <time>2011-05-07T09:25:27Z</time>
      </trkpt>
      <trkpt lat="59.3897156613" lon="18.1129708244">
        <ele>19.2</ele>
        <time>2011-05-07T09:25:31Z</time>
      </trkpt>
      <trkpt lat="59.3896747577" lon="18.1127483688">
        <ele>19</ele>
        <time>2011-05-07T09:25:35Z</time>
      </trkpt>
      <trkpt lat="59.389654222" lon="18.112573187">
        <ele>18.6</ele>
        <time>2011-05-07T09:25:38Z</time>
      </trkpt>
      <trkpt lat="59.3896187666" lon="18.1124850095">
        <ele>18.2</ele>
        <time>2011-05-07T09:25:40Z</time>
      </trkpt>
      <trkpt lat="59.3894451774" lon="18.1123549224">
        <ele>17.4</ele>
        <time>2011-05-07T09:25:46Z</time>
      </trkpt>
      <trkpt lat="59.3893105641" lon="18.1122690079">
        <ele>17</ele>
        <time>2011-05-07T09:25:50Z</time>
      </trkpt>
      <trkpt lat="59.3892315228" lon="18.1120499888">
        <ele>16.8</ele>
        <time>2011-05-07T09:25:54Z</time>
      </trkpt>
      <trkpt lat="59.3891466141" lon="18.1116371803">
        <ele>15.6</ele>
        <time>2011-05-07T09:26:01Z</time>
      </trkpt>
      <trkpt lat="59.3890928023" lon="18.1112931033">
        <ele>15</ele>
        <time>2011-05-07T09:26:07Z</time>
      </trkpt>
      <trkpt lat="59.389167066" lon="18.1110533809">
        <ele>14.8</ele>
        <time>2011-05-07T09:26:11Z</time>
      </trkpt>
      <trkpt lat="59.38924485" lon="18.1107693183">
        <ele>14.6</ele>
        <time>2011-05-07T09:26:16Z</time>
      </trkpt>
      <trkpt lat="59.389313833" lon="18.1104107407">
        <ele>14.6</ele>
        <time>2011-05-07T09:26:22Z</time>
      </trkpt>
      <trkpt lat="59.3893574189" lon="18.1100423562">
        <ele>14.4</ele>
        <time>2011-05-07T09:26:28Z</time>
      </trkpt>
      <trkpt lat="59.3894268211" lon="18.1097651667">
        <ele>14.4</ele>
        <time>2011-05-07T09:26:33Z</time>
      </trkpt>
      <trkpt lat="59.3895553994" lon="18.1096005462">
        <ele>14.4</ele>
        <time>2011-05-07T09:26:38Z</time>
      </trkpt>
      <trkpt lat="59.3897339339" lon="18.1095326528">
        <ele>14.4</ele>
        <time>2011-05-07T09:26:43Z</time>
      </trkpt>
      <trkpt lat="59.3898884123" lon="18.1095075071">
        <ele>14.4</ele>
        <time>2011-05-07T09:26:48Z</time>
      </trkpt>
      <trkpt lat="59.3899925155" lon="18.109418659">
        <ele>14.4</ele>
        <time>2011-05-07T09:26:52Z</time>
      </trkpt>
      <trkpt lat="59.3900373586" lon="18.1093092752">
        <ele>14.4</ele>
        <time>2011-05-07T09:26:55Z</time>
      </trkpt>
      <trkpt lat="59.3900565532" lon="18.1091684593">
        <ele>14.4</ele>
        <time>2011-05-07T09:26:59Z</time>
      </trkpt>
      <trkpt lat="59.3901482512" lon="18.1089044294">
        <ele>14.4</ele>
        <time>2011-05-07T09:27:05Z</time>
      </trkpt>
      <trkpt lat="59.3901574713" lon="18.108596646">
        <ele>14.4</ele>
        <time>2011-05-07T09:27:10Z</time>
      </trkpt>
      <trkpt lat="59.3901377738" lon="18.1084186145">
        <ele>14</ele>
        <time>2011-05-07T09:27:13Z</time>
      </trkpt>
      <trkpt lat="59.3901433897" lon="18.1080332985">
        <ele>13.2</ele>
        <time>2011-05-07T09:27:19Z</time>
      </trkpt>
      <trkpt lat="59.3901551243" lon="18.1076644111">
        <ele>12.8</ele>
        <time>2011-05-07T09:27:25Z</time>
      </trkpt>
      <trkpt lat="59.3901752409" lon="18.1073626627">
        <ele>12</ele>
        <time>2011-05-07T09:27:30Z</time>
      </trkpt>
      <trkpt lat="59.3901648473" lon="18.1070561366">
        <ele>11.4</ele>
        <time>2011-05-07T09:27:35Z</time>
      </trkpt>
      <trkpt lat="59.3901754924" lon="18.1067333497">
        <ele>11</ele>
        <time>2011-05-07T09:27:40Z</time>
      </trkpt>
      <trkpt lat="59.3902114507" lon="18.1063419988">
        <ele>10.6</ele>
        <time>2011-05-07T09:27:46Z</time>
      </trkpt>
      <trkpt lat="59.3901889034" lon="18.1060301921">
        <ele>10.6</ele>
        <time>2011-05-07T09:27:51Z</time>
      </trkpt>
      <trkpt lat="59.3901068446" lon="18.1056934073">
        <ele>10.4</ele>
        <time>2011-05-07T09:27:56Z</time>
      </trkpt>
      <trkpt lat="59.3900206787" lon="18.1054466442">
        <ele>10.4</ele>
        <time>2011-05-07T09:28:00Z</time>
      </trkpt>
      <trkpt lat="59.3899315791" lon="18.1051280482">
        <ele>10.4</ele>
        <time>2011-05-07T09:28:05Z</time>
      </trkpt>
      <trkpt lat="59.3899226104" lon="18.1050625017">
        <ele>10.4</ele>
        <time>2011-05-07T09:28:06Z</time>
      </trkpt>
      <trkpt lat="59.389947337" lon="18.104612729">
        <ele>10.4</ele>
        <time>2011-05-07T09:28:13Z</time>
      </trkpt>
      <trkpt lat="59.3898985544" lon="18.1044282434">
        <ele>10.4</ele>
        <time>2011-05-07T09:28:16Z</time>
      </trkpt>
      <trkpt lat="59.3897895897" lon="18.1041627886">
        <ele>10.4</ele>
        <time>2011-05-07T09:28:21Z</time>
      </trkpt>
      <trkpt lat="59.3897372866" lon="18.1039229824">
        <ele>10.4</ele>
        <time>2011-05-07T09:28:25Z</time>
      </trkpt>
      <trkpt lat="59.3897010768" lon="18.1036857747">
        <ele>10.4</ele>
        <time>2011-05-07T09:28:29Z</time>
      </trkpt>
      <trkpt lat="59.3896080377" lon="18.1035007861">
        <ele>10.4</ele>
        <time>2011-05-07T09:28:34Z</time>
      </trkpt>
      <trkpt lat="59.3895954649" lon="18.1034710304">
        <ele>10.4</ele>
        <time>2011-05-07T09:28:35Z</time>
      </trkpt>
      <trkpt lat="59.3894780345" lon="18.1032672664">
        <ele>11</ele>
        <time>2011-05-07T09:28:42Z</time>
      </trkpt>
      <trkpt lat="59.389459259" lon="18.103197529">
        <ele>11.2</ele>
        <time>2011-05-07T09:28:44Z</time>
      </trkpt>
      <trkpt lat="59.3893405713" lon="18.1029447309">
        <ele>11.8</ele>
        <time>2011-05-07T09:28:50Z</time>
      </trkpt>
      <trkpt lat="59.3892030243" lon="18.1027093671">
        <ele>13</ele>
        <time>2011-05-07T09:28:56Z</time>
      </trkpt>
      <trkpt lat="59.389175867" lon="18.1026796114">
        <ele>13.2</ele>
        <time>2011-05-07T09:28:57Z</time>
      </trkpt>
      <trkpt lat="59.3890430977" lon="18.1023927828">
        <ele>13.8</ele>
        <time>2011-05-07T09:29:03Z</time>
      </trkpt>
      <trkpt lat="59.3889468735" lon="18.1022085486">
        <ele>14.6</ele>
        <time>2011-05-07T09:29:08Z</time>
      </trkpt>
      <trkpt lat="59.3887882041" lon="18.1019632104">
        <ele>15.6</ele>
        <time>2011-05-07T09:29:15Z</time>
      </trkpt>
      <trkpt lat="59.3886948297" lon="18.1018186226">
        <ele>16.4</ele>
        <time>2011-05-07T09:29:20Z</time>
      </trkpt>
      <trkpt lat="59.3886157046" lon="18.1016277667">
        <ele>17.4</ele>
        <time>2011-05-07T09:29:25Z</time>
      </trkpt>
      <trkpt lat="59.3885951689" lon="18.1016027049">
        <ele>17.4</ele>
        <time>2011-05-07T09:29:26Z</time>
      </trkpt>
      <trkpt lat="59.3884768165" lon="18.1015305367">
        <ele>18.8</ele>
        <time>2011-05-07T09:29:31Z</time>
      </trkpt>
      <trkpt lat="59.3884005412" lon="18.1015063968">
        <ele>19.4</ele>
        <time>2011-05-07T09:29:34Z</time>
      </trkpt>
      <trkpt lat="59.3882255271" lon="18.1015946582">
        <ele>21.2</ele>
        <time>2011-05-07T09:29:41Z</time>
      </trkpt>
      <trkpt lat="59.3882023931" lon="18.1016085722">
        <ele>21.4</ele>
        <time>2011-05-07T09:29:42Z</time>
      </trkpt>
      <trkpt lat="59.3880610743" lon="18.101529028">
        <ele>22</ele>
        <time>2011-05-07T09:29:47Z</time>
      </trkpt>
      <trkpt lat="59.3879324959" lon="18.1013888826">
        <ele>22.4</ele>
        <time>2011-05-07T09:29:52Z</time>
      </trkpt>
      <trkpt lat="59.3878475873" lon="18.1013050636">
        <ele>22.6</ele>
        <time>2011-05-07T09:29:55Z</time>
      </trkpt>
      <trkpt lat="59.3876718188" lon="18.1013891341">
        <ele>22.8</ele>
        <time>2011-05-07T09:30:01Z</time>
      </trkpt>
      <trkpt lat="59.387635609" lon="18.1014055626">
        <ele>22.8</ele>
        <time>2011-05-07T09:30:02Z</time>
      </trkpt>
      <trkpt lat="59.3874129858" lon="18.101474378">
        <ele>22</ele>
        <time>2011-05-07T09:30:08Z</time>
      </trkpt>
      <trkpt lat="59.387274852" lon="18.1013788243">
        <ele>21.6</ele>
        <time>2011-05-07T09:30:12Z</time>
      </trkpt>
      <trkpt lat="59.3870995027" lon="18.1011489088">
        <ele>20.6</ele>
        <time>2011-05-07T09:30:17Z</time>
      </trkpt>
      <trkpt lat="59.3870017697" lon="18.1009940951">
        <ele>20</ele>
        <time>2011-05-07T09:30:20Z</time>
      </trkpt>
      <trkpt lat="59.3869077248" lon="18.1008303966">
        <ele>19.4</ele>
        <time>2011-05-07T09:30:23Z</time>
      </trkpt>
      <trkpt lat="59.3868232353" lon="18.1006863117">
        <ele>18.6</ele>
        <time>2011-05-07T09:30:26Z</time>
      </trkpt>
      <trkpt lat="59.3866954113" lon="18.1004329269">
        <ele>18</ele>
        <time>2011-05-07T09:30:31Z</time>
      </trkpt>
      <trkpt lat="59.3865713592" lon="18.1001108105">
        <ele>16.4</ele>
        <time>2011-05-07T09:30:37Z</time>
      </trkpt>
      <trkpt lat="59.3864669207" lon="18.0997560047">
        <ele>15.6</ele>
        <time>2011-05-07T09:30:43Z</time>
      </trkpt>
      <trkpt lat="59.386356112" lon="18.0995741174">
        <ele>14.4</ele>
        <time>2011-05-07T09:30:48Z</time>
      </trkpt>
      <trkpt lat="59.3861969397" lon="18.099384435">
        <ele>13.6</ele>
        <time>2011-05-07T09:30:53Z</time>
      </trkpt>
      <trkpt lat="59.386126867" lon="18.0991784079">
        <ele>12.8</ele>
        <time>2011-05-07T09:30:57Z</time>
      </trkpt>
      <trkpt lat="59.3860474904" lon="18.0989048227">
        <ele>11.8</ele>
        <time>2011-05-07T09:31:02Z</time>
      </trkpt>
      <trkpt lat="59.3859158946" lon="18.0986141384">
        <ele>11.2</ele>
        <time>2011-05-07T09:31:08Z</time>
      </trkpt>
      <trkpt lat="59.3858241966" lon="18.0983518688">
        <ele>11</ele>
        <time>2011-05-07T09:31:14Z</time>
      </trkpt>
      <trkpt lat="59.3857602427" lon="18.0980916946">
        <ele>10.8</ele>
        <time>2011-05-07T09:31:19Z</time>
      </trkpt>
      <trkpt lat="59.3857393718" lon="18.0978021838">
        <ele>10.6</ele>
        <time>2011-05-07T09:31:24Z</time>
      </trkpt>
      <trkpt lat="59.385728643" lon="18.0975309455">
        <ele>10.6</ele>
        <time>2011-05-07T09:31:29Z</time>
      </trkpt>
      <trkpt lat="59.385720764" lon="18.0974716855">
        <ele>10.6</ele>
        <time>2011-05-07T09:31:30Z</time>
      </trkpt>
      <trkpt lat="59.3856924331" lon="18.0973379941">
        <ele>10.6</ele>
        <time>2011-05-07T09:31:33Z</time>
      </trkpt>
      <trkpt lat="59.3856738253" lon="18.0972613836">
        <ele>10.6</ele>
        <time>2011-05-07T09:31:37Z</time>
      </trkpt>
      <trkpt lat="59.3856909244" lon="18.0971776484">
        <ele>10.6</ele>
        <time>2011-05-07T09:31:57Z</time>
      </trkpt>
      <trkpt lat="59.3857050898" lon="18.0971510778">
        <ele>10.6</ele>
        <time>2011-05-07T09:32:05Z</time>
      </trkpt>
      <trkpt lat="59.3856402977" lon="18.0970675102">
        <ele>10.6</ele>
        <time>2011-05-07T09:32:10Z</time>
      </trkpt>
      <trkpt lat="59.3856255456" lon="18.0970728746">
        <ele>10.6</ele>
        <time>2011-05-07T09:32:11Z</time>
      </trkpt>
      <trkpt lat="59.3855335961" lon="18.0971371638">
        <ele>10.6</ele>
        <time>2011-05-07T09:32:16Z</time>
      </trkpt>
      <trkpt lat="59.3854990627" lon="18.0971536762">
        <ele>10.6</ele>
        <time>2011-05-07T09:32:18Z</time>
      </trkpt>
      <trkpt lat="59.3854273136" lon="18.0972397583">
        <ele>10.6</ele>
        <time>2011-05-07T09:32:23Z</time>
      </trkpt>
      <trkpt lat="59.3853631921" lon="18.0972985154">
        <ele>11.4</ele>
        <time>2011-05-07T09:32:28Z</time>
      </trkpt>
      <trkpt lat="59.3853305865" lon="18.0973406764">
        <ele>11.6</ele>
        <time>2011-05-07T09:32:30Z</time>
      </trkpt>
      <trkpt lat="59.3852138267" lon="18.0974755411">
        <ele>12.6</ele>
        <time>2011-05-07T09:32:36Z</time>
      </trkpt>
      <trkpt lat="59.385142832" lon="18.0976037842">
        <ele>13.4</ele>
        <time>2011-05-07T09:32:40Z</time>
      </trkpt>
      <trkpt lat="59.3850304307" lon="18.0977689076">
        <ele>14.6</ele>
        <time>2011-05-07T09:32:45Z</time>
      </trkpt>
      <trkpt lat="59.384983995" lon="18.0977888565">
        <ele>15</ele>
        <time>2011-05-07T09:32:47Z</time>
      </trkpt>
      <trkpt lat="59.3848866811" lon="18.0977397386">
        <ele>16.8</ele>
        <time>2011-05-07T09:32:53Z</time>
      </trkpt>
      <trkpt lat="59.3848319473" lon="18.0977026906">
        <ele>18.2</ele>
        <time>2011-05-07T09:32:57Z</time>
      </trkpt>
      <trkpt lat="59.3847952346" lon="18.097679808">
        <ele>18.8</ele>
        <time>2011-05-07T09:32:59Z</time>
      </trkpt>
      <trkpt lat="59.3847310292" lon="18.0976483759">
        <ele>19.8</ele>
        <time>2011-05-07T09:33:02Z</time>
      </trkpt>
      <trkpt lat="59.3846514012" lon="18.0974816599">
        <ele>21</ele>
        <time>2011-05-07T09:33:07Z</time>
      </trkpt>
      <trkpt lat="59.3845505669" lon="18.0973156145">
        <ele>22.4</ele>
        <time>2011-05-07T09:33:12Z</time>
      </trkpt>
      <trkpt lat="59.3843638182" lon="18.0971737927">
        <ele>23.6</ele>
        <time>2011-05-07T09:33:18Z</time>
      </trkpt>
      <trkpt lat="59.3842852798" lon="18.0970406882">
        <ele>24</ele>
        <time>2011-05-07T09:33:21Z</time>
      </trkpt>
      <trkpt lat="59.3841521752" lon="18.0969455536">
        <ele>25.2</ele>
        <time>2011-05-07T09:33:26Z</time>
      </trkpt>
      <trkpt lat="59.3840384328" lon="18.0970144528">
        <ele>25.8</ele>
        <time>2011-05-07T09:33:30Z</time>
      </trkpt>
      <trkpt lat="59.3840121975" lon="18.0970439571">
        <ele>26</ele>
        <time>2011-05-07T09:33:31Z</time>
      </trkpt>
      <trkpt lat="59.3838927554" lon="18.0971846054">
        <ele>26.4</ele>
        <time>2011-05-07T09:33:36Z</time>
      </trkpt>
      <trkpt lat="59.383750766" lon="18.097318129">
        <ele>27.8</ele>
        <time>2011-05-07T09:33:42Z</time>
      </trkpt>
      <trkpt lat="59.3836770891" lon="18.0975161933">
        <ele>28.8</ele>
        <time>2011-05-07T09:33:47Z</time>
      </trkpt>
      <trkpt lat="59.3835350159" lon="18.0979103103">
        <ele>30.8</ele>
        <time>2011-05-07T09:33:57Z</time>
      </trkpt>
      <trkpt lat="59.3834687989" lon="18.0980867493">
        <ele>32</ele>
        <time>2011-05-07T09:34:02Z</time>
      </trkpt>
      <trkpt lat="59.3833800346" lon="18.0983458338">
        <ele>33.4</ele>
        <time>2011-05-07T09:34:08Z</time>
      </trkpt>
      <trkpt lat="59.3832931143" lon="18.0986310699">
        <ele>35</ele>
        <time>2011-05-07T09:34:14Z</time>
      </trkpt>
      <trkpt lat="59.3832428229" lon="18.0988745641">
        <ele>36.2</ele>
        <time>2011-05-07T09:34:19Z</time>
      </trkpt>
      <trkpt lat="59.3831614346" lon="18.0991586266">
        <ele>38</ele>
        <time>2011-05-07T09:34:25Z</time>
      </trkpt>
      <trkpt lat="59.3830602651" lon="18.0993470518">
        <ele>39.6</ele>
        <time>2011-05-07T09:34:30Z</time>
      </trkpt>
      <trkpt lat="59.3829865882" lon="18.0995413442">
        <ele>40.8</ele>
        <time>2011-05-07T09:34:35Z</time>
      </trkpt>
      <trkpt lat="59.3829308486" lon="18.099709988">
        <ele>42</ele>
        <time>2011-05-07T09:34:39Z</time>
      </trkpt>
      <trkpt lat="59.3828531483" lon="18.0999117404">
        <ele>43.2</ele>
        <time>2011-05-07T09:34:44Z</time>
      </trkpt>
      <trkpt lat="59.3827637135" lon="18.1000533107">
        <ele>44.4</ele>
        <time>2011-05-07T09:34:48Z</time>
      </trkpt>
      <trkpt lat="59.3826810679" lon="18.1001847388">
        <ele>45.4</ele>
        <time>2011-05-07T09:34:53Z</time>
      </trkpt>
      <trkpt lat="59.3826384879" lon="18.1002248043">
        <ele>45.8</ele>
        <time>2011-05-07T09:34:55Z</time>
      </trkpt>
      <trkpt lat="59.3826081454" lon="18.1002397241">
        <ele>46.4</ele>
        <time>2011-05-07T09:34:57Z</time>
      </trkpt>
      <trkpt lat="59.3825203869" lon="18.1003580765">
        <ele>47.4</ele>
        <time>2011-05-07T09:35:02Z</time>
      </trkpt>
      <trkpt lat="59.3824936486" lon="18.1003825517">
        <ele>47.4</ele>
        <time>2011-05-07T09:35:03Z</time>
      </trkpt>
      <trkpt lat="59.3824019507" lon="18.1004549713">
        <ele>47.8</ele>
        <time>2011-05-07T09:35:07Z</time>
      </trkpt>
      <trkpt lat="59.382286029" lon="18.1004970484">
        <ele>49</ele>
        <time>2011-05-07T09:35:12Z</time>
      </trkpt>
      <trkpt lat="59.3822655771" lon="18.1005005688">
        <ele>49.2</ele>
        <time>2011-05-07T09:35:13Z</time>
      </trkpt>
      <trkpt lat="59.3821832669" lon="18.1006853897">
        <ele>49.8</ele>
        <time>2011-05-07T09:35:18Z</time>
      </trkpt>
      <trkpt lat="59.3821116016" lon="18.1008988767">
        <ele>50.2</ele>
        <time>2011-05-07T09:35:22Z</time>
      </trkpt>
      <trkpt lat="59.3820934129" lon="18.1009486652">
        <ele>50.2</ele>
        <time>2011-05-07T09:35:23Z</time>
      </trkpt>
      <trkpt lat="59.381993333" lon="18.1011479868">
        <ele>50.4</ele>
        <time>2011-05-07T09:35:28Z</time>
      </trkpt>
      <trkpt lat="59.3818762379" lon="18.1013363281">
        <ele>50.6</ele>
        <time>2011-05-07T09:35:33Z</time>
      </trkpt>
      <trkpt lat="59.3818369268" lon="18.1014073228">
        <ele>50.6</ele>
        <time>2011-05-07T09:35:35Z</time>
      </trkpt>
      <trkpt lat="59.3817864677" lon="18.1016723585">
        <ele>50.6</ele>
        <time>2011-05-07T09:35:40Z</time>
      </trkpt>
      <trkpt lat="59.3817522696" lon="18.1019759509">
        <ele>50.8</ele>
        <time>2011-05-07T09:35:46Z</time>
      </trkpt>
      <trkpt lat="59.3817005533" lon="18.1022783698">
        <ele>50.8</ele>
        <time>2011-05-07T09:35:52Z</time>
      </trkpt>
      <trkpt lat="59.3816937639" lon="18.1023237997">
        <ele>50.8</ele>
        <time>2011-05-07T09:35:53Z</time>
      </trkpt>
      <trkpt lat="59.3816526926" lon="18.1026095387">
        <ele>50.8</ele>
        <time>2011-05-07T09:35:59Z</time>
      </trkpt>
      <trkpt lat="59.3815913371" lon="18.1028644323">
        <ele>50.4</ele>
        <time>2011-05-07T09:36:04Z</time>
      </trkpt>
      <trkpt lat="59.381463597" lon="18.1031116145">
        <ele>49.8</ele>
        <time>2011-05-07T09:36:09Z</time>
      </trkpt>
      <trkpt lat="59.3813293189" lon="18.1032520113">
        <ele>49</ele>
        <time>2011-05-07T09:36:13Z</time>
      </trkpt>
      <trkpt lat="59.3811719068" lon="18.1033828528">
        <ele>48</ele>
        <time>2011-05-07T09:36:18Z</time>
      </trkpt>
      <trkpt lat="59.3809685619" lon="18.1034913984">
        <ele>46.4</ele>
        <time>2011-05-07T09:36:24Z</time>
      </trkpt>
      <trkpt lat="59.3808031871" lon="18.1035520833">
        <ele>45.2</ele>
        <time>2011-05-07T09:36:29Z</time>
      </trkpt>
      <trkpt lat="59.3806374769" lon="18.1036271852">
        <ele>44</ele>
        <time>2011-05-07T09:36:34Z</time>
      </trkpt>
      <trkpt lat="59.3805332061" lon="18.1036878701">
        <ele>43</ele>
        <time>2011-05-07T09:36:38Z</time>
      </trkpt>
      <trkpt lat="59.3804176197" lon="18.1037308693">
        <ele>42</ele>
        <time>2011-05-07T09:36:42Z</time>
      </trkpt>
      <trkpt lat="59.3803633888" lon="18.1037346411">
        <ele>41.6</ele>
        <time>2011-05-07T09:36:44Z</time>
      </trkpt>
      <trkpt lat="59.3802867782" lon="18.1035108444">
        <ele>41</ele>
        <time>2011-05-07T09:36:49Z</time>
      </trkpt>
      <trkpt lat="59.3802707688" lon="18.103148914">
        <ele>40</ele>
        <time>2011-05-07T09:36:55Z</time>
      </trkpt>
      <trkpt lat="59.3802690924" lon="18.1028414659">
        <ele>39</ele>
        <time>2011-05-07T09:37:00Z</time>
      </trkpt>
      <trkpt lat="59.3801619717" lon="18.1025126439">
        <ele>37.8</ele>
        <time>2011-05-07T09:37:07Z</time>
      </trkpt>
      <trkpt lat="59.3800208205" lon="18.1022943793">
        <ele>37</ele>
        <time>2011-05-07T09:37:12Z</time>
      </trkpt>
      <trkpt lat="59.3798921583" lon="18.1021026852">
        <ele>35.8</ele>
        <time>2011-05-07T09:37:17Z</time>
      </trkpt>
      <trkpt lat="59.3797772425" lon="18.1019046209">
        <ele>35</ele>
        <time>2011-05-07T09:37:22Z</time>
      </trkpt>
      <trkpt lat="59.3796784199" lon="18.1016978394">
        <ele>33.8</ele>
        <time>2011-05-07T09:37:27Z</time>
      </trkpt>
      <trkpt lat="59.3795418787" lon="18.1015675847">
        <ele>33</ele>
        <time>2011-05-07T09:37:32Z</time>
      </trkpt>
      <trkpt lat="59.3794297289" lon="18.1015321293">
        <ele>31.8</ele>
        <time>2011-05-07T09:37:36Z</time>
      </trkpt>
      <trkpt lat="59.3793177467" lon="18.1015343086">
        <ele>31</ele>
        <time>2011-05-07T09:37:40Z</time>
      </trkpt>
      <trkpt lat="59.3791785234" lon="18.1015321293">
        <ele>29.6</ele>
        <time>2011-05-07T09:37:45Z</time>
      </trkpt>
      <trkpt lat="59.3789890924" lon="18.1015302852">
        <ele>28.4</ele>
        <time>2011-05-07T09:37:51Z</time>
      </trkpt>
      <trkpt lat="59.3788885096" lon="18.1015020382">
        <ele>27.2</ele>
        <time>2011-05-07T09:37:55Z</time>
      </trkpt>
      <trkpt lat="59.3787465203" lon="18.1014433649">
        <ele>26.6</ele>
        <time>2011-05-07T09:37:59Z</time>
      </trkpt>
      <trkpt lat="59.3786273296" lon="18.1013813389">
        <ele>25.8</ele>
        <time>2011-05-07T09:38:03Z</time>
      </trkpt>
      <trkpt lat="59.3784430117" lon="18.1013197319">
        <ele>24.8</ele>
        <time>2011-05-07T09:38:08Z</time>
      </trkpt>
      <trkpt lat="59.378411831" lon="18.1013090869">
        <ele>24.6</ele>
        <time>2011-05-07T09:38:09Z</time>
      </trkpt>
      <trkpt lat="59.3782287703" lon="18.1013747172">
        <ele>24</ele>
        <time>2011-05-07T09:38:15Z</time>
      </trkpt>
      <trkpt lat="59.3781349768" lon="18.1014965062">
        <ele>23.4</ele>
        <time>2011-05-07T09:38:19Z</time>
      </trkpt>
      <trkpt lat="59.3780507387" lon="18.1017406709">
        <ele>22.4</ele>
        <time>2011-05-07T09:38:24Z</time>
      </trkpt>
      <trkpt lat="59.3780152833" lon="18.1018472049">
        <ele>22.2</ele>
        <time>2011-05-07T09:38:26Z</time>
      </trkpt>
      <trkpt lat="59.3779461326" lon="18.1020406591">
        <ele>21.8</ele>
        <time>2011-05-07T09:38:30Z</time>
      </trkpt>
      <trkpt lat="59.3779026306" lon="18.1021905275">
        <ele>21.8</ele>
        <time>2011-05-07T09:38:33Z</time>
      </trkpt>
      <trkpt lat="59.3778675942" lon="18.1023981472">
        <ele>21.6</ele>
        <time>2011-05-07T09:38:37Z</time>
      </trkpt>
      <trkpt lat="59.3778333961" lon="18.1027095348">
        <ele>21.4</ele>
        <time>2011-05-07T09:38:42Z</time>
      </trkpt>
      <trkpt lat="59.3777615632" lon="18.1029931783">
        <ele>21.4</ele>
        <time>2011-05-07T09:38:47Z</time>
      </trkpt>
      <trkpt lat="59.3776027262" lon="18.1032101856">
        <ele>21.2</ele>
        <time>2011-05-07T09:38:53Z</time>
      </trkpt>
      <trkpt lat="59.3774410393" lon="18.1033936654">
        <ele>21.2</ele>
        <time>2011-05-07T09:38:59Z</time>
      </trkpt>
      <trkpt lat="59.3773437255" lon="18.1035859462">
        <ele>21.2</ele>
        <time>2011-05-07T09:39:04Z</time>
      </trkpt>
      <trkpt lat="59.3772367724" lon="18.1038241598">
        <ele>21.2</ele>
        <time>2011-05-07T09:39:10Z</time>
      </trkpt>
      <trkpt lat="59.3771294003" lon="18.1040101542">
        <ele>20.6</ele>
        <time>2011-05-07T09:39:15Z</time>
      </trkpt>
      <trkpt lat="59.3770128919" lon="18.1042102301">
        <ele>20</ele>
        <time>2011-05-07T09:39:20Z</time>
      </trkpt>
      <trkpt lat="59.3768659572" lon="18.1044370444">
        <ele>19.6</ele>
        <time>2011-05-07T09:39:26Z</time>
      </trkpt>
      <trkpt lat="59.3767253089" lon="18.1046876632">
        <ele>19.4</ele>
        <time>2011-05-07T09:39:32Z</time>
      </trkpt>
      <trkpt lat="59.3766330242" lon="18.1049055926">
        <ele>19.4</ele>
        <time>2011-05-07T09:39:37Z</time>
      </trkpt>
      <trkpt lat="59.3765311003" lon="18.1051464884">
        <ele>19.2</ele>
        <time>2011-05-07T09:39:42Z</time>
      </trkpt>
      <trkpt lat="59.3764527295" lon="18.1054187325">
        <ele>19.2</ele>
        <time>2011-05-07T09:39:47Z</time>
      </trkpt>
      <trkpt lat="59.3764230576" lon="18.1055935789">
        <ele>19</ele>
        <time>2011-05-07T09:39:50Z</time>
      </trkpt>
      <trkpt lat="59.3764272485" lon="18.1058930642">
        <ele>18.4</ele>
        <time>2011-05-07T09:39:55Z</time>
      </trkpt>
      <trkpt lat="59.3763734367" lon="18.106218701">
        <ele>17.8</ele>
        <time>2011-05-07T09:40:00Z</time>
      </trkpt>
      <trkpt lat="59.3762897015" lon="18.1064913642">
        <ele>17.6</ele>
        <time>2011-05-07T09:40:05Z</time>
      </trkpt>
      <trkpt lat="59.3761664038" lon="18.1067863233">
        <ele>17.4</ele>
        <time>2011-05-07T09:40:10Z</time>
      </trkpt>
      <trkpt lat="59.3760747058" lon="18.1069127223">
        <ele>17.4</ele>
        <time>2011-05-07T09:40:13Z</time>
      </trkpt>
      <trkpt lat="59.3758768091" lon="18.1069278936">
        <ele>17.2</ele>
        <time>2011-05-07T09:40:18Z</time>
      </trkpt>
      <trkpt lat="59.3756984423" lon="18.1070005646">
        <ele>17.2</ele>
        <time>2011-05-07T09:40:23Z</time>
      </trkpt>
      <trkpt lat="59.3756044812" lon="18.1071925102">
        <ele>17.2</ele>
        <time>2011-05-07T09:40:27Z</time>
      </trkpt>
      <trkpt lat="59.3755140405" lon="18.1075322286">
        <ele>17.2</ele>
        <time>2011-05-07T09:40:33Z</time>
      </trkpt>
      <trkpt lat="59.3754643359" lon="18.1077737111">
        <ele>17.2</ele>
        <time>2011-05-07T09:40:37Z</time>
      </trkpt>
      <trkpt lat="59.3754012201" lon="18.1081429338">
        <ele>17.2</ele>
        <time>2011-05-07T09:40:43Z</time>
      </trkpt>
      <trkpt lat="59.3753464863" lon="18.1084492922">
        <ele>17.2</ele>
        <time>2011-05-07T09:40:48Z</time>
      </trkpt>
      <trkpt lat="59.3753012241" lon="18.1086745139">
        <ele>17.2</ele>
        <time>2011-05-07T09:40:52Z</time>
      </trkpt>
      <trkpt lat="59.3752661877" lon="18.1088317583">
        <ele>17.2</ele>
        <time>2011-05-07T09:40:57Z</time>
      </trkpt>
      <trkpt lat="59.3752602366" lon="18.1088387153">
        <ele>16.4</ele>
        <time>2011-05-07T09:41:04Z</time>
      </trkpt>
      <trkpt lat="59.3752935127" lon="18.1089007414">
        <ele>13.4</ele>
        <time>2011-05-07T09:41:45Z</time>
      </trkpt>
      <trkpt lat="59.3753040739" lon="18.1089052676">
        <ele>13.2</ele>
        <time>2011-05-07T09:41:52Z</time>
      </trkpt>
      <trkpt lat="59.3753029843" lon="18.1089196007">
        <ele>13</ele>
        <time>2011-05-07T09:42:06Z</time>
      </trkpt>
      <trkpt lat="59.3752386951" lon="18.1090849755">
        <ele>13</ele>
        <time>2011-05-07T09:42:11Z</time>
      </trkpt>
      <trkpt lat="59.3751857215" lon="18.109220427">
        <ele>12.6</ele>
        <time>2011-05-07T09:42:14Z</time>
      </trkpt>
      <trkpt lat="59.375171137" lon="18.1092768372">
        <ele>12.4</ele>
        <time>2011-05-07T09:42:15Z</time>
      </trkpt>
      <trkpt lat="59.3751197559" lon="18.1095063337">
        <ele>12</ele>
        <time>2011-05-07T09:42:19Z</time>
      </trkpt>
      <trkpt lat="59.375022945" lon="18.1098059866">
        <ele>11.6</ele>
        <time>2011-05-07T09:42:24Z</time>
      </trkpt>
      <trkpt lat="59.3749440713" lon="18.1100069007">
        <ele>11.4</ele>
        <time>2011-05-07T09:42:28Z</time>
      </trkpt>
      <trkpt lat="59.3748716517" lon="18.1102192981">
        <ele>11.2</ele>
        <time>2011-05-07T09:42:33Z</time>
      </trkpt>
      <trkpt lat="59.3747765171" lon="18.1104404964">
        <ele>11.2</ele>
        <time>2011-05-07T09:42:37Z</time>
      </trkpt>
      <trkpt lat="59.374701583" lon="18.1106790453">
        <ele>11.2</ele>
        <time>2011-05-07T09:42:41Z</time>
      </trkpt>
      <trkpt lat="59.3745994076" lon="18.1110346055">
        <ele>11</ele>
        <time>2011-05-07T09:42:47Z</time>
      </trkpt>
      <trkpt lat="59.3745704062" lon="18.1111921852">
        <ele>11</ele>
        <time>2011-05-07T09:42:50Z</time>
      </trkpt>
      <trkpt lat="59.3744331107" lon="18.1114643455">
        <ele>11</ele>
        <time>2011-05-07T09:42:56Z</time>
      </trkpt>
      <trkpt lat="59.3744233039" lon="18.1115210071">
        <ele>11</ele>
        <time>2011-05-07T09:42:57Z</time>
      </trkpt>
      <trkpt lat="59.3743776225" lon="18.111833652">
        <ele>11</ele>
        <time>2011-05-07T09:43:03Z</time>
      </trkpt>
      <trkpt lat="59.3743581765" lon="18.1120601309">
        <ele>11</ele>
        <time>2011-05-07T09:43:07Z</time>
      </trkpt>
      <trkpt lat="59.3743221343" lon="18.1122815807">
        <ele>11</ele>
        <time>2011-05-07T09:43:11Z</time>
      </trkpt>
      <trkpt lat="59.3742590186" lon="18.1125729356">
        <ele>11</ele>
        <time>2011-05-07T09:43:16Z</time>
      </trkpt>
      <trkpt lat="59.3741541611" lon="18.1129124025">
        <ele>11</ele>
        <time>2011-05-07T09:43:22Z</time>
      </trkpt>
      <trkpt lat="59.3740440229" lon="18.1132185095">
        <ele>11</ele>
        <time>2011-05-07T09:43:28Z</time>
      </trkpt>
      <trkpt lat="59.3739493912" lon="18.1135228563">
        <ele>11</ele>
        <time>2011-05-07T09:43:34Z</time>
      </trkpt>
      <trkpt lat="59.3738535861" lon="18.1138533546">
        <ele>11</ele>
        <time>2011-05-07T09:43:40Z</time>
      </trkpt>
      <trkpt lat="59.373760547" lon="18.1141709448">
        <ele>11.8</ele>
        <time>2011-05-07T09:43:46Z</time>
      </trkpt>
      <trkpt lat="59.3737509917" lon="18.1142238346">
        <ele>12</ele>
        <time>2011-05-07T09:43:47Z</time>
      </trkpt>
      <trkpt lat="59.3736511632" lon="18.1142572784">
        <ele>12.4</ele>
        <time>2011-05-07T09:43:51Z</time>
      </trkpt>
      <trkpt lat="59.373620234" lon="18.1142175482">
        <ele>12.4</ele>
        <time>2011-05-07T09:43:52Z</time>
      </trkpt>
      <trkpt lat="59.3734752272" lon="18.1140632374">
        <ele>12.8</ele>
        <time>2011-05-07T09:43:58Z</time>
      </trkpt>
      <trkpt lat="59.3734357484" lon="18.1140526762">
        <ele>12.8</ele>
        <time>2011-05-07T09:43:59Z</time>
      </trkpt>
      <trkpt lat="59.3733531029" lon="18.114138004">
        <ele>12.8</ele>
        <time>2011-05-07T09:44:02Z</time>
      </trkpt>
      <trkpt lat="59.3733356685" lon="18.1141937436">
        <ele>13</ele>
        <time>2011-05-07T09:44:03Z</time>
      </trkpt>
      <trkpt lat="59.3732463175" lon="18.114333386">
        <ele>13.2</ele>
        <time>2011-05-07T09:44:06Z</time>
      </trkpt>
      <trkpt lat="59.3730559645" lon="18.114225511">
        <ele>14</ele>
        <time>2011-05-07T09:44:11Z</time>
      </trkpt>
      <trkpt lat="59.3729094489" lon="18.1140975194">
        <ele>14.4</ele>
        <time>2011-05-07T09:44:15Z</time>
      </trkpt>
      <trkpt lat="59.3728029988" lon="18.1139931647">
        <ele>14.6</ele>
        <time>2011-05-07T09:44:18Z</time>
      </trkpt>
      <trkpt lat="59.3727681301" lon="18.1139681867">
        <ele>14.6</ele>
        <time>2011-05-07T09:44:19Z</time>
      </trkpt>
      <trkpt lat="59.3727029189" lon="18.1139380118">
        <ele>14.8</ele>
        <time>2011-05-07T09:44:21Z</time>
      </trkpt>
      <trkpt lat="59.3725642823" lon="18.1140943343">
        <ele>15</ele>
        <time>2011-05-07T09:44:27Z</time>
      </trkpt>
      <trkpt lat="59.3725321796" lon="18.114187541">
        <ele>15</ele>
        <time>2011-05-07T09:44:29Z</time>
      </trkpt>
      <trkpt lat="59.3724837322" lon="18.1142906384">
        <ele>15</ele>
        <time>2011-05-07T09:44:32Z</time>
      </trkpt>
      <trkpt lat="59.3724038527" lon="18.1144960787">
        <ele>15.2</ele>
        <time>2011-05-07T09:44:37Z</time>
      </trkpt>
      <trkpt lat="59.3723149207" lon="18.114711745">
        <ele>15.2</ele>
        <time>2011-05-07T09:44:42Z</time>
      </trkpt>
      <trkpt lat="59.3722099794" lon="18.1149933768">
        <ele>15.2</ele>
        <time>2011-05-07T09:44:48Z</time>
      </trkpt>
      <trkpt lat="59.3721389847" lon="18.1152490248">
        <ele>15.2</ele>
        <time>2011-05-07T09:44:53Z</time>
      </trkpt>
      <trkpt lat="59.3721043674" lon="18.1154822093">
        <ele>15.2</ele>
        <time>2011-05-07T09:44:57Z</time>
      </trkpt>
      <trkpt lat="59.3720431795" lon="18.1156866438">
        <ele>15.2</ele>
        <time>2011-05-07T09:45:01Z</time>
      </trkpt>
      <trkpt lat="59.3719995937" lon="18.1158374342">
        <ele>15.2</ele>
        <time>2011-05-07T09:45:05Z</time>
      </trkpt>
      <trkpt lat="59.3719360589" lon="18.1159702873">
        <ele>15.2</ele>
        <time>2011-05-07T09:45:09Z</time>
      </trkpt>
      <trkpt lat="59.3719250786" lon="18.1160011327">
        <ele>15.2</ele>
        <time>2011-05-07T09:45:10Z</time>
      </trkpt>
      <trkpt lat="59.3718278485" lon="18.1162680962">
        <ele>15.2</ele>
        <time>2011-05-07T09:45:15Z</time>
      </trkpt>
      <trkpt lat="59.3717541716" lon="18.1165620494">
        <ele>15.2</ele>
        <time>2011-05-07T09:45:21Z</time>
      </trkpt>
      <trkpt lat="59.3716912236" lon="18.1167542464">
        <ele>15.8</ele>
        <time>2011-05-07T09:45:25Z</time>
      </trkpt>
      <trkpt lat="59.3716077398" lon="18.1169943878">
        <ele>16.4</ele>
        <time>2011-05-07T09:45:30Z</time>
      </trkpt>
      <trkpt lat="59.3714836877" lon="18.117111483">
        <ele>17</ele>
        <time>2011-05-07T09:45:35Z</time>
      </trkpt>
      <trkpt lat="59.3712952626" lon="18.1170797994">
        <ele>17.8</ele>
        <time>2011-05-07T09:45:40Z</time>
      </trkpt>
      <trkpt lat="59.3711151356" lon="18.1169802224">
        <ele>18.6</ele>
        <time>2011-05-07T09:45:45Z</time>
      </trkpt>
      <trkpt lat="59.3709237768" lon="18.1169021869">
        <ele>20</ele>
        <time>2011-05-07T09:45:51Z</time>
      </trkpt>
      <trkpt lat="59.3708608287" lon="18.1168680726">
        <ele>20.2</ele>
        <time>2011-05-07T09:45:53Z</time>
      </trkpt>
      <trkpt lat="59.3707267183" lon="18.1169689907">
        <ele>21</ele>
        <time>2011-05-07T09:45:58Z</time>
      </trkpt>
      <trkpt lat="59.3705938652" lon="18.1171352876">
        <ele>22</ele>
        <time>2011-05-07T09:46:03Z</time>
      </trkpt>
      <trkpt lat="59.3704797876" lon="18.1173664604">
        <ele>22.6</ele>
        <time>2011-05-07T09:46:08Z</time>
      </trkpt>
      <trkpt lat="59.3703702361" lon="18.1176896664">
        <ele>23</ele>
        <time>2011-05-07T09:46:14Z</time>
      </trkpt>
      <trkpt lat="59.3702936256" lon="18.1179264551">
        <ele>23.2</ele>
        <time>2011-05-07T09:46:18Z</time>
      </trkpt>
      <trkpt lat="59.3702039392" lon="18.1182036445">
        <ele>23.2</ele>
        <time>2011-05-07T09:46:23Z</time>
      </trkpt>
      <trkpt lat="59.3701170189" lon="18.1185487274">
        <ele>23.4</ele>
        <time>2011-05-07T09:46:29Z</time>
      </trkpt>
      <trkpt lat="59.3701000875" lon="18.1189099034">
        <ele>23.4</ele>
        <time>2011-05-07T09:46:35Z</time>
      </trkpt>
      <trkpt lat="59.370122551" lon="18.1192628653">
        <ele>23.4</ele>
        <time>2011-05-07T09:46:41Z</time>
      </trkpt>
      <trkpt lat="59.3701434219" lon="18.1196234546">
        <ele>23.4</ele>
        <time>2011-05-07T09:46:47Z</time>
      </trkpt>
      <trkpt lat="59.3701585093" lon="18.119890921">
        <ele>23.4</ele>
        <time>2011-05-07T09:46:52Z</time>
      </trkpt>
      <trkpt lat="59.3701608563" lon="18.1202193239">
        <ele>23.4</ele>
        <time>2011-05-07T09:46:58Z</time>
      </trkpt>
      <trkpt lat="59.3701088047" lon="18.1203830224">
        <ele>23.4</ele>
        <time>2011-05-07T09:47:03Z</time>
      </trkpt>
      <trkpt lat="59.3700744389" lon="18.1206423584">
        <ele>23.4</ele>
        <time>2011-05-07T09:47:08Z</time>
      </trkpt>
      <trkpt lat="59.3700558311" lon="18.120744869">
        <ele>23.4</ele>
        <time>2011-05-07T09:47:10Z</time>
      </trkpt>
      <trkpt lat="59.369947034" lon="18.1207830905">
        <ele>23.4</ele>
        <time>2011-05-07T09:47:14Z</time>
      </trkpt>
      <trkpt lat="59.3699145122" lon="18.1207618004">
        <ele>23.4</ele>
        <time>2011-05-07T09:47:15Z</time>
      </trkpt>
      <trkpt lat="59.3698840859" lon="18.1207443661">
        <ele>23.4</ele>
        <time>2011-05-07T09:47:16Z</time>
      </trkpt>
      <trkpt lat="59.3696746222" lon="18.1207814141">
        <ele>23.4</ele>
        <time>2011-05-07T09:47:23Z</time>
      </trkpt>
      <trkpt lat="59.3695128516" lon="18.1207845992">
        <ele>23.2</ele>
        <time>2011-05-07T09:47:28Z</time>
      </trkpt>
      <trkpt lat="59.3693515838" lon="18.1207783128">
        <ele>22.4</ele>
        <time>2011-05-07T09:47:33Z</time>
      </trkpt>
      <trkpt lat="59.3691821856" lon="18.1206658277">
        <ele>22</ele>
        <time>2011-05-07T09:47:38Z</time>
      </trkpt>
      <trkpt lat="59.3690740591" lon="18.1204893887">
        <ele>21.4</ele>
        <time>2011-05-07T09:47:42Z</time>
      </trkpt>
      <trkpt lat="59.3688345882" lon="18.1199930964">
        <ele>20</ele>
        <time>2011-05-07T09:47:52Z</time>
      </trkpt>
      <trkpt lat="59.3687049202" lon="18.1196739974">
        <ele>19.6</ele>
        <time>2011-05-07T09:47:58Z</time>
      </trkpt>
      <trkpt lat="59.3685900044" lon="18.1193984006">
        <ele>18.6</ele>
        <time>2011-05-07T09:48:03Z</time>
      </trkpt>
      <trkpt lat="59.3684754238" lon="18.1191422497">
        <ele>18</ele>
        <time>2011-05-07T09:48:08Z</time>
      </trkpt>
      <trkpt lat="59.3683732485" lon="18.1188948998">
        <ele>17.6</ele>
        <time>2011-05-07T09:48:13Z</time>
      </trkpt>
      <trkpt lat="59.368258165" lon="18.118650316">
        <ele>17.4</ele>
        <time>2011-05-07T09:48:18Z</time>
      </trkpt>
      <trkpt lat="59.3681398964" lon="18.118364577">
        <ele>17.4</ele>
        <time>2011-05-07T09:48:24Z</time>
      </trkpt>
      <trkpt lat="59.3680083843" lon="18.1180637506">
        <ele>17.2</ele>
        <time>2011-05-07T09:48:31Z</time>
      </trkpt>
      <trkpt lat="59.3679106514" lon="18.1177454899">
        <ele>17.2</ele>
        <time>2011-05-07T09:48:37Z</time>
      </trkpt>
      <trkpt lat="59.367841836" lon="18.1175391275">
        <ele>17.2</ele>
        <time>2011-05-07T09:48:41Z</time>
      </trkpt>
      <trkpt lat="59.3677730206" lon="18.1172601779">
        <ele>17.2</ele>
        <time>2011-05-07T09:48:46Z</time>
      </trkpt>
      <trkpt lat="59.3676659837" lon="18.117054067">
        <ele>17.2</ele>
        <time>2011-05-07T09:48:51Z</time>
      </trkpt>
      <trkpt lat="59.3675561808" lon="18.1169810606">
        <ele>17.2</ele>
        <time>2011-05-07T09:48:55Z</time>
      </trkpt>
      <trkpt lat="59.3674040494" lon="18.1167804817">
        <ele>17.2</ele>
        <time>2011-05-07T09:49:00Z</time>
      </trkpt>
      <trkpt lat="59.3672619761" lon="18.1165579423">
        <ele>17.2</ele>
        <time>2011-05-07T09:49:05Z</time>
      </trkpt>
      <trkpt lat="59.3672343159" lon="18.1165154461">
        <ele>17.2</ele>
        <time>2011-05-07T09:49:06Z</time>
      </trkpt>
      <trkpt lat="59.3671294583" lon="18.1163604647">
        <ele>17.2</ele>
        <time>2011-05-07T09:49:10Z</time>
      </trkpt>
      <trkpt lat="59.3669955994" lon="18.1161504981">
        <ele>17.2</ele>
        <time>2011-05-07T09:49:15Z</time>
      </trkpt>
      <trkpt lat="59.3668907418" lon="18.1159981152">
        <ele>17.2</ele>
        <time>2011-05-07T09:49:19Z</time>
      </trkpt>
      <trkpt lat="59.3667298093" lon="18.1157834547">
        <ele>17.2</ele>
        <time>2011-05-07T09:49:25Z</time>
      </trkpt>
      <trkpt lat="59.3665525321" lon="18.1155751645">
        <ele>17.8</ele>
        <time>2011-05-07T09:49:31Z</time>
      </trkpt>
      <trkpt lat="59.3663600837" lon="18.1153817103">
        <ele>18.4</ele>
        <time>2011-05-07T09:49:37Z</time>
      </trkpt>
      <trkpt lat="59.3661926972" lon="18.1152344403">
        <ele>18.8</ele>
        <time>2011-05-07T09:49:42Z</time>
      </trkpt>
      <trkpt lat="59.3660449243" lon="18.1151191053">
        <ele>19</ele>
        <time>2011-05-07T09:49:47Z</time>
      </trkpt>
      <trkpt lat="59.3658979896" lon="18.1150186902">
        <ele>19.2</ele>
        <time>2011-05-07T09:49:52Z</time>
      </trkpt>
      <trkpt lat="59.3657591853" lon="18.114932189">
        <ele>19.2</ele>
        <time>2011-05-07T09:49:57Z</time>
      </trkpt>
      <trkpt lat="59.3656072215" lon="18.1148660558">
        <ele>19.2</ele>
        <time>2011-05-07T09:50:02Z</time>
      </trkpt>
      <trkpt lat="59.3654586104" lon="18.1148000064">
        <ele>19.2</ele>
        <time>2011-05-07T09:50:07Z</time>
      </trkpt>
      <trkpt lat="59.3652709396" lon="18.1147319454">
        <ele>19.2</ele>
        <time>2011-05-07T09:50:13Z</time>
      </trkpt>
      <trkpt lat="59.3650654993" lon="18.1146734397">
        <ele>19.2</ele>
        <time>2011-05-07T09:50:19Z</time>
      </trkpt>
      <trkpt lat="59.3648636631" lon="18.1146306082">
        <ele>19.2</ele>
        <time>2011-05-07T09:50:25Z</time>
      </trkpt>
      <trkpt lat="59.3646744836" lon="18.1145845078">
        <ele>19.2</ele>
        <time>2011-05-07T09:50:31Z</time>
      </trkpt>
      <trkpt lat="59.3644975417" lon="18.1145729407">
        <ele>19.2</ele>
        <time>2011-05-07T09:50:36Z</time>
      </trkpt>
      <trkpt lat="59.3643682928" lon="18.1145843401">
        <ele>19.2</ele>
        <time>2011-05-07T09:50:40Z</time>
      </trkpt>
      <trkpt lat="59.3642017445" lon="18.1146135091">
        <ele>19.2</ele>
        <time>2011-05-07T09:50:45Z</time>
      </trkpt>
      <trkpt lat="59.3640258084" lon="18.1146713443">
        <ele>20</ele>
        <time>2011-05-07T09:50:51Z</time>
      </trkpt>
      <trkpt lat="59.3638435859" lon="18.1147152654">
        <ele>20.6</ele>
        <time>2011-05-07T09:50:58Z</time>
      </trkpt>
      <trkpt lat="59.3636647161" lon="18.1147307719">
        <ele>21</ele>
        <time>2011-05-07T09:51:05Z</time>
      </trkpt>
      <trkpt lat="59.3635037836" lon="18.1148054547">
        <ele>20.2</ele>
        <time>2011-05-07T09:51:11Z</time>
      </trkpt>
      <trkpt lat="59.3633721878" lon="18.1149205381">
        <ele>19.8</ele>
        <time>2011-05-07T09:51:16Z</time>
      </trkpt>
      <trkpt lat="59.363260038" lon="18.115113238">
        <ele>19.6</ele>
        <time>2011-05-07T09:51:21Z</time>
      </trkpt>
      <trkpt lat="59.3631844333" lon="18.1152881683">
        <ele>19.4</ele>
        <time>2011-05-07T09:51:25Z</time>
      </trkpt>
      <trkpt lat="59.3630892987" lon="18.1155593227">
        <ele>19.4</ele>
        <time>2011-05-07T09:51:31Z</time>
      </trkpt>
      <trkpt lat="59.3629952538" lon="18.1157669424">
        <ele>19.2</ele>
        <time>2011-05-07T09:51:36Z</time>
      </trkpt>
      <trkpt lat="59.3629013765" lon="18.1159476562">
        <ele>18.6</ele>
        <time>2011-05-07T09:51:41Z</time>
      </trkpt>
      <trkpt lat="59.3628087565" lon="18.1160205787">
        <ele>18.2</ele>
        <time>2011-05-07T09:51:45Z</time>
      </trkpt>
      <trkpt lat="59.3627111912" lon="18.116148235">
        <ele>17.6</ele>
        <time>2011-05-07T09:51:49Z</time>
      </trkpt>
      <trkpt lat="59.3626268693" lon="18.1163892985">
        <ele>16.6</ele>
        <time>2011-05-07T09:51:54Z</time>
      </trkpt>
      <trkpt lat="59.3625318185" lon="18.1166275959">
        <ele>16</ele>
        <time>2011-05-07T09:51:59Z</time>
      </trkpt>
      <trkpt lat="59.3624327445" lon="18.1167979161">
        <ele>15.6</ele>
        <time>2011-05-07T09:52:04Z</time>
      </trkpt>
      <trkpt lat="59.3624236082" lon="18.1168114948">
        <ele>15</ele>
        <time>2011-05-07T09:52:08Z</time>
      </trkpt>
      <trkpt lat="59.3624438924" lon="18.1168352156">
        <ele>14.2</ele>
        <time>2011-05-07T09:52:12Z</time>
      </trkpt>
      <trkpt lat="59.3624151425" lon="18.1168407476">
        <ele>13.6</ele>
        <time>2011-05-07T09:52:19Z</time>
      </trkpt>
      <trkpt lat="59.3623756637" lon="18.116857679">
        <ele>13</ele>
        <time>2011-05-07T09:52:24Z</time>
      </trkpt>
      <trkpt lat="59.3623635938" lon="18.1168564218">
        <ele>12.2</ele>
        <time>2011-05-07T09:52:28Z</time>
      </trkpt>
      <trkpt lat="59.3622688783" lon="18.1169264944">
        <ele>11.6</ele>
        <time>2011-05-07T09:52:33Z</time>
      </trkpt>
      <trkpt lat="59.3621419764" lon="18.1170739321">
        <ele>11.4</ele>
        <time>2011-05-07T09:52:38Z</time>
      </trkpt>
      <trkpt lat="59.3619680519" lon="18.1172440846">
        <ele>11</ele>
        <time>2011-05-07T09:52:44Z</time>
      </trkpt>
      <trkpt lat="59.3617856618" lon="18.1173880019">
        <ele>11</ele>
        <time>2011-05-07T09:52:50Z</time>
      </trkpt>
      <trkpt lat="59.3616015953" lon="18.1175329249">
        <ele>10.8</ele>
        <time>2011-05-07T09:52:56Z</time>
      </trkpt>
      <trkpt lat="59.3614298501" lon="18.1176823742">
        <ele>10.8</ele>
        <time>2011-05-07T09:53:02Z</time>
      </trkpt>
      <trkpt lat="59.3612524053" lon="18.1177666123">
        <ele>10.8</ele>
        <time>2011-05-07T09:53:08Z</time>
      </trkpt>
      <trkpt lat="59.361072865" lon="18.1178098629">
        <ele>10.8</ele>
        <time>2011-05-07T09:53:14Z</time>
      </trkpt>
      <trkpt lat="59.3609044726" lon="18.1178492578">
        <ele>10.8</ele>
        <time>2011-05-07T09:53:20Z</time>
      </trkpt>
      <trkpt lat="59.3607669257" lon="18.1178655187">
        <ele>10.8</ele>
        <time>2011-05-07T09:53:25Z</time>
      </trkpt>
      <trkpt lat="59.3605861281" lon="18.117840373">
        <ele>10.8</ele>
        <time>2011-05-07T09:53:30Z</time>
      </trkpt>
      <trkpt lat="59.3604538617" lon="18.1178169875">
        <ele>10.8</ele>
        <time>2011-05-07T09:53:34Z</time>
      </trkpt>
      <trkpt lat="59.3602868942" lon="18.1178329969">
        <ele>10.8</ele>
        <time>2011-05-07T09:53:40Z</time>
      </trkpt>
      <trkpt lat="59.3601502693" lon="18.1178644291">
        <ele>10.8</ele>
        <time>2011-05-07T09:53:45Z</time>
      </trkpt>
      <trkpt lat="59.3600107106" lon="18.1178940172">
        <ele>10.8</ele>
        <time>2011-05-07T09:53:50Z</time>
      </trkpt>
      <trkpt lat="59.3598616805" lon="18.1179717174">
        <ele>10.8</ele>
        <time>2011-05-07T09:53:55Z</time>
      </trkpt>
      <trkpt lat="59.3597337727" lon="18.1180613199">
        <ele>10.8</ele>
        <time>2011-05-07T09:53:59Z</time>
      </trkpt>
      <trkpt lat="59.3596633647" lon="18.1181311411">
        <ele>10.8</ele>
        <time>2011-05-07T09:54:02Z</time>
      </trkpt>
      <trkpt lat="59.3595725887" lon="18.1182340708">
        <ele>10.8</ele>
        <time>2011-05-07T09:54:06Z</time>
      </trkpt>
      <trkpt lat="59.3594305993" lon="18.1184295368">
        <ele>10.8</ele>
        <time>2011-05-07T09:54:13Z</time>
      </trkpt>
      <trkpt lat="59.3593377279" lon="18.1186194706">
        <ele>10</ele>
        <time>2011-05-07T09:54:18Z</time>
      </trkpt>
      <trkpt lat="59.3592618717" lon="18.1188530742">
        <ele>9.4</ele>
        <time>2011-05-07T09:54:24Z</time>
      </trkpt>
      <trkpt lat="59.3591798967" lon="18.1190586822">
        <ele>8.6</ele>
        <time>2011-05-07T09:54:29Z</time>
      </trkpt>
      <trkpt lat="59.3590754582" lon="18.119287508">
        <ele>7.6</ele>
        <time>2011-05-07T09:54:35Z</time>
      </trkpt>
      <trkpt lat="59.3589652363" lon="18.1195234585">
        <ele>6.4</ele>
        <time>2011-05-07T09:54:42Z</time>
      </trkpt>
      <trkpt lat="59.3588918946" lon="18.1198271348">
        <ele>5.2</ele>
        <time>2011-05-07T09:54:49Z</time>
      </trkpt>
      <trkpt lat="59.3588544275" lon="18.1200191641">
        <ele>4.4</ele>
        <time>2011-05-07T09:54:53Z</time>
      </trkpt>
      <trkpt lat="59.3587632325" lon="18.1202963535">
        <ele>3.4</ele>
        <time>2011-05-07T09:54:59Z</time>
      </trkpt>
      <trkpt lat="59.3586562794" lon="18.1206195596">
        <ele>2.8</ele>
        <time>2011-05-07T09:55:06Z</time>
      </trkpt>
      <trkpt lat="59.3585770705" lon="18.1209391614">
        <ele>2.6</ele>
        <time>2011-05-07T09:55:13Z</time>
      </trkpt>
      <trkpt lat="59.3585192354" lon="18.1211513911">
        <ele>2.4</ele>
        <time>2011-05-07T09:55:18Z</time>
      </trkpt>
      <trkpt lat="59.3584405293" lon="18.1213847432">
        <ele>2.4</ele>
        <time>2011-05-07T09:55:23Z</time>
      </trkpt>
      <trkpt lat="59.3583720492" lon="18.1215698156">
        <ele>2.4</ele>
        <time>2011-05-07T09:55:27Z</time>
      </trkpt>
      <trkpt lat="59.3582946004" lon="18.1218131421">
        <ele>2.2</ele>
        <time>2011-05-07T09:55:32Z</time>
      </trkpt>
      <trkpt lat="59.3582866376" lon="18.1218517827">
        <ele>2.2</ele>
        <time>2011-05-07T09:55:33Z</time>
      </trkpt>
      <trkpt lat="59.3581981248" lon="18.1220581451">
        <ele>2.2</ele>
        <time>2011-05-07T09:55:38Z</time>
      </trkpt>
      <trkpt lat="59.3581339194" lon="18.1222280462">
        <ele>2.2</ele>
        <time>2011-05-07T09:55:42Z</time>
      </trkpt>
      <trkpt lat="59.3580956979" lon="18.122310105">
        <ele>2.2</ele>
        <time>2011-05-07T09:55:44Z</time>
      </trkpt>
      <trkpt lat="59.3580091967" lon="18.1225560299">
        <ele>2.2</ele>
        <time>2011-05-07T09:55:49Z</time>
      </trkpt>
      <trkpt lat="59.3578651119" lon="18.1228647353">
        <ele>2.2</ele>
        <time>2011-05-07T09:55:56Z</time>
      </trkpt>
      <trkpt lat="59.3578345179" lon="18.1229492249">
        <ele>2.2</ele>
        <time>2011-05-07T09:55:58Z</time>
      </trkpt>
      <trkpt lat="59.3577651996" lon="18.1231740274">
        <ele>2.2</ele>
        <time>2011-05-07T09:56:04Z</time>
      </trkpt>
      <trkpt lat="59.3576779441" lon="18.1234856665">
        <ele>2.8</ele>
        <time>2011-05-07T09:56:10Z</time>
      </trkpt>
      <trkpt lat="59.3576092125" lon="18.1237382969">
        <ele>3.4</ele>
        <time>2011-05-07T09:56:15Z</time>
      </trkpt>
      <trkpt lat="59.357565459" lon="18.1239973815">
        <ele>4</ele>
        <time>2011-05-07T09:56:20Z</time>
      </trkpt>
      <trkpt lat="59.3575361223" lon="18.1242843777">
        <ele>5</ele>
        <time>2011-05-07T09:56:25Z</time>
      </trkpt>
      <trkpt lat="59.3574818914" lon="18.124601465">
        <ele>6.4</ele>
        <time>2011-05-07T09:56:31Z</time>
      </trkpt>
      <trkpt lat="59.3574557399" lon="18.1247175543">
        <ele>7.2</ele>
        <time>2011-05-07T09:56:34Z</time>
      </trkpt>
      <trkpt lat="59.3574040236" lon="18.124936741">
        <ele>8.6</ele>
        <time>2011-05-07T09:56:39Z</time>
      </trkpt>
      <trkpt lat="59.3573931271" lon="18.1249856075">
        <ele>9</ele>
        <time>2011-05-07T09:56:40Z</time>
      </trkpt>
      <trkpt lat="59.3573819792" lon="18.1250317917">
        <ele>9.4</ele>
        <time>2011-05-07T09:56:41Z</time>
      </trkpt>
      <trkpt lat="59.3573147563" lon="18.1253564227">
        <ele>11.6</ele>
        <time>2011-05-07T09:56:48Z</time>
      </trkpt>
      <trkpt lat="59.3571899498" lon="18.1253926325">
        <ele>12.8</ele>
        <time>2011-05-07T09:56:52Z</time>
      </trkpt>
      <trkpt lat="59.3570591922" lon="18.1253192071">
        <ele>13.8</ele>
        <time>2011-05-07T09:56:56Z</time>
      </trkpt>
      <trkpt lat="59.3569934781" lon="18.1250794848">
        <ele>15.2</ele>
        <time>2011-05-07T09:57:01Z</time>
      </trkpt>
      <trkpt lat="59.3569946516" lon="18.125024248">
        <ele>15.4</ele>
        <time>2011-05-07T09:57:02Z</time>
      </trkpt>
      <trkpt lat="59.3570013571" lon="18.1249799916">
        <ele>15.6</ele>
        <time>2011-05-07T09:57:03Z</time>
      </trkpt>
      <trkpt lat="59.3571155186" lon="18.1246529299">
        <ele>17.2</ele>
        <time>2011-05-07T09:57:10Z</time>
      </trkpt>
      <trkpt lat="59.3572181968" lon="18.124394013">
        <ele>18</ele>
        <time>2011-05-07T09:57:15Z</time>
      </trkpt>
      <trkpt lat="59.3572951427" lon="18.1241191705">
        <ele>18.4</ele>
        <time>2011-05-07T09:57:20Z</time>
      </trkpt>
      <trkpt lat="59.3573404049" lon="18.1239019116">
        <ele>18.8</ele>
        <time>2011-05-07T09:57:24Z</time>
      </trkpt>
      <trkpt lat="59.3572775407" lon="18.1237802064">
        <ele>18.8</ele>
        <time>2011-05-07T09:57:28Z</time>
      </trkpt>
      <trkpt lat="59.3572575079" lon="18.1237947071">
        <ele>19</ele>
        <time>2011-05-07T09:57:29Z</time>
      </trkpt>
      <trkpt lat="59.3571489623" lon="18.1239933582">
        <ele>19</ele>
        <time>2011-05-07T09:57:34Z</time>
      </trkpt>
      <trkpt lat="59.3570670712" lon="18.1241597389">
        <ele>19</ele>
        <time>2011-05-07T09:57:38Z</time>
      </trkpt>
      <trkpt lat="59.3569850124" lon="18.1243257843">
        <ele>18.8</ele>
        <time>2011-05-07T09:57:42Z</time>
      </trkpt>
      <trkpt lat="59.3569547537" lon="18.1243961085">
        <ele>18.4</ele>
        <time>2011-05-07T09:57:44Z</time>
      </trkpt>
      <trkpt lat="59.356856434" lon="18.1244822744">
        <ele>17.8</ele>
        <time>2011-05-07T09:57:49Z</time>
      </trkpt>
      <trkpt lat="59.3567286101" lon="18.1245645008">
        <ele>17.4</ele>
        <time>2011-05-07T09:57:54Z</time>
      </trkpt>
      <trkpt lat="59.3566026301" lon="18.1246499962">
        <ele>16.6</ele>
        <time>2011-05-07T09:57:59Z</time>
      </trkpt>
      <trkpt lat="59.3564923243" lon="18.1248176342">
        <ele>15.8</ele>
        <time>2011-05-07T09:58:05Z</time>
      </trkpt>
      <trkpt lat="59.3563797554" lon="18.1250011978">
        <ele>15.4</ele>
        <time>2011-05-07T09:58:10Z</time>
      </trkpt>
      <trkpt lat="59.356223852" lon="18.1252156906">
        <ele>15.2</ele>
        <time>2011-05-07T09:58:17Z</time>
      </trkpt>
      <trkpt lat="59.3560829523" lon="18.1253721807">
        <ele>15</ele>
        <time>2011-05-07T09:58:23Z</time>
      </trkpt>
      <trkpt lat="59.355988153" lon="18.1255268268">
        <ele>15</ele>
        <time>2011-05-07T09:58:28Z</time>
      </trkpt>
      <trkpt lat="59.3558460798" lon="18.1256726718">
        <ele>14.8</ele>
        <time>2011-05-07T09:58:35Z</time>
      </trkpt>
      <trkpt lat="59.3558205988" lon="18.1256866696">
        <ele>14.8</ele>
        <time>2011-05-07T09:58:36Z</time>
      </trkpt>
      <trkpt lat="59.355702917" lon="18.125715671">
        <ele>14.8</ele>
        <time>2011-05-07T09:58:40Z</time>
      </trkpt>
      <trkpt lat="59.3555909348" lon="18.1257792058">
        <ele>14.8</ele>
        <time>2011-05-07T09:58:44Z</time>
      </trkpt>
      <trkpt lat="59.3554505379" lon="18.1258667966">
        <ele>14.2</ele>
        <time>2011-05-07T09:58:50Z</time>
      </trkpt>
      <trkpt lat="59.3554320978" lon="18.1258586662">
        <ele>14.2</ele>
        <time>2011-05-07T09:58:51Z</time>
      </trkpt>
      <trkpt lat="59.3553737597" lon="18.1259304152">
        <ele>13.8</ele>
        <time>2011-05-07T09:58:54Z</time>
      </trkpt>
      <trkpt lat="59.3552889349" lon="18.1261395437">
        <ele>13.4</ele>
        <time>2011-05-07T09:58:59Z</time>
      </trkpt>
      <trkpt lat="59.3552186946" lon="18.1263397872">
        <ele>13</ele>
        <time>2011-05-07T09:59:04Z</time>
      </trkpt>
      <trkpt lat="59.3551241468" lon="18.1265057489">
        <ele>12.4</ele>
        <time>2011-05-07T09:59:09Z</time>
      </trkpt>
      <trkpt lat="59.3551146752" lon="18.1265312298">
        <ele>12.2</ele>
        <time>2011-05-07T09:59:10Z</time>
      </trkpt>
      <trkpt lat="59.3550927146" lon="18.126722421">
        <ele>11.6</ele>
        <time>2011-05-07T09:59:15Z</time>
      </trkpt>
      <trkpt lat="59.355083746" lon="18.1267686891">
        <ele>11.4</ele>
        <time>2011-05-07T09:59:16Z</time>
      </trkpt>
      <trkpt lat="59.3550347957" lon="18.1269540129">
        <ele>11</ele>
        <time>2011-05-07T09:59:21Z</time>
      </trkpt>
      <trkpt lat="59.3550316944" lon="18.1269780689">
        <ele>11</ele>
        <time>2011-05-07T09:59:22Z</time>
      </trkpt>
      <trkpt lat="59.3550101529" lon="18.1271029592">
        <ele>10.8</ele>
        <time>2011-05-07T09:59:26Z</time>
      </trkpt>
      <trkpt lat="59.3549851749" lon="18.1272198867">
        <ele>10.8</ele>
        <time>2011-05-07T09:59:30Z</time>
      </trkpt>
      <trkpt lat="59.3549333747" lon="18.1273417596">
        <ele>10.8</ele>
        <time>2011-05-07T09:59:35Z</time>
      </trkpt>
      <trkpt lat="59.3548851788" lon="18.1274768758">
        <ele>10.6</ele>
        <time>2011-05-07T09:59:40Z</time>
      </trkpt>
      <trkpt lat="59.3548726059" lon="18.1275771233">
        <ele>10.6</ele>
        <time>2011-05-07T09:59:43Z</time>
      </trkpt>
      <trkpt lat="59.354861458" lon="18.1277613575">
        <ele>10.6</ele>
        <time>2011-05-07T09:59:49Z</time>
      </trkpt>
      <trkpt lat="59.3548579376" lon="18.1277852459">
        <ele>10.6</ele>
        <time>2011-05-07T09:59:50Z</time>
      </trkpt>
      <trkpt lat="59.3548112504" lon="18.1279080407">
        <ele>10.6</ele>
        <time>2011-05-07T09:59:55Z</time>
      </trkpt>
      <trkpt lat="59.3548022818" lon="18.1279326835">
        <ele>10.6</ele>
        <time>2011-05-07T09:59:56Z</time>
      </trkpt>
      <trkpt lat="59.354760037" lon="18.1281157442">
        <ele>10.6</ele>
        <time>2011-05-07T10:00:04Z</time>
      </trkpt>
      <trkpt lat="59.3547441952" lon="18.1282210209">
        <ele>10.6</ele>
        <time>2011-05-07T10:00:08Z</time>
      </trkpt>
      <trkpt lat="59.3547213126" lon="18.1283116292">
        <ele>10.6</ele>
        <time>2011-05-07T10:00:12Z</time>
      </trkpt>
      <trkpt lat="59.3546885394" lon="18.1284238629">
        <ele>11.2</ele>
        <time>2011-05-07T10:00:17Z</time>
      </trkpt>
      <trkpt lat="59.3546745416" lon="18.1284495115">
        <ele>11.4</ele>
        <time>2011-05-07T10:00:18Z</time>
      </trkpt>
      <trkpt lat="59.3546662436" lon="18.1284743219">
        <ele>11.4</ele>
        <time>2011-05-07T10:00:19Z</time>
      </trkpt>
      <trkpt lat="59.3546588675" lon="18.1284987132">
        <ele>11.6</ele>
        <time>2011-05-07T10:00:20Z</time>
      </trkpt>
      <trkpt lat="59.3546140243" lon="18.1285902436">
        <ele>12.4</ele>
        <time>2011-05-07T10:00:24Z</time>
      </trkpt>
      <trkpt lat="59.3545696841" lon="18.1287478233">
        <ele>13.6</ele>
        <time>2011-05-07T10:00:29Z</time>
      </trkpt>
      <trkpt lat="59.3545587038" lon="18.1287898166">
        <ele>14</ele>
        <time>2011-05-07T10:00:30Z</time>
      </trkpt>
      <trkpt lat="59.3545382519" lon="18.1290667546">
        <ele>15.6</ele>
        <time>2011-05-07T10:00:35Z</time>
      </trkpt>
      <trkpt lat="59.354541018" lon="18.1292713568">
        <ele>16.8</ele>
        <time>2011-05-07T10:00:39Z</time>
      </trkpt>
      <trkpt lat="59.354542862" lon="18.1295396614">
        <ele>18.6</ele>
        <time>2011-05-07T10:00:44Z</time>
      </trkpt>
      <trkpt lat="59.3545540099" lon="18.1296359694">
        <ele>19.2</ele>
        <time>2011-05-07T10:00:46Z</time>
      </trkpt>
      <trkpt lat="59.3545273555" lon="18.1298709141">
        <ele>20.6</ele>
        <time>2011-05-07T10:00:50Z</time>
      </trkpt>
      <trkpt lat="59.3543476475" lon="18.1302309167">
        <ele>23.2</ele>
        <time>2011-05-07T10:00:58Z</time>
      </trkpt>
      <trkpt lat="59.3543119406" lon="18.130546579">
        <ele>24.2</ele>
        <time>2011-05-07T10:01:03Z</time>
      </trkpt>
      <trkpt lat="59.3542689415" lon="18.1307340821">
        <ele>25</ele>
        <time>2011-05-07T10:01:07Z</time>
      </trkpt>
      <trkpt lat="59.3542116931" lon="18.1309227587">
        <ele>25.8</ele>
        <time>2011-05-07T10:01:10Z</time>
      </trkpt>
      <trkpt lat="59.3541902355" lon="18.1311893031">
        <ele>26.4</ele>
        <time>2011-05-07T10:01:14Z</time>
      </trkpt>
      <trkpt lat="59.3541746451" lon="18.131495913">
        <ele>27</ele>
        <time>2011-05-07T10:01:19Z</time>
      </trkpt>
      <trkpt lat="59.354141369" lon="18.1316884453">
        <ele>27.4</ele>
        <time>2011-05-07T10:01:22Z</time>
      </trkpt>
      <trkpt lat="59.354086719" lon="18.1319115714">
        <ele>28.2</ele>
        <time>2011-05-07T10:01:26Z</time>
      </trkpt>
      <trkpt lat="59.3540101084" lon="18.1321854919">
        <ele>28.8</ele>
        <time>2011-05-07T10:01:31Z</time>
      </trkpt>
      <trkpt lat="59.3539485853" lon="18.132414234">
        <ele>29.2</ele>
        <time>2011-05-07T10:01:36Z</time>
      </trkpt>
      <trkpt lat="59.3538961146" lon="18.1326304032">
        <ele>29.4</ele>
        <time>2011-05-07T10:01:40Z</time>
      </trkpt>
      <trkpt lat="59.353812547" lon="18.1329313134">
        <ele>30.4</ele>
        <time>2011-05-07T10:01:46Z</time>
      </trkpt>
      <trkpt lat="59.3537394569" lon="18.133202887">
        <ele>31</ele>
        <time>2011-05-07T10:01:51Z</time>
      </trkpt>
      <trkpt lat="59.3536436518" lon="18.1335276018">
        <ele>31.4</ele>
        <time>2011-05-07T10:01:57Z</time>
      </trkpt>
      <trkpt lat="59.3535745849" lon="18.133846114">
        <ele>32.4</ele>
        <time>2011-05-07T10:02:02Z</time>
      </trkpt>
      <trkpt lat="59.3535061048" lon="18.1341374688">
        <ele>33</ele>
        <time>2011-05-07T10:02:07Z</time>
      </trkpt>
      <trkpt lat="59.353431925" lon="18.1344203579">
        <ele>33.8</ele>
        <time>2011-05-07T10:02:12Z</time>
      </trkpt>
      <trkpt lat="59.3533279056" lon="18.1347636806">
        <ele>34.8</ele>
        <time>2011-05-07T10:02:18Z</time>
      </trkpt>
      <trkpt lat="59.3532417397" lon="18.1350588911">
        <ele>35.2</ele>
        <time>2011-05-07T10:02:23Z</time>
      </trkpt>
      <trkpt lat="59.3531615249" lon="18.1353582087">
        <ele>35.8</ele>
        <time>2011-05-07T10:02:28Z</time>
      </trkpt>
      <trkpt lat="59.3530367184" lon="18.1356053071">
        <ele>36.6</ele>
        <time>2011-05-07T10:02:33Z</time>
      </trkpt>
      <trkpt lat="59.3529017698" lon="18.1357840092">
        <ele>37.2</ele>
        <time>2011-05-07T10:02:38Z</time>
      </trkpt>
      <trkpt lat="59.3528532386" lon="18.1358610389">
        <ele>37.4</ele>
        <time>2011-05-07T10:02:40Z</time>
      </trkpt>
      <trkpt lat="59.3527626303" lon="18.1362415772">
        <ele>37.6</ele>
        <time>2011-05-07T10:02:47Z</time>
      </trkpt>
      <trkpt lat="59.3527445253" lon="18.1363437525">
        <ele>37.8</ele>
        <time>2011-05-07T10:02:49Z</time>
      </trkpt>
      <trkpt lat="59.3526302801" lon="18.136484317">
        <ele>38.4</ele>
        <time>2011-05-07T10:02:55Z</time>
      </trkpt>
      <trkpt lat="59.352615025" lon="18.1365117258">
        <ele>38.6</ele>
        <time>2011-05-07T10:02:56Z</time>
      </trkpt>
      <trkpt lat="59.3524913081" lon="18.1366794476">
        <ele>39.6</ele>
        <time>2011-05-07T10:03:03Z</time>
      </trkpt>
      <trkpt lat="59.3523252627" lon="18.1368328364">
        <ele>41</ele>
        <time>2011-05-07T10:03:10Z</time>
      </trkpt>
      <trkpt lat="59.3522063235" lon="18.1368778472">
        <ele>42.2</ele>
        <time>2011-05-07T10:03:14Z</time>
      </trkpt>
      <trkpt lat="59.3520067505" lon="18.136927468">
        <ele>44.4</ele>
        <time>2011-05-07T10:03:21Z</time>
      </trkpt>
      <trkpt lat="59.3518960256" lon="18.1369221874">
        <ele>46</ele>
        <time>2011-05-07T10:03:26Z</time>
      </trkpt>
      <trkpt lat="59.3517915033" lon="18.1369234447">
        <ele>47.2</ele>
        <time>2011-05-07T10:03:30Z</time>
      </trkpt>
      <trkpt lat="59.3517677825" lon="18.1369319943">
        <ele>47.6</ele>
        <time>2011-05-07T10:03:31Z</time>
      </trkpt>
      <trkpt lat="59.3516779286" lon="18.1370772526">
        <ele>49</ele>
        <time>2011-05-07T10:03:36Z</time>
      </trkpt>
      <trkpt lat="59.3515549661" lon="18.1372500036">
        <ele>50.2</ele>
        <time>2011-05-07T10:03:40Z</time>
      </trkpt>
      <trkpt lat="59.3514511982" lon="18.1374349083">
        <ele>51.4</ele>
        <time>2011-05-07T10:03:45Z</time>
      </trkpt>
      <trkpt lat="59.351354974" lon="18.1376302904">
        <ele>52.8</ele>
        <time>2011-05-07T10:03:50Z</time>
      </trkpt>
      <trkpt lat="59.3512299998" lon="18.1378176258">
        <ele>53.8</ele>
        <time>2011-05-07T10:03:55Z</time>
      </trkpt>
      <trkpt lat="59.3510602664" lon="18.1378273488">
        <ele>55</ele>
        <time>2011-05-07T10:04:00Z</time>
      </trkpt>
      <trkpt lat="59.3509083863" lon="18.1379052167">
        <ele>56.8</ele>
        <time>2011-05-07T10:04:05Z</time>
      </trkpt>
      <trkpt lat="59.3507402454" lon="18.137987024">
        <ele>58.6</ele>
        <time>2011-05-07T10:04:10Z</time>
      </trkpt>
      <trkpt lat="59.3506170315" lon="18.1379627165">
        <ele>59.8</ele>
        <time>2011-05-07T10:04:14Z</time>
      </trkpt>
      <trkpt lat="59.3505648961" lon="18.1379747865">
        <ele>60.6</ele>
        <time>2011-05-07T10:04:19Z</time>
      </trkpt>
      <trkpt lat="59.3505587773" lon="18.1379815758">
        <ele>60.8</ele>
        <time>2011-05-07T10:04:20Z</time>
      </trkpt>
      <trkpt lat="59.3505074801" lon="18.1379667398">
        <ele>61.2</ele>
        <time>2011-05-07T10:04:24Z</time>
      </trkpt>
      <trkpt lat="59.3504695939" lon="18.1379144368">
        <ele>60.8</ele>
        <time>2011-05-07T10:04:34Z</time>
      </trkpt>
      <trkpt lat="59.3504668278" lon="18.1378110041">
        <ele>59.6</ele>
        <time>2011-05-07T10:04:39Z</time>
      </trkpt>
      <trkpt lat="59.3504426042" lon="18.1374743032">
        <ele>58.4</ele>
        <time>2011-05-07T10:04:44Z</time>
      </trkpt>
      <trkpt lat="59.3504286064" lon="18.1374286218">
        <ele>58</ele>
        <time>2011-05-07T10:04:45Z</time>
      </trkpt>
      <trkpt lat="59.3503679214" lon="18.1373137898">
        <ele>57</ele>
        <time>2011-05-07T10:04:49Z</time>
      </trkpt>
      <trkpt lat="59.3503562706" lon="18.1372998759">
        <ele>56.8</ele>
        <time>2011-05-07T10:04:50Z</time>
      </trkpt>
      <trkpt lat="59.3503321307" lon="18.1371567968">
        <ele>55.4</ele>
        <time>2011-05-07T10:04:54Z</time>
      </trkpt>
      <trkpt lat="59.3502481441" lon="18.13711363">
        <ele>54</ele>
        <time>2011-05-07T10:04:58Z</time>
      </trkpt>
      <trkpt lat="59.3502131915" lon="18.1371208385">
        <ele>53.4</ele>
        <time>2011-05-07T10:05:00Z</time>
      </trkpt>
      <trkpt lat="59.3501714497" lon="18.1371932581">
        <ele>52.6</ele>
        <time>2011-05-07T10:05:02Z</time>
      </trkpt>
      <trkpt lat="59.3500593837" lon="18.1371297233">
        <ele>50.8</ele>
        <time>2011-05-07T10:05:06Z</time>
      </trkpt>
      <trkpt lat="59.3499750618" lon="18.1370925077">
        <ele>48.6</ele>
        <time>2011-05-07T10:05:11Z</time>
      </trkpt>
      <trkpt lat="59.3498728864" lon="18.1370991294">
        <ele>46.6</ele>
        <time>2011-05-07T10:05:15Z</time>
      </trkpt>
      <trkpt lat="59.3498058312" lon="18.1371169828">
        <ele>45.2</ele>
        <time>2011-05-07T10:05:18Z</time>
      </trkpt>
      <trkpt lat="59.3497968626" lon="18.1371685315">
        <ele>43.6</ele>
        <time>2011-05-07T10:05:21Z</time>
      </trkpt>
      <trkpt lat="59.3497628321" lon="18.1373972735">
        <ele>40.4</ele>
        <time>2011-05-07T10:05:27Z</time>
      </trkpt>
      <trkpt lat="59.349751768" lon="18.1374398536">
        <ele>39.8</ele>
        <time>2011-05-07T10:05:28Z</time>
      </trkpt>
      <trkpt lat="59.3496897419" lon="18.1376189748">
        <ele>37.8</ele>
        <time>2011-05-07T10:05:32Z</time>
      </trkpt>
      <trkpt lat="59.3496483353" lon="18.1378296958">
        <ele>36</ele>
        <time>2011-05-07T10:05:36Z</time>
      </trkpt>
      <trkpt lat="59.3496207589" lon="18.1379340504">
        <ele>35</ele>
        <time>2011-05-07T10:05:38Z</time>
      </trkpt>
      <trkpt lat="59.349501233" lon="18.1379892033">
        <ele>33.4</ele>
        <time>2011-05-07T10:05:42Z</time>
      </trkpt>
      <trkpt lat="59.3494372791" lon="18.1380012733">
        <ele>32.4</ele>
        <time>2011-05-07T10:05:44Z</time>
      </trkpt>
      <trkpt lat="59.3493209383" lon="18.138158853">
        <ele>30.8</ele>
        <time>2011-05-07T10:05:48Z</time>
      </trkpt>
      <trkpt lat="59.3492293241" lon="18.1381775446">
        <ele>29.8</ele>
        <time>2011-05-07T10:05:51Z</time>
      </trkpt>
      <trkpt lat="59.3491547252" lon="18.1382119104">
        <ele>28.4</ele>
        <time>2011-05-07T10:05:55Z</time>
      </trkpt>
      <trkpt lat="59.3491559825" lon="18.1383421651">
        <ele>27.8</ele>
        <time>2011-05-07T10:05:58Z</time>
      </trkpt>
      <trkpt lat="59.3491547252" lon="18.1383823982">
        <ele>27.6</ele>
        <time>2011-05-07T10:05:59Z</time>
      </trkpt>
      <trkpt lat="59.3491517916" lon="18.138415842">
        <ele>27.4</ele>
        <time>2011-05-07T10:06:00Z</time>
      </trkpt>
      <trkpt lat="59.3490465149" lon="18.1386730825">
        <ele>25.8</ele>
        <time>2011-05-07T10:06:09Z</time>
      </trkpt>
      <trkpt lat="59.3489533082" lon="18.1387212785">
        <ele>25</ele>
        <time>2011-05-07T10:06:14Z</time>
      </trkpt>
      <trkpt lat="59.3489189424" lon="18.1387401377">
        <ele>24.8</ele>
        <time>2011-05-07T10:06:16Z</time>
      </trkpt>
      <trkpt lat="59.3488404878" lon="18.138734019">
        <ele>24.6</ele>
        <time>2011-05-07T10:06:20Z</time>
      </trkpt>
      <trkpt lat="59.3488229696" lon="18.1387414788">
        <ele>24.4</ele>
        <time>2011-05-07T10:06:21Z</time>
      </trkpt>
      <trkpt lat="59.3487750251" lon="18.1388165807">
        <ele>24.4</ele>
        <time>2011-05-07T10:06:24Z</time>
      </trkpt>
      <trkpt lat="59.3486703352" lon="18.1389599112">
        <ele>24.8</ele>
        <time>2011-05-07T10:06:29Z</time>
      </trkpt>
      <trkpt lat="59.3485496359" lon="18.1390417185">
        <ele>25.4</ele>
        <time>2011-05-07T10:06:34Z</time>
      </trkpt>
      <trkpt lat="59.3485339617" lon="18.1390740726">
        <ele>25.4</ele>
        <time>2011-05-07T10:06:35Z</time>
      </trkpt>
      <trkpt lat="59.3484683314" lon="18.1392314847">
        <ele>25.8</ele>
        <time>2011-05-07T10:06:40Z</time>
      </trkpt>
      <trkpt lat="59.3483680839" lon="18.1393331572">
        <ele>26.6</ele>
        <time>2011-05-07T10:06:44Z</time>
      </trkpt>
      <trkpt lat="59.3483424353" lon="18.1393500048">
        <ele>26.8</ele>
        <time>2011-05-07T10:06:45Z</time>
      </trkpt>
      <trkpt lat="59.3482131026" lon="18.1394510905">
        <ele>27.4</ele>
        <time>2011-05-07T10:06:50Z</time>
      </trkpt>
      <trkpt lat="59.3480665031" lon="18.1396141185">
        <ele>27.8</ele>
        <time>2011-05-07T10:06:56Z</time>
      </trkpt>
      <trkpt lat="59.3479684349" lon="18.139805561">
        <ele>27.6</ele>
        <time>2011-05-07T10:07:01Z</time>
      </trkpt>
      <trkpt lat="59.347889645" lon="18.1400730275">
        <ele>27</ele>
        <time>2011-05-07T10:07:06Z</time>
      </trkpt>
      <trkpt lat="59.3478407786" lon="18.1403082236">
        <ele>26.2</ele>
        <time>2011-05-07T10:07:11Z</time>
      </trkpt>
      <trkpt lat="59.3478124478" lon="18.1404671444">
        <ele>25.4</ele>
        <time>2011-05-07T10:07:16Z</time>
      </trkpt>
      <trkpt lat="59.3477448058" lon="18.1406837327">
        <ele>24.8</ele>
        <time>2011-05-07T10:07:21Z</time>
      </trkpt>
      <trkpt lat="59.3476817739" lon="18.1408591659">
        <ele>24</ele>
        <time>2011-05-07T10:07:25Z</time>
      </trkpt>
      <trkpt lat="59.347638188" lon="18.1410537936">
        <ele>23.2</ele>
        <time>2011-05-07T10:07:30Z</time>
      </trkpt>
      <trkpt lat="59.3476263696" lon="18.1411477547">
        <ele>23</ele>
        <time>2011-05-07T10:07:32Z</time>
      </trkpt>
      <trkpt lat="59.3475762458" lon="18.1413558773">
        <ele>22.6</ele>
        <time>2011-05-07T10:07:37Z</time>
      </trkpt>
      <trkpt lat="59.3474974559" lon="18.1415663468">
        <ele>22.2</ele>
        <time>2011-05-07T10:07:42Z</time>
      </trkpt>
      <trkpt lat="59.3473666983" lon="18.1417531793">
        <ele>22.2</ele>
        <time>2011-05-07T10:07:47Z</time>
      </trkpt>
      <trkpt lat="59.3472893334" lon="18.1418577016">
        <ele>22</ele>
        <time>2011-05-07T10:07:50Z</time>
      </trkpt>
      <trkpt lat="59.3472326717" lon="18.1419074063">
        <ele>22</ele>
        <time>2011-05-07T10:07:52Z</time>
      </trkpt>
      <trkpt lat="59.3470841445" lon="18.1421901278">
        <ele>22</ele>
        <time>2011-05-07T10:07:59Z</time>
      </trkpt>
      <trkpt lat="59.3469797898" lon="18.1423158563">
        <ele>22</ele>
        <time>2011-05-07T10:08:03Z</time>
      </trkpt>
      <trkpt lat="59.3468808834" lon="18.1425329475">
        <ele>21.6</ele>
        <time>2011-05-07T10:08:07Z</time>
      </trkpt>
      <trkpt lat="59.3468461823" lon="18.1425699117">
        <ele>21.4</ele>
        <time>2011-05-07T10:08:08Z</time>
      </trkpt>
      <trkpt lat="59.346718526" lon="18.1427395613">
        <ele>20.8</ele>
        <time>2011-05-07T10:08:12Z</time>
      </trkpt>
      <trkpt lat="59.3466313542" lon="18.1428843167">
        <ele>20.4</ele>
        <time>2011-05-07T10:08:17Z</time>
      </trkpt>
      <trkpt lat="59.3465935519" lon="18.1429440797">
        <ele>20.4</ele>
        <time>2011-05-07T10:08:19Z</time>
      </trkpt>
      <trkpt lat="59.3464508081" lon="18.1431967102">
        <ele>20.2</ele>
        <time>2011-05-07T10:08:25Z</time>
      </trkpt>
      <trkpt lat="59.346420298" lon="18.1432392902">
        <ele>20.2</ele>
        <time>2011-05-07T10:08:26Z</time>
      </trkpt>
      <trkpt lat="59.3463553383" lon="18.1435806012">
        <ele>19.2</ele>
        <time>2011-05-07T10:08:32Z</time>
      </trkpt>
      <trkpt lat="59.3462807393" lon="18.1437551961">
        <ele>18.6</ele>
        <time>2011-05-07T10:08:36Z</time>
      </trkpt>
      <trkpt lat="59.3462586111" lon="18.1439669229">
        <ele>18.4</ele>
        <time>2011-05-07T10:08:40Z</time>
      </trkpt>
      <trkpt lat="59.3462471279" lon="18.1440233331">
        <ele>18.4</ele>
        <time>2011-05-07T10:08:41Z</time>
      </trkpt>
      <trkpt lat="59.3461995187" lon="18.1442074835">
        <ele>18.2</ele>
        <time>2011-05-07T10:08:45Z</time>
      </trkpt>
      <trkpt lat="59.3460298691" lon="18.1445308572">
        <ele>18</ele>
        <time>2011-05-07T10:08:53Z</time>
      </trkpt>
      <trkpt lat="59.3459705252" lon="18.1446601061">
        <ele>18</ele>
        <time>2011-05-07T10:08:56Z</time>
      </trkpt>
      <trkpt lat="59.3459556893" lon="18.1447114871">
        <ele>18</ele>
        <time>2011-05-07T10:08:57Z</time>
      </trkpt>
      <trkpt lat="59.3458880473" lon="18.1450207792">
        <ele>17.8</ele>
        <time>2011-05-07T10:09:03Z</time>
      </trkpt>
      <trkpt lat="59.3458801683" lon="18.1450652033">
        <ele>17.8</ele>
        <time>2011-05-07T10:09:04Z</time>
      </trkpt>
      <trkpt lat="59.3458625664" lon="18.1453027463">
        <ele>17.8</ele>
        <time>2011-05-07T10:09:09Z</time>
      </trkpt>
      <trkpt lat="59.3458121911" lon="18.145539535">
        <ele>18</ele>
        <time>2011-05-07T10:09:14Z</time>
      </trkpt>
      <trkpt lat="59.3457815972" lon="18.1457864658">
        <ele>18.8</ele>
        <time>2011-05-07T10:09:19Z</time>
      </trkpt>
      <trkpt lat="59.3457729638" lon="18.1460045628">
        <ele>19.2</ele>
        <time>2011-05-07T10:09:23Z</time>
      </trkpt>
      <trkpt lat="59.3456769073" lon="18.1462319638">
        <ele>19.4</ele>
        <time>2011-05-07T10:09:27Z</time>
      </trkpt>
      <trkpt lat="59.345608511" lon="18.146292062">
        <ele>19.6</ele>
        <time>2011-05-07T10:09:29Z</time>
      </trkpt>
      <trkpt lat="59.3454863029" lon="18.1464348896">
        <ele>19.8</ele>
        <time>2011-05-07T10:09:34Z</time>
      </trkpt>
      <trkpt lat="59.3454143862" lon="18.1465784715">
        <ele>19.8</ele>
        <time>2011-05-07T10:09:38Z</time>
      </trkpt>
      <trkpt lat="59.3453145577" lon="18.1467429244">
        <ele>19.8</ele>
        <time>2011-05-07T10:09:42Z</time>
      </trkpt>
      <trkpt lat="59.3452564712" lon="18.1468990792">
        <ele>19.8</ele>
        <time>2011-05-07T10:09:46Z</time>
      </trkpt>
      <trkpt lat="59.3452111251" lon="18.1470749315">
        <ele>19.8</ele>
        <time>2011-05-07T10:09:50Z</time>
      </trkpt>
      <trkpt lat="59.3451440699" lon="18.1473170846">
        <ele>20</ele>
        <time>2011-05-07T10:09:55Z</time>
      </trkpt>
      <trkpt lat="59.3450251307" lon="18.1474630134">
        <ele>20</ele>
        <time>2011-05-07T10:09:59Z</time>
      </trkpt>
      <trkpt lat="59.3449119751" lon="18.1475875685">
        <ele>19.8</ele>
        <time>2011-05-07T10:10:03Z</time>
      </trkpt>
      <trkpt lat="59.3448035133" lon="18.1476968684">
        <ele>19.2</ele>
        <time>2011-05-07T10:10:07Z</time>
      </trkpt>
      <trkpt lat="59.3447261484" lon="18.147963832">
        <ele>18.6</ele>
        <time>2011-05-07T10:10:12Z</time>
      </trkpt>
      <trkpt lat="59.3446481967" lon="18.1481636565">
        <ele>18.4</ele>
        <time>2011-05-07T10:10:16Z</time>
      </trkpt>
      <trkpt lat="59.344634618" lon="18.148203219">
        <ele>18.4</ele>
        <time>2011-05-07T10:10:17Z</time>
      </trkpt>
      <trkpt lat="59.3445601029" lon="18.1483313783">
        <ele>18.2</ele>
        <time>2011-05-07T10:10:20Z</time>
      </trkpt>
      <trkpt lat="59.3445347058" lon="18.1483704379">
        <ele>18.2</ele>
        <time>2011-05-07T10:10:21Z</time>
      </trkpt>
      <trkpt lat="59.3444033614" lon="18.1486531594">
        <ele>18</ele>
        <time>2011-05-07T10:10:28Z</time>
      </trkpt>
      <trkpt lat="59.3443201291" lon="18.1488618687">
        <ele>18</ele>
        <time>2011-05-07T10:10:32Z</time>
      </trkpt>
      <trkpt lat="59.344283584" lon="18.1491476077">
        <ele>18</ele>
        <time>2011-05-07T10:10:37Z</time>
      </trkpt>
      <trkpt lat="59.3442766271" lon="18.1492607633">
        <ele>18</ele>
        <time>2011-05-07T10:10:39Z</time>
      </trkpt>
      <trkpt lat="59.3442994258" lon="18.1494825484">
        <ele>18</ele>
        <time>2011-05-07T10:10:43Z</time>
      </trkpt>
      <trkpt lat="59.3442405011" lon="18.1497016513">
        <ele>18</ele>
        <time>2011-05-07T10:10:47Z</time>
      </trkpt>
      <trkpt lat="59.3441966637" lon="18.1498385277">
        <ele>18</ele>
        <time>2011-05-07T10:10:50Z</time>
      </trkpt>
      <trkpt lat="59.3441906288" lon="18.1498931777">
        <ele>18</ele>
        <time>2011-05-07T10:10:51Z</time>
      </trkpt>
      <trkpt lat="59.3442031178" lon="18.1502725425">
        <ele>18</ele>
        <time>2011-05-07T10:10:58Z</time>
      </trkpt>
      <trkpt lat="59.3442577678" lon="18.1505914738">
        <ele>18</ele>
        <time>2011-05-07T10:11:04Z</time>
      </trkpt>
      <trkpt lat="59.3442779682" lon="18.1508237362">
        <ele>18</ele>
        <time>2011-05-07T10:11:08Z</time>
      </trkpt>
      <trkpt lat="59.3442997611" lon="18.1510034442">
        <ele>18</ele>
        <time>2011-05-07T10:11:11Z</time>
      </trkpt>
      <trkpt lat="59.3442480448" lon="18.1512863333">
        <ele>18</ele>
        <time>2011-05-07T10:11:16Z</time>
      </trkpt>
      <trkpt lat="59.3442253298" lon="18.151464281">
        <ele>18</ele>
        <time>2011-05-07T10:11:19Z</time>
      </trkpt>
      <trkpt lat="59.3442121702" lon="18.1515945358">
        <ele>18</ele>
        <time>2011-05-07T10:11:21Z</time>
      </trkpt>
      <trkpt lat="59.3441970828" lon="18.1516449948">
        <ele>17.8</ele>
        <time>2011-05-07T10:11:22Z</time>
      </trkpt>
      <trkpt lat="59.3440695941" lon="18.1518294804">
        <ele>17</ele>
        <time>2011-05-07T10:11:26Z</time>
      </trkpt>
      <trkpt lat="59.3439478889" lon="18.1519715536">
        <ele>16.6</ele>
        <time>2011-05-07T10:11:30Z</time>
      </trkpt>
      <trkpt lat="59.3438387566" lon="18.1521666843">
        <ele>16.2</ele>
        <time>2011-05-07T10:11:34Z</time>
      </trkpt>
      <trkpt lat="59.3437136987" lon="18.1524257688">
        <ele>15.2</ele>
        <time>2011-05-07T10:11:39Z</time>
      </trkpt>
      <trkpt lat="59.3436150437" lon="18.152730367">
        <ele>14.6</ele>
        <time>2011-05-07T10:11:45Z</time>
      </trkpt>
      <trkpt lat="59.3435362538" lon="18.1530785512">
        <ele>13.2</ele>
        <time>2011-05-07T10:11:51Z</time>
      </trkpt>
      <trkpt lat="59.3434795922" lon="18.1532938822">
        <ele>12.6</ele>
        <time>2011-05-07T10:11:55Z</time>
      </trkpt>
      <trkpt lat="59.3433982878" lon="18.1535775257">
        <ele>11.4</ele>
        <time>2011-05-07T10:12:00Z</time>
      </trkpt>
      <trkpt lat="59.343302315" lon="18.1538942777">
        <ele>10.4</ele>
        <time>2011-05-07T10:12:06Z</time>
      </trkpt>
      <trkpt lat="59.3432103656" lon="18.1541847943">
        <ele>10</ele>
        <time>2011-05-07T10:12:12Z</time>
      </trkpt>
      <trkpt lat="59.3431221041" lon="18.154539684">
        <ele>9</ele>
        <time>2011-05-07T10:12:19Z</time>
      </trkpt>
      <trkpt lat="59.3430904206" lon="18.1546531749">
        <ele>8.8</ele>
        <time>2011-05-07T10:12:21Z</time>
      </trkpt>
      <trkpt lat="59.3430501036" lon="18.1549061406">
        <ele>8.2</ele>
        <time>2011-05-07T10:12:26Z</time>
      </trkpt>
      <trkpt lat="59.3430465832" lon="18.1549146064">
        <ele>8.2</ele>
        <time>2011-05-07T10:12:27Z</time>
      </trkpt>
      <trkpt lat="59.3430444878" lon="18.1550218947">
        <ele>6.4</ele>
        <time>2011-05-07T10:12:46Z</time>
      </trkpt>
      <trkpt lat="59.3430051766" lon="18.1552937197">
        <ele>6</ele>
        <time>2011-05-07T10:12:50Z</time>
      </trkpt>
      <trkpt lat="59.3429599982" lon="18.1555557379">
        <ele>5.8</ele>
        <time>2011-05-07T10:12:54Z</time>
      </trkpt>
      <trkpt lat="59.3429128081" lon="18.1559527047">
        <ele>5.6</ele>
        <time>2011-05-07T10:13:00Z</time>
      </trkpt>
      <trkpt lat="59.342872575" lon="18.1561864759">
        <ele>5.6</ele>
        <time>2011-05-07T10:13:04Z</time>
      </trkpt>
      <trkpt lat="59.3428678811" lon="18.1562449815">
        <ele>5.6</ele>
        <time>2011-05-07T10:13:05Z</time>
      </trkpt>
      <trkpt lat="59.3428260554" lon="18.1565361687">
        <ele>5.6</ele>
        <time>2011-05-07T10:13:10Z</time>
      </trkpt>
      <trkpt lat="59.3428013288" lon="18.1567587082">
        <ele>5.4</ele>
        <time>2011-05-07T10:13:14Z</time>
      </trkpt>
      <trkpt lat="59.3427732495" lon="18.1569809962">
        <ele>5.4</ele>
        <time>2011-05-07T10:13:18Z</time>
      </trkpt>
      <trkpt lat="59.342748439" lon="18.1573248217">
        <ele>5</ele>
        <time>2011-05-07T10:13:24Z</time>
      </trkpt>
      <trkpt lat="59.342730418" lon="18.1576088843">
        <ele>4.4</ele>
        <time>2011-05-07T10:13:29Z</time>
      </trkpt>
      <trkpt lat="59.3427018357" lon="18.1578765184">
        <ele>4</ele>
        <time>2011-05-07T10:13:34Z</time>
      </trkpt>
      <trkpt lat="59.342675768" lon="18.1581062662">
        <ele>3.8</ele>
        <time>2011-05-07T10:13:38Z</time>
      </trkpt>
      <trkpt lat="59.3426559867" lon="18.1584075955">
        <ele>3.6</ele>
        <time>2011-05-07T10:13:43Z</time>
      </trkpt>
      <trkpt lat="59.3425930386" lon="18.1586909038">
        <ele>3.6</ele>
        <time>2011-05-07T10:13:48Z</time>
      </trkpt>
      <trkpt lat="59.3425083814" lon="18.1589506588">
        <ele>3.4</ele>
        <time>2011-05-07T10:13:53Z</time>
      </trkpt>
      <trkpt lat="59.3424253168" lon="18.1592310334">
        <ele>3.4</ele>
        <time>2011-05-07T10:13:58Z</time>
      </trkpt>
      <trkpt lat="59.342387263" lon="18.1594772936">
        <ele>3.4</ele>
        <time>2011-05-07T10:14:02Z</time>
      </trkpt>
      <trkpt lat="59.342391873" lon="18.1597849093">
        <ele>3.4</ele>
        <time>2011-05-07T10:14:07Z</time>
      </trkpt>
      <trkpt lat="59.3424512169" lon="18.1601278967">
        <ele>3.4</ele>
        <time>2011-05-07T10:14:13Z</time>
      </trkpt>
      <trkpt lat="59.342539143" lon="18.1604789307">
        <ele>3.4</ele>
        <time>2011-05-07T10:14:19Z</time>
      </trkpt>
      <trkpt lat="59.3426184358" lon="18.1608287074">
        <ele>3.4</ele>
        <time>2011-05-07T10:14:25Z</time>
      </trkpt>
      <trkpt lat="59.3426461799" lon="18.1612141071">
        <ele>3.4</ele>
        <time>2011-05-07T10:14:31Z</time>
      </trkpt>
      <trkpt lat="59.3425795438" lon="18.1615431805">
        <ele>3.4</ele>
        <time>2011-05-07T10:14:36Z</time>
      </trkpt>
      <trkpt lat="59.3425018435" lon="18.1618475273">
        <ele>3.4</ele>
        <time>2011-05-07T10:14:41Z</time>
      </trkpt>
      <trkpt lat="59.3424314356" lon="18.1621509521">
        <ele>3.4</ele>
        <time>2011-05-07T10:14:46Z</time>
      </trkpt>
      <trkpt lat="59.3423725947" lon="18.1623727372">
        <ele>3.4</ele>
        <time>2011-05-07T10:14:50Z</time>
      </trkpt>
      <trkpt lat="59.3423322777" lon="18.1625893254">
        <ele>3.4</ele>
        <time>2011-05-07T10:14:54Z</time>
      </trkpt>
      <trkpt lat="59.3423192019" lon="18.1627670217">
        <ele>3.4</ele>
        <time>2011-05-07T10:14:57Z</time>
      </trkpt>
      <trkpt lat="59.3422178648" lon="18.1630302134">
        <ele>3.4</ele>
        <time>2011-05-07T10:15:03Z</time>
      </trkpt>
      <trkpt lat="59.3420667391" lon="18.1632486457">
        <ele>3.4</ele>
        <time>2011-05-07T10:15:10Z</time>
      </trkpt>
      <trkpt lat="59.3419099976" lon="18.1633877852">
        <ele>3.4</ele>
        <time>2011-05-07T10:15:16Z</time>
      </trkpt>
      <trkpt lat="59.3417779827" lon="18.163479148">
        <ele>3.4</ele>
        <time>2011-05-07T10:15:21Z</time>
      </trkpt>
      <trkpt lat="59.3417050601" lon="18.1636201315">
        <ele>3.4</ele>
        <time>2011-05-07T10:15:25Z</time>
      </trkpt>
      <trkpt lat="59.3416683474" lon="18.1638751089">
        <ele>3.4</ele>
        <time>2011-05-07T10:15:30Z</time>
      </trkpt>
      <trkpt lat="59.34167455" lon="18.1640439204">
        <ele>3.4</ele>
        <time>2011-05-07T10:15:33Z</time>
      </trkpt>
      <trkpt lat="59.3416099256" lon="18.1643007418">
        <ele>3</ele>
        <time>2011-05-07T10:15:39Z</time>
      </trkpt>
      <trkpt lat="59.3415844446" lon="18.1643251331">
        <ele>2.8</ele>
        <time>2011-05-07T10:15:40Z</time>
      </trkpt>
      <trkpt lat="59.3414823531" lon="18.1644760073">
        <ele>2.2</ele>
        <time>2011-05-07T10:15:45Z</time>
      </trkpt>
      <trkpt lat="59.3413810997" lon="18.1647195853">
        <ele>1.8</ele>
        <time>2011-05-07T10:15:51Z</time>
      </trkpt>
      <trkpt lat="59.3412839535" lon="18.164877668">
        <ele>1.6</ele>
        <time>2011-05-07T10:15:57Z</time>
      </trkpt>
      <trkpt lat="59.3412645075" lon="18.1648992933">
        <ele>1.6</ele>
        <time>2011-05-07T10:15:58Z</time>
      </trkpt>
      <trkpt lat="59.341234165" lon="18.1649189907">
        <ele>1.6</ele>
        <time>2011-05-07T10:15:59Z</time>
      </trkpt>
      <trkpt lat="59.3411293912" lon="18.1652060708">
        <ele>1.4</ele>
        <time>2011-05-07T10:16:06Z</time>
      </trkpt>
      <trkpt lat="59.3411144715" lon="18.1652475612">
        <ele>1.4</ele>
        <time>2011-05-07T10:16:07Z</time>
      </trkpt>
      <trkpt lat="59.3410717238" lon="18.1653602139">
        <ele>1.4</ele>
        <time>2011-05-07T10:16:10Z</time>
      </trkpt>
      <trkpt lat="59.3409341768" lon="18.1656635549">
        <ele>1.4</ele>
        <time>2011-05-07T10:16:17Z</time>
      </trkpt>
      <trkpt lat="59.3408617572" lon="18.1657686639">
        <ele>1.4</ele>
        <time>2011-05-07T10:16:20Z</time>
      </trkpt>
      <trkpt lat="59.3407872421" lon="18.1658500522">
        <ele>1.4</ele>
        <time>2011-05-07T10:16:23Z</time>
      </trkpt>
      <trkpt lat="59.3407114697" lon="18.1659641298">
        <ele>1.4</ele>
        <time>2011-05-07T10:16:27Z</time>
      </trkpt>
      <trkpt lat="59.3406628547" lon="18.1660079672">
        <ele>1.4</ele>
        <time>2011-05-07T10:16:32Z</time>
      </trkpt>
      <trkpt lat="59.3405615175" lon="18.1660651317">
        <ele>1.4</ele>
        <time>2011-05-07T10:16:43Z</time>
      </trkpt>
      <trkpt lat="59.3405377967" lon="18.1660993299">
        <ele>1.4</ele>
        <time>2011-05-07T10:16:44Z</time>
      </trkpt>
      <trkpt lat="59.3404674726" lon="18.1662362063">
        <ele>1.4</ele>
        <time>2011-05-07T10:16:47Z</time>
      </trkpt>
      <trkpt lat="59.3403562448" lon="18.1664377072">
        <ele>1.4</ele>
        <time>2011-05-07T10:16:51Z</time>
      </trkpt>
      <trkpt lat="59.3402833223" lon="18.1666709755">
        <ele>1.4</ele>
        <time>2011-05-07T10:16:55Z</time>
      </trkpt>
      <trkpt lat="59.3401480384" lon="18.1668984602">
        <ele>1.4</ele>
        <time>2011-05-07T10:17:00Z</time>
      </trkpt>
      <trkpt lat="59.3399982538" lon="18.1671204129">
        <ele>1.4</ele>
        <time>2011-05-07T10:17:05Z</time>
      </trkpt>
      <trkpt lat="59.3398828351" lon="18.1672649169">
        <ele>1.4</ele>
        <time>2011-05-07T10:17:09Z</time>
      </trkpt>
      <trkpt lat="59.3398577732" lon="18.1673054015">
        <ele>1.4</ele>
        <time>2011-05-07T10:17:10Z</time>
      </trkpt>
      <trkpt lat="59.3397669972" lon="18.16748578">
        <ele>1.4</ele>
        <time>2011-05-07T10:17:14Z</time>
      </trkpt>
      <trkpt lat="59.339692063" lon="18.1676874485">
        <ele>1.4</ele>
        <time>2011-05-07T10:17:18Z</time>
      </trkpt>
      <trkpt lat="59.3396534225" lon="18.1677927251">
        <ele>1.4</ele>
        <time>2011-05-07T10:17:20Z</time>
      </trkpt>
      <trkpt lat="59.3395283645" lon="18.168114171">
        <ele>1.4</ele>
        <time>2011-05-07T10:17:26Z</time>
      </trkpt>
      <trkpt lat="59.339442953" lon="18.168326736">
        <ele>1.4</ele>
        <time>2011-05-07T10:17:30Z</time>
      </trkpt>
      <trkpt lat="59.3394001215" lon="18.1684966371">
        <ele>1</ele>
        <time>2011-05-07T10:17:33Z</time>
      </trkpt>
      <trkpt lat="59.3394560287" lon="18.1687542967">
        <ele>0.2</ele>
        <time>2011-05-07T10:17:38Z</time>
      </trkpt>
      <trkpt lat="59.3395109302" lon="18.1689568034">
        <ele>0</ele>
        <time>2011-05-07T10:17:42Z</time>
      </trkpt>
      <trkpt lat="59.3395290351" lon="18.1690504292">
        <ele>0</ele>
        <time>2011-05-07T10:17:44Z</time>
      </trkpt>
      <trkpt lat="59.3396420231" lon="18.1691451447">
        <ele>0</ele>
        <time>2011-05-07T10:17:50Z</time>
      </trkpt>
      <trkpt lat="59.3396657439" lon="18.1691782532">
        <ele>0</ele>
        <time>2011-05-07T10:17:51Z</time>
      </trkpt>
      <trkpt lat="59.3397075695" lon="18.1693122798">
        <ele>0</ele>
        <time>2011-05-07T10:17:55Z</time>
      </trkpt>
      <trkpt lat="59.3397778099" lon="18.1697467137">
        <ele>0.4</ele>
        <time>2011-05-07T10:18:02Z</time>
      </trkpt>
      <trkpt lat="59.3398484693" lon="18.1700193769">
        <ele>0.8</ele>
        <time>2011-05-07T10:18:08Z</time>
      </trkpt>
      <trkpt lat="59.33991762" lon="18.1703331114">
        <ele>1.8</ele>
        <time>2011-05-07T10:18:14Z</time>
      </trkpt>
      <trkpt lat="59.3399668217" lon="18.170575013">
        <ele>2.4</ele>
        <time>2011-05-07T10:18:19Z</time>
      </trkpt>
      <trkpt lat="59.3400195439" lon="18.1708852272">
        <ele>3</ele>
        <time>2011-05-07T10:18:25Z</time>
      </trkpt>
      <trkpt lat="59.3401020218" lon="18.1711264582">
        <ele>3.2</ele>
        <time>2011-05-07T10:18:30Z</time>
      </trkpt>
      <trkpt lat="59.3402092263" lon="18.1712817748">
        <ele>3.4</ele>
        <time>2011-05-07T10:18:35Z</time>
      </trkpt>
      <trkpt lat="59.3402632057" lon="18.1714055755">
        <ele>3.4</ele>
        <time>2011-05-07T10:18:39Z</time>
      </trkpt>
      <trkpt lat="59.3402065441" lon="18.1716431186">
        <ele>3.6</ele>
        <time>2011-05-07T10:18:44Z</time>
      </trkpt>
      <trkpt lat="59.3401757825" lon="18.1716810886">
        <ele>3.6</ele>
        <time>2011-05-07T10:18:45Z</time>
      </trkpt>
      <trkpt lat="59.3399964936" lon="18.1721084816">
        <ele>3.6</ele>
        <time>2011-05-07T10:18:53Z</time>
      </trkpt>
      <trkpt lat="59.3399813224" lon="18.1727151636">
        <ele>3.6</ele>
        <time>2011-05-07T10:19:03Z</time>
      </trkpt>
      <trkpt lat="59.3400021933" lon="18.1730134754">
        <ele>3.2</ele>
        <time>2011-05-07T10:19:08Z</time>
      </trkpt>
      <trkpt lat="59.3399815739" lon="18.173372556">
        <ele>2.4</ele>
        <time>2011-05-07T10:19:14Z</time>
      </trkpt>
      <trkpt lat="59.3399823282" lon="18.1737228356">
        <ele>2</ele>
        <time>2011-05-07T10:19:20Z</time>
      </trkpt>
      <trkpt lat="59.3399857648" lon="18.1740080716">
        <ele>1.8</ele>
        <time>2011-05-07T10:19:25Z</time>
      </trkpt>
      <trkpt lat="59.3399973318" lon="18.1744073854">
        <ele>1.6</ele>
        <time>2011-05-07T10:19:32Z</time>
      </trkpt>
      <trkpt lat="59.3399871059" lon="18.1747758537">
        <ele>1.6</ele>
        <time>2011-05-07T10:19:39Z</time>
      </trkpt>
      <trkpt lat="59.3399415922" lon="18.1749679668">
        <ele>1.6</ele>
        <time>2011-05-07T10:19:43Z</time>
      </trkpt>
      <trkpt lat="59.3398852658" lon="18.1752173283">
        <ele>1.6</ele>
        <time>2011-05-07T10:19:48Z</time>
      </trkpt>
      <trkpt lat="59.3398293586" lon="18.1755717151">
        <ele>1.6</ele>
        <time>2011-05-07T10:19:54Z</time>
      </trkpt>
      <trkpt lat="59.3397493952" lon="18.1757871299">
        <ele>1.4</ele>
        <time>2011-05-07T10:19:59Z</time>
      </trkpt>
      <trkpt lat="59.3396277739" lon="18.176016794">
        <ele>1.4</ele>
        <time>2011-05-07T10:20:05Z</time>
      </trkpt>
      <trkpt lat="59.3395412726" lon="18.1761627229">
        <ele>1.4</ele>
        <time>2011-05-07T10:20:09Z</time>
      </trkpt>
      <trkpt lat="59.3394486527" lon="18.1763638885">
        <ele>1.4</ele>
        <time>2011-05-07T10:20:14Z</time>
      </trkpt>
      <trkpt lat="59.339364666" lon="18.1765472006">
        <ele>1.4</ele>
        <time>2011-05-07T10:20:20Z</time>
      </trkpt>
      <trkpt lat="59.3393431245" lon="18.1765850868">
        <ele>1.4</ele>
        <time>2011-05-07T10:20:24Z</time>
      </trkpt>
      <trkpt lat="59.3393443818" lon="18.1766066283">
        <ele>1.4</ele>
        <time>2011-05-07T10:20:33Z</time>
      </trkpt>
      <trkpt lat="59.3393363352" lon="18.1766153454">
        <ele>1.4</ele>
        <time>2011-05-07T10:20:38Z</time>
      </trkpt>
      <trkpt lat="59.3393212478" lon="18.1766230568">
        <ele>1.4</ele>
        <time>2011-05-07T10:20:40Z</time>
      </trkpt>
      <trkpt lat="59.3392472356" lon="18.1767562452">
        <ele>1.4</ele>
        <time>2011-05-07T10:20:45Z</time>
      </trkpt>
      <trkpt lat="59.3391743131" lon="18.176899408">
        <ele>1.4</ele>
        <time>2011-05-07T10:20:48Z</time>
      </trkpt>
      <trkpt lat="59.3390842915" lon="18.1773064331">
        <ele>1.4</ele>
        <time>2011-05-07T10:20:55Z</time>
      </trkpt>
      <trkpt lat="59.339073395" lon="18.1776438884">
        <ele>1.4</ele>
        <time>2011-05-07T10:21:00Z</time>
      </trkpt>
      <trkpt lat="59.339111365" lon="18.1779934136">
        <ele>1.4</ele>
        <time>2011-05-07T10:21:05Z</time>
      </trkpt>
      <trkpt lat="59.3392054099" lon="18.178346124">
        <ele>2.2</ele>
        <time>2011-05-07T10:21:11Z</time>
      </trkpt>
      <trkpt lat="59.3392812661" lon="18.1786807294">
        <ele>2.8</ele>
        <time>2011-05-07T10:21:17Z</time>
      </trkpt>
      <trkpt lat="59.3392970241" lon="18.1789623613">
        <ele>3.2</ele>
        <time>2011-05-07T10:21:22Z</time>
      </trkpt>
      <trkpt lat="59.339240111" lon="18.1792118904">
        <ele>3.2</ele>
        <time>2011-05-07T10:21:27Z</time>
      </trkpt>
      <trkpt lat="59.3391357563" lon="18.1794718132">
        <ele>3.4</ele>
        <time>2011-05-07T10:21:34Z</time>
      </trkpt>
      <trkpt lat="59.3391311463" lon="18.1795249544">
        <ele>3.4</ele>
        <time>2011-05-07T10:21:35Z</time>
      </trkpt>
      <trkpt lat="59.3391604829" lon="18.1799084263">
        <ele>3.4</ele>
        <time>2011-05-07T10:21:41Z</time>
      </trkpt>
      <trkpt lat="59.3392158035" lon="18.1801602186">
        <ele>3.4</ele>
        <time>2011-05-07T10:21:46Z</time>
      </trkpt>
      <trkpt lat="59.3392696991" lon="18.1804846819">
        <ele>3.6</ele>
        <time>2011-05-07T10:21:52Z</time>
      </trkpt>
      <trkpt lat="59.3392886422" lon="18.180829178">
        <ele>3.6</ele>
        <time>2011-05-07T10:21:58Z</time>
      </trkpt>
      <trkpt lat="59.339298449" lon="18.1809987439">
        <ele>3.6</ele>
        <time>2011-05-07T10:22:01Z</time>
      </trkpt>
      <trkpt lat="59.3393203258" lon="18.1811359556">
        <ele>3.6</ele>
        <time>2011-05-07T10:22:04Z</time>
      </trkpt>
      <trkpt lat="59.3393890573" lon="18.1813560643">
        <ele>3.6</ele>
        <time>2011-05-07T10:22:09Z</time>
      </trkpt>
      <trkpt lat="59.3394541847" lon="18.1815971277">
        <ele>3.6</ele>
        <time>2011-05-07T10:22:14Z</time>
      </trkpt>
      <trkpt lat="59.3395164622" lon="18.1819381872">
        <ele>3.6</ele>
        <time>2011-05-07T10:22:20Z</time>
      </trkpt>
      <trkpt lat="59.3395943301" lon="18.182133234">
        <ele>3.8</ele>
        <time>2011-05-07T10:22:24Z</time>
      </trkpt>
      <trkpt lat="59.3396998582" lon="18.1824312106">
        <ele>4.6</ele>
        <time>2011-05-07T10:22:30Z</time>
      </trkpt>
      <trkpt lat="59.3397711043" lon="18.1827211405">
        <ele>5</ele>
        <time>2011-05-07T10:22:35Z</time>
      </trkpt>
      <trkpt lat="59.3398594496" lon="18.1830601045">
        <ele>5.2</ele>
        <time>2011-05-07T10:22:41Z</time>
      </trkpt>
      <trkpt lat="59.3399475433" lon="18.1834078696">
        <ele>5.4</ele>
        <time>2011-05-07T10:22:47Z</time>
      </trkpt>
      <trkpt lat="59.3400603637" lon="18.1837090312">
        <ele>6.4</ele>
        <time>2011-05-07T10:22:53Z</time>
      </trkpt>
      <trkpt lat="59.34018341" lon="18.1843198203">
        <ele>7.8</ele>
        <time>2011-05-07T10:23:05Z</time>
      </trkpt>
      <trkpt lat="59.3401543248" lon="18.1845380011">
        <ele>8.6</ele>
        <time>2011-05-07T10:23:10Z</time>
      </trkpt>
      <trkpt lat="59.3401149299" lon="18.1846146117">
        <ele>9.4</ele>
        <time>2011-05-07T10:23:27Z</time>
      </trkpt>
      <trkpt lat="59.340113505" lon="18.1847478839">
        <ele>9.4</ele>
        <time>2011-05-07T10:23:29Z</time>
      </trkpt>
      <trkpt lat="59.3401641316" lon="18.1849725188">
        <ele>9.6</ele>
        <time>2011-05-07T10:23:33Z</time>
      </trkpt>
      <trkpt lat="59.3401777103" lon="18.1850204633">
        <ele>9.6</ele>
        <time>2011-05-07T10:23:34Z</time>
      </trkpt>
      <trkpt lat="59.3402394849" lon="18.1853677254">
        <ele>9.6</ele>
        <time>2011-05-07T10:23:40Z</time>
      </trkpt>
      <trkpt lat="59.3402368027" lon="18.1857038396">
        <ele>9.6</ele>
        <time>2011-05-07T10:23:45Z</time>
      </trkpt>
      <trkpt lat="59.3401954799" lon="18.1859678695">
        <ele>9.6</ele>
        <time>2011-05-07T10:23:50Z</time>
      </trkpt>
      <trkpt lat="59.3401710048" lon="18.1861861341">
        <ele>9.6</ele>
        <time>2011-05-07T10:23:54Z</time>
      </trkpt>
      <trkpt lat="59.3401003454" lon="18.1864531815">
        <ele>9.6</ele>
        <time>2011-05-07T10:23:59Z</time>
      </trkpt>
      <trkpt lat="59.340050976" lon="18.1867367412">
        <ele>9.6</ele>
        <time>2011-05-07T10:24:04Z</time>
      </trkpt>
      <trkpt lat="59.3400369782" lon="18.186961879">
        <ele>9.6</ele>
        <time>2011-05-07T10:24:08Z</time>
      </trkpt>
      <trkpt lat="59.339996326" lon="18.1871926327">
        <ele>9.6</ele>
        <time>2011-05-07T10:24:12Z</time>
      </trkpt>
      <trkpt lat="59.3399763771" lon="18.1874636195">
        <ele>9.6</ele>
        <time>2011-05-07T10:24:17Z</time>
      </trkpt>
      <trkpt lat="59.3399704259" lon="18.1877050182">
        <ele>9.6</ele>
        <time>2011-05-07T10:24:21Z</time>
      </trkpt>
      <trkpt lat="59.3399674084" lon="18.1877506996">
        <ele>9.6</ele>
        <time>2011-05-07T10:24:22Z</time>
      </trkpt>
      <trkpt lat="59.3399947334" lon="18.187987153">
        <ele>9.8</ele>
        <time>2011-05-07T10:24:26Z</time>
      </trkpt>
      <trkpt lat="59.3400358047" lon="18.1881377757">
        <ele>10.2</ele>
        <time>2011-05-07T10:24:29Z</time>
      </trkpt>
      <trkpt lat="59.3400753673" lon="18.1882643424">
        <ele>10.6</ele>
        <time>2011-05-07T10:24:32Z</time>
      </trkpt>
      <trkpt lat="59.3401365552" lon="18.1885038971">
        <ele>11</ele>
        <time>2011-05-07T10:24:37Z</time>
      </trkpt>
      <trkpt lat="59.3402183625" lon="18.1886438749">
        <ele>11.2</ele>
        <time>2011-05-07T10:24:41Z</time>
      </trkpt>
      <trkpt lat="59.340355239" lon="18.1886588785">
        <ele>11.4</ele>
        <time>2011-05-07T10:24:46Z</time>
      </trkpt>
      <trkpt lat="59.3404844879" lon="18.1886711999">
        <ele>12</ele>
        <time>2011-05-07T10:24:51Z</time>
      </trkpt>
      <trkpt lat="59.3406749246" lon="18.1887292026">
        <ele>12.8</ele>
        <time>2011-05-07T10:24:58Z</time>
      </trkpt>
      <trkpt lat="59.3408301574" lon="18.1888079086">
        <ele>13.2</ele>
        <time>2011-05-07T10:25:04Z</time>
      </trkpt>
      <trkpt lat="59.3409382001" lon="18.1887932403">
        <ele>14</ele>
        <time>2011-05-07T10:25:09Z</time>
      </trkpt>
      <trkpt lat="59.341031323" lon="18.188722078">
        <ele>14.6</ele>
        <time>2011-05-07T10:25:13Z</time>
      </trkpt>
      <trkpt lat="59.3411238592" lon="18.18849518">
        <ele>15</ele>
        <time>2011-05-07T10:25:19Z</time>
      </trkpt>
      <trkpt lat="59.3411959435" lon="18.1882624984">
        <ele>15.4</ele>
        <time>2011-05-07T10:25:25Z</time>
      </trkpt>
      <trkpt lat="59.3412780023" lon="18.1880503525">
        <ele>15.4</ele>
        <time>2011-05-07T10:25:30Z</time>
      </trkpt>
      <trkpt lat="59.3413873023" lon="18.1878254661">
        <ele>15.6</ele>
        <time>2011-05-07T10:25:36Z</time>
      </trkpt>
      <trkpt lat="59.3414929981" lon="18.1876709877">
        <ele>15.6</ele>
        <time>2011-05-07T10:25:41Z</time>
      </trkpt>
      <trkpt lat="59.3416113505" lon="18.1873991627">
        <ele>15.6</ele>
        <time>2011-05-07T10:25:48Z</time>
      </trkpt>
      <trkpt lat="59.3417420243" lon="18.187181401">
        <ele>15.6</ele>
        <time>2011-05-07T10:25:54Z</time>
      </trkpt>
      <trkpt lat="59.3418734525" lon="18.1869633039">
        <ele>15.6</ele>
        <time>2011-05-07T10:26:00Z</time>
      </trkpt>
      <trkpt lat="59.3420047131" lon="18.1867412674">
        <ele>15.6</ele>
        <time>2011-05-07T10:26:06Z</time>
      </trkpt>
      <trkpt lat="59.3420416772" lon="18.1866540956">
        <ele>15.6</ele>
        <time>2011-05-07T10:26:08Z</time>
      </trkpt>
      <trkpt lat="59.3422254923" lon="18.1864462245">
        <ele>15.6</ele>
        <time>2011-05-07T10:26:15Z</time>
      </trkpt>
      <trkpt lat="59.3423836588" lon="18.1862504233">
        <ele>16.2</ele>
        <time>2011-05-07T10:26:21Z</time>
      </trkpt>
      <trkpt lat="59.3425056154" lon="18.1860951067">
        <ele>16.8</ele>
        <time>2011-05-07T10:26:26Z</time>
      </trkpt>
      <trkpt lat="59.3426242193" lon="18.1860525267">
        <ele>17.2</ele>
        <time>2011-05-07T10:26:30Z</time>
      </trkpt>
      <trkpt lat="59.3427583297" lon="18.1861399499">
        <ele>17.6</ele>
        <time>2011-05-07T10:26:35Z</time>
      </trkpt>
      <trkpt lat="59.3429242075" lon="18.186350587">
        <ele>18.8</ele>
        <time>2011-05-07T10:26:42Z</time>
      </trkpt>
      <trkpt lat="59.3430033326" lon="18.1864225037">
        <ele>19.8</ele>
        <time>2011-05-07T10:26:46Z</time>
      </trkpt>
      <trkpt lat="59.3430254608" lon="18.1864332326">
        <ele>20</ele>
        <time>2011-05-07T10:26:47Z</time>
      </trkpt>
      <trkpt lat="59.3431505188" lon="18.1865657504">
        <ele>20.8</ele>
        <time>2011-05-07T10:26:52Z</time>
      </trkpt>
      <trkpt lat="59.3432619981" lon="18.186646049">
        <ele>22</ele>
        <time>2011-05-07T10:26:56Z</time>
      </trkpt>
      <trkpt lat="59.3433925881" lon="18.186527026">
        <ele>23</ele>
        <time>2011-05-07T10:27:01Z</time>
      </trkpt>
      <trkpt lat="59.3434418736" lon="18.186445973">
        <ele>23.8</ele>
        <time>2011-05-07T10:27:04Z</time>
      </trkpt>
      <trkpt lat="59.3435552807" lon="18.1862196617">
        <ele>24.8</ele>
        <time>2011-05-07T10:27:10Z</time>
      </trkpt>
      <trkpt lat="59.3435824381" lon="18.1861883973">
        <ele>25</ele>
        <time>2011-05-07T10:27:11Z</time>
      </trkpt>
      <trkpt lat="59.3436254372" lon="18.1861351722">
        <ele>25.4</ele>
        <time>2011-05-07T10:27:13Z</time>
      </trkpt>
      <trkpt lat="59.3437402693" lon="18.185921769">
        <ele>26.8</ele>
        <time>2011-05-07T10:27:19Z</time>
      </trkpt>
      <trkpt lat="59.3438382537" lon="18.1858248743">
        <ele>27.2</ele>
        <time>2011-05-07T10:27:23Z</time>
      </trkpt>
      <trkpt lat="59.3439546783" lon="18.1856764308">
        <ele>28.2</ele>
        <time>2011-05-07T10:27:28Z</time>
      </trkpt>
      <trkpt lat="59.3440538362" lon="18.1855336871">
        <ele>28.8</ele>
        <time>2011-05-07T10:27:32Z</time>
      </trkpt>
      <trkpt lat="59.3440728631" lon="18.1854940407">
        <ele>29</ele>
        <time>2011-05-07T10:27:33Z</time>
      </trkpt>
      <trkpt lat="59.3441648125" lon="18.1853300907">
        <ele>29.4</ele>
        <time>2011-05-07T10:27:37Z</time>
      </trkpt>
      <trkpt lat="59.344247458" lon="18.1850707547">
        <ele>30.6</ele>
        <time>2011-05-07T10:27:42Z</time>
      </trkpt>
      <trkpt lat="59.3442696701" lon="18.1850296834">
        <ele>30.8</ele>
        <time>2011-05-07T10:27:43Z</time>
      </trkpt>
      <trkpt lat="59.3443657267" lon="18.1848905439">
        <ele>31.4</ele>
        <time>2011-05-07T10:27:47Z</time>
      </trkpt>
      <trkpt lat="59.3444052054" lon="18.1848026177">
        <ele>32</ele>
        <time>2011-05-07T10:27:49Z</time>
      </trkpt>
      <trkpt lat="59.3445694906" lon="18.184572786">
        <ele>33.4</ele>
        <time>2011-05-07T10:27:56Z</time>
      </trkpt>
      <trkpt lat="59.3446642061" lon="18.1843848638">
        <ele>33.8</ele>
        <time>2011-05-07T10:28:01Z</time>
      </trkpt>
      <trkpt lat="59.3447560717" lon="18.184108345">
        <ele>34.2</ele>
        <time>2011-05-07T10:28:07Z</time>
      </trkpt>
      <trkpt lat="59.3447748472" lon="18.1840720513">
        <ele>34.2</ele>
        <time>2011-05-07T10:28:08Z</time>
      </trkpt>
      <trkpt lat="59.3449006595" lon="18.1839500947">
        <ele>34.4</ele>
        <time>2011-05-07T10:28:13Z</time>
      </trkpt>
      <trkpt lat="59.3449444968" lon="18.1838778427">
        <ele>34.4</ele>
        <time>2011-05-07T10:28:15Z</time>
      </trkpt>
      <trkpt lat="59.3450792778" lon="18.1837331711">
        <ele>34.6</ele>
        <time>2011-05-07T10:28:20Z</time>
      </trkpt>
      <trkpt lat="59.3451660305" lon="18.1836660321">
        <ele>34.6</ele>
        <time>2011-05-07T10:28:23Z</time>
      </trkpt>
      <trkpt lat="59.3453038289" lon="18.1835019145">
        <ele>34.6</ele>
        <time>2011-05-07T10:28:29Z</time>
      </trkpt>
      <trkpt lat="59.3453822835" lon="18.1834175926">
        <ele>34.6</ele>
        <time>2011-05-07T10:28:32Z</time>
      </trkpt>
      <trkpt lat="59.3455233509" lon="18.1832329393">
        <ele>34.6</ele>
        <time>2011-05-07T10:28:38Z</time>
      </trkpt>
      <trkpt lat="59.3455528551" lon="18.1832046085">
        <ele>34.6</ele>
        <time>2011-05-07T10:28:39Z</time>
      </trkpt>
      <trkpt lat="59.3456493308" lon="18.1830630382">
        <ele>34.6</ele>
        <time>2011-05-07T10:28:43Z</time>
      </trkpt>
      <trkpt lat="59.3457797532" lon="18.1829092303">
        <ele>34.6</ele>
        <time>2011-05-07T10:28:48Z</time>
      </trkpt>
      <trkpt lat="59.3458855328" lon="18.1828365593">
        <ele>34.6</ele>
        <time>2011-05-07T10:28:52Z</time>
      </trkpt>
      <trkpt lat="59.3460409332" lon="18.182792219">
        <ele>34.6</ele>
        <time>2011-05-07T10:28:57Z</time>
      </trkpt>
      <trkpt lat="59.3460665818" lon="18.1828052948">
        <ele>34.6</ele>
        <time>2011-05-07T10:28:58Z</time>
      </trkpt>
      <trkpt lat="59.3461722776" lon="18.1829373097">
        <ele>34.6</ele>
        <time>2011-05-07T10:29:02Z</time>
      </trkpt>
      <trkpt lat="59.3462997663" lon="18.1831786246">
        <ele>34.8</ele>
        <time>2011-05-07T10:29:08Z</time>
      </trkpt>
      <trkpt lat="59.3463223974" lon="18.1832691491">
        <ele>35.2</ele>
        <time>2011-05-07T10:29:10Z</time>
      </trkpt>
      <trkpt lat="59.3463209725" lon="18.1834631901">
        <ele>35.6</ele>
        <time>2011-05-07T10:29:14Z</time>
      </trkpt>
      <trkpt lat="59.346300353" lon="18.1836075264">
        <ele>36</ele>
        <time>2011-05-07T10:29:17Z</time>
      </trkpt>
      <trkpt lat="59.3463410052" lon="18.1837895813">
        <ele>36.2</ele>
        <time>2011-05-07T10:29:21Z</time>
      </trkpt>
      <trkpt lat="59.3463348026" lon="18.1840523539">
        <ele>36.4</ele>
        <time>2011-05-07T10:29:26Z</time>
      </trkpt>
      <trkpt lat="59.3463404185" lon="18.1841825248">
        <ele>36.4</ele>
        <time>2011-05-07T10:29:29Z</time>
      </trkpt>
      <trkpt lat="59.3464442702" lon="18.1844007894">
        <ele>36.6</ele>
        <time>2011-05-07T10:29:35Z</time>
      </trkpt>
      <trkpt lat="59.3465363035" lon="18.1846489775">
        <ele>36.6</ele>
        <time>2011-05-07T10:29:41Z</time>
      </trkpt>
      <trkpt lat="59.3465789673" lon="18.1847524102">
        <ele>36.6</ele>
        <time>2011-05-07T10:29:44Z</time>
      </trkpt>
      <trkpt lat="59.3466562485" lon="18.1849554198">
        <ele>36.6</ele>
        <time>2011-05-07T10:29:49Z</time>
      </trkpt>
      <trkpt lat="59.3466746886" lon="18.1849771289">
        <ele>36.6</ele>
        <time>2011-05-07T10:29:50Z</time>
      </trkpt>
      <trkpt lat="59.3467914485" lon="18.1850818188">
        <ele>36.6</ele>
        <time>2011-05-07T10:29:54Z</time>
      </trkpt>
      <trkpt lat="59.3468947135" lon="18.1851509695">
        <ele>36.6</ele>
        <time>2011-05-07T10:29:58Z</time>
      </trkpt>
      <trkpt lat="59.34692229" lon="18.1851548252">
        <ele>36.6</ele>
        <time>2011-05-07T10:29:59Z</time>
      </trkpt>
      <trkpt lat="59.3469889261" lon="18.1850953137">
        <ele>36.6</ele>
        <time>2011-05-07T10:30:02Z</time>
      </trkpt>
      <trkpt lat="59.3470513712" lon="18.1849480437">
        <ele>36.6</ele>
        <time>2011-05-07T10:30:06Z</time>
      </trkpt>
      <trkpt lat="59.3471838053" lon="18.1847529131">
        <ele>36.6</ele>
        <time>2011-05-07T10:30:12Z</time>
      </trkpt>
      <trkpt lat="59.3472046762" lon="18.1847503147">
        <ele>36.6</ele>
        <time>2011-05-07T10:30:13Z</time>
      </trkpt>
      <trkpt lat="59.3472857292" lon="18.1847113388">
        <ele>36.6</ele>
        <time>2011-05-07T10:30:17Z</time>
      </trkpt>
      <trkpt lat="59.3474751601" lon="18.1847296114">
        <ele>36.6</ele>
        <time>2011-05-07T10:30:24Z</time>
      </trkpt>
      <trkpt lat="59.3475375214" lon="18.1847804895">
        <ele>36.6</ele>
        <time>2011-05-07T10:30:27Z</time>
      </trkpt>
      <trkpt lat="59.3475821131" lon="18.184981236">
        <ele>36.6</ele>
        <time>2011-05-07T10:30:32Z</time>
      </trkpt>
      <trkpt lat="59.3476186582" lon="18.1849937251">
        <ele>36.6</ele>
        <time>2011-05-07T10:30:34Z</time>
      </trkpt>
      <trkpt lat="59.3477596418" lon="18.1850169429">
        <ele>36.6</ele>
        <time>2011-05-07T10:30:39Z</time>
      </trkpt>
      <trkpt lat="59.3478126992" lon="18.1849819904">
        <ele>36.6</ele>
        <time>2011-05-07T10:30:41Z</time>
      </trkpt>
      <trkpt lat="59.3479507491" lon="18.1849379016">
        <ele>36.6</ele>
        <time>2011-05-07T10:30:46Z</time>
      </trkpt>
      <trkpt lat="59.3480658326" lon="18.1848440243">
        <ele>36.6</ele>
        <time>2011-05-07T10:30:51Z</time>
      </trkpt>
      <trkpt lat="59.348237913" lon="18.184851568">
        <ele>36.6</ele>
        <time>2011-05-07T10:30:57Z</time>
      </trkpt>
      <trkpt lat="59.3483368194" lon="18.1850005144">
        <ele>36.6</ele>
        <time>2011-05-07T10:31:02Z</time>
      </trkpt>
      <trkpt lat="59.3484674932" lon="18.1851768696">
        <ele>36.6</ele>
        <time>2011-05-07T10:31:08Z</time>
      </trkpt>
      <trkpt lat="59.348556509" lon="18.1853802145">
        <ele>36.6</ele>
        <time>2011-05-07T10:31:12Z</time>
      </trkpt>
      <trkpt lat="59.3485943952" lon="18.1855467628">
        <ele>36.6</ele>
        <time>2011-05-07T10:31:16Z</time>
      </trkpt>
      <trkpt lat="59.3486079739" lon="18.1856674622">
        <ele>36.6</ele>
        <time>2011-05-07T10:31:18Z</time>
      </trkpt>
      <trkpt lat="59.348571345" lon="18.1859532011">
        <ele>36.6</ele>
        <time>2011-05-07T10:31:23Z</time>
      </trkpt>
      <trkpt lat="59.3485363086" lon="18.1861461525">
        <ele>36.6</ele>
        <time>2011-05-07T10:31:28Z</time>
      </trkpt>
      <trkpt lat="59.3485260827" lon="18.1861797639">
        <ele>36.6</ele>
        <time>2011-05-07T10:31:29Z</time>
      </trkpt>
      <trkpt lat="59.3485138451" lon="18.1862187397">
        <ele>36.6</ele>
        <time>2011-05-07T10:31:30Z</time>
      </trkpt>
      <trkpt lat="59.3485268371" lon="18.1863834441">
        <ele>36.6</ele>
        <time>2011-05-07T10:31:34Z</time>
      </trkpt>
      <trkpt lat="59.3485265856" lon="18.1864285387">
        <ele>36.6</ele>
        <time>2011-05-07T10:31:35Z</time>
      </trkpt>
      <trkpt lat="59.3485005179" lon="18.1866016249">
        <ele>36.6</ele>
        <time>2011-05-07T10:31:38Z</time>
      </trkpt>
      <trkpt lat="59.3484989254" lon="18.1867078236">
        <ele>36.6</ele>
        <time>2011-05-07T10:31:41Z</time>
      </trkpt>
      <trkpt lat="59.3485475404" lon="18.1868056404">
        <ele>36.6</ele>
        <time>2011-05-07T10:31:44Z</time>
      </trkpt>
      <trkpt lat="59.3485658129" lon="18.1868380783">
        <ele>36.6</ele>
        <time>2011-05-07T10:31:45Z</time>
      </trkpt>
      <trkpt lat="59.3485929703" lon="18.1868581949">
        <ele>36.6</ele>
        <time>2011-05-07T10:31:46Z</time>
      </trkpt>
      <trkpt lat="59.3486808964" lon="18.1868999368">
        <ele>36.6</ele>
        <time>2011-05-07T10:31:49Z</time>
      </trkpt>
      <trkpt lat="59.3488191139" lon="18.1869386611">
        <ele>36.6</ele>
        <time>2011-05-07T10:31:54Z</time>
      </trkpt>
      <trkpt lat="59.3488449302" lon="18.1870741126">
        <ele>36.6</ele>
        <time>2011-05-07T10:31:57Z</time>
      </trkpt>
      <trkpt lat="59.3489178527" lon="18.1872395713">
        <ele>36.6</ele>
        <time>2011-05-07T10:32:01Z</time>
      </trkpt>
      <trkpt lat="59.3490206986" lon="18.1875127375">
        <ele>36.6</ele>
        <time>2011-05-07T10:32:07Z</time>
      </trkpt>
      <trkpt lat="59.3490667153" lon="18.1876781962">
        <ele>36.6</ele>
        <time>2011-05-07T10:32:11Z</time>
      </trkpt>
      <trkpt lat="59.3491165876" lon="18.1877893402">
        <ele>36.6</ele>
        <time>2011-05-07T10:32:14Z</time>
      </trkpt>
      <trkpt lat="59.3491810444" lon="18.1881255382">
        <ele>36.6</ele>
        <time>2011-05-07T10:32:20Z</time>
      </trkpt>
      <trkpt lat="59.3492052681" lon="18.1883490834">
        <ele>36.6</ele>
        <time>2011-05-07T10:32:24Z</time>
      </trkpt>
      <trkpt lat="59.3492739997" lon="18.1886629856">
        <ele>36.6</ele>
        <time>2011-05-07T10:32:30Z</time>
      </trkpt>
      <trkpt lat="59.349316915" lon="18.1888481418">
        <ele>36.6</ele>
        <time>2011-05-07T10:32:34Z</time>
      </trkpt>
      <trkpt lat="59.3493838864" lon="18.1890799851">
        <ele>36</ele>
        <time>2011-05-07T10:32:39Z</time>
      </trkpt>
      <trkpt lat="59.3494276399" lon="18.1892094855">
        <ele>35.6</ele>
        <time>2011-05-07T10:32:42Z</time>
      </trkpt>
      <trkpt lat="59.3495433101" lon="18.1895818933">
        <ele>35</ele>
        <time>2011-05-07T10:32:50Z</time>
      </trkpt>
      <trkpt lat="59.3496218485" lon="18.189891353">
        <ele>34.8</ele>
        <time>2011-05-07T10:32:56Z</time>
      </trkpt>
      <trkpt lat="59.349685048" lon="18.1900330072">
        <ele>34.8</ele>
        <time>2011-05-07T10:32:59Z</time>
      </trkpt>
      <trkpt lat="59.3497223475" lon="18.1901956998">
        <ele>34.6</ele>
        <time>2011-05-07T10:33:02Z</time>
      </trkpt>
      <trkpt lat="59.3497234371" lon="18.1902441472">
        <ele>34.6</ele>
        <time>2011-05-07T10:33:03Z</time>
      </trkpt>
      <trkpt lat="59.349760066" lon="18.1905158884">
        <ele>34.6</ele>
        <time>2011-05-07T10:33:08Z</time>
      </trkpt>
      <trkpt lat="59.3498676058" lon="18.1907977717">
        <ele>34.6</ele>
        <time>2011-05-07T10:33:14Z</time>
      </trkpt>
      <trkpt lat="59.3499445517" lon="18.1911115062">
        <ele>34.6</ele>
        <time>2011-05-07T10:33:20Z</time>
      </trkpt>
      <trkpt lat="59.3499616507" lon="18.1912581895">
        <ele>34.6</ele>
        <time>2011-05-07T10:33:23Z</time>
      </trkpt>
      <trkpt lat="59.3500223357" lon="18.1914330359">
        <ele>34.6</ele>
        <time>2011-05-07T10:33:27Z</time>
      </trkpt>
      <trkpt lat="59.3500866249" lon="18.1915585968">
        <ele>34.2</ele>
        <time>2011-05-07T10:33:30Z</time>
      </trkpt>
      <trkpt lat="59.3500711183" lon="18.1917606844">
        <ele>33.6</ele>
        <time>2011-05-07T10:33:34Z</time>
      </trkpt>
      <trkpt lat="59.3499957651" lon="18.1919980598">
        <ele>33.2</ele>
        <time>2011-05-07T10:33:39Z</time>
      </trkpt>
      <trkpt lat="59.3500118583" lon="18.1922091998">
        <ele>32.2</ele>
        <time>2011-05-07T10:33:43Z</time>
      </trkpt>
      <trkpt lat="59.350032394" lon="18.1924907479">
        <ele>31.4</ele>
        <time>2011-05-07T10:33:48Z</time>
      </trkpt>
      <trkpt lat="59.3499991178" lon="18.1927671829">
        <ele>30.6</ele>
        <time>2011-05-07T10:33:53Z</time>
      </trkpt>
      <trkpt lat="59.34994715" lon="18.1930464678">
        <ele>29.6</ele>
        <time>2011-05-07T10:33:58Z</time>
      </trkpt>
      <trkpt lat="59.3500734653" lon="18.1935425925">
        <ele>28.8</ele>
        <time>2011-05-07T10:34:09Z</time>
      </trkpt>
      <trkpt lat="59.3501774008" lon="18.193685923">
        <ele>28.6</ele>
        <time>2011-05-07T10:34:14Z</time>
      </trkpt>
      <trkpt lat="59.350249569" lon="18.1938787067">
        <ele>28.4</ele>
        <time>2011-05-07T10:34:18Z</time>
      </trkpt>
      <trkpt lat="59.3502688474" lon="18.1939764396">
        <ele>28.4</ele>
        <time>2011-05-07T10:34:20Z</time>
      </trkpt>
      <trkpt lat="59.3502869523" lon="18.1940706522">
        <ele>28.4</ele>
        <time>2011-05-07T10:34:22Z</time>
      </trkpt>
      <trkpt lat="59.3503540913" lon="18.1943174992">
        <ele>28.4</ele>
        <time>2011-05-07T10:34:27Z</time>
      </trkpt>
      <trkpt lat="59.3504679175" lon="18.194557473">
        <ele>28.4</ele>
        <time>2011-05-07T10:34:32Z</time>
      </trkpt>
      <trkpt lat="59.35055291" lon="18.1948384342">
        <ele>29</ele>
        <time>2011-05-07T10:34:38Z</time>
      </trkpt>
      <trkpt lat="59.3505557598" lon="18.1948944253">
        <ele>29.2</ele>
        <time>2011-05-07T10:34:39Z</time>
      </trkpt>
      <trkpt lat="59.3505560113" lon="18.1949331497">
        <ele>29.2</ele>
        <time>2011-05-07T10:34:40Z</time>
      </trkpt>
      <trkpt lat="59.3505441928" lon="18.1951608859">
        <ele>29.6</ele>
        <time>2011-05-07T10:34:44Z</time>
      </trkpt>
      <trkpt lat="59.3505179574" lon="18.1953041326">
        <ele>29.8</ele>
        <time>2011-05-07T10:34:47Z</time>
      </trkpt>
      <trkpt lat="59.3505937298" lon="18.1955403345">
        <ele>30</ele>
        <time>2011-05-07T10:34:52Z</time>
      </trkpt>
      <trkpt lat="59.3506101583" lon="18.1955985049">
        <ele>30</ele>
        <time>2011-05-07T10:34:53Z</time>
      </trkpt>
      <trkpt lat="59.3507070531" lon="18.1958805559">
        <ele>30.2</ele>
        <time>2011-05-07T10:35:00Z</time>
      </trkpt>
      <trkpt lat="59.350682997" lon="18.1961144109">
        <ele>30.2</ele>
        <time>2011-05-07T10:35:05Z</time>
      </trkpt>
      <trkpt lat="59.3506819074" lon="18.1963645268">
        <ele>30.2</ele>
        <time>2011-05-07T10:35:10Z</time>
      </trkpt>
      <trkpt lat="59.3507431791" lon="18.1966043329">
        <ele>30.4</ele>
        <time>2011-05-07T10:35:15Z</time>
      </trkpt>
      <trkpt lat="59.3508028582" lon="18.1969396089">
        <ele>30.4</ele>
        <time>2011-05-07T10:35:20Z</time>
      </trkpt>
      <trkpt lat="59.3508578435" lon="18.1971416965">
        <ele>30.4</ele>
        <time>2011-05-07T10:35:24Z</time>
      </trkpt>
      <trkpt lat="59.3508778762" lon="18.1971935805">
        <ele>30.4</ele>
        <time>2011-05-07T10:35:25Z</time>
      </trkpt>
      <trkpt lat="59.3509204563" lon="18.1974825884">
        <ele>30.6</ele>
        <time>2011-05-07T10:35:30Z</time>
      </trkpt>
      <trkpt lat="59.3509780399" lon="18.1977471212">
        <ele>31.4</ele>
        <time>2011-05-07T10:35:35Z</time>
      </trkpt>
      <trkpt lat="59.3509915348" lon="18.1979447664">
        <ele>31.8</ele>
        <time>2011-05-07T10:35:39Z</time>
      </trkpt>
      <trkpt lat="59.3510180216" lon="18.1982187707">
        <ele>32</ele>
        <time>2011-05-07T10:35:44Z</time>
      </trkpt>
      <trkpt lat="59.3510844062" lon="18.1984718203">
        <ele>32.2</ele>
        <time>2011-05-07T10:35:48Z</time>
      </trkpt>
      <trkpt lat="59.3511916107" lon="18.1987580621">
        <ele>32.4</ele>
        <time>2011-05-07T10:35:53Z</time>
      </trkpt>
      <trkpt lat="59.3513277328" lon="18.1988526938">
        <ele>32.4</ele>
        <time>2011-05-07T10:35:58Z</time>
      </trkpt>
      <trkpt lat="59.3514534613" lon="18.1987917574">
        <ele>32.4</ele>
        <time>2011-05-07T10:36:03Z</time>
      </trkpt>
      <trkpt lat="59.3515696344" lon="18.1987777596">
        <ele>32.4</ele>
        <time>2011-05-07T10:36:07Z</time>
      </trkpt>
      <trkpt lat="59.3517033257" lon="18.1986957008">
        <ele>32</ele>
        <time>2011-05-07T10:36:12Z</time>
      </trkpt>
      <trkpt lat="59.3518169005" lon="18.1985832157">
        <ele>31.4</ele>
        <time>2011-05-07T10:36:17Z</time>
      </trkpt>
      <trkpt lat="59.351865264" lon="18.1985221117">
        <ele>31.2</ele>
        <time>2011-05-07T10:36:19Z</time>
      </trkpt>
      <trkpt lat="59.3518902421" lon="18.1983062777">
        <ele>31</ele>
        <time>2011-05-07T10:36:23Z</time>
      </trkpt>
      <trkpt lat="59.3518978696" lon="18.198207036">
        <ele>30.4</ele>
        <time>2011-05-07T10:36:25Z</time>
      </trkpt>
      <trkpt lat="59.3518880628" lon="18.1978770406">
        <ele>29.4</ele>
        <time>2011-05-07T10:36:31Z</time>
      </trkpt>
      <trkpt lat="59.3518894039" lon="18.1976083169">
        <ele>28.2</ele>
        <time>2011-05-07T10:36:36Z</time>
      </trkpt>
      <trkpt lat="59.3518890686" lon="18.1975137691">
        <ele>27.8</ele>
        <time>2011-05-07T10:36:38Z</time>
      </trkpt>
      <trkpt lat="59.3518993784" lon="18.1975272639">
        <ele>27</ele>
        <time>2011-05-07T10:36:46Z</time>
      </trkpt>
      <trkpt lat="59.3519075926" lon="18.1975577741">
        <ele>26.6</ele>
        <time>2011-05-07T10:36:55Z</time>
      </trkpt>
      <trkpt lat="59.3519378513" lon="18.1973336421">
        <ele>26.4</ele>
        <time>2011-05-07T10:37:00Z</time>
      </trkpt>
      <trkpt lat="59.3519369293" lon="18.1972709454">
        <ele>26.6</ele>
        <time>2011-05-07T10:37:01Z</time>
      </trkpt>
      <trkpt lat="59.3519150525" lon="18.1969501701">
        <ele>27.4</ele>
        <time>2011-05-07T10:37:06Z</time>
      </trkpt>
      <trkpt lat="59.3519025635" lon="18.1967548719">
        <ele>27.6</ele>
        <time>2011-05-07T10:37:09Z</time>
      </trkpt>
      <trkpt lat="59.351903234" lon="18.1965072705">
        <ele>28</ele>
        <time>2011-05-07T10:37:14Z</time>
      </trkpt>
      <trkpt lat="59.3518730592" lon="18.1963014111">
        <ele>28</ele>
        <time>2011-05-07T10:37:18Z</time>
      </trkpt>
      <trkpt lat="59.3518596482" lon="18.1962445818">
        <ele>28</ele>
        <time>2011-05-07T10:37:19Z</time>
      </trkpt>
      <trkpt lat="59.3517901622" lon="18.1960430809">
        <ele>28.2</ele>
        <time>2011-05-07T10:37:24Z</time>
      </trkpt>
      <trkpt lat="59.3517257892" lon="18.1958940507">
        <ele>28.2</ele>
        <time>2011-05-07T10:37:28Z</time>
      </trkpt>
      <trkpt lat="59.3516562195" lon="18.1956834136">
        <ele>29.2</ele>
        <time>2011-05-07T10:37:33Z</time>
      </trkpt>
      <trkpt lat="59.351649011" lon="18.1956301047">
        <ele>29.2</ele>
        <time>2011-05-07T10:37:34Z</time>
      </trkpt>
      <trkpt lat="59.3516459097" lon="18.1953511551">
        <ele>29.8</ele>
        <time>2011-05-07T10:37:39Z</time>
      </trkpt>
      <trkpt lat="59.3516464964" lon="18.1950126939">
        <ele>30</ele>
        <time>2011-05-07T10:37:45Z</time>
      </trkpt>
      <trkpt lat="59.3516553813" lon="18.1948021406">
        <ele>30.2</ele>
        <time>2011-05-07T10:37:49Z</time>
      </trkpt>
      <trkpt lat="59.3516697143" lon="18.1944442335">
        <ele>30.6</ele>
        <time>2011-05-07T10:37:55Z</time>
      </trkpt>
      <trkpt lat="59.3516853885" lon="18.1941307504">
        <ele>31.4</ele>
        <time>2011-05-07T10:38:00Z</time>
      </trkpt>
      <trkpt lat="59.3516825386" lon="18.1940699816">
        <ele>31.4</ele>
        <time>2011-05-07T10:38:01Z</time>
      </trkpt>
      <trkpt lat="59.3516812813" lon="18.1937376393">
        <ele>32</ele>
        <time>2011-05-07T10:38:07Z</time>
      </trkpt>
      <trkpt lat="59.351693016" lon="18.1934671554">
        <ele>32.2</ele>
        <time>2011-05-07T10:38:12Z</time>
      </trkpt>
      <trkpt lat="59.3516949438" lon="18.1931299516">
        <ele>32.4</ele>
        <time>2011-05-07T10:38:18Z</time>
      </trkpt>
      <trkpt lat="59.3517204248" lon="18.1929402692">
        <ele>32.4</ele>
        <time>2011-05-07T10:38:22Z</time>
      </trkpt>
      <trkpt lat="59.3517340035" lon="18.1927080905">
        <ele>32.4</ele>
        <time>2011-05-07T10:38:26Z</time>
      </trkpt>
      <trkpt lat="59.3517493424" lon="18.1924775045">
        <ele>32.4</ele>
        <time>2011-05-07T10:38:30Z</time>
      </trkpt>
      <trkpt lat="59.3517524437" lon="18.1924173224">
        <ele>32.4</ele>
        <time>2011-05-07T10:38:31Z</time>
      </trkpt>
      <trkpt lat="59.3517670282" lon="18.1921216928">
        <ele>32.6</ele>
        <time>2011-05-07T10:38:36Z</time>
      </trkpt>
      <trkpt lat="59.3517858874" lon="18.1919592516">
        <ele>32.6</ele>
        <time>2011-05-07T10:38:39Z</time>
      </trkpt>
      <trkpt lat="59.3517836243" lon="18.1916531446">
        <ele>32.6</ele>
        <time>2011-05-07T10:38:44Z</time>
      </trkpt>
      <trkpt lat="59.3517878991" lon="18.1915966506">
        <ele>32.6</ele>
        <time>2011-05-07T10:38:45Z</time>
      </trkpt>
      <trkpt lat="59.3518135477" lon="18.1914119973">
        <ele>32.6</ele>
        <time>2011-05-07T10:38:49Z</time>
      </trkpt>
      <trkpt lat="59.3518784236" lon="18.1911136855">
        <ele>32.6</ele>
        <time>2011-05-07T10:38:55Z</time>
      </trkpt>
      <trkpt lat="59.3519002166" lon="18.1910404277">
        <ele>32.6</ele>
        <time>2011-05-07T10:38:57Z</time>
      </trkpt>
      <trkpt lat="59.3519193273" lon="18.1910107558">
        <ele>32.6</ele>
        <time>2011-05-07T10:38:59Z</time>
      </trkpt>
      <trkpt lat="59.3519267872" lon="18.1909397611">
        <ele>32.6</ele>
        <time>2011-05-07T10:39:09Z</time>
      </trkpt>
      <trkpt lat="59.3519303914" lon="18.1908830994">
        <ele>32.6</ele>
        <time>2011-05-07T10:39:17Z</time>
      </trkpt>
      <trkpt lat="59.3519293856" lon="18.1908346521">
        <ele>32.6</ele>
        <time>2011-05-07T10:39:24Z</time>
      </trkpt>
      <trkpt lat="59.3519289665" lon="18.1908289524">
        <ele>32.6</ele>
        <time>2011-05-07T10:39:25Z</time>
      </trkpt>
      <trkpt lat="59.3518046629" lon="18.1906377612">
        <ele>32.6</ele>
        <time>2011-05-07T10:39:31Z</time>
      </trkpt>
      <trkpt lat="59.3517188322" lon="18.1906591351">
        <ele>32.6</ele>
        <time>2011-05-07T10:39:34Z</time>
      </trkpt>
      <trkpt lat="59.3515726519" lon="18.1907381764">
        <ele>32.6</ele>
        <time>2011-05-07T10:39:39Z</time>
      </trkpt>
      <trkpt lat="59.3514993103" lon="18.1907271123">
        <ele>32.8</ele>
        <time>2011-05-07T10:39:42Z</time>
      </trkpt>
      <trkpt lat="59.3514773497" lon="18.1907182275">
        <ele>33</ele>
        <time>2011-05-07T10:39:43Z</time>
      </trkpt>
      <trkpt lat="59.3514282318" lon="18.1907180598">
        <ele>33.2</ele>
        <time>2011-05-07T10:39:45Z</time>
      </trkpt>
      <trkpt lat="59.3513070295" lon="18.1906466461">
        <ele>33.8</ele>
        <time>2011-05-07T10:39:50Z</time>
      </trkpt>
      <trkpt lat="59.3512849013" lon="18.1906106877">
        <ele>34</ele>
        <time>2011-05-07T10:39:51Z</time>
      </trkpt>
      <trkpt lat="59.3512397228" lon="18.1904933411">
        <ele>34</ele>
        <time>2011-05-07T10:39:53Z</time>
      </trkpt>
      <trkpt lat="59.3513485199" lon="18.1899299936">
        <ele>35.6</ele>
        <time>2011-05-07T10:40:04Z</time>
      </trkpt>
      <trkpt lat="59.3513819637" lon="18.1898439953">
        <ele>35.8</ele>
        <time>2011-05-07T10:40:06Z</time>
      </trkpt>
      <trkpt lat="59.3514061874" lon="18.1895315181">
        <ele>36.2</ele>
        <time>2011-05-07T10:40:12Z</time>
      </trkpt>
      <trkpt lat="59.3513995657" lon="18.189375028">
        <ele>36.4</ele>
        <time>2011-05-07T10:40:15Z</time>
      </trkpt>
      <trkpt lat="59.351392022" lon="18.1891026163">
        <ele>36.4</ele>
        <time>2011-05-07T10:40:20Z</time>
      </trkpt>
      <trkpt lat="59.3514246276" lon="18.1888766402">
        <ele>36.6</ele>
        <time>2011-05-07T10:40:24Z</time>
      </trkpt>
      <trkpt lat="59.3514817083" lon="18.1886944177">
        <ele>36.6</ele>
        <time>2011-05-07T10:40:28Z</time>
      </trkpt>
      <trkpt lat="59.3515035851" lon="18.1885987802">
        <ele>36.6</ele>
        <time>2011-05-07T10:40:30Z</time>
      </trkpt>
      <trkpt lat="59.3515276411" lon="18.188224277">
        <ele>37.2</ele>
        <time>2011-05-07T10:40:36Z</time>
      </trkpt>
      <trkpt lat="59.3515636833" lon="18.1879857281">
        <ele>37.6</ele>
        <time>2011-05-07T10:40:40Z</time>
      </trkpt>
      <trkpt lat="59.3515659464" lon="18.1879168289">
        <ele>37.8</ele>
        <time>2011-05-07T10:40:41Z</time>
      </trkpt>
      <trkpt lat="59.3515664493" lon="18.1876260607">
        <ele>38.2</ele>
        <time>2011-05-07T10:40:46Z</time>
      </trkpt>
      <trkpt lat="59.3515552176" lon="18.1875761884">
        <ele>38.2</ele>
        <time>2011-05-07T10:40:47Z</time>
      </trkpt>
      <trkpt lat="59.3514441574" lon="18.187308722">
        <ele>38.6</ele>
        <time>2011-05-07T10:40:53Z</time>
      </trkpt>
      <trkpt lat="59.3513912676" lon="18.1870888648">
        <ele>39.4</ele>
        <time>2011-05-07T10:40:57Z</time>
      </trkpt>
      <trkpt lat="59.351339216" lon="18.1868055566">
        <ele>40</ele>
        <time>2011-05-07T10:41:02Z</time>
      </trkpt>
      <trkpt lat="59.3513078677" lon="18.1865444604">
        <ele>40.8</ele>
        <time>2011-05-07T10:41:07Z</time>
      </trkpt>
      <trkpt lat="59.3513278166" lon="18.1863293808">
        <ele>41.6</ele>
        <time>2011-05-07T10:41:11Z</time>
      </trkpt>
      <trkpt lat="59.3512784472" lon="18.1860382774">
        <ele>42.8</ele>
        <time>2011-05-07T10:41:17Z</time>
      </trkpt>
      <trkpt lat="59.3512430756" lon="18.1858242037">
        <ele>43.6</ele>
        <time>2011-05-07T10:41:22Z</time>
      </trkpt>
      <trkpt lat="59.3512385494" lon="18.1855305857">
        <ele>44.6</ele>
        <time>2011-05-07T10:41:27Z</time>
      </trkpt>
      <trkpt lat="59.3512583307" lon="18.185233615">
        <ele>45.6</ele>
        <time>2011-05-07T10:41:32Z</time>
      </trkpt>
      <trkpt lat="59.3513071971" lon="18.1850320303">
        <ele>46.2</ele>
        <time>2011-05-07T10:41:36Z</time>
      </trkpt>
      <trkpt lat="59.3513547225" lon="18.1847368198">
        <ele>46.6</ele>
        <time>2011-05-07T10:41:41Z</time>
      </trkpt>
      <trkpt lat="59.3514254657" lon="18.1845462992">
        <ele>46.8</ele>
        <time>2011-05-07T10:41:45Z</time>
      </trkpt>
      <trkpt lat="59.3514721529" lon="18.1843895577">
        <ele>46.8</ele>
        <time>2011-05-07T10:41:48Z</time>
      </trkpt>
      <trkpt lat="59.3515391243" lon="18.1841385198">
        <ele>47</ele>
        <time>2011-05-07T10:41:53Z</time>
      </trkpt>
      <trkpt lat="59.3515748312" lon="18.1838726459">
        <ele>47</ele>
        <time>2011-05-07T10:41:58Z</time>
      </trkpt>
      <trkpt lat="59.3515863982" lon="18.1837657767">
        <ele>47</ele>
        <time>2011-05-07T10:42:00Z</time>
      </trkpt>
      <trkpt lat="59.3516065986" lon="18.1835882481">
        <ele>47</ele>
        <time>2011-05-07T10:42:04Z</time>
      </trkpt>
      <trkpt lat="59.3516076883" lon="18.1835399683">
        <ele>47</ele>
        <time>2011-05-07T10:42:05Z</time>
      </trkpt>
      <trkpt lat="59.3516433951" lon="18.1833126512">
        <ele>47</ele>
        <time>2011-05-07T10:42:09Z</time>
      </trkpt>
      <trkpt lat="59.3516535372" lon="18.1832649582">
        <ele>47</ele>
        <time>2011-05-07T10:42:10Z</time>
      </trkpt>
      <trkpt lat="59.3516790182" lon="18.1829907862">
        <ele>47.2</ele>
        <time>2011-05-07T10:42:15Z</time>
      </trkpt>
      <trkpt lat="59.3516945247" lon="18.1828406664">
        <ele>47.2</ele>
        <time>2011-05-07T10:42:18Z</time>
      </trkpt>
      <trkpt lat="59.3516943571" lon="18.1825858566">
        <ele>47.2</ele>
        <time>2011-05-07T10:42:23Z</time>
      </trkpt>
      <trkpt lat="59.3516809461" lon="18.1823274427">
        <ele>47.2</ele>
        <time>2011-05-07T10:42:28Z</time>
      </trkpt>
      <trkpt lat="59.3517029066" lon="18.1821106029">
        <ele>47.2</ele>
        <time>2011-05-07T10:42:32Z</time>
      </trkpt>
      <trkpt lat="59.3517477498" lon="18.1817862234">
        <ele>47.2</ele>
        <time>2011-05-07T10:42:38Z</time>
      </trkpt>
      <trkpt lat="59.3517482527" lon="18.1817242811">
        <ele>47.2</ele>
        <time>2011-05-07T10:42:39Z</time>
      </trkpt>
      <trkpt lat="59.3517951075" lon="18.1814397156">
        <ele>47.8</ele>
        <time>2011-05-07T10:42:44Z</time>
      </trkpt>
      <trkpt lat="59.3518585585" lon="18.1812196069">
        <ele>48.4</ele>
        <time>2011-05-07T10:42:49Z</time>
      </trkpt>
      <trkpt lat="59.351947239" lon="18.1810020128">
        <ele>48.6</ele>
        <time>2011-05-07T10:42:54Z</time>
      </trkpt>
      <trkpt lat="59.3519707922" lon="18.1809664736">
        <ele>48.8</ele>
        <time>2011-05-07T10:42:55Z</time>
      </trkpt>
      <trkpt lat="59.3520173117" lon="18.1808848339">
        <ele>48.8</ele>
        <time>2011-05-07T10:42:57Z</time>
      </trkpt>
      <trkpt lat="59.3521300483" lon="18.1806030344">
        <ele>49</ele>
        <time>2011-05-07T10:43:03Z</time>
      </trkpt>
      <trkpt lat="59.3521945051" lon="18.1804862745">
        <ele>49</ele>
        <time>2011-05-07T10:43:06Z</time>
      </trkpt>
      <trkpt lat="59.3522838561" lon="18.1802416068">
        <ele>49</ele>
        <time>2011-05-07T10:43:11Z</time>
      </trkpt>
      <trkpt lat="59.3523259333" lon="18.1801556924">
        <ele>49</ele>
        <time>2011-05-07T10:43:13Z</time>
      </trkpt>
      <trkpt lat="59.352369603" lon="18.1800807582">
        <ele>49</ele>
        <time>2011-05-07T10:43:15Z</time>
      </trkpt>
      <trkpt lat="59.3524577805" lon="18.179821506">
        <ele>49</ele>
        <time>2011-05-07T10:43:20Z</time>
      </trkpt>
      <trkpt lat="59.3525602912" lon="18.1796660218">
        <ele>49.2</ele>
        <time>2011-05-07T10:43:24Z</time>
      </trkpt>
      <trkpt lat="59.3525864427" lon="18.179621933">
        <ele>49.2</ele>
        <time>2011-05-07T10:43:25Z</time>
      </trkpt>
      <trkpt lat="59.3527096566" lon="18.1794580668">
        <ele>49.2</ele>
        <time>2011-05-07T10:43:30Z</time>
      </trkpt>
      <trkpt lat="59.3528841678" lon="18.1792811249">
        <ele>49.2</ele>
        <time>2011-05-07T10:43:36Z</time>
      </trkpt>
      <trkpt lat="59.3530509676" lon="18.1791950428">
        <ele>49.2</ele>
        <time>2011-05-07T10:43:41Z</time>
      </trkpt>
      <trkpt lat="59.3532035182" lon="18.1790736729">
        <ele>49.2</ele>
        <time>2011-05-07T10:43:47Z</time>
      </trkpt>
      <trkpt lat="59.3533455914" lon="18.1789257324">
        <ele>49.2</ele>
        <time>2011-05-07T10:43:52Z</time>
      </trkpt>
      <trkpt lat="59.3535246288" lon="18.1787320267">
        <ele>49.2</ele>
        <time>2011-05-07T10:43:57Z</time>
      </trkpt>
      <trkpt lat="59.3536678755" lon="18.1786326173">
        <ele>49.2</ele>
        <time>2011-05-07T10:44:02Z</time>
      </trkpt>
      <trkpt lat="59.3536913448" lon="18.1786160212">
        <ele>49.2</ele>
        <time>2011-05-07T10:44:03Z</time>
      </trkpt>
      <trkpt lat="59.3537571427" lon="18.1785671547">
        <ele>49.2</ele>
        <time>2011-05-07T10:44:05Z</time>
      </trkpt>
      <trkpt lat="59.3538744055" lon="18.178377137">
        <ele>49.2</ele>
        <time>2011-05-07T10:44:10Z</time>
      </trkpt>
      <trkpt lat="59.3539571348" lon="18.178243781">
        <ele>49.2</ele>
        <time>2011-05-07T10:44:13Z</time>
      </trkpt>
      <trkpt lat="59.354048749" lon="18.1782940724">
        <ele>48.6</ele>
        <time>2011-05-07T10:44:17Z</time>
      </trkpt>
      <trkpt lat="59.3540890659" lon="18.1783598703">
        <ele>48.2</ele>
        <time>2011-05-07T10:44:19Z</time>
      </trkpt>
      <trkpt lat="59.3542289598" lon="18.1784152747">
        <ele>47.8</ele>
        <time>2011-05-07T10:44:24Z</time>
      </trkpt>
      <trkpt lat="59.3543318058" lon="18.1784704276">
        <ele>47.6</ele>
        <time>2011-05-07T10:44:28Z</time>
      </trkpt>
      <trkpt lat="59.3545007849" lon="18.1785689149">
        <ele>46.8</ele>
        <time>2011-05-07T10:44:34Z</time>
      </trkpt>
      <trkpt lat="59.3545291157" lon="18.1785862654">
        <ele>46.6</ele>
        <time>2011-05-07T10:44:35Z</time>
      </trkpt>
      <trkpt lat="59.3547393337" lon="18.1786687433">
        <ele>45.8</ele>
        <time>2011-05-07T10:44:41Z</time>
      </trkpt>
      <trkpt lat="59.3549030322" lon="18.1786609481">
        <ele>45.4</ele>
        <time>2011-05-07T10:44:47Z</time>
      </trkpt>
      <trkpt lat="59.3550566725" lon="18.1787088088">
        <ele>45.2</ele>
        <time>2011-05-07T10:44:52Z</time>
      </trkpt>
      <trkpt lat="59.3552145875" lon="18.1787322781">
        <ele>45</ele>
        <time>2011-05-07T10:44:58Z</time>
      </trkpt>
      <trkpt lat="59.3552433374" lon="18.1788627843">
        <ele>45</ele>
        <time>2011-05-07T10:45:02Z</time>
      </trkpt>
      <trkpt lat="59.3552615261" lon="18.1790516285">
        <ele>45</ele>
        <time>2011-05-07T10:45:05Z</time>
      </trkpt>
      <trkpt lat="59.3552621967" lon="18.179113906">
        <ele>45</ele>
        <time>2011-05-07T10:45:06Z</time>
      </trkpt>
      <trkpt lat="59.3552786252" lon="18.1795272175">
        <ele>44.6</ele>
        <time>2011-05-07T10:45:13Z</time>
      </trkpt>
      <trkpt lat="59.3553163437" lon="18.1798067539">
        <ele>43.8</ele>
        <time>2011-05-07T10:45:18Z</time>
      </trkpt>
      <trkpt lat="59.3553241389" lon="18.1798608171">
        <ele>43.8</ele>
        <time>2011-05-07T10:45:19Z</time>
      </trkpt>
      <trkpt lat="59.3553397292" lon="18.1800882181">
        <ele>43.4</ele>
        <time>2011-05-07T10:45:23Z</time>
      </trkpt>
      <trkpt lat="59.3554422399" lon="18.1804208957">
        <ele>43.2</ele>
        <time>2011-05-07T10:45:30Z</time>
      </trkpt>
      <trkpt lat="59.3555315071" lon="18.1806224804">
        <ele>43</ele>
        <time>2011-05-07T10:45:35Z</time>
      </trkpt>
      <trkpt lat="59.3556010769" lon="18.1808556648">
        <ele>43</ele>
        <time>2011-05-07T10:45:40Z</time>
      </trkpt>
      <trkpt lat="59.3556336825" lon="18.1811238018">
        <ele>42.8</ele>
        <time>2011-05-07T10:45:44Z</time>
      </trkpt>
      <trkpt lat="59.3556879134" lon="18.1814795297">
        <ele>42.8</ele>
        <time>2011-05-07T10:45:50Z</time>
      </trkpt>
      <trkpt lat="59.3557356064" lon="18.1817349262">
        <ele>42.8</ele>
        <time>2011-05-07T10:45:54Z</time>
      </trkpt>
      <trkpt lat="59.3557401326" lon="18.1819411209">
        <ele>42.8</ele>
        <time>2011-05-07T10:45:57Z</time>
      </trkpt>
      <trkpt lat="59.3557133943" lon="18.1822473955">
        <ele>42.8</ele>
        <time>2011-05-07T10:46:02Z</time>
      </trkpt>
      <trkpt lat="59.3558036674" lon="18.1825766365">
        <ele>41.8</ele>
        <time>2011-05-07T10:46:08Z</time>
      </trkpt>
      <trkpt lat="59.35594507" lon="18.1828562567">
        <ele>41.4</ele>
        <time>2011-05-07T10:46:14Z</time>
      </trkpt>
      <trkpt lat="59.3560757439" lon="18.1831200351">
        <ele>41.2</ele>
        <time>2011-05-07T10:46:20Z</time>
      </trkpt>
      <trkpt lat="59.3560957766" lon="18.1834101327">
        <ele>41</ele>
        <time>2011-05-07T10:46:25Z</time>
      </trkpt>
      <trkpt lat="59.3561561263" lon="18.1837484262">
        <ele>41</ele>
        <time>2011-05-07T10:46:32Z</time>
      </trkpt>
      <trkpt lat="59.35622293" lon="18.1839405393">
        <ele>40.8</ele>
        <time>2011-05-07T10:46:36Z</time>
      </trkpt>
      <trkpt lat="59.3562847885" lon="18.1841202473">
        <ele>40.8</ele>
        <time>2011-05-07T10:46:40Z</time>
      </trkpt>
      <trkpt lat="59.3563803421" lon="18.1844214089">
        <ele>40.8</ele>
        <time>2011-05-07T10:46:46Z</time>
      </trkpt>
      <trkpt lat="59.3564661728" lon="18.1849948985">
        <ele>40.8</ele>
        <time>2011-05-07T10:46:56Z</time>
      </trkpt>
      <trkpt lat="59.3564846968" lon="18.1853455134">
        <ele>40.8</ele>
        <time>2011-05-07T10:47:02Z</time>
      </trkpt>
      <trkpt lat="59.3565117703" lon="18.1856582421">
        <ele>40</ele>
        <time>2011-05-07T10:47:07Z</time>
      </trkpt>
      <trkpt lat="59.3565454655" lon="18.1859862258">
        <ele>39.4</ele>
        <time>2011-05-07T10:47:13Z</time>
      </trkpt>
      <trkpt lat="59.356577652" lon="18.1862666842">
        <ele>39</ele>
        <time>2011-05-07T10:47:18Z</time>
      </trkpt>
      <trkpt lat="59.3566037197" lon="18.1864762317">
        <ele>39</ele>
        <time>2011-05-07T10:47:22Z</time>
      </trkpt>
      <trkpt lat="59.3566083298" lon="18.1866779002">
        <ele>38.8</ele>
        <time>2011-05-07T10:47:26Z</time>
      </trkpt>
      <trkpt lat="59.3565271092" lon="18.1869069775">
        <ele>38.8</ele>
        <time>2011-05-07T10:47:31Z</time>
      </trkpt>
      <trkpt lat="59.356457707" lon="18.1870407527">
        <ele>38.8</ele>
        <time>2011-05-07T10:47:34Z</time>
      </trkpt>
      <trkpt lat="59.3563442161" lon="18.1872084745">
        <ele>38.8</ele>
        <time>2011-05-07T10:47:39Z</time>
      </trkpt>
      <trkpt lat="59.3563062461" lon="18.1873937145">
        <ele>38.8</ele>
        <time>2011-05-07T10:47:43Z</time>
      </trkpt>
      <trkpt lat="59.3562892309" lon="18.1876257255">
        <ele>38.8</ele>
        <time>2011-05-07T10:47:47Z</time>
      </trkpt>
      <trkpt lat="59.3562904881" lon="18.1877314212">
        <ele>38.8</ele>
        <time>2011-05-07T10:47:49Z</time>
      </trkpt>
      <trkpt lat="59.356276658" lon="18.1880366062">
        <ele>38.8</ele>
        <time>2011-05-07T10:47:55Z</time>
      </trkpt>
      <trkpt lat="59.3562693658" lon="18.1882749874">
        <ele>38.8</ele>
        <time>2011-05-07T10:48:00Z</time>
      </trkpt>
      <trkpt lat="59.3562764066" lon="18.1884050745">
        <ele>38.8</ele>
        <time>2011-05-07T10:48:02Z</time>
      </trkpt>
      <trkpt lat="59.3563378459" lon="18.1887172165">
        <ele>38.8</ele>
        <time>2011-05-07T10:48:08Z</time>
      </trkpt>
      <trkpt lat="59.3563526818" lon="18.1888096688">
        <ele>38.8</ele>
        <time>2011-05-07T10:48:10Z</time>
      </trkpt>
      <trkpt lat="59.3563420368" lon="18.1890806557">
        <ele>38.6</ele>
        <time>2011-05-07T10:48:15Z</time>
      </trkpt>
      <trkpt lat="59.3563525142" lon="18.1893503852">
        <ele>38.6</ele>
        <time>2011-05-07T10:48:20Z</time>
      </trkpt>
      <trkpt lat="59.3563644165" lon="18.1897428258">
        <ele>38.6</ele>
        <time>2011-05-07T10:48:27Z</time>
      </trkpt>
      <trkpt lat="59.3563496644" lon="18.1899040097">
        <ele>38.6</ele>
        <time>2011-05-07T10:48:30Z</time>
      </trkpt>
      <trkpt lat="59.356357711" lon="18.1901362722">
        <ele>38.6</ele>
        <time>2011-05-07T10:48:34Z</time>
      </trkpt>
      <trkpt lat="59.356347066" lon="18.1903403714">
        <ele>38.6</ele>
        <time>2011-05-07T10:48:38Z</time>
      </trkpt>
      <trkpt lat="59.356261403" lon="18.1905709575">
        <ele>38.6</ele>
        <time>2011-05-07T10:48:42Z</time>
      </trkpt>
      <trkpt lat="59.3561177372" lon="18.1908048125">
        <ele>38.6</ele>
        <time>2011-05-07T10:48:48Z</time>
      </trkpt>
      <trkpt lat="59.3559581458" lon="18.1909468019">
        <ele>38.6</ele>
        <time>2011-05-07T10:48:54Z</time>
      </trkpt>
      <trkpt lat="59.3556454171" lon="18.1911666591">
        <ele>38.6</ele>
        <time>2011-05-07T10:49:04Z</time>
      </trkpt>
      <trkpt lat="59.3555620172" lon="18.1912337981">
        <ele>38.4</ele>
        <time>2011-05-07T10:49:07Z</time>
      </trkpt>
      <trkpt lat="59.3554004142" lon="18.191312588">
        <ele>37.6</ele>
        <time>2011-05-07T10:49:13Z</time>
      </trkpt>
      <trkpt lat="59.3552826485" lon="18.1913684953">
        <ele>37.2</ele>
        <time>2011-05-07T10:49:18Z</time>
      </trkpt>
      <trkpt lat="59.3552368833" lon="18.1914002627">
        <ele>37.2</ele>
        <time>2011-05-07T10:49:21Z</time>
      </trkpt>
      <trkpt lat="59.3551641284" lon="18.1914410825">
        <ele>37</ele>
        <time>2011-05-07T10:49:25Z</time>
      </trkpt>
      <trkpt lat="59.355023061" lon="18.1913145997">
        <ele>36.8</ele>
        <time>2011-05-07T10:49:31Z</time>
      </trkpt>
      <trkpt lat="59.3548919681" lon="18.1911674973">
        <ele>36.8</ele>
        <time>2011-05-07T10:49:36Z</time>
      </trkpt>
      <trkpt lat="59.3548025333" lon="18.1910711893">
        <ele>36.8</ele>
        <time>2011-05-07T10:49:40Z</time>
      </trkpt>
      <trkpt lat="59.3546975919" lon="18.1909038866">
        <ele>36.8</ele>
        <time>2011-05-07T10:49:45Z</time>
      </trkpt>
      <trkpt lat="59.3546059777" lon="18.1907525933">
        <ele>36.8</ele>
        <time>2011-05-07T10:49:49Z</time>
      </trkpt>
      <trkpt lat="59.354535905" lon="18.1906049042">
        <ele>36.8</ele>
        <time>2011-05-07T10:49:53Z</time>
      </trkpt>
      <trkpt lat="59.3544710291" lon="18.1904474921">
        <ele>36.8</ele>
        <time>2011-05-07T10:49:56Z</time>
      </trkpt>
      <trkpt lat="59.3544419439" lon="18.1903713845">
        <ele>36.6</ele>
        <time>2011-05-07T10:49:58Z</time>
      </trkpt>
      <trkpt lat="59.3543876292" lon="18.1903069276">
        <ele>36.6</ele>
        <time>2011-05-07T10:50:01Z</time>
      </trkpt>
      <trkpt lat="59.3541800934" lon="18.1902728133">
        <ele>36.6</ele>
        <time>2011-05-07T10:50:09Z</time>
      </trkpt>
      <trkpt lat="59.3540507606" lon="18.190151611">
        <ele>36.6</ele>
        <time>2011-05-07T10:50:15Z</time>
      </trkpt>
      <trkpt lat="59.3539398681" lon="18.1900117171">
        <ele>36.8</ele>
        <time>2011-05-07T10:50:19Z</time>
      </trkpt>
      <trkpt lat="59.3538210966" lon="18.1898554785">
        <ele>37.6</ele>
        <time>2011-05-07T10:50:24Z</time>
      </trkpt>
      <trkpt lat="59.3536993076" lon="18.1896430812">
        <ele>38.2</ele>
        <time>2011-05-07T10:50:29Z</time>
      </trkpt>
      <trkpt lat="59.3535876607" lon="18.1895725894">
        <ele>38.4</ele>
        <time>2011-05-07T10:50:33Z</time>
      </trkpt>
      <trkpt lat="59.3535672088" lon="18.1895685661">
        <ele>38.4</ele>
        <time>2011-05-07T10:50:34Z</time>
      </trkpt>
      <trkpt lat="59.3534258062" lon="18.189596394">
        <ele>38.6</ele>
        <time>2011-05-07T10:50:40Z</time>
      </trkpt>
      <trkpt lat="59.3532527199" lon="18.1896169296">
        <ele>38.6</ele>
        <time>2011-05-07T10:50:46Z</time>
      </trkpt>
      <trkpt lat="59.3531354572" lon="18.1897030956">
        <ele>38.6</ele>
        <time>2011-05-07T10:50:51Z</time>
      </trkpt>
      <trkpt lat="59.3530185297" lon="18.189853383">
        <ele>39.6</ele>
        <time>2011-05-07T10:50:57Z</time>
      </trkpt>
      <trkpt lat="59.3529310226" lon="18.1899514513">
        <ele>40</ele>
        <time>2011-05-07T10:51:01Z</time>
      </trkpt>
      <trkpt lat="59.3527998459" lon="18.1900060174">
        <ele>40.4</ele>
        <time>2011-05-07T10:51:06Z</time>
      </trkpt>
      <trkpt lat="59.3526759614" lon="18.1900973801">
        <ele>40.6</ele>
        <time>2011-05-07T10:51:11Z</time>
      </trkpt>
      <trkpt lat="59.3525462096" lon="18.1901055944">
        <ele>40.6</ele>
        <time>2011-05-07T10:51:16Z</time>
      </trkpt>
      <trkpt lat="59.3525213992" lon="18.1901169938">
        <ele>40.6</ele>
        <time>2011-05-07T10:51:17Z</time>
      </trkpt>
      <trkpt lat="59.3524968402" lon="18.1901347634">
        <ele>40.6</ele>
        <time>2011-05-07T10:51:18Z</time>
      </trkpt>
      <trkpt lat="59.3524247559" lon="18.1902744059">
        <ele>40.6</ele>
        <time>2011-05-07T10:51:22Z</time>
      </trkpt>
      <trkpt lat="59.3523639033" lon="18.1905445545">
        <ele>40.8</ele>
        <time>2011-05-07T10:51:28Z</time>
      </trkpt>
      <trkpt lat="59.3523105944" lon="18.1907622325">
        <ele>40.8</ele>
        <time>2011-05-07T10:51:33Z</time>
      </trkpt>
      <trkpt lat="59.3522439583" lon="18.1909799942">
        <ele>40.8</ele>
        <time>2011-05-07T10:51:38Z</time>
      </trkpt>
      <trkpt lat="59.3521962653" lon="18.1910843489">
        <ele>40.6</ele>
        <time>2011-05-07T10:51:42Z</time>
      </trkpt>
      <trkpt lat="59.352180172" lon="18.1911395018">
        <ele>40</ele>
        <time>2011-05-07T10:51:46Z</time>
      </trkpt>
      <trkpt lat="59.3521206605" lon="18.1912569322">
        <ele>38.6</ele>
        <time>2011-05-07T10:52:00Z</time>
      </trkpt>
      <trkpt lat="59.352126444" lon="18.1913874384">
        <ele>38</ele>
        <time>2011-05-07T10:52:04Z</time>
      </trkpt>
      <trkpt lat="59.3521071657" lon="18.1914786334">
        <ele>37.6</ele>
        <time>2011-05-07T10:52:06Z</time>
      </trkpt>
      <trkpt lat="59.3520944252" lon="18.1915751091">
        <ele>37.4</ele>
        <time>2011-05-07T10:52:08Z</time>
      </trkpt>
      <trkpt lat="59.3520567066" lon="18.1918300865">
        <ele>37</ele>
        <time>2011-05-07T10:52:14Z</time>
      </trkpt>
      <trkpt lat="59.3520441338" lon="18.1919102175">
        <ele>37</ele>
        <time>2011-05-07T10:52:16Z</time>
      </trkpt>
      <trkpt lat="59.3520478218" lon="18.1920113032">
        <ele>37</ele>
        <time>2011-05-07T10:52:18Z</time>
      </trkpt>
      <trkpt lat="59.3520807627" lon="18.1921958726">
        <ele>36.8</ele>
        <time>2011-05-07T10:52:22Z</time>
      </trkpt>
      <trkpt lat="59.3521559483" lon="18.1924134668">
        <ele>36.8</ele>
        <time>2011-05-07T10:52:28Z</time>
      </trkpt>
      <trkpt lat="59.3521735503" lon="18.1924486707">
        <ele>36.8</ele>
        <time>2011-05-07T10:52:29Z</time>
      </trkpt>
      <trkpt lat="59.3522297091" lon="18.1926001317">
        <ele>36.6</ele>
        <time>2011-05-07T10:52:35Z</time>
      </trkpt>
      <trkpt lat="59.3522732111" lon="18.1927209987">
        <ele>36.6</ele>
        <time>2011-05-07T10:52:38Z</time>
      </trkpt>
      <trkpt lat="59.3523110973" lon="18.192937587">
        <ele>36.6</ele>
        <time>2011-05-07T10:52:42Z</time>
      </trkpt>
      <trkpt lat="59.3523503246" lon="18.1931263473">
        <ele>36.6</ele>
        <time>2011-05-07T10:52:46Z</time>
      </trkpt>
      <trkpt lat="59.3524451239" lon="18.193316365">
        <ele>36.6</ele>
        <time>2011-05-07T10:52:51Z</time>
      </trkpt>
      <trkpt lat="59.3525296134" lon="18.1933213942">
        <ele>36.8</ele>
        <time>2011-05-07T10:52:55Z</time>
      </trkpt>
      <trkpt lat="59.3526446969" lon="18.1932841785">
        <ele>37.8</ele>
        <time>2011-05-07T10:53:01Z</time>
      </trkpt>
      <trkpt lat="59.352775706" lon="18.1933040436">
        <ele>38.4</ele>
        <time>2011-05-07T10:53:07Z</time>
      </trkpt>
      <trkpt lat="59.3528872691" lon="18.1933472942">
        <ele>39.6</ele>
        <time>2011-05-07T10:53:12Z</time>
      </trkpt>
      <trkpt lat="59.3530005924" lon="18.1933392476">
        <ele>40.6</ele>
        <time>2011-05-07T10:53:17Z</time>
      </trkpt>
      <trkpt lat="59.353111904" lon="18.1933255851">
        <ele>41.6</ele>
        <time>2011-05-07T10:53:22Z</time>
      </trkpt>
      <trkpt lat="59.3531502931" lon="18.1933166165">
        <ele>41.8</ele>
        <time>2011-05-07T10:53:24Z</time>
      </trkpt>
      <trkpt lat="59.3532342798" lon="18.1932641458">
        <ele>42.6</ele>
        <time>2011-05-07T10:53:28Z</time>
      </trkpt>
      <trkpt lat="59.3532875048" lon="18.1932265949">
        <ele>43.2</ele>
        <time>2011-05-07T10:53:30Z</time>
      </trkpt>
      <trkpt lat="59.353431003" lon="18.1932339709">
        <ele>44</ele>
        <time>2011-05-07T10:53:35Z</time>
      </trkpt>
      <trkpt lat="59.353458328" lon="18.193254339">
        <ele>44.4</ele>
        <time>2011-05-07T10:53:36Z</time>
      </trkpt>
      <trkpt lat="59.3535390456" lon="18.1933538321">
        <ele>45.2</ele>
        <time>2011-05-07T10:53:39Z</time>
      </trkpt>
      <trkpt lat="59.3535580726" lon="18.1936449355">
        <ele>46</ele>
        <time>2011-05-07T10:53:44Z</time>
      </trkpt>
      <trkpt lat="59.3535746687" lon="18.1938904413">
        <ele>46.8</ele>
        <time>2011-05-07T10:53:48Z</time>
      </trkpt>
      <trkpt lat="59.3536214397" lon="18.1940861587">
        <ele>47.8</ele>
        <time>2011-05-07T10:53:52Z</time>
      </trkpt>
      <trkpt lat="59.3537314941" lon="18.1943336762">
        <ele>48.4</ele>
        <time>2011-05-07T10:53:58Z</time>
      </trkpt>
      <trkpt lat="59.3538288918" lon="18.1944918427">
        <ele>48.8</ele>
        <time>2011-05-07T10:54:02Z</time>
      </trkpt>
      <trkpt lat="59.3539052509" lon="18.1946490871">
        <ele>49</ele>
        <time>2011-05-07T10:54:06Z</time>
      </trkpt>
      <trkpt lat="59.3539899919" lon="18.1948979457">
        <ele>49.6</ele>
        <time>2011-05-07T10:54:11Z</time>
      </trkpt>
      <trkpt lat="59.3540474079" lon="18.1951817569">
        <ele>50.4</ele>
        <time>2011-05-07T10:54:16Z</time>
      </trkpt>
      <trkpt lat="59.3541006329" lon="18.1955187092">
        <ele>51.4</ele>
        <time>2011-05-07T10:54:22Z</time>
      </trkpt>
      <trkpt lat="59.3541997908" lon="18.1958191165">
        <ele>52.4</ele>
        <time>2011-05-07T10:54:28Z</time>
      </trkpt>
      <trkpt lat="59.3542346595" lon="18.1960650415">
        <ele>52.8</ele>
        <time>2011-05-07T10:54:32Z</time>
      </trkpt>
      <trkpt lat="59.3542314744" lon="18.1963216114">
        <ele>53.2</ele>
        <time>2011-05-07T10:54:36Z</time>
      </trkpt>
      <trkpt lat="59.3541934206" lon="18.1966410457">
        <ele>53.4</ele>
        <time>2011-05-07T10:54:41Z</time>
      </trkpt>
      <trkpt lat="59.3542245174" lon="18.1969339092">
        <ele>53.4</ele>
        <time>2011-05-07T10:54:46Z</time>
      </trkpt>
      <trkpt lat="59.3542168899" lon="18.1970030599">
        <ele>53.4</ele>
        <time>2011-05-07T10:54:47Z</time>
      </trkpt>
      <trkpt lat="59.3541945102" lon="18.197205399">
        <ele>53.6</ele>
        <time>2011-05-07T10:54:50Z</time>
      </trkpt>
      <trkpt lat="59.3541370104" lon="18.1976042936">
        <ele>53.6</ele>
        <time>2011-05-07T10:54:56Z</time>
      </trkpt>
      <trkpt lat="59.3541239346" lon="18.197655507">
        <ele>53.6</ele>
        <time>2011-05-07T10:54:57Z</time>
      </trkpt>
      <trkpt lat="59.3540290515" lon="18.1979589318">
        <ele>53.6</ele>
        <time>2011-05-07T10:55:02Z</time>
      </trkpt>
      <trkpt lat="59.3539810232" lon="18.1982196927">
        <ele>53.2</ele>
        <time>2011-05-07T10:55:06Z</time>
      </trkpt>
      <trkpt lat="59.3539177399" lon="18.1985780189">
        <ele>52.4</ele>
        <time>2011-05-07T10:55:12Z</time>
      </trkpt>
      <trkpt lat="59.3539461545" lon="18.1989014764">
        <ele>52</ele>
        <time>2011-05-07T10:55:18Z</time>
      </trkpt>
      <trkpt lat="59.3540555383" lon="18.199011447">
        <ele>51.2</ele>
        <time>2011-05-07T10:55:22Z</time>
      </trkpt>
      <trkpt lat="59.3542049038" lon="18.1990953498">
        <ele>50.4</ele>
        <time>2011-05-07T10:55:27Z</time>
      </trkpt>
      <trkpt lat="59.3543489886" lon="18.199132314">
        <ele>50</ele>
        <time>2011-05-07T10:55:32Z</time>
      </trkpt>
      <trkpt lat="59.3545097535" lon="18.1991370917">
        <ele>49.8</ele>
        <time>2011-05-07T10:55:38Z</time>
      </trkpt>
      <trkpt lat="59.3546757151" lon="18.1991935018">
        <ele>49.6</ele>
        <time>2011-05-07T10:55:45Z</time>
      </trkpt>
      <trkpt lat="59.3548565127" lon="18.1993090044">
        <ele>50.6</ele>
        <time>2011-05-07T10:55:52Z</time>
      </trkpt>
      <trkpt lat="59.3550169423" lon="18.1994695178">
        <ele>51</ele>
        <time>2011-05-07T10:55:58Z</time>
      </trkpt>
      <trkpt lat="59.3551266613" lon="18.1997119224">
        <ele>51.2</ele>
        <time>2011-05-07T10:56:03Z</time>
      </trkpt>
      <trkpt lat="59.3552217121" lon="18.1999512256">
        <ele>51.4</ele>
        <time>2011-05-07T10:56:08Z</time>
      </trkpt>
      <trkpt lat="59.3552855822" lon="18.2001064584">
        <ele>51.4</ele>
        <time>2011-05-07T10:56:12Z</time>
      </trkpt>
      <trkpt lat="59.3554274877" lon="18.2003540597">
        <ele>51.6</ele>
        <time>2011-05-07T10:56:18Z</time>
      </trkpt>
      <trkpt lat="59.3555515398" lon="18.20051692">
        <ele>51.6</ele>
        <time>2011-05-07T10:56:24Z</time>
      </trkpt>
      <trkpt lat="59.355640388" lon="18.2006598314">
        <ele>51.6</ele>
        <time>2011-05-07T10:56:28Z</time>
      </trkpt>
      <trkpt lat="59.3557207704" lon="18.2010649287">
        <ele>51.6</ele>
        <time>2011-05-07T10:56:35Z</time>
      </trkpt>
      <trkpt lat="59.3557557229" lon="18.2014166332">
        <ele>51.6</ele>
        <time>2011-05-07T10:56:41Z</time>
      </trkpt>
      <trkpt lat="59.3557336785" lon="18.2015758893">
        <ele>51.6</ele>
        <time>2011-05-07T10:56:44Z</time>
      </trkpt>
      <trkpt lat="59.3556796991" lon="18.2019178708">
        <ele>51.4</ele>
        <time>2011-05-07T10:56:51Z</time>
      </trkpt>
      <trkpt lat="59.3556684673" lon="18.2022010952">
        <ele>50.6</ele>
        <time>2011-05-07T10:56:56Z</time>
      </trkpt>
      <trkpt lat="59.355652877" lon="18.2025548952">
        <ele>49.8</ele>
        <time>2011-05-07T10:57:02Z</time>
      </trkpt>
      <trkpt lat="59.3556034238" lon="18.2028577332">
        <ele>48.6</ele>
        <time>2011-05-07T10:57:08Z</time>
      </trkpt>
      <trkpt lat="59.3555405596" lon="18.2031516865">
        <ele>48</ele>
        <time>2011-05-07T10:57:14Z</time>
      </trkpt>
      <trkpt lat="59.3554598419" lon="18.2034243497">
        <ele>47.8</ele>
        <time>2011-05-07T10:57:20Z</time>
      </trkpt>
      <trkpt lat="59.3553832313" lon="18.20366315">
        <ele>47.6</ele>
        <time>2011-05-07T10:57:25Z</time>
      </trkpt>
      <trkpt lat="59.355288432" lon="18.2039508168">
        <ele>47.4</ele>
        <time>2011-05-07T10:57:31Z</time>
      </trkpt>
      <trkpt lat="59.3552254001" lon="18.2043126634">
        <ele>46.6</ele>
        <time>2011-05-07T10:57:38Z</time>
      </trkpt>
      <trkpt lat="59.3552614423" lon="18.2045334427">
        <ele>46.2</ele>
        <time>2011-05-07T10:57:42Z</time>
      </trkpt>
      <trkpt lat="59.355391697" lon="18.2049275596">
        <ele>45.8</ele>
        <time>2011-05-07T10:57:51Z</time>
      </trkpt>
      <trkpt lat="59.3554856581" lon="18.2051480874">
        <ele>45.6</ele>
        <time>2011-05-07T10:57:56Z</time>
      </trkpt>
      <trkpt lat="59.3555854027" lon="18.2053463194">
        <ele>45.4</ele>
        <time>2011-05-07T10:58:01Z</time>
      </trkpt>
      <trkpt lat="59.3557122209" lon="18.2056293761">
        <ele>45.4</ele>
        <time>2011-05-07T10:58:08Z</time>
      </trkpt>
      <trkpt lat="59.3557495203" lon="18.2058342298">
        <ele>45.4</ele>
        <time>2011-05-07T10:58:13Z</time>
      </trkpt>
      <trkpt lat="59.3557886638" lon="18.2059424401">
        <ele>45.4</ele>
        <time>2011-05-07T10:58:16Z</time>
      </trkpt>
      <trkpt lat="59.3558734048" lon="18.2059447032">
        <ele>45.4</ele>
        <time>2011-05-07T10:58:21Z</time>
      </trkpt>
      <trkpt lat="59.3558962874" lon="18.205942943">
        <ele>45.4</ele>
        <time>2011-05-07T10:58:22Z</time>
      </trkpt>
      <trkpt lat="59.3559546254" lon="18.205906817">
        <ele>45.4</ele>
        <time>2011-05-07T10:58:25Z</time>
      </trkpt>
      <trkpt lat="59.3560509334" lon="18.2057625645">
        <ele>45.4</ele>
        <time>2011-05-07T10:58:30Z</time>
      </trkpt>
      <trkpt lat="59.3561612392" lon="18.2057348204">
        <ele>45.4</ele>
        <time>2011-05-07T10:58:35Z</time>
      </trkpt>
      <trkpt lat="59.3562796755" lon="18.2056852834">
        <ele>45.4</ele>
        <time>2011-05-07T10:58:42Z</time>
      </trkpt>
      <trkpt lat="59.3564051525" lon="18.2056050686">
        <ele>45.4</ele>
        <time>2011-05-07T10:58:48Z</time>
      </trkpt>
      <trkpt lat="59.3564250176" lon="18.2055640811">
        <ele>45.4</ele>
        <time>2011-05-07T10:58:49Z</time>
      </trkpt>
      <trkpt lat="59.3565366645" lon="18.205460397">
        <ele>46</ele>
        <time>2011-05-07T10:58:53Z</time>
      </trkpt>
      <trkpt lat="59.356692065" lon="18.2054500873">
        <ele>46.6</ele>
        <time>2011-05-07T10:58:58Z</time>
      </trkpt>
      <trkpt lat="59.3568805739" lon="18.2054007179">
        <ele>47</ele>
        <time>2011-05-07T10:59:04Z</time>
      </trkpt>
      <trkpt lat="59.3570120859" lon="18.2053795955">
        <ele>47</ele>
        <time>2011-05-07T10:59:08Z</time>
      </trkpt>
      <trkpt lat="59.3571285105" lon="18.2052757438">
        <ele>47.2</ele>
        <time>2011-05-07T10:59:13Z</time>
      </trkpt>
      <trkpt lat="59.3571886925" lon="18.2052113708">
        <ele>47.2</ele>
        <time>2011-05-07T10:59:16Z</time>
      </trkpt>
      <trkpt lat="59.3573656345" lon="18.2050326687">
        <ele>47.2</ele>
        <time>2011-05-07T10:59:23Z</time>
      </trkpt>
      <trkpt lat="59.3574786225" lon="18.2049548008">
        <ele>48</ele>
        <time>2011-05-07T10:59:27Z</time>
      </trkpt>
      <trkpt lat="59.3576183487" lon="18.204804681">
        <ele>48.6</ele>
        <time>2011-05-07T10:59:33Z</time>
      </trkpt>
      <trkpt lat="59.3576655388" lon="18.2047687226">
        <ele>48.8</ele>
        <time>2011-05-07T10:59:35Z</time>
      </trkpt>
      <trkpt lat="59.3577878308" lon="18.2047042658">
        <ele>49</ele>
        <time>2011-05-07T10:59:41Z</time>
      </trkpt>
      <trkpt lat="59.3578939456" lon="18.204721784">
        <ele>49.2</ele>
        <time>2011-05-07T10:59:45Z</time>
      </trkpt>
      <trkpt lat="59.3580490108" lon="18.2046579977">
        <ele>49.2</ele>
        <time>2011-05-07T10:59:51Z</time>
      </trkpt>
      <trkpt lat="59.3581537845" lon="18.204631008">
        <ele>49.2</ele>
        <time>2011-05-07T10:59:55Z</time>
      </trkpt>
      <trkpt lat="59.3582435547" lon="18.2046255598">
        <ele>49.2</ele>
        <time>2011-05-07T10:59:58Z</time>
      </trkpt>
      <trkpt lat="59.3584021402" lon="18.2046047727">
        <ele>49.4</ele>
        <time>2011-05-07T11:00:03Z</time>
      </trkpt>
      <trkpt lat="59.3585111887" lon="18.2045651263">
        <ele>49.4</ele>
        <time>2011-05-07T11:00:08Z</time>
      </trkpt>
      <trkpt lat="59.3585319758" lon="18.204562025">
        <ele>49.4</ele>
        <time>2011-05-07T11:00:09Z</time>
      </trkpt>
      <trkpt lat="59.3586385098" lon="18.2044845762">
        <ele>49.8</ele>
        <time>2011-05-07T11:00:13Z</time>
      </trkpt>
      <trkpt lat="59.3586633202" lon="18.2044692373">
        <ele>50</ele>
        <time>2011-05-07T11:00:14Z</time>
      </trkpt>
      <trkpt lat="59.3587901384" lon="18.2043627872">
        <ele>50.6</ele>
        <time>2011-05-07T11:00:20Z</time>
      </trkpt>
      <trkpt lat="59.3588123504" lon="18.2043512202">
        <ele>50.8</ele>
        <time>2011-05-07T11:00:21Z</time>
      </trkpt>
      <trkpt lat="59.358902372" lon="18.2043201233">
        <ele>51</ele>
        <time>2011-05-07T11:00:25Z</time>
      </trkpt>
      <trkpt lat="59.3590545035" lon="18.2042853385">
        <ele>51.2</ele>
        <time>2011-05-07T11:00:31Z</time>
      </trkpt>
      <trkpt lat="59.3591411723" lon="18.2041880246">
        <ele>51.8</ele>
        <time>2011-05-07T11:00:35Z</time>
      </trkpt>
      <trkpt lat="59.359223734" lon="18.2039989289">
        <ele>52.4</ele>
        <time>2011-05-07T11:00:40Z</time>
      </trkpt>
      <trkpt lat="59.3592981653" lon="18.2037651577">
        <ele>52.8</ele>
        <time>2011-05-07T11:00:45Z</time>
      </trkpt>
      <trkpt lat="59.3593471994" lon="18.2036140321">
        <ele>53</ele>
        <time>2011-05-07T11:00:48Z</time>
      </trkpt>
      <trkpt lat="59.359503941" lon="18.2031842921">
        <ele>53.2</ele>
        <time>2011-05-07T11:00:58Z</time>
      </trkpt>
      <trkpt lat="59.3595316851" lon="18.2029006486">
        <ele>53.4</ele>
        <time>2011-05-07T11:01:03Z</time>
      </trkpt>
      <trkpt lat="59.3594560803" lon="18.2025816335">
        <ele>53.4</ele>
        <time>2011-05-07T11:01:09Z</time>
      </trkpt>
      <trkpt lat="59.3593473671" lon="18.202415588">
        <ele>53.4</ele>
        <time>2011-05-07T11:01:14Z</time>
      </trkpt>
      <trkpt lat="59.3592799766" lon="18.2021995865">
        <ele>53.4</ele>
        <time>2011-05-07T11:01:19Z</time>
      </trkpt>
      <trkpt lat="59.3592822397" lon="18.2021475349">
        <ele>53.4</ele>
        <time>2011-05-07T11:01:20Z</time>
      </trkpt>
      <trkpt lat="59.3593364706" lon="18.2018913002">
        <ele>53.4</ele>
        <time>2011-05-07T11:01:25Z</time>
      </trkpt>
      <trkpt lat="59.3593512227" lon="18.2016694313">
        <ele>53.4</ele>
        <time>2011-05-07T11:01:29Z</time>
      </trkpt>
      <trkpt lat="59.359307553" lon="18.201445886">
        <ele>53.4</ele>
        <time>2011-05-07T11:01:33Z</time>
      </trkpt>
      <trkpt lat="59.3592430962" lon="18.2012561198">
        <ele>53.4</ele>
        <time>2011-05-07T11:01:38Z</time>
      </trkpt>
      <trkpt lat="59.3591527394" lon="18.2011189919">
        <ele>53.4</ele>
        <time>2011-05-07T11:01:42Z</time>
      </trkpt>
      <trkpt lat="59.3591388254" lon="18.2008889926">
        <ele>53.4</ele>
        <time>2011-05-07T11:01:46Z</time>
      </trkpt>
      <trkpt lat="59.3592032822" lon="18.2006379547">
        <ele>53.4</ele>
        <time>2011-05-07T11:01:51Z</time>
      </trkpt>
      <trkpt lat="59.3592828264" lon="18.2004258926">
        <ele>53.4</ele>
        <time>2011-05-07T11:01:55Z</time>
      </trkpt>
      <trkpt lat="59.3593363868" lon="18.2002187759">
        <ele>53</ele>
        <time>2011-05-07T11:01:59Z</time>
      </trkpt>
      <trkpt lat="59.3594277495" lon="18.199969582">
        <ele>52.2</ele>
        <time>2011-05-07T11:02:04Z</time>
      </trkpt>
      <trkpt lat="59.3595315174" lon="18.1997295243">
        <ele>52</ele>
        <time>2011-05-07T11:02:09Z</time>
      </trkpt>
      <trkpt lat="59.3596523006" lon="18.1994520835">
        <ele>51.6</ele>
        <time>2011-05-07T11:02:15Z</time>
      </trkpt>
      <trkpt lat="59.3597079564" lon="18.1991807614">
        <ele>51.6</ele>
        <time>2011-05-07T11:02:20Z</time>
      </trkpt>
      <trkpt lat="59.3597268157" lon="18.1988565495">
        <ele>50.6</ele>
        <time>2011-05-07T11:02:25Z</time>
      </trkpt>
      <trkpt lat="59.35975632" lon="18.1986637658">
        <ele>50.2</ele>
        <time>2011-05-07T11:02:29Z</time>
      </trkpt>
      <trkpt lat="59.3597771071" lon="18.1983358658">
        <ele>49.8</ele>
        <time>2011-05-07T11:02:35Z</time>
      </trkpt>
      <trkpt lat="59.3597877521" lon="18.1982854906">
        <ele>49.8</ele>
        <time>2011-05-07T11:02:36Z</time>
      </trkpt>
      <trkpt lat="59.3598367862" lon="18.1979808085">
        <ele>49.6</ele>
        <time>2011-05-07T11:02:41Z</time>
      </trkpt>
      <trkpt lat="59.359876265" lon="18.1976889508">
        <ele>49.6</ele>
        <time>2011-05-07T11:02:46Z</time>
      </trkpt>
      <trkpt lat="59.3598784443" lon="18.1975125956">
        <ele>49</ele>
        <time>2011-05-07T11:02:49Z</time>
      </trkpt>
      <trkpt lat="59.3598244648" lon="18.1973117653">
        <ele>48.2</ele>
        <time>2011-05-07T11:02:54Z</time>
      </trkpt>
      <trkpt lat="59.3597551465" lon="18.1971416965">
        <ele>47.8</ele>
        <time>2011-05-07T11:03:00Z</time>
      </trkpt>
      <trkpt lat="59.3597416516" lon="18.1971160479">
        <ele>47.8</ele>
        <time>2011-05-07T11:03:01Z</time>
      </trkpt>
      <trkpt lat="59.3596880913" lon="18.1969992881">
        <ele>47.6</ele>
        <time>2011-05-07T11:03:05Z</time>
      </trkpt>
      <trkpt lat="59.3596098044" lon="18.1967956917">
        <ele>47.6</ele>
        <time>2011-05-07T11:03:11Z</time>
      </trkpt>
      <trkpt lat="59.3594850817" lon="18.1965390379">
        <ele>47.4</ele>
        <time>2011-05-07T11:03:18Z</time>
      </trkpt>
      <trkpt lat="59.3594531467" lon="18.1962878324">
        <ele>47.4</ele>
        <time>2011-05-07T11:03:23Z</time>
      </trkpt>
      <trkpt lat="59.3594609418" lon="18.1960700706">
        <ele>47.4</ele>
        <time>2011-05-07T11:03:27Z</time>
      </trkpt>
      <trkpt lat="59.3594987442" lon="18.1958215473">
        <ele>47.4</ele>
        <time>2011-05-07T11:03:32Z</time>
      </trkpt>
      <trkpt lat="59.3595488679" lon="18.1955674081">
        <ele>47.4</ele>
        <time>2011-05-07T11:03:37Z</time>
      </trkpt>
      <trkpt lat="59.3595699903" lon="18.195300696">
        <ele>47.4</ele>
        <time>2011-05-07T11:03:42Z</time>
      </trkpt>
      <trkpt lat="59.3594843273" lon="18.1949914877">
        <ele>47.4</ele>
        <time>2011-05-07T11:03:49Z</time>
      </trkpt>
      <trkpt lat="59.3593827387" lon="18.194659313">
        <ele>47.4</ele>
        <time>2011-05-07T11:03:55Z</time>
      </trkpt>
      <trkpt lat="59.3593067149" lon="18.1944668646">
        <ele>47.4</ele>
        <time>2011-05-07T11:03:59Z</time>
      </trkpt>
      <trkpt lat="59.3591770469" lon="18.1942760926">
        <ele>47.4</ele>
        <time>2011-05-07T11:04:04Z</time>
      </trkpt>
      <trkpt lat="59.3591332933" lon="18.1942107976">
        <ele>47.4</ele>
        <time>2011-05-07T11:04:06Z</time>
      </trkpt>
      <trkpt lat="59.3590790625" lon="18.1938911119">
        <ele>47</ele>
        <time>2011-05-07T11:04:13Z</time>
      </trkpt>
      <trkpt lat="59.3590871929" lon="18.1936723443">
        <ele>46.6</ele>
        <time>2011-05-07T11:04:16Z</time>
      </trkpt>
      <trkpt lat="59.3591913799" lon="18.1933972504">
        <ele>46</ele>
        <time>2011-05-07T11:04:21Z</time>
      </trkpt>
      <trkpt lat="59.3593122469" lon="18.1931730345">
        <ele>44.8</ele>
        <time>2011-05-07T11:04:26Z</time>
      </trkpt>
      <trkpt lat="59.3594308508" lon="18.1930317995">
        <ele>44.2</ele>
        <time>2011-05-07T11:04:31Z</time>
      </trkpt>
      <trkpt lat="59.3594536496" lon="18.1929867887">
        <ele>44</ele>
        <time>2011-05-07T11:04:33Z</time>
      </trkpt>
      <trkpt lat="59.3595583395" lon="18.1928463919">
        <ele>43</ele>
        <time>2011-05-07T11:04:36Z</time>
      </trkpt>
      <trkpt lat="59.3596190245" lon="18.1927926639">
        <ele>42.6</ele>
        <time>2011-05-07T11:04:38Z</time>
      </trkpt>
      <trkpt lat="59.3598029233" lon="18.1927075876">
        <ele>41.4</ele>
        <time>2011-05-07T11:04:44Z</time>
      </trkpt>
      <trkpt lat="59.3599301606" lon="18.192691662">
        <ele>40.4</ele>
        <time>2011-05-07T11:04:48Z</time>
      </trkpt>
      <trkpt lat="59.360096206" lon="18.1927566217">
        <ele>39.4</ele>
        <time>2011-05-07T11:04:53Z</time>
      </trkpt>
      <trkpt lat="59.3602438113" lon="18.1927573761">
        <ele>38.4</ele>
        <time>2011-05-07T11:04:58Z</time>
      </trkpt>
      <trkpt lat="59.360378257" lon="18.1927332362">
        <ele>37.2</ele>
        <time>2011-05-07T11:05:02Z</time>
      </trkpt>
      <trkpt lat="59.360529215" lon="18.1926576315">
        <ele>36.2</ele>
        <time>2011-05-07T11:05:07Z</time>
      </trkpt>
      <trkpt lat="59.3607155446" lon="18.1925868044">
        <ele>34.8</ele>
        <time>2011-05-07T11:05:13Z</time>
      </trkpt>
      <trkpt lat="59.3607846115" lon="18.1924841262">
        <ele>34.2</ele>
        <time>2011-05-07T11:05:16Z</time>
      </trkpt>
      <trkpt lat="59.3608217433" lon="18.1922749139">
        <ele>33.6</ele>
        <time>2011-05-07T11:05:20Z</time>
      </trkpt>
      <trkpt lat="59.3608344838" lon="18.1919926954">
        <ele>33.2</ele>
        <time>2011-05-07T11:05:25Z</time>
      </trkpt>
      <trkpt lat="59.3608225815" lon="18.1916974849">
        <ele>32</ele>
        <time>2011-05-07T11:05:30Z</time>
      </trkpt>
      <trkpt lat="59.3608165465" lon="18.1915789648">
        <ele>31.8</ele>
        <time>2011-05-07T11:05:33Z</time>
      </trkpt>
      <trkpt lat="59.3608442906" lon="18.1913961555">
        <ele>31.4</ele>
        <time>2011-05-07T11:05:35Z</time>
      </trkpt>
      <trkpt lat="59.360958033" lon="18.191075045">
        <ele>30</ele>
        <time>2011-05-07T11:05:41Z</time>
      </trkpt>
      <trkpt lat="59.3610957476" lon="18.1907722907">
        <ele>28.8</ele>
        <time>2011-05-07T11:05:47Z</time>
      </trkpt>
      <trkpt lat="59.361215022" lon="18.1905402797">
        <ele>27.8</ele>
        <time>2011-05-07T11:05:53Z</time>
      </trkpt>
      <trkpt lat="59.3613497192" lon="18.1903158963">
        <ele>26.4</ele>
        <time>2011-05-07T11:05:59Z</time>
      </trkpt>
      <trkpt lat="59.3615278345" lon="18.1902320773">
        <ele>25.2</ele>
        <time>2011-05-07T11:06:05Z</time>
      </trkpt>
      <trkpt lat="59.3617295869" lon="18.1902486734">
        <ele>23.6</ele>
        <time>2011-05-07T11:06:11Z</time>
      </trkpt>
      <trkpt lat="59.3618610151" lon="18.1900834662">
        <ele>22.8</ele>
        <time>2011-05-07T11:06:16Z</time>
      </trkpt>
      <trkpt lat="59.3620014957" lon="18.1898461746">
        <ele>21.4</ele>
        <time>2011-05-07T11:06:22Z</time>
      </trkpt>
      <trkpt lat="59.3620604205" lon="18.1896256468">
        <ele>20.4</ele>
        <time>2011-05-07T11:06:27Z</time>
      </trkpt>
      <trkpt lat="59.362087494" lon="18.1895023491">
        <ele>19.6</ele>
        <time>2011-05-07T11:06:31Z</time>
      </trkpt>
      <trkpt lat="59.362091685" lon="18.1895020976">
        <ele>19</ele>
        <time>2011-05-07T11:06:35Z</time>
      </trkpt>
      <trkpt lat="59.3620928584" lon="18.1895165983">
        <ele>16.8</ele>
        <time>2011-05-07T11:06:47Z</time>
      </trkpt>
      <trkpt lat="59.3620771004" lon="18.189417189">
        <ele>15.8</ele>
        <time>2011-05-07T11:06:51Z</time>
      </trkpt>
      <trkpt lat="59.362037035" lon="18.1890684181">
        <ele>15</ele>
        <time>2011-05-07T11:06:56Z</time>
      </trkpt>
      <trkpt lat="59.3620102129" lon="18.1887426136">
        <ele>13.6</ele>
        <time>2011-05-07T11:07:01Z</time>
      </trkpt>
      <trkpt lat="59.3619821335" lon="18.1883555375">
        <ele>12.6</ele>
        <time>2011-05-07T11:07:07Z</time>
      </trkpt>
      <trkpt lat="59.3619696445" lon="18.1879744125">
        <ele>12.2</ele>
        <time>2011-05-07T11:07:13Z</time>
      </trkpt>
      <trkpt lat="59.3619978915" lon="18.1875818043">
        <ele>11.8</ele>
        <time>2011-05-07T11:07:20Z</time>
      </trkpt>
      <trkpt lat="59.3620585764" lon="18.1872368891">
        <ele>11.8</ele>
        <time>2011-05-07T11:07:26Z</time>
      </trkpt>
      <trkpt lat="59.3621299064" lon="18.1869679978">
        <ele>11.6</ele>
        <time>2011-05-07T11:07:31Z</time>
      </trkpt>
      <trkpt lat="59.3622227779" lon="18.1866494018">
        <ele>11.6</ele>
        <time>2011-05-07T11:07:37Z</time>
      </trkpt>
      <trkpt lat="59.3622955328" lon="18.1864665087">
        <ele>11.6</ele>
        <time>2011-05-07T11:07:41Z</time>
      </trkpt>
      <trkpt lat="59.3624100295" lon="18.1862695341">
        <ele>11.6</ele>
        <time>2011-05-07T11:07:46Z</time>
      </trkpt>
      <trkpt lat="59.3625188266" lon="18.1860043307">
        <ele>11.6</ele>
        <time>2011-05-07T11:07:52Z</time>
      </trkpt>
      <trkpt lat="59.3626075071" lon="18.1856937813">
        <ele>11.6</ele>
        <time>2011-05-07T11:07:58Z</time>
      </trkpt>
      <trkpt lat="59.3626545295" lon="18.1854181006">
        <ele>11.6</ele>
        <time>2011-05-07T11:08:03Z</time>
      </trkpt>
      <trkpt lat="59.3627035637" lon="18.1850997561">
        <ele>11.6</ele>
        <time>2011-05-07T11:08:09Z</time>
      </trkpt>
      <trkpt lat="59.3627657574" lon="18.1847851834">
        <ele>11.6</ele>
        <time>2011-05-07T11:08:15Z</time>
      </trkpt>
      <trkpt lat="59.3628168031" lon="18.1845266856">
        <ele>11.6</ele>
        <time>2011-05-07T11:08:20Z</time>
      </trkpt>
      <trkpt lat="59.3628808408" lon="18.1842090116">
        <ele>11.6</ele>
        <time>2011-05-07T11:08:26Z</time>
      </trkpt>
      <trkpt lat="59.3629264384" lon="18.1839953569">
        <ele>11.6</ele>
        <time>2011-05-07T11:08:31Z</time>
      </trkpt>
      <trkpt lat="59.3629917334" lon="18.1837609152">
        <ele>11.6</ele>
        <time>2011-05-07T11:08:37Z</time>
      </trkpt>
      <trkpt lat="59.3630593753" lon="18.1836161598">
        <ele>11.6</ele>
        <time>2011-05-07T11:08:41Z</time>
      </trkpt>
      <trkpt lat="59.3631299509" lon="18.1834228732">
        <ele>11.6</ele>
        <time>2011-05-07T11:08:45Z</time>
      </trkpt>
      <trkpt lat="59.363217877" lon="18.1831463543">
        <ele>11.6</ele>
        <time>2011-05-07T11:08:51Z</time>
      </trkpt>
      <trkpt lat="59.3632474651" lon="18.1828840008">
        <ele>11.6</ele>
        <time>2011-05-07T11:08:56Z</time>
      </trkpt>
      <trkpt lat="59.3632535001" lon="18.18272508">
        <ele>11.6</ele>
        <time>2011-05-07T11:09:00Z</time>
      </trkpt>
      <trkpt lat="59.3632672464" lon="18.1825503174">
        <ele>11.6</ele>
        <time>2011-05-07T11:09:04Z</time>
      </trkpt>
      <trkpt lat="59.3632958287" lon="18.1823152889">
        <ele>11.6</ele>
        <time>2011-05-07T11:09:09Z</time>
      </trkpt>
      <trkpt lat="59.3633120058" lon="18.1820937553">
        <ele>11.6</ele>
        <time>2011-05-07T11:09:14Z</time>
      </trkpt>
      <trkpt lat="59.3632691743" lon="18.1818588945">
        <ele>11.6</ele>
        <time>2011-05-07T11:09:18Z</time>
      </trkpt>
      <trkpt lat="59.3631977605" lon="18.1815458305">
        <ele>12.2</ele>
        <time>2011-05-07T11:09:24Z</time>
      </trkpt>
      <trkpt lat="59.3631713575" lon="18.1813905139">
        <ele>12.6</ele>
        <time>2011-05-07T11:09:27Z</time>
      </trkpt>
      <trkpt lat="59.3631337228" lon="18.1811961376">
        <ele>13</ele>
        <time>2011-05-07T11:09:31Z</time>
      </trkpt>
      <trkpt lat="59.3631291965" lon="18.181098237">
        <ele>13</ele>
        <time>2011-05-07T11:09:33Z</time>
      </trkpt>
      <trkpt lat="59.3630767258" lon="18.1808983287">
        <ele>13.4</ele>
        <time>2011-05-07T11:09:39Z</time>
      </trkpt>
      <trkpt lat="59.3630741275" lon="18.1808723448">
        <ele>13.4</ele>
        <time>2011-05-07T11:09:40Z</time>
      </trkpt>
      <trkpt lat="59.3630670028" lon="18.180688865">
        <ele>14.2</ele>
        <time>2011-05-07T11:09:45Z</time>
      </trkpt>
      <trkpt lat="59.3630659132" lon="18.1806597798">
        <ele>14.4</ele>
        <time>2011-05-07T11:09:46Z</time>
      </trkpt>
      <trkpt lat="59.3630587048" lon="18.1806184571">
        <ele>14.6</ele>
        <time>2011-05-07T11:09:48Z</time>
      </trkpt>
      <trkpt lat="59.3630564416" lon="18.1804631405">
        <ele>15.6</ele>
        <time>2011-05-07T11:09:54Z</time>
      </trkpt>
      <trkpt lat="59.363050239" lon="18.1803349812">
        <ele>16.6</ele>
        <time>2011-05-07T11:09:59Z</time>
      </trkpt>
      <trkpt lat="59.363049317" lon="18.1802560237">
        <ele>16.8</ele>
        <time>2011-05-07T11:10:01Z</time>
      </trkpt>
      <trkpt lat="59.363052586" lon="18.1799659262">
        <ele>17.6</ele>
        <time>2011-05-07T11:10:08Z</time>
      </trkpt>
      <trkpt lat="59.3630479759" lon="18.1797746512">
        <ele>18.4</ele>
        <time>2011-05-07T11:10:13Z</time>
      </trkpt>
      <trkpt lat="59.3630706909" lon="18.1794772614">
        <ele>19.6</ele>
        <time>2011-05-07T11:10:18Z</time>
      </trkpt>
      <trkpt lat="59.3630903883" lon="18.1794386208">
        <ele>20</ele>
        <time>2011-05-07T11:10:19Z</time>
      </trkpt>
      <trkpt lat="59.363185942" lon="18.1792307497">
        <ele>20.8</ele>
        <time>2011-05-07T11:10:24Z</time>
      </trkpt>
      <trkpt lat="59.3632658215" lon="18.1791007464">
        <ele>22.2</ele>
        <time>2011-05-07T11:10:28Z</time>
      </trkpt>
      <trkpt lat="59.3633595311" lon="18.1788880138">
        <ele>24</ele>
        <time>2011-05-07T11:10:34Z</time>
      </trkpt>
      <trkpt lat="59.3634159413" lon="18.1786902848">
        <ele>24.8</ele>
        <time>2011-05-07T11:10:38Z</time>
      </trkpt>
      <trkpt lat="59.3634711781" lon="18.1784633868">
        <ele>26.4</ele>
        <time>2011-05-07T11:10:43Z</time>
      </trkpt>
      <trkpt lat="59.3635042866" lon="18.1782096666">
        <ele>27.4</ele>
        <time>2011-05-07T11:10:48Z</time>
      </trkpt>
      <trkpt lat="59.3635539074" lon="18.1779869596">
        <ele>28.6</ele>
        <time>2011-05-07T11:10:52Z</time>
      </trkpt>
      <trkpt lat="59.3636456892" lon="18.1773483426">
        <ele>30.2</ele>
        <time>2011-05-07T11:11:03Z</time>
      </trkpt>
      <trkpt lat="59.3637020156" lon="18.1770044332">
        <ele>30.6</ele>
        <time>2011-05-07T11:11:09Z</time>
      </trkpt>
      <trkpt lat="59.363758761" lon="18.176664631">
        <ele>30.6</ele>
        <time>2011-05-07T11:11:13Z</time>
      </trkpt>
      <trkpt lat="59.3638309292" lon="18.1763633855">
        <ele>30</ele>
        <time>2011-05-07T11:11:18Z</time>
      </trkpt>
      <trkpt lat="59.3638966433" lon="18.1760436161">
        <ele>29.6</ele>
        <time>2011-05-07T11:11:23Z</time>
      </trkpt>
      <trkpt lat="59.363948192" lon="18.1758617288">
        <ele>28.8</ele>
        <time>2011-05-07T11:11:27Z</time>
      </trkpt>
      <trkpt lat="59.3639788697" lon="18.1755733076">
        <ele>28</ele>
        <time>2011-05-07T11:11:33Z</time>
      </trkpt>
      <trkpt lat="59.3639834798" lon="18.1755323202">
        <ele>27.8</ele>
        <time>2011-05-07T11:11:34Z</time>
      </trkpt>
      <trkpt lat="59.3639125689" lon="18.1753579766">
        <ele>27.6</ele>
        <time>2011-05-07T11:11:38Z</time>
      </trkpt>
      <trkpt lat="59.3637644607" lon="18.1752389537">
        <ele>26.2</ele>
        <time>2011-05-07T11:11:44Z</time>
      </trkpt>
      <trkpt lat="59.3636655543" lon="18.1751483453">
        <ele>25.6</ele>
        <time>2011-05-07T11:11:49Z</time>
      </trkpt>
      <trkpt lat="59.3635820706" lon="18.1749885863">
        <ele>25.4</ele>
        <time>2011-05-07T11:11:53Z</time>
      </trkpt>
      <trkpt lat="59.3635114112" lon="18.1748037654">
        <ele>25</ele>
        <time>2011-05-07T11:11:57Z</time>
      </trkpt>
      <trkpt lat="59.3635248222" lon="18.1745303478">
        <ele>25</ele>
        <time>2011-05-07T11:12:03Z</time>
      </trkpt>
      <trkpt lat="59.3635653068" lon="18.1743056291">
        <ele>24.8</ele>
        <time>2011-05-07T11:12:07Z</time>
      </trkpt>
      <trkpt lat="59.3635821544" lon="18.1742540804">
        <ele>24.8</ele>
        <time>2011-05-07T11:12:08Z</time>
      </trkpt>
      <trkpt lat="59.3636973217" lon="18.173954176">
        <ele>24.8</ele>
        <time>2011-05-07T11:12:14Z</time>
      </trkpt>
      <trkpt lat="59.3638238046" lon="18.173680507">
        <ele>24.8</ele>
        <time>2011-05-07T11:12:20Z</time>
      </trkpt>
      <trkpt lat="59.3639438334" lon="18.1734785032">
        <ele>24.8</ele>
        <time>2011-05-07T11:12:25Z</time>
      </trkpt>
      <trkpt lat="59.3640741719" lon="18.1732202569">
        <ele>24.8</ele>
        <time>2011-05-07T11:12:30Z</time>
      </trkpt>
      <trkpt lat="59.3641482679" lon="18.1729728232">
        <ele>24.8</ele>
        <time>2011-05-07T11:12:35Z</time>
      </trkpt>
      <trkpt lat="59.364199649" lon="18.1725952186">
        <ele>23.8</ele>
        <time>2011-05-07T11:12:43Z</time>
      </trkpt>
      <trkpt lat="59.3642426481" lon="18.1723699969">
        <ele>23.4</ele>
        <time>2011-05-07T11:12:46Z</time>
      </trkpt>
      <trkpt lat="59.3642745832" lon="18.172130526">
        <ele>23.2</ele>
        <time>2011-05-07T11:12:51Z</time>
      </trkpt>
      <trkpt lat="59.3643083622" lon="18.1718768897">
        <ele>23</ele>
        <time>2011-05-07T11:12:57Z</time>
      </trkpt>
      <trkpt lat="59.3643097033" lon="18.1714550287">
        <ele>22</ele>
        <time>2011-05-07T11:13:04Z</time>
      </trkpt>
      <trkpt lat="59.3642788579" lon="18.1711072637">
        <ele>21.2</ele>
        <time>2011-05-07T11:13:10Z</time>
      </trkpt>
      <trkpt lat="59.3643153192" lon="18.170833427">
        <ele>20</ele>
        <time>2011-05-07T11:13:15Z</time>
      </trkpt>
      <trkpt lat="59.3644014851" lon="18.1704228815">
        <ele>18.2</ele>
        <time>2011-05-07T11:13:22Z</time>
      </trkpt>
      <trkpt lat="59.3644373597" lon="18.1701881883">
        <ele>17.6</ele>
        <time>2011-05-07T11:13:27Z</time>
      </trkpt>
      <trkpt lat="59.3644482561" lon="18.1701136733">
        <ele>17.4</ele>
        <time>2011-05-07T11:13:28Z</time>
      </trkpt>
      <trkpt lat="59.3645215139" lon="18.1698869429">
        <ele>16.8</ele>
        <time>2011-05-07T11:13:34Z</time>
      </trkpt>
      <trkpt lat="59.3645868928" lon="18.1696778145">
        <ele>16.6</ele>
        <time>2011-05-07T11:13:40Z</time>
      </trkpt>
      <trkpt lat="59.3646281317" lon="18.169424262">
        <ele>16.4</ele>
        <time>2011-05-07T11:13:45Z</time>
      </trkpt>
      <trkpt lat="59.3646288023" lon="18.1693815143">
        <ele>16.4</ele>
        <time>2011-05-07T11:13:46Z</time>
      </trkpt>
      <trkpt lat="59.3646331609" lon="18.1692914089">
        <ele>16.4</ele>
        <time>2011-05-07T11:13:49Z</time>
      </trkpt>
      <trkpt lat="59.364699294" lon="18.1689480024">
        <ele>16.4</ele>
        <time>2011-05-07T11:13:57Z</time>
      </trkpt>
      <trkpt lat="59.3647702887" lon="18.1686972998">
        <ele>17</ele>
        <time>2011-05-07T11:14:02Z</time>
      </trkpt>
      <trkpt lat="59.3648492462" lon="18.1684871656">
        <ele>17.6</ele>
        <time>2011-05-07T11:14:05Z</time>
      </trkpt>
      <trkpt lat="59.364857712" lon="18.1684236308">
        <ele>17.6</ele>
        <time>2011-05-07T11:14:07Z</time>
      </trkpt>
      <trkpt lat="59.3648883059" lon="18.1681079684">
        <ele>18</ele>
        <time>2011-05-07T11:14:12Z</time>
      </trkpt>
      <trkpt lat="59.3648898146" lon="18.1678787234">
        <ele>18.2</ele>
        <time>2011-05-07T11:14:15Z</time>
      </trkpt>
      <trkpt lat="59.3648883059" lon="18.1678147695">
        <ele>18.2</ele>
        <time>2011-05-07T11:14:16Z</time>
      </trkpt>
      <trkpt lat="59.3648710392" lon="18.1676570222">
        <ele>18.2</ele>
        <time>2011-05-07T11:14:20Z</time>
      </trkpt>
      <trkpt lat="59.3649313889" lon="18.1673738816">
        <ele>18.4</ele>
        <time>2011-05-07T11:14:25Z</time>
      </trkpt>
      <trkpt lat="59.3649990308" lon="18.1671265317">
        <ele>18.4</ele>
        <time>2011-05-07T11:14:30Z</time>
      </trkpt>
      <trkpt lat="59.3650254338" lon="18.1670218418">
        <ele>18.4</ele>
        <time>2011-05-07T11:14:34Z</time>
      </trkpt>
      <trkpt lat="59.3650867893" lon="18.1668485879">
        <ele>18.4</ele>
        <time>2011-05-07T11:14:42Z</time>
      </trkpt>
      <trkpt lat="59.3652059799" lon="18.1665460013">
        <ele>17.8</ele>
        <time>2011-05-07T11:14:48Z</time>
      </trkpt>
      <trkpt lat="59.3652752144" lon="18.1663635274">
        <ele>17.2</ele>
        <time>2011-05-07T11:14:52Z</time>
      </trkpt>
      <trkpt lat="59.3653410961" lon="18.1660948037">
        <ele>16.8</ele>
        <time>2011-05-07T11:14:58Z</time>
      </trkpt>
      <trkpt lat="59.365487947" lon="18.1658399101">
        <ele>16.6</ele>
        <time>2011-05-07T11:15:04Z</time>
      </trkpt>
      <trkpt lat="59.3656457782" lon="18.1655882016">
        <ele>16</ele>
        <time>2011-05-07T11:15:12Z</time>
      </trkpt>
      <trkpt lat="59.3657609455" lon="18.1655340546">
        <ele>15.4</ele>
        <time>2011-05-07T11:15:15Z</time>
      </trkpt>
      <trkpt lat="59.3659100595" lon="18.1655187157">
        <ele>15</ele>
        <time>2011-05-07T11:15:20Z</time>
      </trkpt>
      <trkpt lat="59.3660434993" lon="18.1653841024">
        <ele>14.2</ele>
        <time>2011-05-07T11:15:25Z</time>
      </trkpt>
      <trkpt lat="59.3661484407" lon="18.1651044822">
        <ele>13.4</ele>
        <time>2011-05-07T11:15:32Z</time>
      </trkpt>
      <trkpt lat="59.3662354449" lon="18.1647596508">
        <ele>12.8</ele>
        <time>2011-05-07T11:15:38Z</time>
      </trkpt>
      <trkpt lat="59.3662886699" lon="18.164473828">
        <ele>11.8</ele>
        <time>2011-05-07T11:15:43Z</time>
      </trkpt>
      <trkpt lat="59.3663541326" lon="18.1642123966">
        <ele>11.2</ele>
        <time>2011-05-07T11:15:48Z</time>
      </trkpt>
      <trkpt lat="59.3664408852" lon="18.1639466065">
        <ele>10.8</ele>
        <time>2011-05-07T11:15:52Z</time>
      </trkpt>
      <trkpt lat="59.366526213" lon="18.1637077224">
        <ele>10.6</ele>
        <time>2011-05-07T11:15:58Z</time>
      </trkpt>
      <trkpt lat="59.3665779293" lon="18.1634237436">
        <ele>10.4</ele>
        <time>2011-05-07T11:16:03Z</time>
      </trkpt>
      <trkpt lat="59.3666168213" lon="18.1631261861">
        <ele>10.4</ele>
        <time>2011-05-07T11:16:08Z</time>
      </trkpt>
      <trkpt lat="59.3666894086" lon="18.1628360048">
        <ele>10.2</ele>
        <time>2011-05-07T11:16:13Z</time>
      </trkpt>
      <trkpt lat="59.3667532786" lon="18.1626671095">
        <ele>10.2</ele>
        <time>2011-05-07T11:16:16Z</time>
      </trkpt>
      <trkpt lat="59.3668185736" lon="18.1624935203">
        <ele>10.2</ele>
        <time>2011-05-07T11:16:20Z</time>
      </trkpt>
      <trkpt lat="59.3668894007" lon="18.1622762615">
        <ele>10.2</ele>
        <time>2011-05-07T11:16:25Z</time>
      </trkpt>
      <trkpt lat="59.3668840363" lon="18.1621251358">
        <ele>10.2</ele>
        <time>2011-05-07T11:16:28Z</time>
      </trkpt>
      <trkpt lat="59.3668706252" lon="18.1620700667">
        <ele>10.2</ele>
        <time>2011-05-07T11:16:30Z</time>
      </trkpt>
      <trkpt lat="59.3668153885" lon="18.1617348746">
        <ele>9.6</ele>
        <time>2011-05-07T11:16:35Z</time>
      </trkpt>
      <trkpt lat="59.3667950205" lon="18.1613571023">
        <ele>9</ele>
        <time>2011-05-07T11:16:42Z</time>
      </trkpt>
      <trkpt lat="59.3667963616" lon="18.1610208205">
        <ele>8.6</ele>
        <time>2011-05-07T11:16:48Z</time>
      </trkpt>
      <trkpt lat="59.3667987085" lon="18.1606859636">
        <ele>8.4</ele>
        <time>2011-05-07T11:16:54Z</time>
      </trkpt>
      <trkpt lat="59.366804492" lon="18.1604224367">
        <ele>8.4</ele>
        <time>2011-05-07T11:16:58Z</time>
      </trkpt>
      <trkpt lat="59.3668125387" lon="18.1600349414">
        <ele>8.2</ele>
        <time>2011-05-07T11:17:05Z</time>
      </trkpt>
      <trkpt lat="59.3668418753" lon="18.1597465202">
        <ele>8.2</ele>
        <time>2011-05-07T11:17:11Z</time>
      </trkpt>
      <trkpt lat="59.3668811864" lon="18.1593798121">
        <ele>8.2</ele>
        <time>2011-05-07T11:17:18Z</time>
      </trkpt>
      <trkpt lat="59.3669277898" lon="18.1590089969">
        <ele>8.2</ele>
        <time>2011-05-07T11:17:25Z</time>
      </trkpt>
      <trkpt lat="59.366969364" lon="18.1587344058">
        <ele>8.2</ele>
        <time>2011-05-07T11:17:30Z</time>
      </trkpt>
      <trkpt lat="59.3670292108" lon="18.1584334118">
        <ele>8.2</ele>
        <time>2011-05-07T11:17:35Z</time>
      </trkpt>
      <trkpt lat="59.3671128621" lon="18.1581099543">
        <ele>8.2</ele>
        <time>2011-05-07T11:17:42Z</time>
      </trkpt>
      <trkpt lat="59.3671968488" lon="18.157783144">
        <ele>8.2</ele>
        <time>2011-05-07T11:17:48Z</time>
      </trkpt>
      <trkpt lat="59.3672100084" lon="18.1577286616">
        <ele>8.2</ele>
        <time>2011-05-07T11:17:49Z</time>
      </trkpt>
      <trkpt lat="59.3672080805" lon="18.1577218723">
        <ele>8.2</ele>
        <time>2011-05-07T11:17:52Z</time>
      </trkpt>
      <trkpt lat="59.3672925701" lon="18.1574746901">
        <ele>8.2</ele>
        <time>2011-05-07T11:17:57Z</time>
      </trkpt>
      <trkpt lat="59.3674424385" lon="18.1571930582">
        <ele>8.2</ele>
        <time>2011-05-07T11:18:04Z</time>
      </trkpt>
      <trkpt lat="59.3675361481" lon="18.1569149468">
        <ele>8</ele>
        <time>2011-05-07T11:18:09Z</time>
      </trkpt>
      <trkpt lat="59.3676535785" lon="18.1566097618">
        <ele>7</ele>
        <time>2011-05-07T11:18:15Z</time>
      </trkpt>
      <trkpt lat="59.3677768763" lon="18.1563310636">
        <ele>6.6</ele>
        <time>2011-05-07T11:18:21Z</time>
      </trkpt>
      <trkpt lat="59.3679105676" lon="18.15605488">
        <ele>6.4</ele>
        <time>2011-05-07T11:18:27Z</time>
      </trkpt>
      <trkpt lat="59.3680420796" lon="18.1559906747">
        <ele>6.2</ele>
        <time>2011-05-07T11:18:32Z</time>
      </trkpt>
      <trkpt lat="59.3680811392" lon="18.1560268845">
        <ele>6.2</ele>
        <time>2011-05-07T11:18:33Z</time>
      </trkpt>
      <trkpt lat="59.3682408144" lon="18.1562372702">
        <ele>6.2</ele>
        <time>2011-05-07T11:18:40Z</time>
      </trkpt>
      <trkpt lat="59.3683840611" lon="18.1564638329">
        <ele>6.2</ele>
        <time>2011-05-07T11:18:46Z</time>
      </trkpt>
      <trkpt lat="59.3685279783" lon="18.1567017951">
        <ele>6.2</ele>
        <time>2011-05-07T11:18:52Z</time>
      </trkpt>
      <trkpt lat="59.3686584007" lon="18.1569469656">
        <ele>6.2</ele>
        <time>2011-05-07T11:18:58Z</time>
      </trkpt>
      <trkpt lat="59.3688284694" lon="18.1571935611">
        <ele>6.2</ele>
        <time>2011-05-07T11:19:04Z</time>
      </trkpt>
      <trkpt lat="59.3689856301" lon="18.157370084">
        <ele>6.2</ele>
        <time>2011-05-07T11:19:10Z</time>
      </trkpt>
      <trkpt lat="59.3691444671" lon="18.1575564974">
        <ele>6.2</ele>
        <time>2011-05-07T11:19:16Z</time>
      </trkpt>
      <trkpt lat="59.3692767335" lon="18.1577622731">
        <ele>6.2</ele>
        <time>2011-05-07T11:19:20Z</time>
      </trkpt>
      <trkpt lat="59.3694250093" lon="18.1579505305">
        <ele>6.2</ele>
        <time>2011-05-07T11:19:27Z</time>
      </trkpt>
      <trkpt lat="59.3695535038" lon="18.1581297356">
        <ele>6.2</ele>
        <time>2011-05-07T11:19:32Z</time>
      </trkpt>
      <trkpt lat="59.3696532484" lon="18.1584494212">
        <ele>6.2</ele>
        <time>2011-05-07T11:19:38Z</time>
      </trkpt>
      <trkpt lat="59.3697260033" lon="18.1587868765">
        <ele>6.2</ele>
        <time>2011-05-07T11:19:44Z</time>
      </trkpt>
      <trkpt lat="59.3697324574" lon="18.1588390119">
        <ele>6.2</ele>
        <time>2011-05-07T11:19:45Z</time>
      </trkpt>
      <trkpt lat="59.3697569325" lon="18.1590843501">
        <ele>6.2</ele>
        <time>2011-05-07T11:19:50Z</time>
      </trkpt>
      <trkpt lat="59.3697603691" lon="18.1591374076">
        <ele>6.2</ele>
        <time>2011-05-07T11:19:53Z</time>
      </trkpt>
      <trkpt lat="59.3697620455" lon="18.1591638106">
        <ele>6.2</ele>
        <time>2011-05-07T11:19:55Z</time>
      </trkpt>
      <trkpt lat="59.3697644762" lon="18.1592172033">
        <ele>6.2</ele>
        <time>2011-05-07T11:20:01Z</time>
      </trkpt>
      <trkpt lat="59.3697603691" lon="18.1592903772">
        <ele>6.2</ele>
        <time>2011-05-07T11:20:08Z</time>
      </trkpt>
      <trkpt lat="59.3697248298" lon="18.1595128329">
        <ele>6.2</ele>
        <time>2011-05-07T11:20:16Z</time>
      </trkpt>
      <trkpt lat="59.3697181243" lon="18.1595652197">
        <ele>6.2</ele>
        <time>2011-05-07T11:20:18Z</time>
      </trkpt>
      <trkpt lat="59.3697048809" lon="18.159750795">
        <ele>6.2</ele>
        <time>2011-05-07T11:20:22Z</time>
      </trkpt>
      <trkpt lat="59.3696752928" lon="18.1601549702">
        <ele>6.2</ele>
        <time>2011-05-07T11:20:28Z</time>
      </trkpt>
      <trkpt lat="59.3696654022" lon="18.1604439781">
        <ele>6.2</ele>
        <time>2011-05-07T11:20:33Z</time>
      </trkpt>
      <trkpt lat="59.3696016159" lon="18.1608370893">
        <ele>6.2</ele>
        <time>2011-05-07T11:20:40Z</time>
      </trkpt>
      <trkpt lat="59.3695454572" lon="18.1611187211">
        <ele>6.2</ele>
        <time>2011-05-07T11:20:45Z</time>
      </trkpt>
      <trkpt lat="59.3694508255" lon="18.161446621">
        <ele>6.2</ele>
        <time>2011-05-07T11:20:51Z</time>
      </trkpt>
      <trkpt lat="59.3693270249" lon="18.1617732637">
        <ele>6.2</ele>
        <time>2011-05-07T11:20:57Z</time>
      </trkpt>
      <trkpt lat="59.3692023022" lon="18.162100996">
        <ele>6.4</ele>
        <time>2011-05-07T11:21:03Z</time>
      </trkpt>
      <trkpt lat="59.3691453053" lon="18.1623847233">
        <ele>7</ele>
        <time>2011-05-07T11:21:08Z</time>
      </trkpt>
      <trkpt lat="59.3691227579" lon="18.162742798">
        <ele>7.6</ele>
        <time>2011-05-07T11:21:13Z</time>
      </trkpt>
      <trkpt lat="59.3690577144" lon="18.1630681834">
        <ele>7.8</ele>
        <time>2011-05-07T11:21:19Z</time>
      </trkpt>
      <trkpt lat="59.3690042379" lon="18.1634177086">
        <ele>8.6</ele>
        <time>2011-05-07T11:21:25Z</time>
      </trkpt>
      <trkpt lat="59.36894305" lon="18.163667154">
        <ele>9.4</ele>
        <time>2011-05-07T11:21:30Z</time>
      </trkpt>
      <trkpt lat="59.3688642602" lon="18.1639458521">
        <ele>9.8</ele>
        <time>2011-05-07T11:21:36Z</time>
      </trkpt>
      <trkpt lat="59.3688535313" lon="18.1642287413">
        <ele>10</ele>
        <time>2011-05-07T11:21:40Z</time>
      </trkpt>
      <trkpt lat="59.3688487536" lon="18.1644757559">
        <ele>10</ele>
        <time>2011-05-07T11:21:45Z</time>
      </trkpt>
      <trkpt lat="59.3688464067" lon="18.1645371114">
        <ele>10</ele>
        <time>2011-05-07T11:21:46Z</time>
      </trkpt>
      <trkpt lat="59.3687861408" lon="18.1648348365">
        <ele>10.2</ele>
        <time>2011-05-07T11:21:51Z</time>
      </trkpt>
      <trkpt lat="59.3686926827" lon="18.1650701164">
        <ele>10.2</ele>
        <time>2011-05-07T11:21:56Z</time>
      </trkpt>
      <trkpt lat="59.368581371" lon="18.1653570288">
        <ele>10.2</ele>
        <time>2011-05-07T11:22:02Z</time>
      </trkpt>
      <trkpt lat="59.3685317502" lon="18.1655757964">
        <ele>10.2</ele>
        <time>2011-05-07T11:22:06Z</time>
      </trkpt>
      <trkpt lat="59.3684825484" lon="18.1658568415">
        <ele>10.2</ele>
        <time>2011-05-07T11:22:10Z</time>
      </trkpt>
      <trkpt lat="59.368467461" lon="18.1661861664">
        <ele>11</ele>
        <time>2011-05-07T11:22:15Z</time>
      </trkpt>
      <trkpt lat="59.3684339334" lon="18.1665451632">
        <ele>11.6</ele>
        <time>2011-05-07T11:22:22Z</time>
      </trkpt>
      <trkpt lat="59.3683416487" lon="18.1668331652">
        <ele>12</ele>
        <time>2011-05-07T11:22:28Z</time>
      </trkpt>
      <trkpt lat="59.3682571591" lon="18.1671304712">
        <ele>12.2</ele>
        <time>2011-05-07T11:22:33Z</time>
      </trkpt>
      <trkpt lat="59.3681496194" lon="18.1674902224">
        <ele>12.2</ele>
        <time>2011-05-07T11:22:40Z</time>
      </trkpt>
      <trkpt lat="59.3680487013" lon="18.16782751">
        <ele>12.4</ele>
        <time>2011-05-07T11:22:46Z</time>
      </trkpt>
      <trkpt lat="59.3679563327" lon="18.1681702459">
        <ele>12.4</ele>
        <time>2011-05-07T11:22:52Z</time>
      </trkpt>
      <trkpt lat="59.3678600247" lon="18.1685269796">
        <ele>12.4</ele>
        <time>2011-05-07T11:22:59Z</time>
      </trkpt>
      <trkpt lat="59.3678094819" lon="18.1688621718">
        <ele>12.4</ele>
        <time>2011-05-07T11:23:04Z</time>
      </trkpt>
      <trkpt lat="59.3677912093" lon="18.1689990482">
        <ele>12.4</ele>
        <time>2011-05-07T11:23:07Z</time>
      </trkpt>
      <trkpt lat="59.3677516467" lon="18.1691846235">
        <ele>12.4</ele>
        <time>2011-05-07T11:23:10Z</time>
      </trkpt>
      <trkpt lat="59.3676897045" lon="18.1695980188">
        <ele>12.4</ele>
        <time>2011-05-07T11:23:16Z</time>
      </trkpt>
      <trkpt lat="59.3676025327" lon="18.1698485538">
        <ele>12.4</ele>
        <time>2011-05-07T11:23:22Z</time>
      </trkpt>
      <trkpt lat="59.3675015309" lon="18.1700751165">
        <ele>12.4</ele>
        <time>2011-05-07T11:23:27Z</time>
      </trkpt>
      <trkpt lat="59.3674238306" lon="18.1702722588">
        <ele>12.4</ele>
        <time>2011-05-07T11:23:30Z</time>
      </trkpt>
      <trkpt lat="59.367325008" lon="18.1705673017">
        <ele>12.4</ele>
        <time>2011-05-07T11:23:35Z</time>
      </trkpt>
      <trkpt lat="59.3672543486" lon="18.1708999793">
        <ele>12.4</ele>
        <time>2011-05-07T11:23:40Z</time>
      </trkpt>
      <trkpt lat="59.3672135288" lon="18.1712623288">
        <ele>12.4</ele>
        <time>2011-05-07T11:23:45Z</time>
      </trkpt>
      <trkpt lat="59.367171284" lon="18.1716543503">
        <ele>12.4</ele>
        <time>2011-05-07T11:23:52Z</time>
      </trkpt>
      <trkpt lat="59.3671562804" lon="18.1720255008">
        <ele>13</ele>
        <time>2011-05-07T11:23:58Z</time>
      </trkpt>
      <trkpt lat="59.3671450486" lon="18.1724048656">
        <ele>13.8</ele>
        <time>2011-05-07T11:24:04Z</time>
      </trkpt>
      <trkpt lat="59.3671281172" lon="18.1726618547">
        <ele>14</ele>
        <time>2011-05-07T11:24:08Z</time>
      </trkpt>
      <trkpt lat="59.3670881355" lon="18.1730258806">
        <ele>15.2</ele>
        <time>2011-05-07T11:24:14Z</time>
      </trkpt>
      <trkpt lat="59.367035581" lon="18.1733022318">
        <ele>15.8</ele>
        <time>2011-05-07T11:24:19Z</time>
      </trkpt>
      <trkpt lat="59.3669329028" lon="18.1736226719">
        <ele>16.2</ele>
        <time>2011-05-07T11:24:25Z</time>
      </trkpt>
      <trkpt lat="59.3668557893" lon="18.1739197264">
        <ele>16.4</ele>
        <time>2011-05-07T11:24:30Z</time>
      </trkpt>
      <trkpt lat="59.3668019775" lon="18.1742229836">
        <ele>16.4</ele>
        <time>2011-05-07T11:24:35Z</time>
      </trkpt>
      <trkpt lat="59.3667666059" lon="18.1744899471">
        <ele>16.6</ele>
        <time>2011-05-07T11:24:40Z</time>
      </trkpt>
      <trkpt lat="59.3666977066" lon="18.1748553141">
        <ele>16.6</ele>
        <time>2011-05-07T11:24:46Z</time>
      </trkpt>
      <trkpt lat="59.36665169" lon="18.1751710603">
        <ele>16.6</ele>
        <time>2011-05-07T11:24:52Z</time>
      </trkpt>
      <trkpt lat="59.3665713914" lon="18.1755253632">
        <ele>16.6</ele>
        <time>2011-05-07T11:24:58Z</time>
      </trkpt>
      <trkpt lat="59.3665128019" lon="18.1757064122">
        <ele>16.6</ele>
        <time>2011-05-07T11:25:00Z</time>
      </trkpt>
      <trkpt lat="59.366487321" lon="18.1760333063">
        <ele>16.6</ele>
        <time>2011-05-07T11:25:06Z</time>
      </trkpt>
      <trkpt lat="59.366470641" lon="18.1763377369">
        <ele>16.6</ele>
        <time>2011-05-07T11:25:10Z</time>
      </trkpt>
      <trkpt lat="59.3664551345" lon="18.1766568359">
        <ele>16.6</ele>
        <time>2011-05-07T11:25:16Z</time>
      </trkpt>
      <trkpt lat="59.3663931084" lon="18.1770201074">
        <ele>16.6</ele>
        <time>2011-05-07T11:25:22Z</time>
      </trkpt>
      <trkpt lat="59.3663129774" lon="18.1772931059">
        <ele>16.6</ele>
        <time>2011-05-07T11:25:27Z</time>
      </trkpt>
      <trkpt lat="59.3662790307" lon="18.1775873944">
        <ele>16.6</ele>
        <time>2011-05-07T11:25:32Z</time>
      </trkpt>
      <trkpt lat="59.3662412284" lon="18.1779603051">
        <ele>16.6</ele>
        <time>2011-05-07T11:25:38Z</time>
      </trkpt>
      <trkpt lat="59.3662111373" lon="18.1782938209">
        <ele>16.6</ele>
        <time>2011-05-07T11:25:43Z</time>
      </trkpt>
      <trkpt lat="59.3661768554" lon="18.178553576">
        <ele>16.6</ele>
        <time>2011-05-07T11:25:46Z</time>
      </trkpt>
      <trkpt lat="59.3661768554" lon="18.1788651312">
        <ele>16.6</ele>
        <time>2011-05-07T11:25:52Z</time>
      </trkpt>
      <trkpt lat="59.3662201898" lon="18.1790580826">
        <ele>16.6</ele>
        <time>2011-05-07T11:25:55Z</time>
      </trkpt>
      <trkpt lat="59.3662741692" lon="18.1794079431">
        <ele>16.6</ele>
        <time>2011-05-07T11:26:00Z</time>
      </trkpt>
      <trkpt lat="59.3662317568" lon="18.1796965319">
        <ele>16.6</ele>
        <time>2011-05-07T11:26:06Z</time>
      </trkpt>
      <trkpt lat="59.3661440821" lon="18.180007668">
        <ele>16.6</ele>
        <time>2011-05-07T11:26:12Z</time>
      </trkpt>
      <trkpt lat="59.3661426572" lon="18.1802708597">
        <ele>16.6</ele>
        <time>2011-05-07T11:26:16Z</time>
      </trkpt>
      <trkpt lat="59.3661284918" lon="18.1805812414">
        <ele>16.6</ele>
        <time>2011-05-07T11:26:22Z</time>
      </trkpt>
      <trkpt lat="59.3660994904" lon="18.1807498014">
        <ele>16.6</ele>
        <time>2011-05-07T11:26:25Z</time>
      </trkpt>
      <trkpt lat="59.3660563237" lon="18.1809141705">
        <ele>16.6</ele>
        <time>2011-05-07T11:26:28Z</time>
      </trkpt>
      <trkpt lat="59.3659933756" lon="18.1812587504">
        <ele>16.6</ele>
        <time>2011-05-07T11:26:33Z</time>
      </trkpt>
      <trkpt lat="59.3659814733" lon="18.1816328346">
        <ele>16.6</ele>
        <time>2011-05-07T11:26:39Z</time>
      </trkpt>
      <trkpt lat="59.3660314294" lon="18.1819417076">
        <ele>17.4</ele>
        <time>2011-05-07T11:26:44Z</time>
      </trkpt>
      <trkpt lat="59.3660165934" lon="18.1821880517">
        <ele>17.8</ele>
        <time>2011-05-07T11:26:48Z</time>
      </trkpt>
      <trkpt lat="59.3659362948" lon="18.1825284406">
        <ele>18.2</ele>
        <time>2011-05-07T11:26:53Z</time>
      </trkpt>
      <trkpt lat="59.3658431719" lon="18.1828465337">
        <ele>18.4</ele>
        <time>2011-05-07T11:26:58Z</time>
      </trkpt>
      <trkpt lat="59.3657842472" lon="18.1835582409">
        <ele>18.6</ele>
        <time>2011-05-07T11:27:10Z</time>
      </trkpt>
      <trkpt lat="59.3657909527" lon="18.1839632543">
        <ele>18.6</ele>
        <time>2011-05-07T11:27:17Z</time>
      </trkpt>
      <trkpt lat="59.3657911203" lon="18.1843566168">
        <ele>18.6</ele>
        <time>2011-05-07T11:27:23Z</time>
      </trkpt>
      <trkpt lat="59.3657728478" lon="18.1847534998">
        <ele>18.6</ele>
        <time>2011-05-07T11:27:29Z</time>
      </trkpt>
      <trkpt lat="59.3657719258" lon="18.1851585132">
        <ele>18.6</ele>
        <time>2011-05-07T11:27:35Z</time>
      </trkpt>
      <trkpt lat="59.3657882705" lon="18.1855223715">
        <ele>18.6</ele>
        <time>2011-05-07T11:27:40Z</time>
      </trkpt>
      <trkpt lat="59.3657898631" lon="18.1857668715">
        <ele>18.6</ele>
        <time>2011-05-07T11:27:45Z</time>
      </trkpt>
      <trkpt lat="59.3659134961" lon="18.1859210985">
        <ele>18.6</ele>
        <time>2011-05-07T11:27:50Z</time>
      </trkpt>
      <trkpt lat="59.3660803797" lon="18.1860691228">
        <ele>18.6</ele>
        <time>2011-05-07T11:27:58Z</time>
      </trkpt>
      <trkpt lat="59.3661851535" lon="18.1861314842">
        <ele>18</ele>
        <time>2011-05-07T11:28:04Z</time>
      </trkpt>
      <trkpt lat="59.366309457" lon="18.186180183">
        <ele>17.4</ele>
        <time>2011-05-07T11:28:09Z</time>
      </trkpt>
      <trkpt lat="59.3663256341" lon="18.1861552049">
        <ele>17.4</ele>
        <time>2011-05-07T11:28:10Z</time>
      </trkpt>
      <trkpt lat="59.3663852294" lon="18.1860158139">
        <ele>17.2</ele>
        <time>2011-05-07T11:28:13Z</time>
      </trkpt>
      <trkpt lat="59.3665179149" lon="18.185885643">
        <ele>16.6</ele>
        <time>2011-05-07T11:28:19Z</time>
      </trkpt>
      <trkpt lat="59.366682703" lon="18.1858349325">
        <ele>15.6</ele>
        <time>2011-05-07T11:28:25Z</time>
      </trkpt>
      <trkpt lat="59.3668881434" lon="18.1858021593">
        <ele>15</ele>
        <time>2011-05-07T11:28:32Z</time>
      </trkpt>
      <trkpt lat="59.3670699468" lon="18.1858276403">
        <ele>14.8</ele>
        <time>2011-05-07T11:28:38Z</time>
      </trkpt>
      <trkpt lat="59.3672571146" lon="18.1858612517">
        <ele>14.8</ele>
        <time>2011-05-07T11:28:44Z</time>
      </trkpt>
      <trkpt lat="59.3674336375" lon="18.1859697973">
        <ele>14.6</ele>
        <time>2011-05-07T11:28:50Z</time>
      </trkpt>
      <trkpt lat="59.3676205538" lon="18.1861593959">
        <ele>14.6</ele>
        <time>2011-05-07T11:28:56Z</time>
      </trkpt>
      <trkpt lat="59.3677959032" lon="18.18634363">
        <ele>14.6</ele>
        <time>2011-05-07T11:29:03Z</time>
      </trkpt>
      <trkpt lat="59.3679355456" lon="18.1865722045">
        <ele>14.6</ele>
        <time>2011-05-07T11:29:09Z</time>
      </trkpt>
      <trkpt lat="59.3680205381" lon="18.1868534172">
        <ele>14.6</ele>
        <time>2011-05-07T11:29:14Z</time>
      </trkpt>
      <trkpt lat="59.3680791276" lon="18.187132283">
        <ele>14.6</ele>
        <time>2011-05-07T11:29:19Z</time>
      </trkpt>
      <trkpt lat="59.3681522177" lon="18.1874950517">
        <ele>14.6</ele>
        <time>2011-05-07T11:29:25Z</time>
      </trkpt>
      <trkpt lat="59.3682282416" lon="18.1878595805">
        <ele>14.6</ele>
        <time>2011-05-07T11:29:31Z</time>
      </trkpt>
      <trkpt lat="59.3682935366" lon="18.1882138834">
        <ele>14.6</ele>
        <time>2011-05-07T11:29:37Z</time>
      </trkpt>
      <trkpt lat="59.3683258069" lon="18.1886023845">
        <ele>14.6</ele>
        <time>2011-05-07T11:29:43Z</time>
      </trkpt>
      <trkpt lat="59.368327148" lon="18.1889773907">
        <ele>14.6</ele>
        <time>2011-05-07T11:29:49Z</time>
      </trkpt>
      <trkpt lat="59.3683159163" lon="18.1893607788">
        <ele>14.6</ele>
        <time>2011-05-07T11:29:55Z</time>
      </trkpt>
      <trkpt lat="59.3682644514" lon="18.1897089629">
        <ele>14.6</ele>
        <time>2011-05-07T11:30:01Z</time>
      </trkpt>
      <trkpt lat="59.3682227933" lon="18.1900560574">
        <ele>14.2</ele>
        <time>2011-05-07T11:30:07Z</time>
      </trkpt>
      <trkpt lat="59.3682318458" lon="18.1904465701">
        <ele>13.4</ele>
        <time>2011-05-07T11:30:13Z</time>
      </trkpt>
      <trkpt lat="59.3682879207" lon="18.1908186426">
        <ele>13</ele>
        <time>2011-05-07T11:30:20Z</time>
      </trkpt>
      <trkpt lat="59.3683546406" lon="18.1911697604">
        <ele>12.8</ele>
        <time>2011-05-07T11:30:26Z</time>
      </trkpt>
      <trkpt lat="59.3684135654" lon="18.1914649709">
        <ele>12.6</ele>
        <time>2011-05-07T11:30:31Z</time>
      </trkpt>
      <trkpt lat="59.3684916009" lon="18.1917894343">
        <ele>12.6</ele>
        <time>2011-05-07T11:30:37Z</time>
      </trkpt>
      <trkpt lat="59.3685961232" lon="18.1920848125">
        <ele>12.6</ele>
        <time>2011-05-07T11:30:43Z</time>
      </trkpt>
      <trkpt lat="59.3686710574" lon="18.1923603255">
        <ele>12.2</ele>
        <time>2011-05-07T11:30:48Z</time>
      </trkpt>
      <trkpt lat="59.3687543734" lon="18.1926554522">
        <ele>11.6</ele>
        <time>2011-05-07T11:30:53Z</time>
      </trkpt>
      <trkpt lat="59.3688661042" lon="18.1928846972">
        <ele>11</ele>
        <time>2011-05-07T11:30:59Z</time>
      </trkpt>
      <trkpt lat="59.3689671061" lon="18.1931044706">
        <ele>10.8</ele>
        <time>2011-05-07T11:31:04Z</time>
      </trkpt>
      <trkpt lat="59.3690700358" lon="18.1934057161">
        <ele>10.8</ele>
        <time>2011-05-07T11:31:10Z</time>
      </trkpt>
      <trkpt lat="59.3691344926" lon="18.1936274173">
        <ele>10.6</ele>
        <time>2011-05-07T11:31:14Z</time>
      </trkpt>
      <trkpt lat="59.3691655056" lon="18.1937281678">
        <ele>10.6</ele>
        <time>2011-05-07T11:31:15Z</time>
      </trkpt>
      <trkpt lat="59.3692596344" lon="18.1940643658">
        <ele>10.6</ele>
        <time>2011-05-07T11:31:22Z</time>
      </trkpt>
      <trkpt lat="59.3693268572" lon="18.194422692">
        <ele>10.6</ele>
        <time>2011-05-07T11:31:28Z</time>
      </trkpt>
      <trkpt lat="59.3693729577" lon="18.1947617399">
        <ele>10.6</ele>
        <time>2011-05-07T11:31:33Z</time>
      </trkpt>
      <trkpt lat="59.3694250093" lon="18.1951146178">
        <ele>10.6</ele>
        <time>2011-05-07T11:31:39Z</time>
      </trkpt>
      <trkpt lat="59.3694281106" lon="18.1954493909">
        <ele>10.6</ele>
        <time>2011-05-07T11:31:44Z</time>
      </trkpt>
      <trkpt lat="59.3693832674" lon="18.1958292586">
        <ele>10.6</ele>
        <time>2011-05-07T11:31:50Z</time>
      </trkpt>
      <trkpt lat="59.3693048966" lon="18.1961747606">
        <ele>10.6</ele>
        <time>2011-05-07T11:31:56Z</time>
      </trkpt>
      <trkpt lat="59.3692229217" lon="18.1965150657">
        <ele>10.6</ele>
        <time>2011-05-07T11:32:02Z</time>
      </trkpt>
      <trkpt lat="59.3691252725" lon="18.196840032">
        <ele>10.6</ele>
        <time>2011-05-07T11:32:08Z</time>
      </trkpt>
      <trkpt lat="59.3690005498" lon="18.1971390143">
        <ele>10.6</ele>
        <time>2011-05-07T11:32:14Z</time>
      </trkpt>
      <trkpt lat="59.3688801858" lon="18.1974311235">
        <ele>11.2</ele>
        <time>2011-05-07T11:32:20Z</time>
      </trkpt>
      <trkpt lat="59.3687678683" lon="18.1977255797">
        <ele>11.8</ele>
        <time>2011-05-07T11:32:26Z</time>
      </trkpt>
      <trkpt lat="59.3687051717" lon="18.198056078">
        <ele>12.2</ele>
        <time>2011-05-07T11:32:32Z</time>
      </trkpt>
      <trkpt lat="59.3686470013" lon="18.1984084531">
        <ele>12.4</ele>
        <time>2011-05-07T11:32:38Z</time>
      </trkpt>
      <trkpt lat="59.3686053433" lon="18.1987573916">
        <ele>12.4</ele>
        <time>2011-05-07T11:32:44Z</time>
      </trkpt>
      <trkpt lat="59.3685595781" lon="18.1991023068">
        <ele>12.8</ele>
        <time>2011-05-07T11:32:50Z</time>
      </trkpt>
      <trkpt lat="59.3685411379" lon="18.1994478087">
        <ele>13.6</ele>
        <time>2011-05-07T11:32:57Z</time>
      </trkpt>
      <trkpt lat="59.36858925" lon="18.1996564342">
        <ele>14.2</ele>
        <time>2011-05-07T11:33:03Z</time>
      </trkpt>
      <trkpt lat="59.3686533715" lon="18.1998128404">
        <ele>14.4</ele>
        <time>2011-05-07T11:33:09Z</time>
      </trkpt>
      <trkpt lat="59.3687314909" lon="18.2000555803">
        <ele>14.4</ele>
        <time>2011-05-07T11:33:16Z</time>
      </trkpt>
      <trkpt lat="59.3687632583" lon="18.2002647925">
        <ele>14.4</ele>
        <time>2011-05-07T11:33:20Z</time>
      </trkpt>
      <trkpt lat="59.3688532799" lon="18.2005200213">
        <ele>14.6</ele>
        <time>2011-05-07T11:33:26Z</time>
      </trkpt>
      <trkpt lat="59.3688749052" lon="18.20059286">
        <ele>14.6</ele>
        <time>2011-05-07T11:33:28Z</time>
      </trkpt>
      <trkpt lat="59.3688853825" lon="18.2009572212">
        <ele>15.2</ele>
        <time>2011-05-07T11:33:35Z</time>
      </trkpt>
      <trkpt lat="59.3688939321" lon="18.2010016453">
        <ele>15.4</ele>
        <time>2011-05-07T11:33:36Z</time>
      </trkpt>
      <trkpt lat="59.368979176" lon="18.2013263601">
        <ele>16.2</ele>
        <time>2011-05-07T11:33:42Z</time>
      </trkpt>
      <trkpt lat="59.3690580497" lon="18.2016462134">
        <ele>17.4</ele>
        <time>2011-05-07T11:33:48Z</time>
      </trkpt>
      <trkpt lat="59.369060229" lon="18.2019341317">
        <ele>18</ele>
        <time>2011-05-07T11:33:53Z</time>
      </trkpt>
      <trkpt lat="59.3689981191" lon="18.2021388177">
        <ele>18.4</ele>
        <time>2011-05-07T11:33:59Z</time>
      </trkpt>
      <trkpt lat="59.368951851" lon="18.2023249797">
        <ele>19.4</ele>
        <time>2011-05-07T11:34:04Z</time>
      </trkpt>
      <trkpt lat="59.3689286331" lon="18.2023899394">
        <ele>19.6</ele>
        <time>2011-05-07T11:34:05Z</time>
      </trkpt>
      <trkpt lat="59.3688924233" lon="18.2025626065">
        <ele>20</ele>
        <time>2011-05-07T11:34:09Z</time>
      </trkpt>
      <trkpt lat="59.3688718039" lon="18.2028510277">
        <ele>20.6</ele>
        <time>2011-05-07T11:34:14Z</time>
      </trkpt>
      <trkpt lat="59.3688473287" lon="18.2032513473">
        <ele>21.6</ele>
        <time>2011-05-07T11:34:20Z</time>
      </trkpt>
      <trkpt lat="59.3688207581" lon="18.2036273593">
        <ele>22.2</ele>
        <time>2011-05-07T11:34:26Z</time>
      </trkpt>
      <trkpt lat="59.3687913376" lon="18.2039977555">
        <ele>23.6</ele>
        <time>2011-05-07T11:34:32Z</time>
      </trkpt>
      <trkpt lat="59.3687526132" lon="18.2043660562">
        <ele>24.2</ele>
        <time>2011-05-07T11:34:38Z</time>
      </trkpt>
      <trkpt lat="59.3687181636" lon="18.2047256397">
        <ele>24.6</ele>
        <time>2011-05-07T11:34:44Z</time>
      </trkpt>
      <trkpt lat="59.368687905" lon="18.2048822974">
        <ele>24.6</ele>
        <time>2011-05-07T11:34:47Z</time>
      </trkpt>
      <trkpt lat="59.3685750846" lon="18.2049605005">
        <ele>24.8</ele>
        <time>2011-05-07T11:34:51Z</time>
      </trkpt>
      <trkpt lat="59.3683406429" lon="18.2049024139">
        <ele>25</ele>
        <time>2011-05-07T11:34:59Z</time>
      </trkpt>
      <trkpt lat="59.3681649582" lon="18.2047691417">
        <ele>25</ele>
        <time>2011-05-07T11:35:05Z</time>
      </trkpt>
      <trkpt lat="59.3680180235" lon="18.2045813033">
        <ele>25</ele>
        <time>2011-05-07T11:35:11Z</time>
      </trkpt>
      <trkpt lat="59.3679217155" lon="18.2044353745">
        <ele>25</ele>
        <time>2011-05-07T11:35:16Z</time>
      </trkpt>
      <trkpt lat="59.3677973281" lon="18.2042828239">
        <ele>25.6</ele>
        <time>2011-05-07T11:35:21Z</time>
      </trkpt>
      <trkpt lat="59.3676712643" lon="18.2041276749">
        <ele>26.2</ele>
        <time>2011-05-07T11:35:26Z</time>
      </trkpt>
      <trkpt lat="59.3675335497" lon="18.204191545">
        <ele>26.6</ele>
        <time>2011-05-07T11:35:32Z</time>
      </trkpt>
      <trkpt lat="59.3674133533" lon="18.2044902759">
        <ele>27</ele>
        <time>2011-05-07T11:35:39Z</time>
      </trkpt>
      <trkpt lat="59.3673207333" lon="18.2046317624">
        <ele>28</ele>
        <time>2011-05-07T11:35:44Z</time>
      </trkpt>
      <trkpt lat="59.3672911452" lon="18.2046807965">
        <ele>28.2</ele>
        <time>2011-05-07T11:35:46Z</time>
      </trkpt>
      <trkpt lat="59.367126357" lon="18.2047300821">
        <ele>28.6</ele>
        <time>2011-05-07T11:35:51Z</time>
      </trkpt>
      <trkpt lat="59.367015213" lon="18.2046531362">
        <ele>28.8</ele>
        <time>2011-05-07T11:35:55Z</time>
      </trkpt>
      <trkpt lat="59.3667987085" lon="18.2047116419">
        <ele>29</ele>
        <time>2011-05-07T11:36:02Z</time>
      </trkpt>
      <trkpt lat="59.3666657716" lon="18.2049371988">
        <ele>29</ele>
        <time>2011-05-07T11:36:08Z</time>
      </trkpt>
      <trkpt lat="59.3666443139" lon="18.2051669467">
        <ele>29.2</ele>
        <time>2011-05-07T11:36:13Z</time>
      </trkpt>
      <trkpt lat="59.3666583955" lon="18.2054052441">
        <ele>29.2</ele>
        <time>2011-05-07T11:36:17Z</time>
      </trkpt>
      <trkpt lat="59.3666433919" lon="18.205633148">
        <ele>29.2</ele>
        <time>2011-05-07T11:36:22Z</time>
      </trkpt>
      <trkpt lat="59.3666367702" lon="18.2057615587">
        <ele>29.2</ele>
        <time>2011-05-07T11:36:24Z</time>
      </trkpt>
      <trkpt lat="59.366624365" lon="18.2059223235">
        <ele>29.2</ele>
        <time>2011-05-07T11:36:27Z</time>
      </trkpt>
      <trkpt lat="59.3666221019" lon="18.2059566893">
        <ele>29.2</ele>
        <time>2011-05-07T11:36:28Z</time>
      </trkpt>
      <trkpt lat="59.3666513547" lon="18.2062473736">
        <ele>29.2</ele>
        <time>2011-05-07T11:36:33Z</time>
      </trkpt>
      <trkpt lat="59.3666546237" lon="18.2062738604">
        <ele>29.2</ele>
        <time>2011-05-07T11:36:34Z</time>
      </trkpt>
      <trkpt lat="59.3666609101" lon="18.2065081345">
        <ele>28.4</ele>
        <time>2011-05-07T11:36:38Z</time>
      </trkpt>
      <trkpt lat="59.3666685376" lon="18.2065497926">
        <ele>28.2</ele>
        <time>2011-05-07T11:36:39Z</time>
      </trkpt>
      <trkpt lat="59.3667246964" lon="18.2068118108">
        <ele>27.6</ele>
        <time>2011-05-07T11:36:45Z</time>
      </trkpt>
      <trkpt lat="59.3667314019" lon="18.2070076119">
        <ele>27.2</ele>
        <time>2011-05-07T11:36:50Z</time>
      </trkpt>
      <trkpt lat="59.3667187452" lon="18.2070398823">
        <ele>25.4</ele>
        <time>2011-05-07T11:37:04Z</time>
      </trkpt>
      <trkpt lat="59.366774401" lon="18.2073560475">
        <ele>25.2</ele>
        <time>2011-05-07T11:37:12Z</time>
      </trkpt>
      <trkpt lat="59.3667507641" lon="18.2077491586">
        <ele>25</ele>
        <time>2011-05-07T11:37:19Z</time>
      </trkpt>
      <trkpt lat="59.3666951083" lon="18.2080494821">
        <ele>25</ele>
        <time>2011-05-07T11:37:24Z</time>
      </trkpt>
      <trkpt lat="59.3666107863" lon="18.2083332094">
        <ele>25</ele>
        <time>2011-05-07T11:37:30Z</time>
      </trkpt>
      <trkpt lat="59.3665693798" lon="18.208549211">
        <ele>25</ele>
        <time>2011-05-07T11:37:35Z</time>
      </trkpt>
      <trkpt lat="59.3665727325" lon="18.2087561601">
        <ele>25</ele>
        <time>2011-05-07T11:37:40Z</time>
      </trkpt>
      <trkpt lat="59.366583629" lon="18.209140554">
        <ele>24.4</ele>
        <time>2011-05-07T11:37:47Z</time>
      </trkpt>
      <trkpt lat="59.3665868979" lon="18.2092028315">
        <ele>24.2</ele>
        <time>2011-05-07T11:37:48Z</time>
      </trkpt>
      <trkpt lat="59.3666191682" lon="18.2095777539">
        <ele>23.6</ele>
        <time>2011-05-07T11:37:54Z</time>
      </trkpt>
      <trkpt lat="59.3666422185" lon="18.2096286321">
        <ele>23.6</ele>
        <time>2011-05-07T11:37:55Z</time>
      </trkpt>
      <trkpt lat="59.3667242773" lon="18.2098643311">
        <ele>23.2</ele>
        <time>2011-05-07T11:38:00Z</time>
      </trkpt>
      <trkpt lat="59.3667624149" lon="18.2101415205">
        <ele>22.4</ele>
        <time>2011-05-07T11:38:05Z</time>
      </trkpt>
      <trkpt lat="59.366806839" lon="18.2104774671">
        <ele>21.8</ele>
        <time>2011-05-07T11:38:11Z</time>
      </trkpt>
      <trkpt lat="59.3668405342" lon="18.2108271599">
        <ele>21.4</ele>
        <time>2011-05-07T11:38:17Z</time>
      </trkpt>
      <trkpt lat="59.3668488323" lon="18.2108834863">
        <ele>21.2</ele>
        <time>2011-05-07T11:38:18Z</time>
      </trkpt>
      <trkpt lat="59.3668740618" lon="18.2110802095">
        <ele>20.4</ele>
        <time>2011-05-07T11:38:22Z</time>
      </trkpt>
      <trkpt lat="59.3669043205" lon="18.2114188383">
        <ele>19.6</ele>
        <time>2011-05-07T11:38:28Z</time>
      </trkpt>
      <trkpt lat="59.3669479902" lon="18.2118314792">
        <ele>19.2</ele>
        <time>2011-05-07T11:38:35Z</time>
      </trkpt>
      <trkpt lat="59.3669619041" lon="18.2120736323">
        <ele>18.4</ele>
        <time>2011-05-07T11:38:39Z</time>
      </trkpt>
      <trkpt lat="59.366960563" lon="18.2122865326">
        <ele>17.8</ele>
        <time>2011-05-07T11:38:43Z</time>
      </trkpt>
      <trkpt lat="59.3671262732" lon="18.2127228105">
        <ele>17</ele>
        <time>2011-05-07T11:38:54Z</time>
      </trkpt>
      <trkpt lat="59.3671600522" lon="18.2127510575">
        <ele>17</ele>
        <time>2011-05-07T11:38:56Z</time>
      </trkpt>
      <trkpt lat="59.367179163" lon="18.212781819">
        <ele>16.4</ele>
        <time>2011-05-07T11:38:57Z</time>
      </trkpt>
      <trkpt lat="59.3673230802" lon="18.2129005067">
        <ele>15.6</ele>
        <time>2011-05-07T11:39:04Z</time>
      </trkpt>
      <trkpt lat="59.3673525845" lon="18.2129467748">
        <ele>15.4</ele>
        <time>2011-05-07T11:39:05Z</time>
      </trkpt>
      <trkpt lat="59.3674969208" lon="18.2131534725">
        <ele>15</ele>
        <time>2011-05-07T11:39:11Z</time>
      </trkpt>
      <trkpt lat="59.3676201347" lon="18.2133353597">
        <ele>14.8</ele>
        <time>2011-05-07T11:39:16Z</time>
      </trkpt>
      <trkpt lat="59.3677461147" lon="18.2135521156">
        <ele>14.8</ele>
        <time>2011-05-07T11:39:22Z</time>
      </trkpt>
      <trkpt lat="59.3677525688" lon="18.2136095317">
        <ele>14.8</ele>
        <time>2011-05-07T11:39:23Z</time>
      </trkpt>
      <trkpt lat="59.3677258305" lon="18.2139998767">
        <ele>14.6</ele>
        <time>2011-05-07T11:39:29Z</time>
      </trkpt>
      <trkpt lat="59.3677114136" lon="18.2143058999">
        <ele>14.6</ele>
        <time>2011-05-07T11:39:34Z</time>
      </trkpt>
      <trkpt lat="59.367712168" lon="18.2146141862">
        <ele>14.6</ele>
        <time>2011-05-07T11:39:39Z</time>
      </trkpt>
      <trkpt lat="59.3677270878" lon="18.2149108216">
        <ele>14.6</ele>
        <time>2011-05-07T11:39:44Z</time>
      </trkpt>
      <trkpt lat="59.3677644711" lon="18.2152612689">
        <ele>14.6</ele>
        <time>2011-05-07T11:39:50Z</time>
      </trkpt>
      <trkpt lat="59.3678179476" lon="18.215619176">
        <ele>14.6</ele>
        <time>2011-05-07T11:39:57Z</time>
      </trkpt>
      <trkpt lat="59.367859438" lon="18.215949842">
        <ele>14.6</ele>
        <time>2011-05-07T11:40:03Z</time>
      </trkpt>
      <trkpt lat="59.3678695801" lon="18.2162318929">
        <ele>14.6</ele>
        <time>2011-05-07T11:40:08Z</time>
      </trkpt>
      <trkpt lat="59.3678622878" lon="18.2165714437">
        <ele>14.6</ele>
        <time>2011-05-07T11:40:14Z</time>
      </trkpt>
      <trkpt lat="59.3678669817" lon="18.2168987569">
        <ele>14.6</ele>
        <time>2011-05-07T11:40:20Z</time>
      </trkpt>
      <trkpt lat="59.3678845837" lon="18.2173063686">
        <ele>14.6</ele>
        <time>2011-05-07T11:40:27Z</time>
      </trkpt>
      <trkpt lat="59.3679094779" lon="18.2175968853">
        <ele>14.6</ele>
        <time>2011-05-07T11:40:32Z</time>
      </trkpt>
      <trkpt lat="59.367902018" lon="18.2179302335">
        <ele>14.6</ele>
        <time>2011-05-07T11:40:38Z</time>
      </trkpt>
      <trkpt lat="59.3678721785" lon="18.2182375977">
        <ele>15.4</ele>
        <time>2011-05-07T11:40:44Z</time>
      </trkpt>
      <trkpt lat="59.3678545765" lon="18.2185110153">
        <ele>16</ele>
        <time>2011-05-07T11:40:49Z</time>
      </trkpt>
      <trkpt lat="59.367827" lon="18.2187508215">
        <ele>16.2</ele>
        <time>2011-05-07T11:40:54Z</time>
      </trkpt>
      <trkpt lat="59.3677664827" lon="18.2190861813">
        <ele>16.4</ele>
        <time>2011-05-07T11:41:00Z</time>
      </trkpt>
      <trkpt lat="59.3676780537" lon="18.2194430826">
        <ele>16.6</ele>
        <time>2011-05-07T11:41:06Z</time>
      </trkpt>
      <trkpt lat="59.3675712683" lon="18.2197268937">
        <ele>16.6</ele>
        <time>2011-05-07T11:41:12Z</time>
      </trkpt>
      <trkpt lat="59.3674813305" lon="18.2199149836">
        <ele>16.6</ele>
        <time>2011-05-07T11:41:16Z</time>
      </trkpt>
      <trkpt lat="59.3674096652" lon="18.2202108646">
        <ele>16.6</ele>
        <time>2011-05-07T11:41:21Z</time>
      </trkpt>
      <trkpt lat="59.3673519978" lon="18.2204993696">
        <ele>16.6</ele>
        <time>2011-05-07T11:41:26Z</time>
      </trkpt>
      <trkpt lat="59.367270358" lon="18.2207894672">
        <ele>16.6</ele>
        <time>2011-05-07T11:41:31Z</time>
      </trkpt>
      <trkpt lat="59.367167093" lon="18.2211447759">
        <ele>16.6</ele>
        <time>2011-05-07T11:41:37Z</time>
      </trkpt>
      <trkpt lat="59.3670969365" lon="18.2213949756">
        <ele>16.8</ele>
        <time>2011-05-07T11:41:42Z</time>
      </trkpt>
      <trkpt lat="59.3670076693" lon="18.2216636994">
        <ele>16.8</ele>
        <time>2011-05-07T11:41:47Z</time>
      </trkpt>
      <trkpt lat="59.3669594734" lon="18.2218133163">
        <ele>16.8</ele>
        <time>2011-05-07T11:41:50Z</time>
      </trkpt>
      <trkpt lat="59.3668976988" lon="18.2219599157">
        <ele>16.8</ele>
        <time>2011-05-07T11:41:53Z</time>
      </trkpt>
      <trkpt lat="59.3667935956" lon="18.2220751668">
        <ele>16.8</ele>
        <time>2011-05-07T11:41:57Z</time>
      </trkpt>
      <trkpt lat="59.3666509356" lon="18.2221312417">
        <ele>16.8</ele>
        <time>2011-05-07T11:42:02Z</time>
      </trkpt>
      <trkpt lat="59.3665407975" lon="18.2222206766">
        <ele>16.8</ele>
        <time>2011-05-07T11:42:06Z</time>
      </trkpt>
      <trkpt lat="59.3664307431" lon="18.2224293859">
        <ele>16.8</ele>
        <time>2011-05-07T11:42:11Z</time>
      </trkpt>
      <trkpt lat="59.3663258856" lon="18.2227052343">
        <ele>16.8</ele>
        <time>2011-05-07T11:42:17Z</time>
      </trkpt>
      <trkpt lat="59.3662257219" lon="18.2229584515">
        <ele>16.8</ele>
        <time>2011-05-07T11:42:23Z</time>
      </trkpt>
      <trkpt lat="59.3661457585" lon="18.2232827472">
        <ele>16.8</ele>
        <time>2011-05-07T11:42:29Z</time>
      </trkpt>
      <trkpt lat="59.3660848221" lon="18.223624142">
        <ele>16.8</ele>
        <time>2011-05-07T11:42:35Z</time>
      </trkpt>
      <trkpt lat="59.3660449243" lon="18.2238295823">
        <ele>16.8</ele>
        <time>2011-05-07T11:42:39Z</time>
      </trkpt>
      <trkpt lat="59.3659670564" lon="18.2241283971">
        <ele>16.8</ele>
        <time>2011-05-07T11:42:45Z</time>
      </trkpt>
      <trkpt lat="59.3658467762" lon="18.224316906">
        <ele>16.8</ele>
        <time>2011-05-07T11:42:50Z</time>
      </trkpt>
      <trkpt lat="59.365707469" lon="18.224453531">
        <ele>16.8</ele>
        <time>2011-05-07T11:42:55Z</time>
      </trkpt>
      <trkpt lat="59.3655339636" lon="18.2245669381">
        <ele>16.8</ele>
        <time>2011-05-07T11:43:01Z</time>
      </trkpt>
      <trkpt lat="59.3653452871" lon="18.2246545289">
        <ele>15.8</ele>
        <time>2011-05-07T11:43:07Z</time>
      </trkpt>
      <trkpt lat="59.3651960054" lon="18.2247427903">
        <ele>15.4</ele>
        <time>2011-05-07T11:43:12Z</time>
      </trkpt>
      <trkpt lat="59.3650408565" lon="18.2249034714">
        <ele>15</ele>
        <time>2011-05-07T11:43:18Z</time>
      </trkpt>
      <trkpt lat="59.3648931674" lon="18.2251237477">
        <ele>14.8</ele>
        <time>2011-05-07T11:43:24Z</time>
      </trkpt>
      <trkpt lat="59.3648170597" lon="18.225282417">
        <ele>14</ele>
        <time>2011-05-07T11:43:28Z</time>
      </trkpt>
      <trkpt lat="59.3647161417" lon="18.2255799745">
        <ele>13.4</ele>
        <time>2011-05-07T11:43:34Z</time>
      </trkpt>
      <trkpt lat="59.3646614079" lon="18.2258993249">
        <ele>13</ele>
        <time>2011-05-07T11:43:40Z</time>
      </trkpt>
      <trkpt lat="59.3646304786" lon="18.2261587447">
        <ele>13.6</ele>
        <time>2011-05-07T11:43:45Z</time>
      </trkpt>
      <trkpt lat="59.3646292214" lon="18.2262053481">
        <ele>13.6</ele>
        <time>2011-05-07T11:43:46Z</time>
      </trkpt>
      <trkpt lat="59.3646251142" lon="18.2263605808">
        <ele>14</ele>
        <time>2011-05-07T11:43:49Z</time>
      </trkpt>
      <trkpt lat="59.3646134634" lon="18.2265996326">
        <ele>14.2</ele>
        <time>2011-05-07T11:43:53Z</time>
      </trkpt>
      <trkpt lat="59.3647319835" lon="18.2272092482">
        <ele>14.6</ele>
        <time>2011-05-07T11:44:05Z</time>
      </trkpt>
      <trkpt lat="59.364794261" lon="18.2274623816">
        <ele>14.6</ele>
        <time>2011-05-07T11:44:10Z</time>
      </trkpt>
      <trkpt lat="59.3648023914" lon="18.2275148523">
        <ele>14.6</ele>
        <time>2011-05-07T11:44:11Z</time>
      </trkpt>
      <trkpt lat="59.364822508" lon="18.2277487911">
        <ele>14.6</ele>
        <time>2011-05-07T11:44:16Z</time>
      </trkpt>
      <trkpt lat="59.3648277048" lon="18.2280629447">
        <ele>14.6</ele>
        <time>2011-05-07T11:44:22Z</time>
      </trkpt>
      <trkpt lat="59.3648111086" lon="18.2283649446">
        <ele>14.6</ele>
        <time>2011-05-07T11:44:28Z</time>
      </trkpt>
      <trkpt lat="59.3647410359" lon="18.2286762484">
        <ele>14.6</ele>
        <time>2011-05-07T11:44:34Z</time>
      </trkpt>
      <trkpt lat="59.3647065025" lon="18.2288843709">
        <ele>14.6</ele>
        <time>2011-05-07T11:44:39Z</time>
      </trkpt>
      <trkpt lat="59.3646953545" lon="18.2289298847">
        <ele>14.6</ele>
        <time>2011-05-07T11:44:40Z</time>
      </trkpt>
      <trkpt lat="59.3646643415" lon="18.229202464">
        <ele>14.6</ele>
        <time>2011-05-07T11:44:45Z</time>
      </trkpt>
      <trkpt lat="59.3646287184" lon="18.2294799049">
        <ele>14.8</ele>
        <time>2011-05-07T11:44:49Z</time>
      </trkpt>
      <trkpt lat="59.3646239408" lon="18.2295407575">
        <ele>15</ele>
        <time>2011-05-07T11:44:50Z</time>
      </trkpt>
      <trkpt lat="59.3645888206" lon="18.2298767041">
        <ele>15.8</ele>
        <time>2011-05-07T11:44:56Z</time>
      </trkpt>
      <trkpt lat="59.3645346735" lon="18.2302330186">
        <ele>16.4</ele>
        <time>2011-05-07T11:45:03Z</time>
      </trkpt>
      <trkpt lat="59.3644871482" lon="18.2304562286">
        <ele>16.4</ele>
        <time>2011-05-07T11:45:07Z</time>
      </trkpt>
      <trkpt lat="59.3644099509" lon="18.2308333303">
        <ele>16.6</ele>
        <time>2011-05-07T11:45:13Z</time>
      </trkpt>
      <trkpt lat="59.3643729867" lon="18.2311147945">
        <ele>16.6</ele>
        <time>2011-05-07T11:45:19Z</time>
      </trkpt>
      <trkpt lat="59.3643509423" lon="18.2314340611">
        <ele>16.6</ele>
        <time>2011-05-07T11:45:25Z</time>
      </trkpt>
      <trkpt lat="59.364347841" lon="18.231754585">
        <ele>16.8</ele>
        <time>2011-05-07T11:45:31Z</time>
      </trkpt>
      <trkpt lat="59.3643901696" lon="18.232114839">
        <ele>16.8</ele>
        <time>2011-05-07T11:45:37Z</time>
      </trkpt>
      <trkpt lat="59.3644191709" lon="18.232352885">
        <ele>16.8</ele>
        <time>2011-05-07T11:45:41Z</time>
      </trkpt>
      <trkpt lat="59.3643937738" lon="18.2327439006">
        <ele>16.8</ele>
        <time>2011-05-07T11:45:47Z</time>
      </trkpt>
      <trkpt lat="59.3643832964" lon="18.2331366764">
        <ele>16.8</ele>
        <time>2011-05-07T11:45:53Z</time>
      </trkpt>
      <trkpt lat="59.3644275528" lon="18.2334852797">
        <ele>16.8</ele>
        <time>2011-05-07T11:45:59Z</time>
      </trkpt>
      <trkpt lat="59.364467786" lon="18.2338330447">
        <ele>16.8</ele>
        <time>2011-05-07T11:46:04Z</time>
      </trkpt>
      <trkpt lat="59.3644257926" lon="18.2341872638">
        <ele>16.8</ele>
        <time>2011-05-07T11:46:10Z</time>
      </trkpt>
      <trkpt lat="59.3643708912" lon="18.2344874196">
        <ele>16.8</ele>
        <time>2011-05-07T11:46:15Z</time>
      </trkpt>
      <trkpt lat="59.3643513614" lon="18.234782714">
        <ele>16.8</ele>
        <time>2011-05-07T11:46:20Z</time>
      </trkpt>
      <trkpt lat="59.3643905887" lon="18.2351056686">
        <ele>16.8</ele>
        <time>2011-05-07T11:46:26Z</time>
      </trkpt>
      <trkpt lat="59.3644119625" lon="18.2354810939">
        <ele>16.2</ele>
        <time>2011-05-07T11:46:32Z</time>
      </trkpt>
      <trkpt lat="59.3643646048" lon="18.2357847701">
        <ele>15.6</ele>
        <time>2011-05-07T11:46:37Z</time>
      </trkpt>
      <trkpt lat="59.3643444882" lon="18.2360884463">
        <ele>15.2</ele>
        <time>2011-05-07T11:46:42Z</time>
      </trkpt>
      <trkpt lat="59.3643279759" lon="18.2364827309">
        <ele>15</ele>
        <time>2011-05-07T11:46:49Z</time>
      </trkpt>
      <trkpt lat="59.364317247" lon="18.2366617683">
        <ele>14.8</ele>
        <time>2011-05-07T11:46:52Z</time>
      </trkpt>
      <trkpt lat="59.364304758" lon="18.2368776022">
        <ele>14.8</ele>
        <time>2011-05-07T11:46:56Z</time>
      </trkpt>
      <trkpt lat="59.3643062668" lon="18.2371845474">
        <ele>14.8</ele>
        <time>2011-05-07T11:47:02Z</time>
      </trkpt>
      <trkpt lat="59.3643514452" lon="18.2374657602">
        <ele>14.8</ele>
        <time>2011-05-07T11:47:07Z</time>
      </trkpt>
      <trkpt lat="59.3643763394" lon="18.237719145">
        <ele>14.8</ele>
        <time>2011-05-07T11:47:11Z</time>
      </trkpt>
      <trkpt lat="59.3643899181" lon="18.2380597016">
        <ele>14.8</ele>
        <time>2011-05-07T11:47:17Z</time>
      </trkpt>
      <trkpt lat="59.3644356833" lon="18.2383725141">
        <ele>14.8</ele>
        <time>2011-05-07T11:47:23Z</time>
      </trkpt>
      <trkpt lat="59.3644686242" lon="18.2386389747">
        <ele>14.8</ele>
        <time>2011-05-07T11:47:28Z</time>
      </trkpt>
      <trkpt lat="59.3644077716" lon="18.2390770966">
        <ele>14.8</ele>
        <time>2011-05-07T11:47:36Z</time>
      </trkpt>
      <trkpt lat="59.3643562229" lon="18.2394525219">
        <ele>14.8</ele>
        <time>2011-05-07T11:47:42Z</time>
      </trkpt>
      <trkpt lat="59.3642983878" lon="18.2397331479">
        <ele>14.8</ele>
        <time>2011-05-07T11:47:48Z</time>
      </trkpt>
      <trkpt lat="59.3642101264" lon="18.2400902169">
        <ele>14.8</ele>
        <time>2011-05-07T11:47:55Z</time>
      </trkpt>
      <trkpt lat="59.3641106332" lon="18.2404390715">
        <ele>14.8</ele>
        <time>2011-05-07T11:48:01Z</time>
      </trkpt>
      <trkpt lat="59.3640336035" lon="18.2408170952">
        <ele>14.8</ele>
        <time>2011-05-07T11:48:08Z</time>
      </trkpt>
      <trkpt lat="59.3639846532" lon="18.2411092044">
        <ele>14.8</ele>
        <time>2011-05-07T11:48:14Z</time>
      </trkpt>
      <trkpt lat="59.3639186039" lon="18.2414080192">
        <ele>14.8</ele>
        <time>2011-05-07T11:48:20Z</time>
      </trkpt>
      <trkpt lat="59.3638702403" lon="18.2417011342">
        <ele>14.8</ele>
        <time>2011-05-07T11:48:25Z</time>
      </trkpt>
      <trkpt lat="59.3637986589" lon="18.2419904774">
        <ele>14.8</ele>
        <time>2011-05-07T11:48:31Z</time>
      </trkpt>
      <trkpt lat="59.363721294" lon="18.2423113365">
        <ele>14.8</ele>
        <time>2011-05-07T11:48:37Z</time>
      </trkpt>
      <trkpt lat="59.3636694938" lon="18.2426618676">
        <ele>15</ele>
        <time>2011-05-07T11:48:43Z</time>
      </trkpt>
      <trkpt lat="59.3636356309" lon="18.2428893524">
        <ele>15.6</ele>
        <time>2011-05-07T11:48:47Z</time>
      </trkpt>
      <trkpt lat="59.3636220523" lon="18.2430877519">
        <ele>16.2</ele>
        <time>2011-05-07T11:48:53Z</time>
      </trkpt>
      <trkpt lat="59.3636192024" lon="18.243147012">
        <ele>16.4</ele>
        <time>2011-05-07T11:49:00Z</time>
      </trkpt>
      <trkpt lat="59.3636161849" lon="18.2431872451">
        <ele>16.6</ele>
        <time>2011-05-07T11:49:06Z</time>
      </trkpt>
      <trkpt lat="59.3636111558" lon="18.2432450802">
        <ele>16.6</ele>
        <time>2011-05-07T11:49:13Z</time>
      </trkpt>
      <trkpt lat="59.3636155144" lon="18.2432055176">
        <ele>16.8</ele>
        <time>2011-05-07T11:49:22Z</time>
      </trkpt>
      <trkpt lat="59.3636169393" lon="18.2432068587">
        <ele>16.8</ele>
        <time>2011-05-07T11:49:26Z</time>
      </trkpt>
      <trkpt lat="59.36359347" lon="18.2433424779">
        <ele>16.8</ele>
        <time>2011-05-07T11:49:40Z</time>
      </trkpt>
      <trkpt lat="59.3635677375" lon="18.2436537816">
        <ele>16</ele>
        <time>2011-05-07T11:49:47Z</time>
      </trkpt>
      <trkpt lat="59.3635571763" lon="18.2439633252">
        <ele>15.4</ele>
        <time>2011-05-07T11:49:53Z</time>
      </trkpt>
      <trkpt lat="59.363519374" lon="18.2443646506">
        <ele>15</ele>
        <time>2011-05-07T11:50:00Z</time>
      </trkpt>
      <trkpt lat="59.3634866846" lon="18.244653407">
        <ele>14.8</ele>
        <time>2011-05-07T11:50:05Z</time>
      </trkpt>
      <trkpt lat="59.3634447751" lon="18.244977116">
        <ele>13.8</ele>
        <time>2011-05-07T11:50:11Z</time>
      </trkpt>
      <trkpt lat="59.3634708428" lon="18.2453118891">
        <ele>13.2</ele>
        <time>2011-05-07T11:50:17Z</time>
      </trkpt>
      <trkpt lat="59.3635218885" lon="18.2456037469">
        <ele>12.8</ele>
        <time>2011-05-07T11:50:23Z</time>
      </trkpt>
      <trkpt lat="59.3635983315" lon="18.2458291362">
        <ele>12.8</ele>
        <time>2011-05-07T11:50:29Z</time>
      </trkpt>
      <trkpt lat="59.3637031052" lon="18.2460380131">
        <ele>12.6</ele>
        <time>2011-05-07T11:50:35Z</time>
      </trkpt>
      <trkpt lat="59.3638487826" lon="18.2462283661">
        <ele>12.6</ele>
        <time>2011-05-07T11:50:42Z</time>
      </trkpt>
      <trkpt lat="59.3638659655" lon="18.2462592953">
        <ele>12.6</ele>
        <time>2011-05-07T11:50:43Z</time>
      </trkpt>
      <trkpt lat="59.3639072045" lon="18.2464100018">
        <ele>12.6</ele>
        <time>2011-05-07T11:50:48Z</time>
      </trkpt>
      <trkpt lat="59.36396856" lon="18.2464462955">
        <ele>12.6</ele>
        <time>2011-05-07T11:51:00Z</time>
      </trkpt>
      <trkpt lat="59.3639783668" lon="18.2464522466">
        <ele>12.6</ele>
        <time>2011-05-07T11:51:01Z</time>
      </trkpt>
      <trkpt lat="59.3639938733" lon="18.2464547612">
        <ele>12.6</ele>
        <time>2011-05-07T11:51:05Z</time>
      </trkpt>
      <trkpt lat="59.3640023391" lon="18.2464461278">
        <ele>12.6</ele>
        <time>2011-05-07T11:51:14Z</time>
      </trkpt>
      <trkpt lat="59.3639781154" lon="18.2464991014">
        <ele>10.6</ele>
        <time>2011-05-07T11:53:11Z</time>
      </trkpt>
      <trkpt lat="59.363966716" lon="18.2465334672">
        <ele>10.6</ele>
        <time>2011-05-07T11:53:19Z</time>
      </trkpt>
      <trkpt lat="59.3639760199" lon="18.2465401727">
        <ele>10.6</ele>
        <time>2011-05-07T11:53:31Z</time>
      </trkpt>
      <trkpt lat="59.3639738406" lon="18.2466757919">
        <ele>10.6</ele>
        <time>2011-05-07T11:53:35Z</time>
      </trkpt>
      <trkpt lat="59.3639952983" lon="18.2467700044">
        <ele>10.6</ele>
        <time>2011-05-07T11:53:37Z</time>
      </trkpt>
      <trkpt lat="59.3640619344" lon="18.2471836512">
        <ele>10.6</ele>
        <time>2011-05-07T11:53:45Z</time>
      </trkpt>
      <trkpt lat="59.3640914387" lon="18.2474556439">
        <ele>10.6</ele>
        <time>2011-05-07T11:53:49Z</time>
      </trkpt>
      <trkpt lat="59.3641668758" lon="18.2477939373">
        <ele>10.6</ele>
        <time>2011-05-07T11:53:56Z</time>
      </trkpt>
      <trkpt lat="59.3642915984" lon="18.2480315642">
        <ele>10.6</ele>
        <time>2011-05-07T11:54:02Z</time>
      </trkpt>
      <trkpt lat="59.3643944443" lon="18.2482472305">
        <ele>10.6</ele>
        <time>2011-05-07T11:54:08Z</time>
      </trkpt>
      <trkpt lat="59.3644598232" lon="18.248578567">
        <ele>10.6</ele>
        <time>2011-05-07T11:54:16Z</time>
      </trkpt>
      <trkpt lat="59.3644717255" lon="18.2487907129">
        <ele>11.4</ele>
        <time>2011-05-07T11:54:21Z</time>
      </trkpt>
      <trkpt lat="59.3644874834" lon="18.2489229793">
        <ele>11.6</ele>
        <time>2011-05-07T11:54:23Z</time>
      </trkpt>
      <trkpt lat="59.3646083504" lon="18.2490714227">
        <ele>12.2</ele>
        <time>2011-05-07T11:54:29Z</time>
      </trkpt>
      <trkpt lat="59.3647033174" lon="18.2492140827">
        <ele>13.2</ele>
        <time>2011-05-07T11:54:34Z</time>
      </trkpt>
      <trkpt lat="59.3647917464" lon="18.2493016735">
        <ele>13.8</ele>
        <time>2011-05-07T11:54:39Z</time>
      </trkpt>
      <trkpt lat="59.3649251862" lon="18.2494010828">
        <ele>15</ele>
        <time>2011-05-07T11:54:45Z</time>
      </trkpt>
      <trkpt lat="59.3650983563" lon="18.2495932798">
        <ele>15.8</ele>
        <time>2011-05-07T11:54:52Z</time>
      </trkpt>
      <trkpt lat="59.3652482247" lon="18.2496642745">
        <ele>17.2</ele>
        <time>2011-05-07T11:54:57Z</time>
      </trkpt>
      <trkpt lat="59.3654476301" lon="18.2497032503">
        <ele>18</ele>
        <time>2011-05-07T11:55:03Z</time>
      </trkpt>
      <trkpt lat="59.365600935" lon="18.2497544637">
        <ele>19.2</ele>
        <time>2011-05-07T11:55:08Z</time>
      </trkpt>
      <trkpt lat="59.3657834928" lon="18.2497823755">
        <ele>20.8</ele>
        <time>2011-05-07T11:55:15Z</time>
      </trkpt>
      <trkpt lat="59.36594409" lon="18.2498432281">
        <ele>22</ele>
        <time>2011-05-07T11:55:21Z</time>
      </trkpt>
      <trkpt lat="59.3660984008" lon="18.2498848023">
        <ele>23.4</ele>
        <time>2011-05-07T11:55:27Z</time>
      </trkpt>
      <trkpt lat="59.3662322597" lon="18.2498946929">
        <ele>24.6</ele>
        <time>2011-05-07T11:55:32Z</time>
      </trkpt>
      <trkpt lat="59.3663957906" lon="18.2498129694">
        <ele>26</ele>
        <time>2011-05-07T11:55:38Z</time>
      </trkpt>
      <trkpt lat="59.3665311583" lon="18.2497278931">
        <ele>27.2</ele>
        <time>2011-05-07T11:55:43Z</time>
      </trkpt>
      <trkpt lat="59.3666840441" lon="18.2495672121">
        <ele>28.4</ele>
        <time>2011-05-07T11:55:49Z</time>
      </trkpt>
      <trkpt lat="59.3668570466" lon="18.2494517933">
        <ele>29</ele>
        <time>2011-05-07T11:55:55Z</time>
      </trkpt>
      <trkpt lat="59.3670253551" lon="18.2493248914">
        <ele>29.4</ele>
        <time>2011-05-07T11:56:01Z</time>
      </trkpt>
      <trkpt lat="59.3672056498" lon="18.2492021804">
        <ele>29.4</ele>
        <time>2011-05-07T11:56:07Z</time>
      </trkpt>
      <trkpt lat="59.3673635648" lon="18.2490297647">
        <ele>29.6</ele>
        <time>2011-05-07T11:56:13Z</time>
      </trkpt>
      <trkpt lat="59.3675106671" lon="18.248761041">
        <ele>29.6</ele>
        <time>2011-05-07T11:56:20Z</time>
      </trkpt>
      <trkpt lat="59.3675928936" lon="18.2484494019">
        <ele>29.6</ele>
        <time>2011-05-07T11:56:27Z</time>
      </trkpt>
      <trkpt lat="59.3676211406" lon="18.2481771578">
        <ele>29.6</ele>
        <time>2011-05-07T11:56:32Z</time>
      </trkpt>
      <trkpt lat="59.3676088192" lon="18.2478563825">
        <ele>29.6</ele>
        <time>2011-05-07T11:56:38Z</time>
      </trkpt>
      <trkpt lat="59.3676011916" lon="18.2474765148">
        <ele>29.6</ele>
        <time>2011-05-07T11:56:45Z</time>
      </trkpt>
      <trkpt lat="59.3676052988" lon="18.2473494452">
        <ele>29.6</ele>
        <time>2011-05-07T11:56:47Z</time>
      </trkpt>
      <trkpt lat="59.3677181191" lon="18.2471950506">
        <ele>29.6</ele>
        <time>2011-05-07T11:56:52Z</time>
      </trkpt>
      <trkpt lat="59.3678865953" lon="18.2471558233">
        <ele>29.6</ele>
        <time>2011-05-07T11:56:58Z</time>
      </trkpt>
      <trkpt lat="59.3680731764" lon="18.2471362935">
        <ele>29.6</ele>
        <time>2011-05-07T11:57:05Z</time>
      </trkpt>
      <trkpt lat="59.3682751802" lon="18.247121206">
        <ele>29.6</ele>
        <time>2011-05-07T11:57:12Z</time>
      </trkpt>
      <trkpt lat="59.3684739989" lon="18.247075357">
        <ele>30.4</ele>
        <time>2011-05-07T11:57:19Z</time>
      </trkpt>
      <trkpt lat="59.3686019905" lon="18.246898499">
        <ele>31</ele>
        <time>2011-05-07T11:57:25Z</time>
      </trkpt>
      <trkpt lat="59.3686183352" lon="18.2468613671">
        <ele>31.2</ele>
        <time>2011-05-07T11:57:26Z</time>
      </trkpt>
      <trkpt lat="59.3687008131" lon="18.2465778913">
        <ele>31.4</ele>
        <time>2011-05-07T11:57:32Z</time>
      </trkpt>
      <trkpt lat="59.3687785971" lon="18.2463388395">
        <ele>31.6</ele>
        <time>2011-05-07T11:57:37Z</time>
      </trkpt>
      <trkpt lat="59.368838863" lon="18.2460265299">
        <ele>31.8</ele>
        <time>2011-05-07T11:57:43Z</time>
      </trkpt>
      <trkpt lat="59.3688571355" lon="18.2459479915">
        <ele>32.2</ele>
        <time>2011-05-07T11:57:45Z</time>
      </trkpt>
      <trkpt lat="59.3688266254" lon="18.2455801937">
        <ele>33</ele>
        <time>2011-05-07T11:57:52Z</time>
      </trkpt>
      <trkpt lat="59.3688211772" lon="18.2452703987">
        <ele>33.4</ele>
        <time>2011-05-07T11:57:58Z</time>
      </trkpt>
      <trkpt lat="59.3688668585" lon="18.2450502062">
        <ele>33.6</ele>
        <time>2011-05-07T11:58:02Z</time>
      </trkpt>
      <trkpt lat="59.3689044095" lon="18.2449119887">
        <ele>33.6</ele>
        <time>2011-05-07T11:58:05Z</time>
      </trkpt>
      <trkpt lat="59.3689391943" lon="18.2446376491">
        <ele>33.8</ele>
        <time>2011-05-07T11:58:10Z</time>
      </trkpt>
      <trkpt lat="59.3689511805" lon="18.2445788081">
        <ele>34</ele>
        <time>2011-05-07T11:58:11Z</time>
      </trkpt>
      <trkpt lat="59.3690078421" lon="18.2443697635">
        <ele>34.6</ele>
        <time>2011-05-07T11:58:15Z</time>
      </trkpt>
      <trkpt lat="59.3690968579" lon="18.2441409377">
        <ele>35.2</ele>
        <time>2011-05-07T11:58:20Z</time>
      </trkpt>
      <trkpt lat="59.3691940879" lon="18.2438671848">
        <ele>35.6</ele>
        <time>2011-05-07T11:58:26Z</time>
      </trkpt>
      <trkpt lat="59.3693085847" lon="18.2436528596">
        <ele>36.8</ele>
        <time>2011-05-07T11:58:32Z</time>
      </trkpt>
      <trkpt lat="59.3694266018" lon="18.2435038295">
        <ele>37.2</ele>
        <time>2011-05-07T11:58:37Z</time>
      </trkpt>
      <trkpt lat="59.3695782304" lon="18.2433355209">
        <ele>37.6</ele>
        <time>2011-05-07T11:58:43Z</time>
      </trkpt>
      <trkpt lat="59.369708988" lon="18.2431128138">
        <ele>38.2</ele>
        <time>2011-05-07T11:58:49Z</time>
      </trkpt>
      <trkpt lat="59.3698330402" lon="18.2428253147">
        <ele>39.2</ele>
        <time>2011-05-07T11:58:55Z</time>
      </trkpt>
      <trkpt lat="59.3699137579" lon="18.2424161941">
        <ele>39.6</ele>
        <time>2011-05-07T11:59:03Z</time>
      </trkpt>
      <trkpt lat="59.3699852555" lon="18.2421365739">
        <ele>39.8</ele>
        <time>2011-05-07T11:59:08Z</time>
      </trkpt>
      <trkpt lat="59.370081312" lon="18.2418733823">
        <ele>40</ele>
        <time>2011-05-07T11:59:14Z</time>
      </trkpt>
      <trkpt lat="59.3701921208" lon="18.2416678581">
        <ele>40</ele>
        <time>2011-05-07T11:59:20Z</time>
      </trkpt>
      <trkpt lat="59.3702471898" lon="18.2415304787">
        <ele>40</ele>
        <time>2011-05-07T11:59:23Z</time>
      </trkpt>
      <trkpt lat="59.3702709106" lon="18.2414228551">
        <ele>40</ele>
        <time>2011-05-07T11:59:25Z</time>
      </trkpt>
      <trkpt lat="59.3704311725" lon="18.2411424806">
        <ele>40</ele>
        <time>2011-05-07T11:59:33Z</time>
      </trkpt>
      <trkpt lat="59.3705091242" lon="18.2410566499">
        <ele>40.4</ele>
        <time>2011-05-07T11:59:36Z</time>
      </trkpt>
      <trkpt lat="59.370684725" lon="18.2407858307">
        <ele>41.4</ele>
        <time>2011-05-07T11:59:43Z</time>
      </trkpt>
      <trkpt lat="59.3707853916" lon="18.2406098947">
        <ele>41.6</ele>
        <time>2011-05-07T11:59:48Z</time>
      </trkpt>
      <trkpt lat="59.3708678695" lon="18.2403426797">
        <ele>42</ele>
        <time>2011-05-07T11:59:53Z</time>
      </trkpt>
      <trkpt lat="59.3709755769" lon="18.240076722">
        <ele>43.2</ele>
        <time>2011-05-07T11:59:59Z</time>
      </trkpt>
      <trkpt lat="59.3710669397" lon="18.23983591">
        <ele>43.6</ele>
        <time>2011-05-07T12:00:04Z</time>
      </trkpt>
      <trkpt lat="59.3711816879" lon="18.2396915737">
        <ele>43.8</ele>
        <time>2011-05-07T12:00:09Z</time>
      </trkpt>
      <trkpt lat="59.3713201569" lon="18.2395584691">
        <ele>44.2</ele>
        <time>2011-05-07T12:00:14Z</time>
      </trkpt>
      <trkpt lat="59.3714778204" lon="18.2393956926">
        <ele>45.2</ele>
        <time>2011-05-07T12:00:20Z</time>
      </trkpt>
      <trkpt lat="59.371500703" lon="18.2393752408">
        <ele>45.4</ele>
        <time>2011-05-07T12:00:21Z</time>
      </trkpt>
      <trkpt lat="59.3716273535" lon="18.2393369355">
        <ele>45.6</ele>
        <time>2011-05-07T12:00:25Z</time>
      </trkpt>
      <trkpt lat="59.3717871963" lon="18.2392635939">
        <ele>46</ele>
        <time>2011-05-07T12:00:30Z</time>
      </trkpt>
      <trkpt lat="59.3719810697" lon="18.2391333392">
        <ele>46.6</ele>
        <time>2011-05-07T12:00:36Z</time>
      </trkpt>
      <trkpt lat="59.3720952311" lon="18.2390159926">
        <ele>47.2</ele>
        <time>2011-05-07T12:00:40Z</time>
      </trkpt>
      <trkpt lat="59.3722166011" lon="18.2388894259">
        <ele>47.6</ele>
        <time>2011-05-07T12:00:44Z</time>
      </trkpt>
      <trkpt lat="59.3723197822" lon="18.2387510407">
        <ele>47.8</ele>
        <time>2011-05-07T12:00:48Z</time>
      </trkpt>
      <trkpt lat="59.3723482807" lon="18.2387125678">
        <ele>48</ele>
        <time>2011-05-07T12:00:49Z</time>
      </trkpt>
      <trkpt lat="59.3724908568" lon="18.2384711691">
        <ele>48.2</ele>
        <time>2011-05-07T12:00:55Z</time>
      </trkpt>
      <trkpt lat="59.3725828901" lon="18.2381870227">
        <ele>48.2</ele>
        <time>2011-05-07T12:01:01Z</time>
      </trkpt>
      <trkpt lat="59.3726672958" lon="18.2379056423">
        <ele>48.4</ele>
        <time>2011-05-07T12:01:07Z</time>
      </trkpt>
      <trkpt lat="59.3727786913" lon="18.2376373376">
        <ele>48.4</ele>
        <time>2011-05-07T12:01:13Z</time>
      </trkpt>
      <trkpt lat="59.3728500212" lon="18.2374659278">
        <ele>48.4</ele>
        <time>2011-05-07T12:01:17Z</time>
      </trkpt>
      <trkpt lat="59.3729143104" lon="18.2371516904">
        <ele>48.2</ele>
        <time>2011-05-07T12:01:23Z</time>
      </trkpt>
      <trkpt lat="59.3729619196" lon="18.23696754">
        <ele>47.6</ele>
        <time>2011-05-07T12:01:27Z</time>
      </trkpt>
      <trkpt lat="59.3730622509" lon="18.2366971399">
        <ele>47</ele>
        <time>2011-05-07T12:01:33Z</time>
      </trkpt>
      <trkpt lat="59.3731987921" lon="18.2364461858">
        <ele>46.8</ele>
        <time>2011-05-07T12:01:39Z</time>
      </trkpt>
      <trkpt lat="59.373325275" lon="18.2362382309">
        <ele>46.6</ele>
        <time>2011-05-07T12:01:45Z</time>
      </trkpt>
      <trkpt lat="59.3734342397" lon="18.2360796454">
        <ele>46.4</ele>
        <time>2011-05-07T12:01:49Z</time>
      </trkpt>
      <trkpt lat="59.373585533" lon="18.2360447766">
        <ele>46.4</ele>
        <time>2011-05-07T12:01:54Z</time>
      </trkpt>
      <trkpt lat="59.3739209766" lon="18.2361893644">
        <ele>46.4</ele>
        <time>2011-05-07T12:02:05Z</time>
      </trkpt>
      <trkpt lat="59.3740646424" lon="18.2360982532">
        <ele>46.4</ele>
        <time>2011-05-07T12:02:10Z</time>
      </trkpt>
      <trkpt lat="59.374236136" lon="18.235945535">
        <ele>46.4</ele>
        <time>2011-05-07T12:02:17Z</time>
      </trkpt>
      <trkpt lat="59.3743323603" lon="18.2357220735">
        <ele>46.4</ele>
        <time>2011-05-07T12:02:22Z</time>
      </trkpt>
      <trkpt lat="59.3744400677" lon="18.2354605582">
        <ele>46.4</ele>
        <time>2011-05-07T12:02:28Z</time>
      </trkpt>
      <trkpt lat="59.3745449252" lon="18.2351098595">
        <ele>46.2</ele>
        <time>2011-05-07T12:02:35Z</time>
      </trkpt>
      <trkpt lat="59.3746263973" lon="18.2347971308">
        <ele>45.2</ele>
        <time>2011-05-07T12:02:41Z</time>
      </trkpt>
      <trkpt lat="59.3746747609" lon="18.2344787025">
        <ele>44.4</ele>
        <time>2011-05-07T12:02:47Z</time>
      </trkpt>
      <trkpt lat="59.3746382158" lon="18.2341332844">
        <ele>43.4</ele>
        <time>2011-05-07T12:02:53Z</time>
      </trkpt>
      <trkpt lat="59.3746184345" lon="18.2339108287">
        <ele>42.8</ele>
        <time>2011-05-07T12:02:58Z</time>
      </trkpt>
      <trkpt lat="59.3745994076" lon="18.2336654905">
        <ele>42.6</ele>
        <time>2011-05-07T12:03:02Z</time>
      </trkpt>
      <trkpt lat="59.3745486971" lon="18.2333561984">
        <ele>42.4</ele>
        <time>2011-05-07T12:03:08Z</time>
      </trkpt>
      <trkpt lat="59.3744875092" lon="18.2330564617">
        <ele>42.2</ele>
        <time>2011-05-07T12:03:14Z</time>
      </trkpt>
      <trkpt lat="59.3744399839" lon="18.2327742431">
        <ele>42.2</ele>
        <time>2011-05-07T12:03:19Z</time>
      </trkpt>
      <trkpt lat="59.3744202026" lon="18.232417258">
        <ele>42.4</ele>
        <time>2011-05-07T12:03:25Z</time>
      </trkpt>
      <trkpt lat="59.3744412411" lon="18.2320575068">
        <ele>43.2</ele>
        <time>2011-05-07T12:03:31Z</time>
      </trkpt>
      <trkpt lat="59.374490862" lon="18.2316779744">
        <ele>43.6</ele>
        <time>2011-05-07T12:03:37Z</time>
      </trkpt>
      <trkpt lat="59.3745225456" lon="18.2313633179">
        <ele>43.8</ele>
        <time>2011-05-07T12:03:42Z</time>
      </trkpt>
      <trkpt lat="59.3745601803" lon="18.2310856255">
        <ele>44</ele>
        <time>2011-05-07T12:03:47Z</time>
      </trkpt>
      <trkpt lat="59.3746317617" lon="18.2309197477">
        <ele>44</ele>
        <time>2011-05-07T12:03:51Z</time>
      </trkpt>
      <trkpt lat="59.3747659559" lon="18.2307161514">
        <ele>43.8</ele>
        <time>2011-05-07T12:03:56Z</time>
      </trkpt>
      <trkpt lat="59.3749177522" lon="18.230369476">
        <ele>42.8</ele>
        <time>2011-05-07T12:04:03Z</time>
      </trkpt>
      <trkpt lat="59.3750052592" lon="18.2301280773">
        <ele>42</ele>
        <time>2011-05-07T12:04:08Z</time>
      </trkpt>
      <trkpt lat="59.3750552991" lon="18.2299112375">
        <ele>41.2</ele>
        <time>2011-05-07T12:04:12Z</time>
      </trkpt>
      <trkpt lat="59.3751248689" lon="18.2296652287">
        <ele>40.8</ele>
        <time>2011-05-07T12:04:17Z</time>
      </trkpt>
      <trkpt lat="59.3751676166" lon="18.229410419">
        <ele>39.8</ele>
        <time>2011-05-07T12:04:22Z</time>
      </trkpt>
      <trkpt lat="59.3751684548" lon="18.2292922342">
        <ele>39.4</ele>
        <time>2011-05-07T12:04:24Z</time>
      </trkpt>
      <trkpt lat="59.3752217637" lon="18.2290405257">
        <ele>38.8</ele>
        <time>2011-05-07T12:04:29Z</time>
      </trkpt>
      <trkpt lat="59.3752641761" lon="18.2288147173">
        <ele>38.6</ele>
        <time>2011-05-07T12:04:33Z</time>
      </trkpt>
      <trkpt lat="59.3752754916" lon="18.2287718858">
        <ele>38.4</ele>
        <time>2011-05-07T12:04:34Z</time>
      </trkpt>
      <trkpt lat="59.3753213406" lon="18.2285141424">
        <ele>38.2</ele>
        <time>2011-05-07T12:04:39Z</time>
      </trkpt>
      <trkpt lat="59.3753487494" lon="18.2283197662">
        <ele>38.2</ele>
        <time>2011-05-07T12:04:43Z</time>
      </trkpt>
      <trkpt lat="59.375348498" lon="18.2282729113">
        <ele>38.2</ele>
        <time>2011-05-07T12:04:44Z</time>
      </trkpt>
      <trkpt lat="59.3753199995" lon="18.2281055248">
        <ele>38</ele>
        <time>2011-05-07T12:04:47Z</time>
      </trkpt>
      <trkpt lat="59.3752451492" lon="18.2278207078">
        <ele>38.2</ele>
        <time>2011-05-07T12:04:53Z</time>
      </trkpt>
      <trkpt lat="59.3751957798" lon="18.2276529022">
        <ele>38.8</ele>
        <time>2011-05-07T12:04:57Z</time>
      </trkpt>
      <trkpt lat="59.3751226896" lon="18.2274426003">
        <ele>39.4</ele>
        <time>2011-05-07T12:05:02Z</time>
      </trkpt>
      <trkpt lat="59.3750617532" lon="18.227280662">
        <ele>39.6</ele>
        <time>2011-05-07T12:05:06Z</time>
      </trkpt>
      <trkpt lat="59.3749724021" lon="18.2270892194">
        <ele>39.8</ele>
        <time>2011-05-07T12:05:11Z</time>
      </trkpt>
      <trkpt lat="59.3748792792" lon="18.2269244313">
        <ele>40</ele>
        <time>2011-05-07T12:05:16Z</time>
      </trkpt>
      <trkpt lat="59.3748615096" lon="18.2268862936">
        <ele>40</ele>
        <time>2011-05-07T12:05:17Z</time>
      </trkpt>
      <trkpt lat="59.3748403872" lon="18.2267851241">
        <ele>40</ele>
        <time>2011-05-07T12:05:19Z</time>
      </trkpt>
      <trkpt lat="59.3748330111" lon="18.2263796916">
        <ele>40.6</ele>
        <time>2011-05-07T12:05:26Z</time>
      </trkpt>
      <trkpt lat="59.3748558099" lon="18.2260593354">
        <ele>41.4</ele>
        <time>2011-05-07T12:05:32Z</time>
      </trkpt>
      <trkpt lat="59.3749353541" lon="18.2258372988">
        <ele>41.6</ele>
        <time>2011-05-07T12:05:37Z</time>
      </trkpt>
      <trkpt lat="59.3749999786" lon="18.2254881089">
        <ele>42</ele>
        <time>2011-05-07T12:05:43Z</time>
      </trkpt>
      <trkpt lat="59.3749970449" lon="18.2252670782">
        <ele>42</ele>
        <time>2011-05-07T12:05:47Z</time>
      </trkpt>
      <trkpt lat="59.3749735756" lon="18.2249520026">
        <ele>42</ele>
        <time>2011-05-07T12:05:53Z</time>
      </trkpt>
      <trkpt lat="59.3749612542" lon="18.2247843646">
        <ele>42.4</ele>
        <time>2011-05-07T12:05:56Z</time>
      </trkpt>
      <trkpt lat="59.374947005" lon="18.2246668503">
        <ele>42.6</ele>
        <time>2011-05-07T12:05:58Z</time>
      </trkpt>
      <trkpt lat="59.3749138127" lon="18.2243815304">
        <ele>43.2</ele>
        <time>2011-05-07T12:06:03Z</time>
      </trkpt>
      <trkpt lat="59.3748606714" lon="18.2241524531">
        <ele>43.8</ele>
        <time>2011-05-07T12:06:08Z</time>
      </trkpt>
      <trkpt lat="59.3748050994" lon="18.2239908501">
        <ele>44.8</ele>
        <time>2011-05-07T12:06:12Z</time>
      </trkpt>
      <trkpt lat="59.3747825521" lon="18.2239605914">
        <ele>44.8</ele>
        <time>2011-05-07T12:06:13Z</time>
      </trkpt>
      <trkpt lat="59.3746907703" lon="18.2238054425">
        <ele>45.4</ele>
        <time>2011-05-07T12:06:18Z</time>
      </trkpt>
      <trkpt lat="59.3746465139" lon="18.2237419915">
        <ele>45.6</ele>
        <time>2011-05-07T12:06:20Z</time>
      </trkpt>
      <trkpt lat="59.37456588" lon="18.2235824839">
        <ele>46</ele>
        <time>2011-05-07T12:06:25Z</time>
      </trkpt>
      <trkpt lat="59.3744861681" lon="18.2233979983">
        <ele>46.2</ele>
        <time>2011-05-07T12:06:30Z</time>
      </trkpt>
      <trkpt lat="59.3744122398" lon="18.2233266683">
        <ele>46.8</ele>
        <time>2011-05-07T12:06:33Z</time>
      </trkpt>
      <trkpt lat="59.3742791352" lon="18.2231903786">
        <ele>47.6</ele>
        <time>2011-05-07T12:06:39Z</time>
      </trkpt>
      <trkpt lat="59.3741803964" lon="18.2230688411">
        <ele>47.8</ele>
        <time>2011-05-07T12:06:43Z</time>
      </trkpt>
      <trkpt lat="59.374100014" lon="18.2228997782">
        <ele>48</ele>
        <time>2011-05-07T12:06:47Z</time>
      </trkpt>
      <trkpt lat="59.3740664026" lon="18.2228145342">
        <ele>48.2</ele>
        <time>2011-05-07T12:06:49Z</time>
      </trkpt>
      <trkpt lat="59.3740648938" lon="18.222535417">
        <ele>48.2</ele>
        <time>2011-05-07T12:06:54Z</time>
      </trkpt>
      <trkpt lat="59.3740649776" lon="18.2224966088">
        <ele>48.2</ele>
        <time>2011-05-07T12:06:55Z</time>
      </trkpt>
      <trkpt lat="59.3740192125" lon="18.2221720616">
        <ele>48.4</ele>
        <time>2011-05-07T12:07:00Z</time>
      </trkpt>
      <trkpt lat="59.3739435239" lon="18.2218429044">
        <ele>49.4</ele>
        <time>2011-05-07T12:07:06Z</time>
      </trkpt>
      <trkpt lat="59.373913852" lon="18.2215570816">
        <ele>49.8</ele>
        <time>2011-05-07T12:07:11Z</time>
      </trkpt>
      <trkpt lat="59.3739074817" lon="18.2212784672">
        <ele>50.2</ele>
        <time>2011-05-07T12:07:15Z</time>
      </trkpt>
      <trkpt lat="59.3739083199" lon="18.2209771379">
        <ele>51.2</ele>
        <time>2011-05-07T12:07:20Z</time>
      </trkpt>
      <trkpt lat="59.3739123432" lon="18.2208538402">
        <ele>51.4</ele>
        <time>2011-05-07T12:07:22Z</time>
      </trkpt>
      <trkpt lat="59.3739270954" lon="18.2206451309">
        <ele>51.8</ele>
        <time>2011-05-07T12:07:26Z</time>
      </trkpt>
      <trkpt lat="59.373935142" lon="18.2205970188">
        <ele>51.8</ele>
        <time>2011-05-07T12:07:27Z</time>
      </trkpt>
      <trkpt lat="59.3739698431" lon="18.2202918338">
        <ele>52.8</ele>
        <time>2011-05-07T12:07:32Z</time>
      </trkpt>
      <trkpt lat="59.373965233" lon="18.2202410395">
        <ele>52.8</ele>
        <time>2011-05-07T12:07:33Z</time>
      </trkpt>
      <trkpt lat="59.3739163666" lon="18.2199895825">
        <ele>53.6</ele>
        <time>2011-05-07T12:07:38Z</time>
      </trkpt>
      <trkpt lat="59.3738815817" lon="18.2198401332">
        <ele>53.8</ele>
        <time>2011-05-07T12:07:41Z</time>
      </trkpt>
      <trkpt lat="59.3738136045" lon="18.2195673024">
        <ele>54.2</ele>
        <time>2011-05-07T12:07:47Z</time>
      </trkpt>
      <trkpt lat="59.3737488962" lon="18.2190379015">
        <ele>54.4</ele>
        <time>2011-05-07T12:07:57Z</time>
      </trkpt>
      <trkpt lat="59.3737483095" lon="18.2189381569">
        <ele>54.4</ele>
        <time>2011-05-07T12:07:59Z</time>
      </trkpt>
      <trkpt lat="59.3737322162" lon="18.218669517">
        <ele>54.4</ele>
        <time>2011-05-07T12:08:04Z</time>
      </trkpt>
      <trkpt lat="59.37378234" lon="18.2184220834">
        <ele>54.6</ele>
        <time>2011-05-07T12:08:09Z</time>
      </trkpt>
      <trkpt lat="59.3738335534" lon="18.2182189899">
        <ele>54.6</ele>
        <time>2011-05-07T12:08:13Z</time>
      </trkpt>
      <trkpt lat="59.3738493114" lon="18.2182063333">
        <ele>54.6</ele>
        <time>2011-05-07T12:08:14Z</time>
      </trkpt>
      <trkpt lat="59.3739656521" lon="18.2181004699">
        <ele>54.6</ele>
        <time>2011-05-07T12:08:19Z</time>
      </trkpt>
      <trkpt lat="59.3740538297" lon="18.2180565487">
        <ele>54.6</ele>
        <time>2011-05-07T12:08:23Z</time>
      </trkpt>
      <trkpt lat="59.3741732718" lon="18.2179563012">
        <ele>54.6</ele>
        <time>2011-05-07T12:08:28Z</time>
      </trkpt>
      <trkpt lat="59.3741933045" lon="18.2179194208">
        <ele>54.6</ele>
        <time>2011-05-07T12:08:29Z</time>
      </trkpt>
      <trkpt lat="59.3742314422" lon="18.2177185067">
        <ele>54.6</ele>
        <time>2011-05-07T12:08:33Z</time>
      </trkpt>
      <trkpt lat="59.3742740222" lon="18.2174890102">
        <ele>54.6</ele>
        <time>2011-05-07T12:08:37Z</time>
      </trkpt>
      <trkpt lat="59.3744391457" lon="18.217262196">
        <ele>54.6</ele>
        <time>2011-05-07T12:08:44Z</time>
      </trkpt>
      <trkpt lat="59.3745793748" lon="18.217147364">
        <ele>54.6</ele>
        <time>2011-05-07T12:08:49Z</time>
      </trkpt>
      <trkpt lat="59.3746129863" lon="18.2171388145">
        <ele>54.6</ele>
        <time>2011-05-07T12:08:50Z</time>
      </trkpt>
      <trkpt lat="59.3747348591" lon="18.2170921273">
        <ele>54.6</ele>
        <time>2011-05-07T12:08:54Z</time>
      </trkpt>
      <trkpt lat="59.3748610067" lon="18.2170408301">
        <ele>54.6</ele>
        <time>2011-05-07T12:08:59Z</time>
      </trkpt>
      <trkpt lat="59.3748890022" lon="18.2170252397">
        <ele>54.6</ele>
        <time>2011-05-07T12:09:00Z</time>
      </trkpt>
      <trkpt lat="59.3750221906" lon="18.216877383">
        <ele>53.6</ele>
        <time>2011-05-07T12:09:06Z</time>
      </trkpt>
      <trkpt lat="59.3751003938" lon="18.2167274308">
        <ele>53</ele>
        <time>2011-05-07T12:09:10Z</time>
      </trkpt>
      <trkpt lat="59.3751226896" lon="18.216688455">
        <ele>52.8</ele>
        <time>2011-05-07T12:09:11Z</time>
      </trkpt>
      <trkpt lat="59.3752371864" lon="18.2165224095">
        <ele>51.8</ele>
        <time>2011-05-07T12:09:16Z</time>
      </trkpt>
      <trkpt lat="59.375319329" lon="18.2163983574">
        <ele>50.8</ele>
        <time>2011-05-07T12:09:19Z</time>
      </trkpt>
      <trkpt lat="59.3754070875" lon="18.2161647539">
        <ele>49.6</ele>
        <time>2011-05-07T12:09:24Z</time>
      </trkpt>
      <trkpt lat="59.375428126" lon="18.2161213356">
        <ele>49.6</ele>
        <time>2011-05-07T12:09:25Z</time>
      </trkpt>
      <trkpt lat="59.3755282059" lon="18.2159482494">
        <ele>48.4</ele>
        <time>2011-05-07T12:09:29Z</time>
      </trkpt>
      <trkpt lat="59.3756450496" lon="18.2157624227">
        <ele>47.4</ele>
        <time>2011-05-07T12:09:34Z</time>
      </trkpt>
      <trkpt lat="59.375718978" lon="18.2156371133">
        <ele>47</ele>
        <time>2011-05-07T12:09:37Z</time>
      </trkpt>
      <trkpt lat="59.37580045" lon="18.2154673798">
        <ele>46.6</ele>
        <time>2011-05-07T12:09:41Z</time>
      </trkpt>
      <trkpt lat="59.3758980992" lon="18.2152456785">
        <ele>45.6</ele>
        <time>2011-05-07T12:09:46Z</time>
      </trkpt>
      <trkpt lat="59.3759388352" lon="18.2150818962">
        <ele>45.2</ele>
        <time>2011-05-07T12:09:49Z</time>
      </trkpt>
      <trkpt lat="59.3759464627" lon="18.2150083869">
        <ele>44.8</ele>
        <time>2011-05-07T12:09:51Z</time>
      </trkpt>
      <trkpt lat="59.376067665" lon="18.2147071415">
        <ele>43.6</ele>
        <time>2011-05-07T12:09:57Z</time>
      </trkpt>
      <trkpt lat="59.3760975884" lon="18.214377649">
        <ele>42.8</ele>
        <time>2011-05-07T12:10:02Z</time>
      </trkpt>
      <trkpt lat="59.3760904638" lon="18.2141591328">
        <ele>42</ele>
        <time>2011-05-07T12:10:06Z</time>
      </trkpt>
      <trkpt lat="59.3760952415" lon="18.2139187399">
        <ele>41</ele>
        <time>2011-05-07T12:10:11Z</time>
      </trkpt>
      <trkpt lat="59.376126506" lon="18.2136944403">
        <ele>40.6</ele>
        <time>2011-05-07T12:10:15Z</time>
      </trkpt>
      <trkpt lat="59.3761465387" lon="18.2134138143">
        <ele>39.8</ele>
        <time>2011-05-07T12:10:20Z</time>
      </trkpt>
      <trkpt lat="59.3761559264" lon="18.2132983955">
        <ele>39.4</ele>
        <time>2011-05-07T12:10:22Z</time>
      </trkpt>
      <trkpt lat="59.3761685831" lon="18.213094883">
        <ele>38.8</ele>
        <time>2011-05-07T12:10:26Z</time>
      </trkpt>
      <trkpt lat="59.3762239874" lon="18.212891119">
        <ele>38.4</ele>
        <time>2011-05-07T12:10:30Z</time>
      </trkpt>
      <trkpt lat="59.376237147" lon="18.2127812323">
        <ele>38.2</ele>
        <time>2011-05-07T12:10:32Z</time>
      </trkpt>
      <trkpt lat="59.3762851753" lon="18.2125153584">
        <ele>37.8</ele>
        <time>2011-05-07T12:10:37Z</time>
      </trkpt>
      <trkpt lat="59.3762568445" lon="18.2123376621">
        <ele>36.8</ele>
        <time>2011-05-07T12:10:42Z</time>
      </trkpt>
      <trkpt lat="59.3762263344" lon="18.2121068246">
        <ele>36.2</ele>
        <time>2011-05-07T12:10:47Z</time>
      </trkpt>
      <trkpt lat="59.3762041223" lon="18.2120328963">
        <ele>36.2</ele>
        <time>2011-05-07T12:10:49Z</time>
      </trkpt>
      <trkpt lat="59.3760776395" lon="18.2118694492">
        <ele>35.8</ele>
        <time>2011-05-07T12:10:56Z</time>
      </trkpt>
      <trkpt lat="59.375977811" lon="18.2117080138">
        <ele>35.6</ele>
        <time>2011-05-07T12:11:02Z</time>
      </trkpt>
      <trkpt lat="59.3758603806" lon="18.2114719795">
        <ele>34.8</ele>
        <time>2011-05-07T12:11:07Z</time>
      </trkpt>
      <trkpt lat="59.3757691017" lon="18.2111939519">
        <ele>34.2</ele>
        <time>2011-05-07T12:11:13Z</time>
      </trkpt>
      <trkpt lat="59.3757568642" lon="18.211047101">
        <ele>34</ele>
        <time>2011-05-07T12:11:17Z</time>
      </trkpt>
      <trkpt lat="59.3757526732" lon="18.2109806325">
        <ele>33.8</ele>
        <time>2011-05-07T12:11:19Z</time>
      </trkpt>
      <trkpt lat="59.3757494043" lon="18.2108498749">
        <ele>33.8</ele>
        <time>2011-05-07T12:11:23Z</time>
      </trkpt>
      <trkpt lat="59.3757581214" lon="18.2107909501">
        <ele>33.6</ele>
        <time>2011-05-07T12:11:25Z</time>
      </trkpt>
      <trkpt lat="59.375783351" lon="18.2106311911">
        <ele>33.6</ele>
        <time>2011-05-07T12:11:30Z</time>
      </trkpt>
      <trkpt lat="59.3758007015" lon="18.2105341287">
        <ele>33.6</ele>
        <time>2011-05-07T12:11:33Z</time>
      </trkpt>
      <trkpt lat="59.3758229974" lon="18.2103566001">
        <ele>33.6</ele>
        <time>2011-05-07T12:11:38Z</time>
      </trkpt>
      <trkpt lat="59.3757991928" lon="18.2101177998">
        <ele>33.6</ele>
        <time>2011-05-07T12:11:44Z</time>
      </trkpt>
      <trkpt lat="59.3758261825" lon="18.2099663388">
        <ele>33.4</ele>
        <time>2011-05-07T12:11:47Z</time>
      </trkpt>
      <trkpt lat="59.3758406832" lon="18.2098577094">
        <ele>33.4</ele>
        <time>2011-05-07T12:11:49Z</time>
      </trkpt>
      <trkpt lat="59.3757815908" lon="18.2096402829">
        <ele>33.4</ele>
        <time>2011-05-07T12:11:54Z</time>
      </trkpt>
      <trkpt lat="59.3757643241" lon="18.2095997145">
        <ele>33.4</ele>
        <time>2011-05-07T12:11:55Z</time>
      </trkpt>
      <trkpt lat="59.3756617296" lon="18.2094267959">
        <ele>33.4</ele>
        <time>2011-05-07T12:12:00Z</time>
      </trkpt>
      <trkpt lat="59.3755598895" lon="18.2092779334">
        <ele>33.4</ele>
        <time>2011-05-07T12:12:05Z</time>
      </trkpt>
      <trkpt lat="59.3754992884" lon="18.2089901827">
        <ele>33.4</ele>
        <time>2011-05-07T12:12:10Z</time>
      </trkpt>
      <trkpt lat="59.3754928343" lon="18.20886085">
        <ele>33.4</ele>
        <time>2011-05-07T12:12:12Z</time>
      </trkpt>
      <trkpt lat="59.3755067483" lon="18.2085710039">
        <ele>33.4</ele>
        <time>2011-05-07T12:12:17Z</time>
      </trkpt>
      <trkpt lat="59.3754913256" lon="18.2082269269">
        <ele>34.2</ele>
        <time>2011-05-07T12:12:23Z</time>
      </trkpt>
      <trkpt lat="59.3754859612" lon="18.2081602908">
        <ele>34.4</ele>
        <time>2011-05-07T12:12:24Z</time>
      </trkpt>
      <trkpt lat="59.3755088437" lon="18.2078599673">
        <ele>34.8</ele>
        <time>2011-05-07T12:12:29Z</time>
      </trkpt>
      <trkpt lat="59.3755450535" lon="18.2075744798">
        <ele>35.2</ele>
        <time>2011-05-07T12:12:34Z</time>
      </trkpt>
      <trkpt lat="59.3755905673" lon="18.2073011461">
        <ele>35.4</ele>
        <time>2011-05-07T12:12:39Z</time>
      </trkpt>
      <trkpt lat="59.3756478995" lon="18.2070573166">
        <ele>35.6</ele>
        <time>2011-05-07T12:12:43Z</time>
      </trkpt>
      <trkpt lat="59.3756554432" lon="18.206992776">
        <ele>35.8</ele>
        <time>2011-05-07T12:12:44Z</time>
      </trkpt>
      <trkpt lat="59.3756340693" lon="18.2067269021">
        <ele>36.4</ele>
        <time>2011-05-07T12:12:48Z</time>
      </trkpt>
      <trkpt lat="59.3756580416" lon="18.2063670671">
        <ele>37</ele>
        <time>2011-05-07T12:12:54Z</time>
      </trkpt>
      <trkpt lat="59.3757091711" lon="18.206083256">
        <ele>37.2</ele>
        <time>2011-05-07T12:12:59Z</time>
      </trkpt>
      <trkpt lat="59.3757458839" lon="18.2057543502">
        <ele>37.4</ele>
        <time>2011-05-07T12:13:04Z</time>
      </trkpt>
      <trkpt lat="59.3757896374" lon="18.2054056632">
        <ele>37.4</ele>
        <time>2011-05-07T12:13:10Z</time>
      </trkpt>
      <trkpt lat="59.3758373304" lon="18.2051777593">
        <ele>37.6</ele>
        <time>2011-05-07T12:13:14Z</time>
      </trkpt>
      <trkpt lat="59.3758681758" lon="18.2048925233">
        <ele>37.6</ele>
        <time>2011-05-07T12:13:19Z</time>
      </trkpt>
      <trkpt lat="59.3758710256" lon="18.2047099655">
        <ele>37.6</ele>
        <time>2011-05-07T12:13:22Z</time>
      </trkpt>
      <trkpt lat="59.3757818422" lon="18.2045248093">
        <ele>37.6</ele>
        <time>2011-05-07T12:13:27Z</time>
      </trkpt>
      <trkpt lat="59.3756881326" lon="18.2043865918">
        <ele>37.6</ele>
        <time>2011-05-07T12:13:31Z</time>
      </trkpt>
      <trkpt lat="59.3756580416" lon="18.2042859252">
        <ele>37.6</ele>
        <time>2011-05-07T12:13:33Z</time>
      </trkpt>
      <trkpt lat="59.3756926588" lon="18.2039572709">
        <ele>36.8</ele>
        <time>2011-05-07T12:13:39Z</time>
      </trkpt>
      <trkpt lat="59.375670782" lon="18.2036788242">
        <ele>36.4</ele>
        <time>2011-05-07T12:13:43Z</time>
      </trkpt>
      <trkpt lat="59.3756578739" lon="18.2036085838">
        <ele>36.2</ele>
        <time>2011-05-07T12:13:44Z</time>
      </trkpt>
      <trkpt lat="59.3756069958" lon="18.2033194083">
        <ele>36</ele>
        <time>2011-05-07T12:13:49Z</time>
      </trkpt>
      <trkpt lat="59.3755608953" lon="18.2031104475">
        <ele>35.2</ele>
        <time>2011-05-07T12:13:54Z</time>
      </trkpt>
      <trkpt lat="59.3755543575" lon="18.2030817814">
        <ele>35</ele>
        <time>2011-05-07T12:13:55Z</time>
      </trkpt>
      <trkpt lat="59.3755134538" lon="18.2029780135">
        <ele>34.4</ele>
        <time>2011-05-07T12:14:00Z</time>
      </trkpt>
      <trkpt lat="59.3754312273" lon="18.2028040053">
        <ele>34</ele>
        <time>2011-05-07T12:14:06Z</time>
      </trkpt>
      <trkpt lat="59.3753469054" lon="18.2025948769">
        <ele>33.8</ele>
        <time>2011-05-07T12:14:12Z</time>
      </trkpt>
      <trkpt lat="59.3753249449" lon="18.2024875885">
        <ele>33.8</ele>
        <time>2011-05-07T12:14:14Z</time>
      </trkpt>
      <trkpt lat="59.3753793434" lon="18.2021657236">
        <ele>33.6</ele>
        <time>2011-05-07T12:14:20Z</time>
      </trkpt>
      <trkpt lat="59.3754438002" lon="18.201946956">
        <ele>33.6</ele>
        <time>2011-05-07T12:14:25Z</time>
      </trkpt>
      <trkpt lat="59.3754824408" lon="18.2017444493">
        <ele>33.6</ele>
        <time>2011-05-07T12:14:30Z</time>
      </trkpt>
      <trkpt lat="59.3755139567" lon="18.2016286114">
        <ele>33.6</ele>
        <time>2011-05-07T12:14:34Z</time>
      </trkpt>
      <trkpt lat="59.37553927" lon="18.2015492348">
        <ele>33.6</ele>
        <time>2011-05-07T12:14:40Z</time>
      </trkpt>
      <trkpt lat="59.3755663436" lon="18.201468601">
        <ele>34.8</ele>
        <time>2011-05-07T12:15:07Z</time>
      </trkpt>
      <trkpt lat="59.3756135337" lon="18.2013968519">
        <ele>35.2</ele>
        <time>2011-05-07T12:15:13Z</time>
      </trkpt>
      <trkpt lat="59.3756333988" lon="18.2013966843">
        <ele>35.4</ele>
        <time>2011-05-07T12:15:21Z</time>
      </trkpt>
      <trkpt lat="59.3756517551" lon="18.2013826027">
        <ele>35.4</ele>
        <time>2011-05-07T12:15:23Z</time>
      </trkpt>
      <trkpt lat="59.375682852" lon="18.201345387">
        <ele>35.4</ele>
        <time>2011-05-07T12:15:27Z</time>
      </trkpt>
      <trkpt lat="59.3757073271" lon="18.2013314731">
        <ele>35.4</ele>
        <time>2011-05-07T12:15:29Z</time>
      </trkpt>
      <trkpt lat="59.3757858655" lon="18.2012576285">
        <ele>35.6</ele>
        <time>2011-05-07T12:15:37Z</time>
      </trkpt>
      <trkpt lat="59.3757977678" lon="18.2012443013">
        <ele>35.6</ele>
        <time>2011-05-07T12:15:38Z</time>
      </trkpt>
      <trkpt lat="59.3758321336" lon="18.2012030624">
        <ele>35.6</ele>
        <time>2011-05-07T12:15:41Z</time>
      </trkpt>
      <trkpt lat="59.3758819221" lon="18.2011168126">
        <ele>35.6</ele>
        <time>2011-05-07T12:15:45Z</time>
      </trkpt>
      <trkpt lat="59.3759517433" lon="18.2009954427">
        <ele>35.6</ele>
        <time>2011-05-07T12:15:50Z</time>
      </trkpt>
      <trkpt lat="59.3760397533" lon="18.200738286">
        <ele>35.6</ele>
        <time>2011-05-07T12:15:57Z</time>
      </trkpt>
      <trkpt lat="59.3760924754" lon="18.2005276489">
        <ele>35.6</ele>
        <time>2011-05-07T12:16:02Z</time>
      </trkpt>
      <trkpt lat="59.3761336306" lon="18.2002941291">
        <ele>35.6</ele>
        <time>2011-05-07T12:16:08Z</time>
      </trkpt>
      <trkpt lat="59.3761363128" lon="18.2002633676">
        <ele>35.6</ele>
        <time>2011-05-07T12:16:09Z</time>
      </trkpt>
      <trkpt lat="59.3761721035" lon="18.2001375552">
        <ele>35.6</ele>
        <time>2011-05-07T12:16:12Z</time>
      </trkpt>
      <trkpt lat="59.3762603649" lon="18.199967235">
        <ele>35.6</ele>
        <time>2011-05-07T12:16:17Z</time>
      </trkpt>
      <trkpt lat="59.3762770449" lon="18.1999190391">
        <ele>35.6</ele>
        <time>2011-05-07T12:16:18Z</time>
      </trkpt>
      <trkpt lat="59.3763813157" lon="18.1996349765">
        <ele>35.6</ele>
        <time>2011-05-07T12:16:24Z</time>
      </trkpt>
      <trkpt lat="59.3764362172" lon="18.1994332242">
        <ele>35.6</ele>
        <time>2011-05-07T12:16:28Z</time>
      </trkpt>
      <trkpt lat="59.3765091397" lon="18.1992468945">
        <ele>35.6</ele>
        <time>2011-05-07T12:16:32Z</time>
      </trkpt>
      <trkpt lat="59.3766043581" lon="18.1990354192">
        <ele>35.6</ele>
        <time>2011-05-07T12:16:37Z</time>
      </trkpt>
      <trkpt lat="59.3766649592" lon="18.198916061">
        <ele>35.6</ele>
        <time>2011-05-07T12:16:40Z</time>
      </trkpt>
      <trkpt lat="59.3767197768" lon="18.1987094471">
        <ele>35.2</ele>
        <time>2011-05-07T12:16:44Z</time>
      </trkpt>
      <trkpt lat="59.3767230458" lon="18.1984142366">
        <ele>34.2</ele>
        <time>2011-05-07T12:16:49Z</time>
      </trkpt>
      <trkpt lat="59.3766876742" lon="18.1981925353">
        <ele>33.2</ele>
        <time>2011-05-07T12:16:53Z</time>
      </trkpt>
      <trkpt lat="59.3766763586" lon="18.1981402323">
        <ele>33</ele>
        <time>2011-05-07T12:16:54Z</time>
      </trkpt>
      <trkpt lat="59.3765638735" lon="18.1977881925">
        <ele>31.8</ele>
        <time>2011-05-07T12:17:01Z</time>
      </trkpt>
      <trkpt lat="59.3764647994" lon="18.1976325406">
        <ele>31</ele>
        <time>2011-05-07T12:17:05Z</time>
      </trkpt>
      <trkpt lat="59.3763919607" lon="18.197431375">
        <ele>30.2</ele>
        <time>2011-05-07T12:17:09Z</time>
      </trkpt>
      <trkpt lat="59.376330689" lon="18.1972315505">
        <ele>29.8</ele>
        <time>2011-05-07T12:17:13Z</time>
      </trkpt>
      <trkpt lat="59.3763037831" lon="18.1969602284">
        <ele>29.6</ele>
        <time>2011-05-07T12:17:18Z</time>
      </trkpt>
      <trkpt lat="59.376313087" lon="18.1966846315">
        <ele>29.4</ele>
        <time>2011-05-07T12:17:23Z</time>
      </trkpt>
      <trkpt lat="59.3763511409" lon="18.1964531235">
        <ele>29.2</ele>
        <time>2011-05-07T12:17:27Z</time>
      </trkpt>
      <trkpt lat="59.3764173579" lon="18.1962244652">
        <ele>29.2</ele>
        <time>2011-05-07T12:17:31Z</time>
      </trkpt>
      <trkpt lat="59.3764417492" lon="18.1959788756">
        <ele>29.2</ele>
        <time>2011-05-07T12:17:35Z</time>
      </trkpt>
      <trkpt lat="59.3764347084" lon="18.1957717588">
        <ele>29.2</ele>
        <time>2011-05-07T12:17:39Z</time>
      </trkpt>
      <trkpt lat="59.376366815" lon="18.1955535779">
        <ele>29.2</ele>
        <time>2011-05-07T12:17:44Z</time>
      </trkpt>
      <trkpt lat="59.3762984187" lon="18.1952837646">
        <ele>29.2</ele>
        <time>2011-05-07T12:17:49Z</time>
      </trkpt>
      <trkpt lat="59.3762045414" lon="18.1949849499">
        <ele>29</ele>
        <time>2011-05-07T12:17:55Z</time>
      </trkpt>
      <trkpt lat="59.3761423477" lon="18.1947739774">
        <ele>29</ele>
        <time>2011-05-07T12:18:00Z</time>
      </trkpt>
      <trkpt lat="59.3761334629" lon="18.1947258653">
        <ele>29</ele>
        <time>2011-05-07T12:18:01Z</time>
      </trkpt>
      <trkpt lat="59.3761617099" lon="18.1944977938">
        <ele>29</ele>
        <time>2011-05-07T12:18:05Z</time>
      </trkpt>
      <trkpt lat="59.3761877776" lon="18.1943903379">
        <ele>29</ele>
        <time>2011-05-07T12:18:07Z</time>
      </trkpt>
      <trkpt lat="59.3762498875" lon="18.1942516174">
        <ele>29</ele>
        <time>2011-05-07T12:18:10Z</time>
      </trkpt>
      <trkpt lat="59.3764140051" lon="18.1940298323">
        <ele>29</ele>
        <time>2011-05-07T12:18:16Z</time>
      </trkpt>
      <trkpt lat="59.3765413262" lon="18.1938462687">
        <ele>28.4</ele>
        <time>2011-05-07T12:18:21Z</time>
      </trkpt>
      <trkpt lat="59.3765976525" lon="18.1935669">
        <ele>27.8</ele>
        <time>2011-05-07T12:18:26Z</time>
      </trkpt>
      <trkpt lat="59.376566891" lon="18.1932281874">
        <ele>27.4</ele>
        <time>2011-05-07T12:18:31Z</time>
      </trkpt>
      <trkpt lat="59.3765668072" lon="18.1929820948">
        <ele>26.8</ele>
        <time>2011-05-07T12:18:35Z</time>
      </trkpt>
      <trkpt lat="59.3765620295" lon="18.1929310491">
        <ele>26.6</ele>
        <time>2011-05-07T12:18:36Z</time>
      </trkpt>
      <trkpt lat="59.376553899" lon="18.1927567056">
        <ele>26.2</ele>
        <time>2011-05-07T12:18:39Z</time>
      </trkpt>
      <trkpt lat="59.3765576709" lon="18.1923876505">
        <ele>25.6</ele>
        <time>2011-05-07T12:18:45Z</time>
      </trkpt>
      <trkpt lat="59.3765810564" lon="18.1920947869">
        <ele>25.2</ele>
        <time>2011-05-07T12:18:50Z</time>
      </trkpt>
      <trkpt lat="59.3765779551" lon="18.1918616025">
        <ele>25.2</ele>
        <time>2011-05-07T12:18:55Z</time>
      </trkpt>
      <trkpt lat="59.3765530608" lon="18.1916076309">
        <ele>25</ele>
        <time>2011-05-07T12:19:00Z</time>
      </trkpt>
      <trkpt lat="59.3765419129" lon="18.1913985863">
        <ele>25</ele>
        <time>2011-05-07T12:19:04Z</time>
      </trkpt>
      <trkpt lat="59.376518276" lon="18.1910096661">
        <ele>25</ele>
        <time>2011-05-07T12:19:11Z</time>
      </trkpt>
      <trkpt lat="59.3765129115" lon="18.1906477357">
        <ele>25.4</ele>
        <time>2011-05-07T12:19:17Z</time>
      </trkpt>
      <trkpt lat="59.3765129115" lon="18.1904163114">
        <ele>26</ele>
        <time>2011-05-07T12:19:21Z</time>
      </trkpt>
      <trkpt lat="59.3765217125" lon="18.1901880723">
        <ele>26.4</ele>
        <time>2011-05-07T12:19:25Z</time>
      </trkpt>
      <trkpt lat="59.3765538152" lon="18.1899196839">
        <ele>27.4</ele>
        <time>2011-05-07T12:19:30Z</time>
      </trkpt>
      <trkpt lat="59.3765647117" lon="18.1898589151">
        <ele>27.6</ele>
        <time>2011-05-07T12:19:31Z</time>
      </trkpt>
      <trkpt lat="59.3765735965" lon="18.1895594298">
        <ele>28.2</ele>
        <time>2011-05-07T12:19:36Z</time>
      </trkpt>
      <trkpt lat="59.3765575871" lon="18.1894046161">
        <ele>28.4</ele>
        <time>2011-05-07T12:19:39Z</time>
      </trkpt>
      <trkpt lat="59.3765434217" lon="18.18916942">
        <ele>28.6</ele>
        <time>2011-05-07T12:19:43Z</time>
      </trkpt>
      <trkpt lat="59.3765662204" lon="18.1889624709">
        <ele>28.8</ele>
        <time>2011-05-07T12:19:47Z</time>
      </trkpt>
      <trkpt lat="59.3766259834" lon="18.1886347386">
        <ele>29</ele>
        <time>2011-05-07T12:19:53Z</time>
      </trkpt>
      <trkpt lat="59.3766883447" lon="18.1883865505">
        <ele>29</ele>
        <time>2011-05-07T12:19:58Z</time>
      </trkpt>
      <trkpt lat="59.3767461798" lon="18.1882337485">
        <ele>29</ele>
        <time>2011-05-07T12:20:03Z</time>
      </trkpt>
      <trkpt lat="59.376752131" lon="18.1881514382">
        <ele>29</ele>
        <time>2011-05-07T12:20:19Z</time>
      </trkpt>
      <trkpt lat="59.3768139894" lon="18.1880276376">
        <ele>29</ele>
        <time>2011-05-07T12:20:25Z</time>
      </trkpt>
      <trkpt lat="59.3768905161" lon="18.1878237898">
        <ele>29</ele>
        <time>2011-05-07T12:20:30Z</time>
      </trkpt>
      <trkpt lat="59.3769492733" lon="18.1876720774">
        <ele>29</ele>
        <time>2011-05-07T12:20:34Z</time>
      </trkpt>
      <trkpt lat="59.3770113831" lon="18.1875026792">
        <ele>29</ele>
        <time>2011-05-07T12:20:38Z</time>
      </trkpt>
      <trkpt lat="59.3770479282" lon="18.1872381464">
        <ele>29</ele>
        <time>2011-05-07T12:20:43Z</time>
      </trkpt>
      <trkpt lat="59.3770498561" lon="18.1871919621">
        <ele>29</ele>
        <time>2011-05-07T12:20:44Z</time>
      </trkpt>
      <trkpt lat="59.3770246265" lon="18.1870788065">
        <ele>29</ele>
        <time>2011-05-07T12:20:47Z</time>
      </trkpt>
      <trkpt lat="59.3769481836" lon="18.1866676743">
        <ele>29</ele>
        <time>2011-05-07T12:20:58Z</time>
      </trkpt>
      <trkpt lat="59.3769310845" lon="18.1866115156">
        <ele>29</ele>
        <time>2011-05-07T12:21:00Z</time>
      </trkpt>
      <trkpt lat="59.3769169191" lon="18.1861945999">
        <ele>29</ele>
        <time>2011-05-07T12:21:09Z</time>
      </trkpt>
      <trkpt lat="59.3769369519" lon="18.1860880659">
        <ele>29</ele>
        <time>2011-05-07T12:21:11Z</time>
      </trkpt>
      <trkpt lat="59.3770051805" lon="18.1858435659">
        <ele>29</ele>
        <time>2011-05-07T12:21:16Z</time>
      </trkpt>
      <trkpt lat="59.3770519515" lon="18.185557324">
        <ele>29</ele>
        <time>2011-05-07T12:21:21Z</time>
      </trkpt>
      <trkpt lat="59.3770839704" lon="18.1852549051">
        <ele>29</ele>
        <time>2011-05-07T12:21:26Z</time>
      </trkpt>
      <trkpt lat="59.3771387042" lon="18.1850906198">
        <ele>29.4</ele>
        <time>2011-05-07T12:21:30Z</time>
      </trkpt>
      <trkpt lat="59.3771499359" lon="18.1850460281">
        <ele>29.6</ele>
        <time>2011-05-07T12:21:31Z</time>
      </trkpt>
      <trkpt lat="59.3771783506" lon="18.1848768814">
        <ele>30</ele>
        <time>2011-05-07T12:21:34Z</time>
      </trkpt>
      <trkpt lat="59.3771496845" lon="18.1846087444">
        <ele>30.4</ele>
        <time>2011-05-07T12:21:39Z</time>
      </trkpt>
      <trkpt lat="59.3770801985" lon="18.1843774878">
        <ele>30.8</ele>
        <time>2011-05-07T12:21:44Z</time>
      </trkpt>
      <trkpt lat="59.377050359" lon="18.184291238">
        <ele>30.8</ele>
        <time>2011-05-07T12:21:46Z</time>
      </trkpt>
      <trkpt lat="59.3770004028" lon="18.1841431298">
        <ele>31</ele>
        <time>2011-05-07T12:21:50Z</time>
      </trkpt>
      <trkpt lat="59.3769548891" lon="18.1839322412">
        <ele>31</ele>
        <time>2011-05-07T12:21:55Z</time>
      </trkpt>
      <trkpt lat="59.3769203557" lon="18.1836466699">
        <ele>31.2</ele>
        <time>2011-05-07T12:22:02Z</time>
      </trkpt>
      <trkpt lat="59.3769165" lon="18.1836038384">
        <ele>31.2</ele>
        <time>2011-05-07T12:22:03Z</time>
      </trkpt>
      <trkpt lat="59.3769037595" lon="18.1834415648">
        <ele>31.2</ele>
        <time>2011-05-07T12:22:06Z</time>
      </trkpt>
      <trkpt lat="59.3769044301" lon="18.183326146">
        <ele>31.6</ele>
        <time>2011-05-07T12:22:08Z</time>
      </trkpt>
      <trkpt lat="59.3769309169" lon="18.1830608589">
        <ele>32.4</ele>
        <time>2011-05-07T12:22:14Z</time>
      </trkpt>
      <trkpt lat="59.3769649474" lon="18.1828076417">
        <ele>32.8</ele>
        <time>2011-05-07T12:22:19Z</time>
      </trkpt>
      <trkpt lat="59.3769955413" lon="18.1824970085">
        <ele>33.2</ele>
        <time>2011-05-07T12:22:25Z</time>
      </trkpt>
      <trkpt lat="59.3770015763" lon="18.1824496508">
        <ele>33.4</ele>
        <time>2011-05-07T12:22:26Z</time>
      </trkpt>
      <trkpt lat="59.3770222796" lon="18.1822318052">
        <ele>34.2</ele>
        <time>2011-05-07T12:22:31Z</time>
      </trkpt>
      <trkpt lat="59.3770382052" lon="18.1820710403">
        <ele>34.6</ele>
        <time>2011-05-07T12:22:35Z</time>
      </trkpt>
      <trkpt lat="59.3770545499" lon="18.1818622472">
        <ele>35.4</ele>
        <time>2011-05-07T12:22:39Z</time>
      </trkpt>
      <trkpt lat="59.3770760076" lon="18.1816749956">
        <ele>36.2</ele>
        <time>2011-05-07T12:22:43Z</time>
      </trkpt>
      <trkpt lat="59.3770737445" lon="18.1815782684">
        <ele>36.4</ele>
        <time>2011-05-07T12:22:45Z</time>
      </trkpt>
      <trkpt lat="59.3770758399" lon="18.1812910207">
        <ele>37</ele>
        <time>2011-05-07T12:22:53Z</time>
      </trkpt>
      <trkpt lat="59.3770706432" lon="18.1810792939">
        <ele>37.2</ele>
        <time>2011-05-07T12:22:58Z</time>
      </trkpt>
      <trkpt lat="59.3770631833" lon="18.1810344508">
        <ele>37.2</ele>
        <time>2011-05-07T12:22:59Z</time>
      </trkpt>
      <trkpt lat="59.3770149874" lon="18.180890785">
        <ele>37.2</ele>
        <time>2011-05-07T12:23:03Z</time>
      </trkpt>
      <trkpt lat="59.3770106288" lon="18.1808402421">
        <ele>37.4</ele>
        <time>2011-05-07T12:23:04Z</time>
      </trkpt>
      <trkpt lat="59.3769796157" lon="18.1805558443">
        <ele>37.4</ele>
        <time>2011-05-07T12:23:09Z</time>
      </trkpt>
      <trkpt lat="59.3769600021" lon="18.180252168">
        <ele>37.4</ele>
        <time>2011-05-07T12:23:14Z</time>
      </trkpt>
      <trkpt lat="59.3769554759" lon="18.1802153715">
        <ele>37.4</ele>
        <time>2011-05-07T12:23:15Z</time>
      </trkpt>
      <trkpt lat="59.3769699765" lon="18.1800593005">
        <ele>36.6</ele>
        <time>2011-05-07T12:23:20Z</time>
      </trkpt>
      <trkpt lat="59.3769662047" lon="18.1799263636">
        <ele>36.2</ele>
        <time>2011-05-07T12:23:24Z</time>
      </trkpt>
      <trkpt lat="59.3769657856" lon="18.1798926683">
        <ele>36</ele>
        <time>2011-05-07T12:23:25Z</time>
      </trkpt>
      <trkpt lat="59.3769724911" lon="18.1796507667">
        <ele>35.8</ele>
        <time>2011-05-07T12:23:31Z</time>
      </trkpt>
      <trkpt lat="59.3769678811" lon="18.1793913469">
        <ele>35.6</ele>
        <time>2011-05-07T12:23:37Z</time>
      </trkpt>
      <trkpt lat="59.3769695575" lon="18.1793539636">
        <ele>35.6</ele>
        <time>2011-05-07T12:23:38Z</time>
      </trkpt>
      <trkpt lat="59.3769764306" lon="18.1791568213">
        <ele>35.4</ele>
        <time>2011-05-07T12:23:42Z</time>
      </trkpt>
      <trkpt lat="59.3769759277" lon="18.1790704878">
        <ele>35.4</ele>
        <time>2011-05-07T12:23:44Z</time>
      </trkpt>
      <trkpt lat="59.3769789452" lon="18.1790276563">
        <ele>35.4</ele>
        <time>2011-05-07T12:23:45Z</time>
      </trkpt>
      <trkpt lat="59.3770052643" lon="18.1787414144">
        <ele>35.4</ele>
        <time>2011-05-07T12:23:50Z</time>
      </trkpt>
      <trkpt lat="59.3770783545" lon="18.1783799869">
        <ele>36.4</ele>
        <time>2011-05-07T12:23:57Z</time>
      </trkpt>
      <trkpt lat="59.3770864011" lon="18.1781783183">
        <ele>36.8</ele>
        <time>2011-05-07T12:24:01Z</time>
      </trkpt>
      <trkpt lat="59.3770843895" lon="18.1778038989">
        <ele>37.2</ele>
        <time>2011-05-07T12:24:07Z</time>
      </trkpt>
      <trkpt lat="59.3770750856" lon="18.1774427228">
        <ele>37.2</ele>
        <time>2011-05-07T12:24:13Z</time>
      </trkpt>
      <trkpt lat="59.3770840542" lon="18.1771785253">
        <ele>37.4</ele>
        <time>2011-05-07T12:24:18Z</time>
      </trkpt>
      <trkpt lat="59.3770735768" lon="18.1769889267">
        <ele>37.4</ele>
        <time>2011-05-07T12:24:22Z</time>
      </trkpt>
      <trkpt lat="59.3770736607" lon="18.1768820575">
        <ele>37.4</ele>
        <time>2011-05-07T12:24:24Z</time>
      </trkpt>
      <trkpt lat="59.3771312443" lon="18.1765699994">
        <ele>37.4</ele>
        <time>2011-05-07T12:24:31Z</time>
      </trkpt>
      <trkpt lat="59.3771812842" lon="18.1762716037">
        <ele>37.4</ele>
        <time>2011-05-07T12:24:37Z</time>
      </trkpt>
      <trkpt lat="59.3772300669" lon="18.1760405147">
        <ele>37.4</ele>
        <time>2011-05-07T12:24:42Z</time>
      </trkpt>
      <trkpt lat="59.3772944399" lon="18.1759032192">
        <ele>37.4</ele>
        <time>2011-05-07T12:24:45Z</time>
      </trkpt>
      <trkpt lat="59.3774113674" lon="18.1755639199">
        <ele>36.8</ele>
        <time>2011-05-07T12:24:51Z</time>
      </trkpt>
      <trkpt lat="59.3774976172" lon="18.1752016542">
        <ele>36.2</ele>
        <time>2011-05-07T12:24:57Z</time>
      </trkpt>
      <trkpt lat="59.3775313124" lon="18.1749406418">
        <ele>35.6</ele>
        <time>2011-05-07T12:25:02Z</time>
      </trkpt>
      <trkpt lat="59.3775154706" lon="18.1747195273">
        <ele>34.8</ele>
        <time>2011-05-07T12:25:06Z</time>
      </trkpt>
      <trkpt lat="59.3773951903" lon="18.174563624">
        <ele>34</ele>
        <time>2011-05-07T12:25:12Z</time>
      </trkpt>
      <trkpt lat="59.3773532808" lon="18.1745128297">
        <ele>33.8</ele>
        <time>2011-05-07T12:25:14Z</time>
      </trkpt>
      <trkpt lat="59.3772535362" lon="18.1743445211">
        <ele>32.6</ele>
        <time>2011-05-07T12:25:20Z</time>
      </trkpt>
      <trkpt lat="59.377155468" lon="18.1742743646">
        <ele>32</ele>
        <time>2011-05-07T12:25:24Z</time>
      </trkpt>
      <trkpt lat="59.377130909" lon="18.1742540804">
        <ele>32</ele>
        <time>2011-05-07T12:25:25Z</time>
      </trkpt>
      <trkpt lat="59.3770323379" lon="18.1741666572">
        <ele>31.6</ele>
        <time>2011-05-07T12:25:29Z</time>
      </trkpt>
      <trkpt lat="59.3769122253" lon="18.1740951596">
        <ele>31.4</ele>
        <time>2011-05-07T12:25:35Z</time>
      </trkpt>
      <trkpt lat="59.3767672184" lon="18.174030116">
        <ele>31.2</ele>
        <time>2011-05-07T12:25:41Z</time>
      </trkpt>
      <trkpt lat="59.3766931224" lon="18.1739659945">
        <ele>31.2</ele>
        <time>2011-05-07T12:25:44Z</time>
      </trkpt>
      <trkpt lat="59.3766473572" lon="18.1737333968">
        <ele>31.2</ele>
        <time>2011-05-07T12:25:49Z</time>
      </trkpt>
      <trkpt lat="59.3766129076" lon="18.1733547864">
        <ele>31.4</ele>
        <time>2011-05-07T12:25:56Z</time>
      </trkpt>
      <trkpt lat="59.3765995804" lon="18.1729760083">
        <ele>32.2</ele>
        <time>2011-05-07T12:26:02Z</time>
      </trkpt>
      <trkpt lat="59.3765904441" lon="18.1729256331">
        <ele>32.2</ele>
        <time>2011-05-07T12:26:03Z</time>
      </trkpt>
      <trkpt lat="59.3765425835" lon="18.1726798758">
        <ele>32.6</ele>
        <time>2011-05-07T12:26:08Z</time>
      </trkpt>
      <trkpt lat="59.3765438408" lon="18.1726224597">
        <ele>32.6</ele>
        <time>2011-05-07T12:26:09Z</time>
      </trkpt>
      <trkpt lat="59.3765841577" lon="18.1724238925">
        <ele>32.8</ele>
        <time>2011-05-07T12:26:13Z</time>
      </trkpt>
      <trkpt lat="59.3765572518" lon="18.1722281752">
        <ele>33</ele>
        <time>2011-05-07T12:26:17Z</time>
      </trkpt>
      <trkpt lat="59.3765336148" lon="18.1720687514">
        <ele>33</ele>
        <time>2011-05-07T12:26:20Z</time>
      </trkpt>
      <trkpt lat="59.3765066251" lon="18.1718087449">
        <ele>33</ele>
        <time>2011-05-07T12:26:24Z</time>
      </trkpt>
      <trkpt lat="59.3765134145" lon="18.1715677653">
        <ele>33</ele>
        <time>2011-05-07T12:26:28Z</time>
      </trkpt>
      <trkpt lat="59.3765285019" lon="18.1712153902">
        <ele>33</ele>
        <time>2011-05-07T12:26:34Z</time>
      </trkpt>
      <trkpt lat="59.3766014244" lon="18.1708933576">
        <ele>34.2</ele>
        <time>2011-05-07T12:26:40Z</time>
      </trkpt>
      <trkpt lat="59.3766486983" lon="18.1706735842">
        <ele>34.6</ele>
        <time>2011-05-07T12:26:44Z</time>
      </trkpt>
      <trkpt lat="59.3767008337" lon="18.1704673894">
        <ele>35.6</ele>
        <time>2011-05-07T12:26:49Z</time>
      </trkpt>
      <trkpt lat="59.3768025062" lon="18.1702907828">
        <ele>36.2</ele>
        <time>2011-05-07T12:26:54Z</time>
      </trkpt>
      <trkpt lat="59.3768911867" lon="18.1701908706">
        <ele>36.6</ele>
        <time>2011-05-07T12:26:59Z</time>
      </trkpt>
      <trkpt lat="59.3770086171" lon="18.1700610349">
        <ele>37</ele>
        <time>2011-05-07T12:27:04Z</time>
      </trkpt>
      <trkpt lat="59.377136944" lon="18.1699736117">
        <ele>37</ele>
        <time>2011-05-07T12:27:09Z</time>
      </trkpt>
      <trkpt lat="59.3772532009" lon="18.1698017828">
        <ele>37.2</ele>
        <time>2011-05-07T12:27:14Z</time>
      </trkpt>
      <trkpt lat="59.3773714696" lon="18.1696630623">
        <ele>37.2</ele>
        <time>2011-05-07T12:27:19Z</time>
      </trkpt>
      <trkpt lat="59.3774444759" lon="18.1695754715">
        <ele>37.2</ele>
        <time>2011-05-07T12:27:22Z</time>
      </trkpt>
      <trkpt lat="59.3775448072" lon="18.1693732162">
        <ele>37.2</ele>
        <time>2011-05-07T12:27:27Z</time>
      </trkpt>
      <trkpt lat="59.3776366729" lon="18.1691888144">
        <ele>37.2</ele>
        <time>2011-05-07T12:27:32Z</time>
      </trkpt>
      <trkpt lat="59.3777041472" lon="18.1689328312">
        <ele>37.4</ele>
        <time>2011-05-07T12:27:38Z</time>
      </trkpt>
      <trkpt lat="59.3777937497" lon="18.1687891654">
        <ele>36.8</ele>
        <time>2011-05-07T12:27:43Z</time>
      </trkpt>
      <trkpt lat="59.3778136986" lon="18.1687605831">
        <ele>36.8</ele>
        <time>2011-05-07T12:27:44Z</time>
      </trkpt>
      <trkpt lat="59.3778209909" lon="18.1687074419">
        <ele>36.2</ele>
        <time>2011-05-07T12:27:48Z</time>
      </trkpt>
      <trkpt lat="59.3778734615" lon="18.1686237067">
        <ele>35.2</ele>
        <time>2011-05-07T12:28:16Z</time>
      </trkpt>
      <trkpt lat="59.3779213222" lon="18.1683630296">
        <ele>35.2</ele>
        <time>2011-05-07T12:28:21Z</time>
      </trkpt>
      <trkpt lat="59.3779756369" lon="18.1680643825">
        <ele>35.2</ele>
        <time>2011-05-07T12:28:27Z</time>
      </trkpt>
      <trkpt lat="59.3779589569" lon="18.1678426813">
        <ele>35.2</ele>
        <time>2011-05-07T12:28:32Z</time>
      </trkpt>
      <trkpt lat="59.3779058157" lon="18.1675766398">
        <ele>35.2</ele>
        <time>2011-05-07T12:28:38Z</time>
      </trkpt>
      <trkpt lat="59.377899194" lon="18.1673610573">
        <ele>35.2</ele>
        <time>2011-05-07T12:28:43Z</time>
      </trkpt>
      <trkpt lat="59.3779473061" lon="18.1670951834">
        <ele>35.2</ele>
        <time>2011-05-07T12:28:48Z</time>
      </trkpt>
      <trkpt lat="59.377990892" lon="18.1668305668">
        <ele>35.2</ele>
        <time>2011-05-07T12:28:53Z</time>
      </trkpt>
      <trkpt lat="59.3780579472" lon="18.166497051">
        <ele>35.2</ele>
        <time>2011-05-07T12:29:00Z</time>
      </trkpt>
      <trkpt lat="59.3781083224" lon="18.1662117312">
        <ele>35.2</ele>
        <time>2011-05-07T12:29:06Z</time>
      </trkpt>
      <trkpt lat="59.3781484717" lon="18.1659585978">
        <ele>35.6</ele>
        <time>2011-05-07T12:29:11Z</time>
      </trkpt>
      <trkpt lat="59.3781688397" lon="18.1657492179">
        <ele>36.2</ele>
        <time>2011-05-07T12:29:15Z</time>
      </trkpt>
      <trkpt lat="59.3781786465" lon="18.1654854395">
        <ele>36.6</ele>
        <time>2011-05-07T12:29:20Z</time>
      </trkpt>
      <trkpt lat="59.3781921414" lon="18.1651311366">
        <ele>37</ele>
        <time>2011-05-07T12:29:27Z</time>
      </trkpt>
      <trkpt lat="59.3781999366" lon="18.1648727226">
        <ele>38</ele>
        <time>2011-05-07T12:29:33Z</time>
      </trkpt>
      <trkpt lat="59.3781986793" lon="18.1648553721">
        <ele>38.6</ele>
        <time>2011-05-07T12:29:41Z</time>
      </trkpt>
      <trkpt lat="59.3781949912" lon="18.1647334993">
        <ele>39</ele>
        <time>2011-05-07T12:29:53Z</time>
      </trkpt>
      <trkpt lat="59.3781934825" lon="18.164460417">
        <ele>39.2</ele>
        <time>2011-05-07T12:29:58Z</time>
      </trkpt>
      <trkpt lat="59.3781821669" lon="18.1642242989">
        <ele>39.2</ele>
        <time>2011-05-07T12:30:02Z</time>
      </trkpt>
      <trkpt lat="59.3781736174" lon="18.1641665476">
        <ele>39.2</ele>
        <time>2011-05-07T12:30:03Z</time>
      </trkpt>
      <trkpt lat="59.3780858589" lon="18.163921377">
        <ele>39.2</ele>
        <time>2011-05-07T12:30:08Z</time>
      </trkpt>
      <trkpt lat="59.37795661" lon="18.1636593588">
        <ele>39.2</ele>
        <time>2011-05-07T12:30:14Z</time>
      </trkpt>
      <trkpt lat="59.3778664208" lon="18.1634643958">
        <ele>39.2</ele>
        <time>2011-05-07T12:30:19Z</time>
      </trkpt>
      <trkpt lat="59.3778826816" lon="18.163248059">
        <ele>39.2</ele>
        <time>2011-05-07T12:30:23Z</time>
      </trkpt>
      <trkpt lat="59.3779628126" lon="18.1629941712">
        <ele>39.2</ele>
        <time>2011-05-07T12:30:28Z</time>
      </trkpt>
      <trkpt lat="59.3780567737" lon="18.162728465">
        <ele>39.2</ele>
        <time>2011-05-07T12:30:34Z</time>
      </trkpt>
      <trkpt lat="59.3780857751" lon="18.1624720627">
        <ele>39.2</ele>
        <time>2011-05-07T12:30:39Z</time>
      </trkpt>
      <trkpt lat="59.3780944084" lon="18.1621527123">
        <ele>38.4</ele>
        <time>2011-05-07T12:30:45Z</time>
      </trkpt>
      <trkpt lat="59.3781213982" lon="18.161848114">
        <ele>37</ele>
        <time>2011-05-07T12:30:50Z</time>
      </trkpt>
      <trkpt lat="59.378198344" lon="18.1616762013">
        <ele>36</ele>
        <time>2011-05-07T12:30:54Z</time>
      </trkpt>
      <trkpt lat="59.3783943966" lon="18.1615967408">
        <ele>34.4</ele>
        <time>2011-05-07T12:31:01Z</time>
      </trkpt>
      <trkpt lat="59.3785751104" lon="18.1615135924">
        <ele>33.2</ele>
        <time>2011-05-07T12:31:08Z</time>
      </trkpt>
      <trkpt lat="59.3787320196" lon="18.1614124229">
        <ele>32</ele>
        <time>2011-05-07T12:31:14Z</time>
      </trkpt>
      <trkpt lat="59.3789097158" lon="18.1613126783">
        <ele>31.2</ele>
        <time>2011-05-07T12:31:21Z</time>
      </trkpt>
      <trkpt lat="59.3790631046" lon="18.1611926495">
        <ele>30</ele>
        <time>2011-05-07T12:31:27Z</time>
      </trkpt>
      <trkpt lat="59.3791666211" lon="18.1610651608">
        <ele>29.4</ele>
        <time>2011-05-07T12:31:32Z</time>
      </trkpt>
      <trkpt lat="59.3791745839" lon="18.1610164619">
        <ele>29.2</ele>
        <time>2011-05-07T12:31:33Z</time>
      </trkpt>
      <trkpt lat="59.3791793616" lon="18.1609244287">
        <ele>28.6</ele>
        <time>2011-05-07T12:31:35Z</time>
      </trkpt>
      <trkpt lat="59.379184726" lon="18.1606695351">
        <ele>28</ele>
        <time>2011-05-07T12:31:39Z</time>
      </trkpt>
      <trkpt lat="59.3792010707" lon="18.1604249512">
        <ele>27.4</ele>
        <time>2011-05-07T12:31:43Z</time>
      </trkpt>
      <trkpt lat="59.3792067704" lon="18.1603624223">
        <ele>27.4</ele>
        <time>2011-05-07T12:31:44Z</time>
      </trkpt>
      <trkpt lat="59.379230575" lon="18.1601336802">
        <ele>27</ele>
        <time>2011-05-07T12:31:48Z</time>
      </trkpt>
      <trkpt lat="59.3792371129" lon="18.1598513778">
        <ele>26.8</ele>
        <time>2011-05-07T12:31:53Z</time>
      </trkpt>
      <trkpt lat="59.3792332572" lon="18.1597986557">
        <ele>26.8</ele>
        <time>2011-05-07T12:31:54Z</time>
      </trkpt>
      <trkpt lat="59.3791539644" lon="18.1593797283">
        <ele>26.6</ele>
        <time>2011-05-07T12:32:02Z</time>
      </trkpt>
      <trkpt lat="59.3790853167" lon="18.1590600426">
        <ele>25.6</ele>
        <time>2011-05-07T12:32:08Z</time>
      </trkpt>
      <trkpt lat="59.3789909365" lon="18.1588095915">
        <ele>25.2</ele>
        <time>2011-05-07T12:32:13Z</time>
      </trkpt>
      <trkpt lat="59.3788970592" lon="18.1585520157">
        <ele>24.8</ele>
        <time>2011-05-07T12:32:18Z</time>
      </trkpt>
      <trkpt lat="59.3787995777" lon="18.1581995568">
        <ele>24.8</ele>
        <time>2011-05-07T12:32:24Z</time>
      </trkpt>
      <trkpt lat="59.3787281639" lon="18.1578276519">
        <ele>24.6</ele>
        <time>2011-05-07T12:32:30Z</time>
      </trkpt>
      <trkpt lat="59.3786859191" lon="18.1574621172">
        <ele>24.6</ele>
        <time>2011-05-07T12:32:36Z</time>
      </trkpt>
      <trkpt lat="59.3786562472" lon="18.1571156933">
        <ele>24.6</ele>
        <time>2011-05-07T12:32:42Z</time>
      </trkpt>
      <trkpt lat="59.3787101428" lon="18.1567545172">
        <ele>24.6</ele>
        <time>2011-05-07T12:32:48Z</time>
      </trkpt>
      <trkpt lat="59.3787342827" lon="18.1565188182">
        <ele>24.6</ele>
        <time>2011-05-07T12:32:52Z</time>
      </trkpt>
      <trkpt lat="59.3787834844" lon="18.1562039102">
        <ele>24.4</ele>
        <time>2011-05-07T12:32:58Z</time>
      </trkpt>
      <trkpt lat="59.3787933751" lon="18.1560850549">
        <ele>24.4</ele>
        <time>2011-05-07T12:33:03Z</time>
      </trkpt>
      <trkpt lat="59.3787953867" lon="18.1560754157">
        <ele>24.4</ele>
        <time>2011-05-07T12:33:04Z</time>
      </trkpt>
      <trkpt lat="59.3788613523" lon="18.1559124715">
        <ele>23.6</ele>
        <time>2011-05-07T12:33:12Z</time>
      </trkpt>
      <trkpt lat="59.3789429082" lon="18.155758999">
        <ele>23</ele>
        <time>2011-05-07T12:33:20Z</time>
      </trkpt>
      <trkpt lat="59.3790100472" lon="18.1556498666">
        <ele>22.8</ele>
        <time>2011-05-07T12:33:27Z</time>
      </trkpt>
      <trkpt lat="59.3790678823" lon="18.1554782891">
        <ele>22.6</ele>
        <time>2011-05-07T12:33:35Z</time>
      </trkpt>
      <trkpt lat="59.3790971351" lon="18.1554145029">
        <ele>22.6</ele>
        <time>2011-05-07T12:33:39Z</time>
      </trkpt>
      <trkpt lat="59.3790985601" lon="18.1553916203">
        <ele>22.6</ele>
        <time>2011-05-07T12:33:41Z</time>
      </trkpt>
      <trkpt lat="59.3790865739" lon="18.1553720066">
        <ele>22.4</ele>
        <time>2011-05-07T12:33:48Z</time>
      </trkpt>
      <trkpt lat="59.3791374521" lon="18.1553531474">
        <ele>22.4</ele>
        <time>2011-05-07T12:33:55Z</time>
      </trkpt>
      <trkpt lat="59.379228731" lon="18.1552679034">
        <ele>22.4</ele>
        <time>2011-05-07T12:34:03Z</time>
      </trkpt>
      <trkpt lat="59.379303749" lon="18.1552230603">
        <ele>22.4</ele>
        <time>2011-05-07T12:34:09Z</time>
      </trkpt>
      <trkpt lat="59.3793627575" lon="18.155183833">
        <ele>22.4</ele>
        <time>2011-05-07T12:34:14Z</time>
      </trkpt>
      <trkpt lat="59.3794619154" lon="18.1551587711">
        <ele>23.6</ele>
        <time>2011-05-07T12:34:22Z</time>
      </trkpt>
      <trkpt lat="59.3795381069" lon="18.1551545801">
        <ele>24.8</ele>
        <time>2011-05-07T12:34:28Z</time>
      </trkpt>
      <trkpt lat="59.379575574" lon="18.1551663148">
        <ele>25.4</ele>
        <time>2011-05-07T12:34:31Z</time>
      </trkpt>
      <trkpt lat="59.3796457305" lon="18.1551848388">
        <ele>26</ele>
        <time>2011-05-07T12:34:37Z</time>
      </trkpt>
      <trkpt lat="59.3797216705" lon="18.1551878563">
        <ele>26.6</ele>
        <time>2011-05-07T12:34:42Z</time>
      </trkpt>
      <trkpt lat="59.3797643344" lon="18.155197244">
        <ele>27.2</ele>
        <time>2011-05-07T12:34:45Z</time>
      </trkpt>
      <trkpt lat="59.3797858759" lon="18.1551977469">
        <ele>27.4</ele>
        <time>2011-05-07T12:34:47Z</time>
      </trkpt>
      <trkpt lat="59.3798285397" lon="18.1551986689">
        <ele>28</ele>
        <time>2011-05-07T12:34:51Z</time>
      </trkpt>
      <trkpt lat="59.3798997021" lon="18.1551484614">
        <ele>28.4</ele>
        <time>2011-05-07T12:34:58Z</time>
      </trkpt>
      <trkpt lat="59.3799118558" lon="18.1551394089">
        <ele>28.6</ele>
        <time>2011-05-07T12:34:59Z</time>
      </trkpt>
      <trkpt lat="59.3799561961" lon="18.1551015227">
        <ele>29.2</ele>
        <time>2011-05-07T12:35:03Z</time>
      </trkpt>
      <trkpt lat="59.38005812" lon="18.1550900395">
        <ele>30.2</ele>
        <time>2011-05-07T12:35:11Z</time>
      </trkpt>
      <trkpt lat="59.3800960062" lon="18.1550957392">
        <ele>30.4</ele>
        <time>2011-05-07T12:35:14Z</time>
      </trkpt>
      <trkpt lat="59.3801765562" lon="18.1550814062">
        <ele>30.6</ele>
        <time>2011-05-07T12:35:21Z</time>
      </trkpt>
      <trkpt lat="59.3802236625" lon="18.1550545841">
        <ele>30.6</ele>
        <time>2011-05-07T12:35:25Z</time>
      </trkpt>
      <trkpt lat="59.3802543402" lon="18.1550607867">
        <ele>30.8</ele>
        <time>2011-05-07T12:35:27Z</time>
      </trkpt>
      <trkpt lat="59.3803857684" lon="18.1550056338">
        <ele>30.8</ele>
        <time>2011-05-07T12:35:33Z</time>
      </trkpt>
      <trkpt lat="59.3805212199" lon="18.1549116727">
        <ele>30.8</ele>
        <time>2011-05-07T12:35:39Z</time>
      </trkpt>
      <trkpt lat="59.3806307714" lon="18.1547645703">
        <ele>31.6</ele>
        <time>2011-05-07T12:35:44Z</time>
      </trkpt>
      <trkpt lat="59.3807704138" lon="18.1545588785">
        <ele>32.2</ele>
        <time>2011-05-07T12:35:50Z</time>
      </trkpt>
      <trkpt lat="59.380881474" lon="18.1543506721">
        <ele>33</ele>
        <time>2011-05-07T12:35:55Z</time>
      </trkpt>
      <trkpt lat="59.3809720823" lon="18.1541326589">
        <ele>33.8</ele>
        <time>2011-05-07T12:36:00Z</time>
      </trkpt>
      <trkpt lat="59.3810737548" lon="18.1539413839">
        <ele>34.4</ele>
        <time>2011-05-07T12:36:05Z</time>
      </trkpt>
      <trkpt lat="59.3811834739" lon="18.1537885819">
        <ele>35</ele>
        <time>2011-05-07T12:36:10Z</time>
      </trkpt>
      <trkpt lat="59.3812625152" lon="18.1536297449">
        <ele>35.8</ele>
        <time>2011-05-07T12:36:14Z</time>
      </trkpt>
      <trkpt lat="59.3813661155" lon="18.1533923695">
        <ele>36.2</ele>
        <time>2011-05-07T12:36:19Z</time>
      </trkpt>
      <trkpt lat="59.381434847" lon="18.1531885217">
        <ele>36.6</ele>
        <time>2011-05-07T12:36:23Z</time>
      </trkpt>
      <trkpt lat="59.3814661953" lon="18.1530819039">
        <ele>36.6</ele>
        <time>2011-05-07T12:36:25Z</time>
      </trkpt>
      <trkpt lat="59.3815304007" lon="18.1527203926">
        <ele>37.8</ele>
        <time>2011-05-07T12:36:31Z</time>
      </trkpt>
      <trkpt lat="59.3815862242" lon="18.1524535967">
        <ele>38.4</ele>
        <time>2011-05-07T12:36:36Z</time>
      </trkpt>
      <trkpt lat="59.3816231883" lon="18.1522858749">
        <ele>38.6</ele>
        <time>2011-05-07T12:36:39Z</time>
      </trkpt>
      <trkpt lat="59.3816316541" lon="18.1522269501">
        <ele>39</ele>
        <time>2011-05-07T12:36:40Z</time>
      </trkpt>
      <trkpt lat="59.381640958" lon="18.1518790174">
        <ele>39.8</ele>
        <time>2011-05-07T12:36:45Z</time>
      </trkpt>
      <trkpt lat="59.3816342524" lon="18.15161482">
        <ele>40.4</ele>
        <time>2011-05-07T12:36:49Z</time>
      </trkpt>
      <trkpt lat="59.3816306482" lon="18.1512345332">
        <ele>41.4</ele>
        <time>2011-05-07T12:36:55Z</time>
      </trkpt>
      <trkpt lat="59.3816220149" lon="18.1510592676">
        <ele>42</ele>
        <time>2011-05-07T12:36:58Z</time>
      </trkpt>
      <trkpt lat="59.3816322408" lon="18.1508091517">
        <ele>42.4</ele>
        <time>2011-05-07T12:37:02Z</time>
      </trkpt>
      <trkpt lat="59.3816618289" lon="18.1504162083">
        <ele>43.6</ele>
        <time>2011-05-07T12:37:08Z</time>
      </trkpt>
      <trkpt lat="59.3816865555" lon="18.1502955927">
        <ele>44</ele>
        <time>2011-05-07T12:37:10Z</time>
      </trkpt>
      <trkpt lat="59.3818157206" lon="18.1499760747">
        <ele>44.8</ele>
        <time>2011-05-07T12:37:17Z</time>
      </trkpt>
      <trkpt lat="59.3818365077" lon="18.1499395296">
        <ele>44.8</ele>
        <time>2011-05-07T12:37:18Z</time>
      </trkpt>
      <trkpt lat="59.3819571232" lon="18.149727719">
        <ele>45</ele>
        <time>2011-05-07T12:37:23Z</time>
      </trkpt>
      <trkpt lat="59.3821323049" lon="18.1495155731">
        <ele>45.2</ele>
        <time>2011-05-07T12:37:29Z</time>
      </trkpt>
      <trkpt lat="59.3822619729" lon="18.1494667066">
        <ele>46</ele>
        <time>2011-05-07T12:37:33Z</time>
      </trkpt>
      <trkpt lat="59.3824167028" lon="18.1494870746">
        <ele>46.6</ele>
        <time>2011-05-07T12:37:38Z</time>
      </trkpt>
      <trkpt lat="59.3825738634" lon="18.1494630186">
        <ele>47</ele>
        <time>2011-05-07T12:37:43Z</time>
      </trkpt>
      <trkpt lat="59.3826715964" lon="18.149440136">
        <ele>47</ele>
        <time>2011-05-07T12:37:46Z</time>
      </trkpt>
      <trkpt lat="59.3827725983" lon="18.1492485258">
        <ele>47.2</ele>
        <time>2011-05-07T12:37:51Z</time>
      </trkpt>
      <trkpt lat="59.3827808964" lon="18.1492065325">
        <ele>47.2</ele>
        <time>2011-05-07T12:37:52Z</time>
      </trkpt>
      <trkpt lat="59.3828030246" lon="18.1490072947">
        <ele>47.4</ele>
        <time>2011-05-07T12:37:56Z</time>
      </trkpt>
      <trkpt lat="59.3828294276" lon="18.1487638843">
        <ele>47.4</ele>
        <time>2011-05-07T12:38:01Z</time>
      </trkpt>
      <trkpt lat="59.3828771206" lon="18.1484683385">
        <ele>47.4</ele>
        <time>2011-05-07T12:38:07Z</time>
      </trkpt>
      <trkpt lat="59.3828791322" lon="18.1484201426">
        <ele>47.4</ele>
        <time>2011-05-07T12:38:08Z</time>
      </trkpt>
      <trkpt lat="59.3828935491" lon="18.1481084197">
        <ele>47.4</ele>
        <time>2011-05-07T12:38:14Z</time>
      </trkpt>
      <trkpt lat="59.3829002546" lon="18.1480587989">
        <ele>47.4</ele>
        <time>2011-05-07T12:38:15Z</time>
      </trkpt>
      <trkpt lat="59.3829238078" lon="18.1477609062">
        <ele>47.4</ele>
        <time>2011-05-07T12:38:21Z</time>
      </trkpt>
      <trkpt lat="59.3829188624" lon="18.1475160709">
        <ele>47.4</ele>
        <time>2011-05-07T12:38:26Z</time>
      </trkpt>
      <trkpt lat="59.3829552399" lon="18.1472766">
        <ele>48.2</ele>
        <time>2011-05-07T12:38:31Z</time>
      </trkpt>
      <trkpt lat="59.3830089679" lon="18.1469986562">
        <ele>48.6</ele>
        <time>2011-05-07T12:38:36Z</time>
      </trkpt>
      <trkpt lat="59.3830600974" lon="18.1466550821">
        <ele>49</ele>
        <time>2011-05-07T12:38:42Z</time>
      </trkpt>
      <trkpt lat="59.3830293359" lon="18.1464281002">
        <ele>49.2</ele>
        <time>2011-05-07T12:38:46Z</time>
      </trkpt>
      <trkpt lat="59.3829387275" lon="18.1461157068">
        <ele>49.4</ele>
        <time>2011-05-07T12:38:52Z</time>
      </trkpt>
      <trkpt lat="59.3828996679" lon="18.1458082587">
        <ele>49.4</ele>
        <time>2011-05-07T12:38:57Z</time>
      </trkpt>
      <trkpt lat="59.382816268" lon="18.145472396">
        <ele>49.4</ele>
        <time>2011-05-07T12:39:03Z</time>
      </trkpt>
      <trkpt lat="59.3828006776" lon="18.1454267985">
        <ele>49.4</ele>
        <time>2011-05-07T12:39:04Z</time>
      </trkpt>
      <trkpt lat="59.3827877695" lon="18.1449912749">
        <ele>49.4</ele>
        <time>2011-05-07T12:39:11Z</time>
      </trkpt>
      <trkpt lat="59.3828254042" lon="18.1448806339">
        <ele>49.4</ele>
        <time>2011-05-07T12:39:13Z</time>
      </trkpt>
      <trkpt lat="59.3829740992" lon="18.1447173544">
        <ele>49.4</ele>
        <time>2011-05-07T12:39:18Z</time>
      </trkpt>
      <trkpt lat="59.3830036034" lon="18.1447040272">
        <ele>49.4</ele>
        <time>2011-05-07T12:39:19Z</time>
      </trkpt>
      <trkpt lat="59.3831065332" lon="18.144649042">
        <ele>49.4</ele>
        <time>2011-05-07T12:39:23Z</time>
      </trkpt>
      <trkpt lat="59.3832114746" lon="18.1446102338">
        <ele>49.4</ele>
        <time>2011-05-07T12:39:27Z</time>
      </trkpt>
      <trkpt lat="59.3832376261" lon="18.1446029415">
        <ele>49.4</ele>
        <time>2011-05-07T12:39:28Z</time>
      </trkpt>
      <trkpt lat="59.383321026" lon="18.1445992535">
        <ele>49.4</ele>
        <time>2011-05-07T12:39:33Z</time>
      </trkpt>
      <trkpt lat="59.3833886679" lon="18.1445959845">
        <ele>49.4</ele>
        <time>2011-05-07T12:39:36Z</time>
      </trkpt>
      <trkpt lat="59.3835860617" lon="18.1446306856">
        <ele>49.4</ele>
        <time>2011-05-07T12:39:42Z</time>
      </trkpt>
      <trkpt lat="59.3837033245" lon="18.1446286739">
        <ele>48.8</ele>
        <time>2011-05-07T12:39:46Z</time>
      </trkpt>
      <trkpt lat="59.3838522708" lon="18.1446117425">
        <ele>48.2</ele>
        <time>2011-05-07T12:39:51Z</time>
      </trkpt>
      <trkpt lat="59.3839826932" lon="18.1445580983">
        <ele>48</ele>
        <time>2011-05-07T12:39:55Z</time>
      </trkpt>
      <trkpt lat="59.3841699448" lon="18.1444334595">
        <ele>47.8</ele>
        <time>2011-05-07T12:40:01Z</time>
      </trkpt>
      <trkpt lat="59.3843257643" lon="18.1443024504">
        <ele>46.8</ele>
        <time>2011-05-07T12:40:06Z</time>
      </trkpt>
      <trkpt lat="59.3844928994" lon="18.1441557671">
        <ele>46.2</ele>
        <time>2011-05-07T12:40:11Z</time>
      </trkpt>
      <trkpt lat="59.384657017" lon="18.144015035">
        <ele>45.8</ele>
        <time>2011-05-07T12:40:16Z</time>
      </trkpt>
      <trkpt lat="59.3848099029" lon="18.1439026338">
        <ele>45</ele>
        <time>2011-05-07T12:40:21Z</time>
      </trkpt>
      <trkpt lat="59.3849901976" lon="18.143804817">
        <ele>44.2</ele>
        <time>2011-05-07T12:40:27Z</time>
      </trkpt>
      <trkpt lat="59.385135875" lon="18.1436953494">
        <ele>43.6</ele>
        <time>2011-05-07T12:40:32Z</time>
      </trkpt>
      <trkpt lat="59.3852821391" lon="18.1435764102">
        <ele>42.6</ele>
        <time>2011-05-07T12:40:37Z</time>
      </trkpt>
      <trkpt lat="59.3853641979" lon="18.143466775">
        <ele>42</ele>
        <time>2011-05-07T12:40:41Z</time>
      </trkpt>
      <trkpt lat="59.3854428202" lon="18.1432510249">
        <ele>41.2</ele>
        <time>2011-05-07T12:40:47Z</time>
      </trkpt>
      <trkpt lat="59.3855045948" lon="18.1430417288">
        <ele>40.2</ele>
        <time>2011-05-07T12:40:53Z</time>
      </trkpt>
      <trkpt lat="59.3855682972" lon="18.1427288325">
        <ele>39.6</ele>
        <time>2011-05-07T12:41:00Z</time>
      </trkpt>
      <trkpt lat="59.3855907607" lon="18.1424921276">
        <ele>39.2</ele>
        <time>2011-05-07T12:41:05Z</time>
      </trkpt>
      <trkpt lat="59.3856187562" lon="18.142207646">
        <ele>39.2</ele>
        <time>2011-05-07T12:41:10Z</time>
      </trkpt>
      <trkpt lat="59.3856282278" lon="18.142029782">
        <ele>39</ele>
        <time>2011-05-07T12:41:13Z</time>
      </trkpt>
      <trkpt lat="59.3856724004" lon="18.1416818494">
        <ele>39</ele>
        <time>2011-05-07T12:41:20Z</time>
      </trkpt>
      <trkpt lat="59.3856916788" lon="18.1413878961">
        <ele>39</ele>
        <time>2011-05-07T12:41:25Z</time>
      </trkpt>
      <trkpt lat="59.3857030782" lon="18.1410830464">
        <ele>39</ele>
        <time>2011-05-07T12:41:30Z</time>
      </trkpt>
      <trkpt lat="59.3857112924" lon="18.1410231997">
        <ele>39</ele>
        <time>2011-05-07T12:41:31Z</time>
      </trkpt>
      <trkpt lat="59.3857126335" lon="18.1407342756">
        <ele>39</ele>
        <time>2011-05-07T12:41:36Z</time>
      </trkpt>
      <trkpt lat="59.3857215183" lon="18.1406787874">
        <ele>39</ele>
        <time>2011-05-07T12:41:37Z</time>
      </trkpt>
      <trkpt lat="59.3857367734" lon="18.1405537294">
        <ele>39</ele>
        <time>2011-05-07T12:41:39Z</time>
      </trkpt>
      <trkpt lat="59.3857569738" lon="18.140414087">
        <ele>39</ele>
        <time>2011-05-07T12:41:41Z</time>
      </trkpt>
      <trkpt lat="59.3857858913" lon="18.1402956507">
        <ele>39</ele>
        <time>2011-05-07T12:41:43Z</time>
      </trkpt>
      <trkpt lat="59.3858569698" lon="18.1399698463">
        <ele>39</ele>
        <time>2011-05-07T12:41:49Z</time>
      </trkpt>
      <trkpt lat="59.385924025" lon="18.1396831853">
        <ele>39</ele>
        <time>2011-05-07T12:41:54Z</time>
      </trkpt>
      <trkpt lat="59.3859792618" lon="18.1394807624">
        <ele>39.2</ele>
        <time>2011-05-07T12:41:58Z</time>
      </trkpt>
      <trkpt lat="59.3859911641" lon="18.1394410322">
        <ele>39.4</ele>
        <time>2011-05-07T12:41:59Z</time>
      </trkpt>
      <trkpt lat="59.3860284635" lon="18.1391631722">
        <ele>40</ele>
        <time>2011-05-07T12:42:04Z</time>
      </trkpt>
      <trkpt lat="59.3860800122" lon="18.1388679617">
        <ele>40.6</ele>
        <time>2011-05-07T12:42:09Z</time>
      </trkpt>
      <trkpt lat="59.3860835326" lon="18.1387971347">
        <ele>41</ele>
        <time>2011-05-07T12:42:10Z</time>
      </trkpt>
      <trkpt lat="59.3861404457" lon="18.1384454301">
        <ele>41.8</ele>
        <time>2011-05-07T12:42:15Z</time>
      </trkpt>
      <trkpt lat="59.386185708" lon="18.1381377306">
        <ele>42.4</ele>
        <time>2011-05-07T12:42:20Z</time>
      </trkpt>
      <trkpt lat="59.3861858756" lon="18.1378745389">
        <ele>42.8</ele>
        <time>2011-05-07T12:42:24Z</time>
      </trkpt>
      <trkpt lat="59.3861547787" lon="18.1375524225">
        <ele>43.8</ele>
        <time>2011-05-07T12:42:29Z</time>
      </trkpt>
      <trkpt lat="59.3861334887" lon="18.1373133707">
        <ele>44.2</ele>
        <time>2011-05-07T12:42:33Z</time>
      </trkpt>
      <trkpt lat="59.3861123663" lon="18.1370207586">
        <ele>44.6</ele>
        <time>2011-05-07T12:42:38Z</time>
      </trkpt>
      <trkpt lat="59.3861023919" lon="18.1366918528">
        <ele>45</ele>
        <time>2011-05-07T12:42:44Z</time>
      </trkpt>
      <trkpt lat="59.3860862986" lon="18.1363577503">
        <ele>45.2</ele>
        <time>2011-05-07T12:42:50Z</time>
      </trkpt>
      <trkpt lat="59.3860823591" lon="18.1361055389">
        <ele>46</ele>
        <time>2011-05-07T12:42:55Z</time>
      </trkpt>
      <trkpt lat="59.3861033977" lon="18.1358608713">
        <ele>46.4</ele>
        <time>2011-05-07T12:42:59Z</time>
      </trkpt>
      <trkpt lat="59.3861117796" lon="18.1354959233">
        <ele>46.8</ele>
        <time>2011-05-07T12:43:05Z</time>
      </trkpt>
      <trkpt lat="59.3860943452" lon="18.1353703625">
        <ele>47.4</ele>
        <time>2011-05-07T12:43:07Z</time>
      </trkpt>
      <trkpt lat="59.3861415353" lon="18.135005666">
        <ele>48.4</ele>
        <time>2011-05-07T12:43:13Z</time>
      </trkpt>
      <trkpt lat="59.386239855" lon="18.1347839648">
        <ele>48.8</ele>
        <time>2011-05-07T12:43:18Z</time>
      </trkpt>
      <trkpt lat="59.386352843" lon="18.1344839766">
        <ele>49.8</ele>
        <time>2011-05-07T12:43:24Z</time>
      </trkpt>
      <trkpt lat="59.3864486482" lon="18.1342245568">
        <ele>50.4</ele>
        <time>2011-05-07T12:43:29Z</time>
      </trkpt>
      <trkpt lat="59.3864692676" lon="18.1339268317">
        <ele>51</ele>
        <time>2011-05-07T12:43:34Z</time>
      </trkpt>
      <trkpt lat="59.3864838521" lon="18.1337666536">
        <ele>51.2</ele>
        <time>2011-05-07T12:43:37Z</time>
      </trkpt>
      <trkpt lat="59.386463987" lon="18.1335609617">
        <ele>51.4</ele>
        <time>2011-05-07T12:43:41Z</time>
      </trkpt>
      <trkpt lat="59.386433896" lon="18.1332466405">
        <ele>52.4</ele>
        <time>2011-05-07T12:43:46Z</time>
      </trkpt>
      <trkpt lat="59.3864447925" lon="18.1329072573">
        <ele>52.8</ele>
        <time>2011-05-07T12:43:51Z</time>
      </trkpt>
      <trkpt lat="59.386474213" lon="18.1326273019">
        <ele>53.8</ele>
        <time>2011-05-07T12:43:56Z</time>
      </trkpt>
      <trkpt lat="59.3864736262" lon="18.1325801118">
        <ele>54</ele>
        <time>2011-05-07T12:43:57Z</time>
      </trkpt>
      <trkpt lat="59.3864468041" lon="18.1322802074">
        <ele>54.8</ele>
        <time>2011-05-07T12:44:02Z</time>
      </trkpt>
      <trkpt lat="59.386427442" lon="18.1322320115">
        <ele>54.8</ele>
        <time>2011-05-07T12:44:03Z</time>
      </trkpt>
      <trkpt lat="59.3863263562" lon="18.1320238889">
        <ele>55.2</ele>
        <time>2011-05-07T12:44:08Z</time>
      </trkpt>
      <trkpt lat="59.3862660904" lon="18.1319559117">
        <ele>55.2</ele>
        <time>2011-05-07T12:44:10Z</time>
      </trkpt>
      <trkpt lat="59.3861241848" lon="18.1316636348">
        <ele>55.4</ele>
        <time>2011-05-07T12:44:16Z</time>
      </trkpt>
      <trkpt lat="59.3860900705" lon="18.1314525786">
        <ele>55.6</ele>
        <time>2011-05-07T12:44:20Z</time>
      </trkpt>
      <trkpt lat="59.386064841" lon="18.1311588768">
        <ele>55.6</ele>
        <time>2011-05-07T12:44:25Z</time>
      </trkpt>
      <trkpt lat="59.3860598118" lon="18.1308459805">
        <ele>55.6</ele>
        <time>2011-05-07T12:44:30Z</time>
      </trkpt>
      <trkpt lat="59.3861484085" lon="18.1305533684">
        <ele>55.6</ele>
        <time>2011-05-07T12:44:36Z</time>
      </trkpt>
      <trkpt lat="59.3861535215" lon="18.1303091198">
        <ele>55.6</ele>
        <time>2011-05-07T12:44:41Z</time>
      </trkpt>
      <trkpt lat="59.3861419544" lon="18.1299953015">
        <ele>55.2</ele>
        <time>2011-05-07T12:44:46Z</time>
      </trkpt>
      <trkpt lat="59.3861360033" lon="18.1296778789">
        <ele>54.6</ele>
        <time>2011-05-07T12:44:51Z</time>
      </trkpt>
      <trkpt lat="59.3861631606" lon="18.1294125918">
        <ele>54.2</ele>
        <time>2011-05-07T12:44:55Z</time>
      </trkpt>
      <trkpt lat="59.3862247676" lon="18.1292084087">
        <ele>54</ele>
        <time>2011-05-07T12:44:59Z</time>
      </trkpt>
      <trkpt lat="59.3862764001" lon="18.1290427824">
        <ele>54</ele>
        <time>2011-05-07T12:45:03Z</time>
      </trkpt>
      <trkpt lat="59.3862826865" lon="18.1288446342">
        <ele>53.8</ele>
        <time>2011-05-07T12:45:07Z</time>
      </trkpt>
      <trkpt lat="59.3862085905" lon="18.1285448975">
        <ele>53.8</ele>
        <time>2011-05-07T12:45:13Z</time>
      </trkpt>
      <trkpt lat="59.3861678545" lon="18.128320514">
        <ele>53.4</ele>
        <time>2011-05-07T12:45:17Z</time>
      </trkpt>
      <trkpt lat="59.3861475703" lon="18.1279808794">
        <ele>52.6</ele>
        <time>2011-05-07T12:45:22Z</time>
      </trkpt>
      <trkpt lat="59.3861969397" lon="18.127735625">
        <ele>52.2</ele>
        <time>2011-05-07T12:45:26Z</time>
      </trkpt>
      <trkpt lat="59.3862246838" lon="18.1275591022">
        <ele>52</ele>
        <time>2011-05-07T12:45:29Z</time>
      </trkpt>
      <trkpt lat="59.3862624862" lon="18.127279985">
        <ele>51</ele>
        <time>2011-05-07T12:45:34Z</time>
      </trkpt>
      <trkpt lat="59.3862748076" lon="18.1272244968">
        <ele>50.8</ele>
        <time>2011-05-07T12:45:35Z</time>
      </trkpt>
      <trkpt lat="59.3863504961" lon="18.126850664">
        <ele>50.2</ele>
        <time>2011-05-07T12:45:41Z</time>
      </trkpt>
      <trkpt lat="59.3864295374" lon="18.1265768274">
        <ele>49.8</ele>
        <time>2011-05-07T12:45:46Z</time>
      </trkpt>
      <trkpt lat="59.386512183" lon="18.1263298128">
        <ele>49.6</ele>
        <time>2011-05-07T12:45:51Z</time>
      </trkpt>
      <trkpt lat="59.3866513225" lon="18.1260909286">
        <ele>49.6</ele>
        <time>2011-05-07T12:45:57Z</time>
      </trkpt>
      <trkpt lat="59.3867369017" lon="18.1258910203">
        <ele>49.6</ele>
        <time>2011-05-07T12:46:02Z</time>
      </trkpt>
      <trkpt lat="59.386805298" lon="18.1256675589">
        <ele>49.4</ele>
        <time>2011-05-07T12:46:07Z</time>
      </trkpt>
      <trkpt lat="59.3869185375" lon="18.1253633797">
        <ele>49.4</ele>
        <time>2011-05-07T12:46:13Z</time>
      </trkpt>
      <trkpt lat="59.3870073856" lon="18.1251470429">
        <ele>49.4</ele>
        <time>2011-05-07T12:46:18Z</time>
      </trkpt>
      <trkpt lat="59.3871340361" lon="18.1248697696">
        <ele>49</ele>
        <time>2011-05-07T12:46:24Z</time>
      </trkpt>
      <trkpt lat="59.3872294221" lon="18.1246248505">
        <ele>48.4</ele>
        <time>2011-05-07T12:46:29Z</time>
      </trkpt>
      <trkpt lat="59.3873253949" lon="18.1244080107">
        <ele>48</ele>
        <time>2011-05-07T12:46:34Z</time>
      </trkpt>
      <trkpt lat="59.3874072861" lon="18.124103161">
        <ele>47.6</ele>
        <time>2011-05-07T12:46:40Z</time>
      </trkpt>
      <trkpt lat="59.3874859921" lon="18.1238400532">
        <ele>47.6</ele>
        <time>2011-05-07T12:46:45Z</time>
      </trkpt>
      <trkpt lat="59.3875709846" lon="18.1235629476">
        <ele>46.4</ele>
        <time>2011-05-07T12:46:51Z</time>
      </trkpt>
      <trkpt lat="59.3876796978" lon="18.1233338703">
        <ele>46</ele>
        <time>2011-05-07T12:46:57Z</time>
      </trkpt>
      <trkpt lat="59.3878011515" lon="18.1232229777">
        <ele>45.6</ele>
        <time>2011-05-07T12:47:01Z</time>
      </trkpt>
      <trkpt lat="59.3879150616" lon="18.1231359736">
        <ele>44.8</ele>
        <time>2011-05-07T12:47:05Z</time>
      </trkpt>
      <trkpt lat="59.3879453202" lon="18.123113091">
        <ele>44.6</ele>
        <time>2011-05-07T12:47:06Z</time>
      </trkpt>
      <trkpt lat="59.3880658519" lon="18.1230488018">
        <ele>44.2</ele>
        <time>2011-05-07T12:47:10Z</time>
      </trkpt>
      <trkpt lat="59.3880939313" lon="18.1230449462">
        <ele>44</ele>
        <time>2011-05-07T12:47:11Z</time>
      </trkpt>
      <trkpt lat="59.3882519301" lon="18.1230257516">
        <ele>42.6</ele>
        <time>2011-05-07T12:47:18Z</time>
      </trkpt>
      <trkpt lat="59.3883111063" lon="18.1229819143">
        <ele>42</ele>
        <time>2011-05-07T12:47:21Z</time>
      </trkpt>
      <trkpt lat="59.388419149" lon="18.1228185511">
        <ele>40.6</ele>
        <time>2011-05-07T12:47:27Z</time>
      </trkpt>
      <trkpt lat="59.3885007049" lon="18.1226996119">
        <ele>39.4</ele>
        <time>2011-05-07T12:47:31Z</time>
      </trkpt>
      <trkpt lat="59.3885837695" lon="18.1225692733">
        <ele>38.6</ele>
        <time>2011-05-07T12:47:35Z</time>
      </trkpt>
      <trkpt lat="59.3885986893" lon="18.1225230053">
        <ele>38.4</ele>
        <time>2011-05-07T12:47:36Z</time>
      </trkpt>
      <trkpt lat="59.3886172971" lon="18.1224280383">
        <ele>38.2</ele>
        <time>2011-05-07T12:47:38Z</time>
      </trkpt>
      <trkpt lat="59.3887244178" lon="18.1220361007">
        <ele>37.6</ele>
        <time>2011-05-07T12:47:45Z</time>
      </trkpt>
      <trkpt lat="59.3887873659" lon="18.1218225299">
        <ele>36.6</ele>
        <time>2011-05-07T12:47:49Z</time>
      </trkpt>
      <trkpt lat="59.3888886193" lon="18.1215123158">
        <ele>35.8</ele>
        <time>2011-05-07T12:47:55Z</time>
      </trkpt>
      <trkpt lat="59.3889806525" lon="18.1212036104">
        <ele>35.4</ele>
        <time>2011-05-07T12:48:01Z</time>
      </trkpt>
      <trkpt lat="59.389053575" lon="18.1209436038">
        <ele>35.2</ele>
        <time>2011-05-07T12:48:06Z</time>
      </trkpt>
      <trkpt lat="59.3891021901" lon="18.1208210605">
        <ele>34.4</ele>
        <time>2011-05-07T12:48:09Z</time>
      </trkpt>
      <trkpt lat="59.3890980829" lon="18.1204432044">
        <ele>33.2</ele>
        <time>2011-05-07T12:48:16Z</time>
      </trkpt>
      <trkpt lat="59.389062376" lon="18.1201265362">
        <ele>31.8</ele>
        <time>2011-05-07T12:48:22Z</time>
      </trkpt>
      <trkpt lat="59.3890048762" lon="18.1198275539">
        <ele>30.2</ele>
        <time>2011-05-07T12:48:28Z</time>
      </trkpt>
      <trkpt lat="59.3889445265" lon="18.1195035096">
        <ele>28.2</ele>
        <time>2011-05-07T12:48:34Z</time>
      </trkpt>
      <trkpt lat="59.3889358093" lon="18.119194888">
        <ele>27.4</ele>
        <time>2011-05-07T12:48:39Z</time>
      </trkpt>
      <trkpt lat="59.3889686664" lon="18.118810075">
        <ele>26.8</ele>
        <time>2011-05-07T12:48:45Z</time>
      </trkpt>
      <trkpt lat="59.3890285132" lon="18.1184572808">
        <ele>25.8</ele>
        <time>2011-05-07T12:48:51Z</time>
      </trkpt>
      <trkpt lat="59.3891093985" lon="18.1181194065">
        <ele>25</ele>
        <time>2011-05-07T12:48:57Z</time>
      </trkpt>
      <trkpt lat="59.3891776272" lon="18.1177835437">
        <ele>24.2</ele>
        <time>2011-05-07T12:49:03Z</time>
      </trkpt>
      <trkpt lat="59.3891964026" lon="18.117464361">
        <ele>23.2</ele>
        <time>2011-05-07T12:49:08Z</time>
      </trkpt>
      <trkpt lat="59.3892186985" lon="18.117305524">
        <ele>22.8</ele>
        <time>2011-05-07T12:49:11Z</time>
      </trkpt>
      <trkpt lat="59.3892514717" lon="18.1171203678">
        <ele>22.2</ele>
        <time>2011-05-07T12:49:15Z</time>
      </trkpt>
      <trkpt lat="59.3892722588" lon="18.1168544101">
        <ele>21.2</ele>
        <time>2011-05-07T12:49:20Z</time>
      </trkpt>
      <trkpt lat="59.3892693252" lon="18.1166447788">
        <ele>20.8</ele>
        <time>2011-05-07T12:49:24Z</time>
      </trkpt>
      <trkpt lat="59.3892440956" lon="18.1163928189">
        <ele>20.2</ele>
        <time>2011-05-07T12:49:29Z</time>
      </trkpt>
      <trkpt lat="59.3892456882" lon="18.1161367518">
        <ele>19.2</ele>
        <time>2011-05-07T12:49:34Z</time>
      </trkpt>
      <trkpt lat="59.3892623682" lon="18.1158755718">
        <ele>18.6</ele>
        <time>2011-05-07T12:49:39Z</time>
      </trkpt>
      <trkpt lat="59.3893234722" lon="18.1155779306">
        <ele>18.2</ele>
        <time>2011-05-07T12:49:45Z</time>
      </trkpt>
      <trkpt lat="59.3893765297" lon="18.1153014117">
        <ele>18</ele>
        <time>2011-05-07T12:49:51Z</time>
      </trkpt>
      <trkpt lat="59.3894440039" lon="18.1151352824">
        <ele>18</ele>
        <time>2011-05-07T12:49:56Z</time>
      </trkpt>
      <trkpt lat="59.3895256437" lon="18.1149364637">
        <ele>17.8</ele>
        <time>2011-05-07T12:50:01Z</time>
      </trkpt>
      <trkpt lat="59.3896180122" lon="18.1147225577">
        <ele>17.8</ele>
        <time>2011-05-07T12:50:06Z</time>
      </trkpt>
      <trkpt lat="59.3896832234" lon="18.1143904668">
        <ele>17.8</ele>
        <time>2011-05-07T12:50:13Z</time>
      </trkpt>
      <trkpt lat="59.3896864085" lon="18.1143456236">
        <ele>17.8</ele>
        <time>2011-05-07T12:50:14Z</time>
      </trkpt>
      <trkpt lat="59.3897025856" lon="18.1141938274">
        <ele>17.8</ele>
        <time>2011-05-07T12:50:17Z</time>
      </trkpt>
      <trkpt lat="59.3897269769" lon="18.1138321484">
        <ele>17.8</ele>
        <time>2011-05-07T12:50:23Z</time>
      </trkpt>
      <trkpt lat="59.389738963" lon="18.1136275462">
        <ele>18.4</ele>
        <time>2011-05-07T12:50:28Z</time>
      </trkpt>
      <trkpt lat="59.3897500271" lon="18.1134582319">
        <ele>19</ele>
        <time>2011-05-07T12:50:33Z</time>
      </trkpt>
      <trkpt lat="59.3897349397" lon="18.1133565594">
        <ele>21.4</ele>
        <time>2011-05-07T12:51:06Z</time>
      </trkpt>
      <trkpt lat="59.3897529608" lon="18.1132597485">
        <ele>21.6</ele>
        <time>2011-05-07T12:51:10Z</time>
      </trkpt>
      <trkpt lat="59.3897705628" lon="18.1130922781">
        <ele>21.6</ele>
        <time>2011-05-07T12:51:16Z</time>
      </trkpt>
      <trkpt lat="59.389751452" lon="18.1130245524">
        <ele>21.8</ele>
        <time>2011-05-07T12:51:18Z</time>
      </trkpt>
      <trkpt lat="59.3897243785" lon="18.1128091375">
        <ele>21.8</ele>
        <time>2011-05-07T12:51:22Z</time>
      </trkpt>
      <trkpt lat="59.3897238756" lon="18.1127555772">
        <ele>21.8</ele>
        <time>2011-05-07T12:51:23Z</time>
      </trkpt>
      <trkpt lat="59.3897132306" lon="18.1127093929">
        <ele>21.6</ele>
        <time>2011-05-07T12:51:24Z</time>
      </trkpt>
      <trkpt lat="59.3896794515" lon="18.1125691637">
        <ele>21</ele>
        <time>2011-05-07T12:51:27Z</time>
      </trkpt>
      <trkpt lat="59.3896615143" lon="18.112477801">
        <ele>20.6</ele>
        <time>2011-05-07T12:51:29Z</time>
      </trkpt>
      <trkpt lat="59.3895566567" lon="18.1123971671">
        <ele>19.4</ele>
        <time>2011-05-07T12:51:33Z</time>
      </trkpt>
      <trkpt lat="59.3894341133" lon="18.1123239093">
        <ele>17.8</ele>
        <time>2011-05-07T12:51:38Z</time>
      </trkpt>
      <trkpt lat="59.3893759429" lon="18.1123037928">
        <ele>17.2</ele>
        <time>2011-05-07T12:51:40Z</time>
      </trkpt>
      <trkpt lat="59.3893080495" lon="18.1122813293">
        <ele>16.8</ele>
        <time>2011-05-07T12:51:42Z</time>
      </trkpt>
      <trkpt lat="59.3892297626" lon="18.1121217379">
        <ele>16</ele>
        <time>2011-05-07T12:51:46Z</time>
      </trkpt>
      <trkpt lat="59.3891444348" lon="18.1116819396">
        <ele>14.6</ele>
        <time>2011-05-07T12:51:53Z</time>
      </trkpt>
      <trkpt lat="59.3890964904" lon="18.1113405448">
        <ele>13.8</ele>
        <time>2011-05-07T12:51:59Z</time>
      </trkpt>
      <trkpt lat="59.389095736" lon="18.1112922651">
        <ele>13.6</ele>
        <time>2011-05-07T12:52:00Z</time>
      </trkpt>
      <trkpt lat="59.3891910382" lon="18.1109180133">
        <ele>13.2</ele>
        <time>2011-05-07T12:52:07Z</time>
      </trkpt>
      <trkpt lat="59.3892643798" lon="18.1105677336">
        <ele>13</ele>
        <time>2011-05-07T12:52:13Z</time>
      </trkpt>
      <trkpt lat="59.3892922077" lon="18.1103306097">
        <ele>13.4</ele>
        <time>2011-05-07T12:52:17Z</time>
      </trkpt>
      <trkpt lat="59.3893500428" lon="18.1099710262">
        <ele>14.2</ele>
        <time>2011-05-07T12:52:23Z</time>
      </trkpt>
      <trkpt lat="59.3894314311" lon="18.109728454">
        <ele>14.4</ele>
        <time>2011-05-07T12:52:28Z</time>
      </trkpt>
      <trkpt lat="59.3895727499" lon="18.1096595548">
        <ele>15.4</ele>
        <time>2011-05-07T12:52:33Z</time>
      </trkpt>
      <trkpt lat="59.3897080338" lon="18.1095852912">
        <ele>16</ele>
        <time>2011-05-07T12:52:38Z</time>
      </trkpt>
      <trkpt lat="59.3898942796" lon="18.1094731413">
        <ele>16.4</ele>
        <time>2011-05-07T12:52:45Z</time>
      </trkpt>
      <trkpt lat="59.3900127159" lon="18.1093554595">
        <ele>16.6</ele>
        <time>2011-05-07T12:52:50Z</time>
      </trkpt>
      <trkpt lat="59.3900241991" lon="18.109332996">
        <ele>16.6</ele>
        <time>2011-05-07T12:52:51Z</time>
      </trkpt>
      <trkpt lat="59.3900563856" lon="18.1091933535">
        <ele>16.8</ele>
        <time>2011-05-07T12:52:55Z</time>
      </trkpt>
      <trkpt lat="59.3900708024" lon="18.1091420563">
        <ele>16.8</ele>
        <time>2011-05-07T12:52:56Z</time>
      </trkpt>
      <trkpt lat="59.3901299786" lon="18.1088362846">
        <ele>16.4</ele>
        <time>2011-05-07T12:53:02Z</time>
      </trkpt>
      <trkpt lat="59.3901213453" lon="18.1085036908">
        <ele>15.6</ele>
        <time>2011-05-07T12:53:08Z</time>
      </trkpt>
      <trkpt lat="59.3900922601" lon="18.1081902077">
        <ele>15.2</ele>
        <time>2011-05-07T12:53:14Z</time>
      </trkpt>
      <trkpt lat="59.3900873986" lon="18.1081436882">
        <ele>15.2</ele>
        <time>2011-05-07T12:53:15Z</time>
      </trkpt>
      <trkpt lat="59.3900956129" lon="18.1077960908">
        <ele>14</ele>
        <time>2011-05-07T12:53:22Z</time>
      </trkpt>
      <trkpt lat="59.3901027375" lon="18.1075334858">
        <ele>13.6</ele>
        <time>2011-05-07T12:53:27Z</time>
      </trkpt>
      <trkpt lat="59.3901238599" lon="18.1072725573">
        <ele>13.2</ele>
        <time>2011-05-07T12:53:32Z</time>
      </trkpt>
      <trkpt lat="59.3901392826" lon="18.1069796937">
        <ele>13</ele>
        <time>2011-05-07T12:53:38Z</time>
      </trkpt>
      <trkpt lat="59.3901495085" lon="18.1067010794">
        <ele>13</ele>
        <time>2011-05-07T12:53:44Z</time>
      </trkpt>
      <trkpt lat="59.390171469" lon="18.1064669729">
        <ele>12.8</ele>
        <time>2011-05-07T12:53:49Z</time>
      </trkpt>
      <trkpt lat="59.3901778393" lon="18.1062077207">
        <ele>12.8</ele>
        <time>2011-05-07T12:53:55Z</time>
      </trkpt>
      <trkpt lat="59.3901278832" lon="18.1059795654">
        <ele>12.2</ele>
        <time>2011-05-07T12:54:00Z</time>
      </trkpt>
      <trkpt lat="59.390086728" lon="18.105756104">
        <ele>11.6</ele>
        <time>2011-05-07T12:54:05Z</time>
      </trkpt>
      <trkpt lat="59.3900200919" lon="18.1054645815">
        <ele>11.2</ele>
        <time>2011-05-07T12:54:11Z</time>
      </trkpt>
      <trkpt lat="59.3899799426" lon="18.1052769945">
        <ele>11</ele>
        <time>2011-05-07T12:54:15Z</time>
      </trkpt>
      <trkpt lat="59.3899319982" lon="18.1050487554">
        <ele>11</ele>
        <time>2011-05-07T12:54:20Z</time>
      </trkpt>
      <trkpt lat="59.3899465827" lon="18.1047587417">
        <ele>10.8</ele>
        <time>2011-05-07T12:54:26Z</time>
      </trkpt>
      <trkpt lat="59.3899592393" lon="18.1045931153">
        <ele>10.8</ele>
        <time>2011-05-07T12:54:29Z</time>
      </trkpt>
      <trkpt lat="59.3899119654" lon="18.1043722523">
        <ele>10.2</ele>
        <time>2011-05-07T12:54:34Z</time>
      </trkpt>
      <trkpt lat="59.3898114664" lon="18.1041202085">
        <ele>9.6</ele>
        <time>2011-05-07T12:54:40Z</time>
      </trkpt>
      <trkpt lat="59.3897961276" lon="18.104079221">
        <ele>9.4</ele>
        <time>2011-05-07T12:54:41Z</time>
      </trkpt>
      <trkpt lat="59.3897753405" lon="18.1038113355">
        <ele>9.2</ele>
        <time>2011-05-07T12:54:47Z</time>
      </trkpt>
      <trkpt lat="59.3897522064" lon="18.1036695138">
        <ele>9</ele>
        <time>2011-05-07T12:54:50Z</time>
      </trkpt>
      <trkpt lat="59.3896871629" lon="18.1035191425">
        <ele>9</ele>
        <time>2011-05-07T12:54:55Z</time>
      </trkpt>
      <trkpt lat="59.3896217002" lon="18.1033832719">
        <ele>8.8</ele>
        <time>2011-05-07T12:55:00Z</time>
      </trkpt>
      <trkpt lat="59.3895484424" lon="18.1032887241">
        <ele>8.8</ele>
        <time>2011-05-07T12:55:05Z</time>
      </trkpt>
      <trkpt lat="59.3894861649" lon="18.1031607324">
        <ele>8.8</ele>
        <time>2011-05-07T12:55:09Z</time>
      </trkpt>
      <trkpt lat="59.389426402" lon="18.1030491693">
        <ele>8.8</ele>
        <time>2011-05-07T12:55:13Z</time>
      </trkpt>
      <trkpt lat="59.3893655494" lon="18.1028890751">
        <ele>8.8</ele>
        <time>2011-05-07T12:55:18Z</time>
      </trkpt>
      <trkpt lat="59.3893309321" lon="18.1028223551">
        <ele>8.8</ele>
        <time>2011-05-07T12:55:20Z</time>
      </trkpt>
      <trkpt lat="59.3892375577" lon="18.102645497">
        <ele>8.8</ele>
        <time>2011-05-07T12:55:25Z</time>
      </trkpt>
      <trkpt lat="59.3891486258" lon="18.1025030047">
        <ele>8.8</ele>
        <time>2011-05-07T12:55:29Z</time>
      </trkpt>
      <trkpt lat="59.3890394935" lon="18.1022740951">
        <ele>8.8</ele>
        <time>2011-05-07T12:55:35Z</time>
      </trkpt>
      <trkpt lat="59.3889355579" lon="18.1020744382">
        <ele>9.4</ele>
        <time>2011-05-07T12:55:41Z</time>
      </trkpt>
      <trkpt lat="59.3888066443" lon="18.1018928024">
        <ele>10</ele>
        <time>2011-05-07T12:55:47Z</time>
      </trkpt>
      <trkpt lat="59.3887689257" lon="18.1018416728">
        <ele>10.2</ele>
        <time>2011-05-07T12:55:49Z</time>
      </trkpt>
      <trkpt lat="59.3886736235" lon="18.1016737834">
        <ele>11.2</ele>
        <time>2011-05-07T12:55:54Z</time>
      </trkpt>
      <trkpt lat="59.3885791595" lon="18.1015167066">
        <ele>12</ele>
        <time>2011-05-07T12:55:59Z</time>
      </trkpt>
      <trkpt lat="59.388555774" lon="18.1014976797">
        <ele>12</ele>
        <time>2011-05-07T12:56:00Z</time>
      </trkpt>
      <trkpt lat="59.3884502459" lon="18.1014400122">
        <ele>12.6</ele>
        <time>2011-05-07T12:56:04Z</time>
      </trkpt>
      <trkpt lat="59.3884232562" lon="18.1014348992">
        <ele>12.8</ele>
        <time>2011-05-07T12:56:05Z</time>
      </trkpt>
      <trkpt lat="59.3883067478" lon="18.1014644035">
        <ele>13.8</ele>
        <time>2011-05-07T12:56:10Z</time>
      </trkpt>
      <trkpt lat="59.3881801811" lon="18.1015478034">
        <ele>14.6</ele>
        <time>2011-05-07T12:56:15Z</time>
      </trkpt>
      <trkpt lat="59.38805286" lon="18.1015042175">
        <ele>15.6</ele>
        <time>2011-05-07T12:56:20Z</time>
      </trkpt>
      <trkpt lat="59.3879601562" lon="18.1014203147">
        <ele>16.2</ele>
        <time>2011-05-07T12:56:25Z</time>
      </trkpt>
      <trkpt lat="59.3879052547" lon="18.1013501582">
        <ele>16.6</ele>
        <time>2011-05-07T12:56:28Z</time>
      </trkpt>
      <trkpt lat="59.387790758" lon="18.1012910658">
        <ele>16.8</ele>
        <time>2011-05-07T12:56:33Z</time>
      </trkpt>
      <trkpt lat="59.3877710605" lon="18.1012938319">
        <ele>16.8</ele>
        <time>2011-05-07T12:56:34Z</time>
      </trkpt>
      <trkpt lat="59.3876597489" lon="18.1013560255">
        <ele>17</ele>
        <time>2011-05-07T12:56:40Z</time>
      </trkpt>
      <trkpt lat="59.3875556457" lon="18.101389637">
        <ele>17</ele>
        <time>2011-05-07T12:56:44Z</time>
      </trkpt>
      <trkpt lat="59.3874581642" lon="18.1014117652">
        <ele>17</ele>
        <time>2011-05-07T12:56:47Z</time>
      </trkpt>
      <trkpt lat="59.3873256464" lon="18.1013707777">
        <ele>17</ele>
        <time>2011-05-07T12:56:51Z</time>
      </trkpt>
      <trkpt lat="59.387216514" lon="18.1012608072">
        <ele>16.6</ele>
        <time>2011-05-07T12:56:55Z</time>
      </trkpt>
      <trkpt lat="59.3870492951" lon="18.1010587196">
        <ele>15.2</ele>
        <time>2011-05-07T12:57:01Z</time>
      </trkpt>
      <trkpt lat="59.3869294339" lon="18.1008400358">
        <ele>14</ele>
        <time>2011-05-07T12:57:06Z</time>
      </trkpt>
      <trkpt lat="59.3868259175" lon="18.1006302368">
        <ele>12.4</ele>
        <time>2011-05-07T12:57:11Z</time>
      </trkpt>
      <trkpt lat="59.3867298609" lon="18.1004228686">
        <ele>10.8</ele>
        <time>2011-05-07T12:57:16Z</time>
      </trkpt>
      <trkpt lat="59.386611257" lon="18.1000954716">
        <ele>8.8</ele>
        <time>2011-05-07T12:57:23Z</time>
      </trkpt>
      <trkpt lat="59.3865356523" lon="18.0998410809">
        <ele>7.6</ele>
        <time>2011-05-07T12:57:28Z</time>
      </trkpt>
      <trkpt lat="59.3864605505" lon="18.0996415917">
        <ele>6.2</ele>
        <time>2011-05-07T12:57:33Z</time>
      </trkpt>
      <trkpt lat="59.3863609735" lon="18.0995055535">
        <ele>5.4</ele>
        <time>2011-05-07T12:57:38Z</time>
      </trkpt>
      <trkpt lat="59.3862284556" lon="18.0993236663">
        <ele>4.2</ele>
        <time>2011-05-07T12:57:44Z</time>
      </trkpt>
      <trkpt lat="59.3861465645" lon="18.0990607261">
        <ele>3.2</ele>
        <time>2011-05-07T12:57:50Z</time>
      </trkpt>
      <trkpt lat="59.3860880588" lon="18.0988707084">
        <ele>2.8</ele>
        <time>2011-05-07T12:57:55Z</time>
      </trkpt>
      <trkpt lat="59.3860225962" lon="18.0987273779">
        <ele>2.6</ele>
        <time>2011-05-07T12:57:58Z</time>
      </trkpt>
      <trkpt lat="59.3859198341" lon="18.0985176628">
        <ele>2.4</ele>
        <time>2011-05-07T12:58:03Z</time>
      </trkpt>
      <trkpt lat="59.3858703809" lon="18.0983706442">
        <ele>2.4</ele>
        <time>2011-05-07T12:58:07Z</time>
      </trkpt>
      <trkpt lat="59.385775833" lon="18.0981228753">
        <ele>2.4</ele>
        <time>2011-05-07T12:58:13Z</time>
      </trkpt>
      <trkpt lat="59.3857232785" lon="18.0979471068">
        <ele>2.2</ele>
        <time>2011-05-07T12:58:17Z</time>
      </trkpt>
      <trkpt lat="59.3857158186" lon="18.0978399023">
        <ele>2.2</ele>
        <time>2011-05-07T12:58:19Z</time>
      </trkpt>
      <trkpt lat="59.3857103704" lon="18.0975534928">
        <ele>3</ele>
        <time>2011-05-07T12:58:24Z</time>
      </trkpt>
      <trkpt lat="59.3856908406" lon="18.0972573603">
        <ele>3.6</ele>
        <time>2011-05-07T12:58:30Z</time>
      </trkpt>
      <trkpt lat="59.3856559719" lon="18.0970763112">
        <ele>4.6</ele>
        <time>2011-05-07T12:58:35Z</time>
      </trkpt>
      <trkpt lat="59.3855909283" lon="18.0970419454">
        <ele>6</ele>
        <time>2011-05-07T12:58:41Z</time>
      </trkpt>
      <trkpt lat="59.3855153236" lon="18.0971005349">
        <ele>7.6</ele>
        <time>2011-05-07T12:58:47Z</time>
      </trkpt>
      <trkpt lat="59.3854450833" lon="18.0971788219">
        <ele>9.8</ele>
        <time>2011-05-07T12:58:54Z</time>
      </trkpt>
      <trkpt lat="59.3853519604" lon="18.0972856911">
        <ele>12.2</ele>
        <time>2011-05-07T12:59:02Z</time>
      </trkpt>
      <trkpt lat="59.3852517128" lon="18.0974141018">
        <ele>14.8</ele>
        <time>2011-05-07T12:59:11Z</time>
      </trkpt>
      <trkpt lat="59.3851979849" lon="18.0975060512">
        <ele>16.8</ele>
        <time>2011-05-07T12:59:17Z</time>
      </trkpt>
      <trkpt lat="59.3851401498" lon="18.0976127528">
        <ele>18.2</ele>
        <time>2011-05-07T12:59:23Z</time>
      </trkpt>
      <trkpt lat="59.3851353721" lon="18.0976269182">
        <ele>18.4</ele>
        <time>2011-05-07T12:59:24Z</time>
      </trkpt>
      <trkpt lat="59.3850926244" lon="18.0976987511">
        <ele>19.2</ele>
        <time>2011-05-07T12:59:28Z</time>
      </trkpt>
      <trkpt lat="59.3850193666" lon="18.0976995893">
        <ele>20</ele>
        <time>2011-05-07T12:59:34Z</time>
      </trkpt>
      <trkpt lat="59.3849568376" lon="18.0976701688">
        <ele>20.8</ele>
        <time>2011-05-07T12:59:39Z</time>
      </trkpt>
      <trkpt lat="59.3849116592" lon="18.0976528183">
        <ele>21.4</ele>
        <time>2011-05-07T12:59:42Z</time>
      </trkpt>
      <trkpt lat="59.3848432629" lon="18.0976301872">
        <ele>22</ele>
        <time>2011-05-07T12:59:47Z</time>
      </trkpt>
      <trkpt lat="59.3847576837" lon="18.0975858469">
        <ele>22.4</ele>
        <time>2011-05-07T12:59:53Z</time>
      </trkpt>
      <trkpt lat="59.3847437697" lon="18.0975678258">
        <ele>22.6</ele>
        <time>2011-05-07T12:59:54Z</time>
      </trkpt>
      <trkpt lat="59.3846669077" lon="18.0973901296">
        <ele>22.8</ele>
        <time>2011-05-07T13:00:01Z</time>
      </trkpt>
      <trkpt lat="59.3845492258" lon="18.0972685082">
        <ele>22.8</ele>
        <time>2011-05-07T13:00:07Z</time>
      </trkpt>
      <trkpt lat="59.3844333879" lon="18.097192652">
        <ele>23</ele>
        <time>2011-05-07T13:00:12Z</time>
      </trkpt>
      <trkpt lat="59.3843100902" lon="18.0970748025">
        <ele>23</ele>
        <time>2011-05-07T13:00:17Z</time>
      </trkpt>
      <trkpt lat="59.3842931588" lon="18.0970489024">
        <ele>23</ele>
        <time>2011-05-07T13:00:18Z</time>
      </trkpt>
      <trkpt lat="59.3841292926" lon="18.0969504989">
        <ele>23</ele>
        <time>2011-05-07T13:00:24Z</time>
      </trkpt>
      <trkpt lat="59.3840246865" lon="18.0969841941">
        <ele>23</ele>
        <time>2011-05-07T13:00:28Z</time>
      </trkpt>
      <trkpt lat="59.3839629119" lon="18.0970697733">
        <ele>23.6</ele>
        <time>2011-05-07T13:00:32Z</time>
      </trkpt>
      <trkpt lat="59.3839167276" lon="18.0971239204">
        <ele>24</ele>
        <time>2011-05-07T13:00:34Z</time>
      </trkpt>
      <trkpt lat="59.3838390274" lon="18.0971745471">
        <ele>24.4</ele>
        <time>2011-05-07T13:00:39Z</time>
      </trkpt>
      <trkpt lat="59.3838207549" lon="18.0971902212">
        <ele>24.4</ele>
        <time>2011-05-07T13:00:40Z</time>
      </trkpt>
      <trkpt lat="59.3837961121" lon="18.097212098">
        <ele>24.4</ele>
        <time>2011-05-07T13:00:41Z</time>
      </trkpt>
      <trkpt lat="59.3837446472" lon="18.0973400058">
        <ele>25.2</ele>
        <time>2011-05-07T13:00:46Z</time>
      </trkpt>
      <trkpt lat="59.3837203397" lon="18.0974139342">
        <ele>25.6</ele>
        <time>2011-05-07T13:00:48Z</time>
      </trkpt>
      <trkpt lat="59.3836955293" lon="18.097476044">
        <ele>25.8</ele>
        <time>2011-05-07T13:00:50Z</time>
      </trkpt>
      <trkpt lat="59.3836335032" lon="18.0976638824">
        <ele>26.4</ele>
        <time>2011-05-07T13:00:55Z</time>
      </trkpt>
      <trkpt lat="59.3835887439" lon="18.0978028543">
        <ele>27.2</ele>
        <time>2011-05-07T13:00:59Z</time>
      </trkpt>
      <trkpt lat="59.383518755" lon="18.0979826461">
        <ele>28</ele>
        <time>2011-05-07T13:01:04Z</time>
      </trkpt>
      <trkpt lat="59.3834879934" lon="18.0980957179">
        <ele>28.2</ele>
        <time>2011-05-07T13:01:07Z</time>
      </trkpt>
      <trkpt lat="59.3833962116" lon="18.098385564">
        <ele>29</ele>
        <time>2011-05-07T13:01:13Z</time>
      </trkpt>
      <trkpt lat="59.3833325092" lon="18.0985813652">
        <ele>29.8</ele>
        <time>2011-05-07T13:01:17Z</time>
      </trkpt>
      <trkpt lat="59.3832610116" lon="18.0988372646">
        <ele>30.4</ele>
        <time>2011-05-07T13:01:22Z</time>
      </trkpt>
      <trkpt lat="59.3831917771" lon="18.0990802559">
        <ele>31.4</ele>
        <time>2011-05-07T13:01:27Z</time>
      </trkpt>
      <trkpt lat="59.3831205309" lon="18.0992463013">
        <ele>32</ele>
        <time>2011-05-07T13:01:31Z</time>
      </trkpt>
      <trkpt lat="59.3831059464" lon="18.0992740454">
        <ele>32.2</ele>
        <time>2011-05-07T13:01:32Z</time>
      </trkpt>
      <trkpt lat="59.3830360414" lon="18.099455765">
        <ele>33.4</ele>
        <time>2011-05-07T13:01:37Z</time>
      </trkpt>
      <trkpt lat="59.3830226304" lon="18.0994887897">
        <ele>33.6</ele>
        <time>2011-05-07T13:01:38Z</time>
      </trkpt>
      <trkpt lat="59.3829999992" lon="18.0995435235">
        <ele>33.8</ele>
        <time>2011-05-07T13:01:40Z</time>
      </trkpt>
      <trkpt lat="59.3829543179" lon="18.0996610377">
        <ele>34.2</ele>
        <time>2011-05-07T13:01:43Z</time>
      </trkpt>
      <trkpt lat="59.382894974" lon="18.099817444">
        <ele>35.2</ele>
        <time>2011-05-07T13:01:47Z</time>
      </trkpt>
      <trkpt lat="59.3828101492" lon="18.09998416">
        <ele>36.2</ele>
        <time>2011-05-07T13:01:53Z</time>
      </trkpt>
      <trkpt lat="59.3827278389" lon="18.1001051108">
        <ele>36.6</ele>
        <time>2011-05-07T13:01:57Z</time>
      </trkpt>
      <trkpt lat="59.382605547" lon="18.1002276542">
        <ele>38</ele>
        <time>2011-05-07T13:02:03Z</time>
      </trkpt>
      <trkpt lat="59.3825835026" lon="18.1002559012">
        <ele>38.2</ele>
        <time>2011-05-07T13:02:04Z</time>
      </trkpt>
      <trkpt lat="59.382477723" lon="18.1003993993">
        <ele>39.4</ele>
        <time>2011-05-07T13:02:09Z</time>
      </trkpt>
      <trkpt lat="59.3824519068" lon="18.1004168337">
        <ele>39.6</ele>
        <time>2011-05-07T13:02:10Z</time>
      </trkpt>
      <trkpt lat="59.3823229932" lon="18.1004638561">
        <ele>40.4</ele>
        <time>2011-05-07T13:02:15Z</time>
      </trkpt>
      <trkpt lat="59.3822875377" lon="18.1005028319">
        <ele>41.6</ele>
        <time>2011-05-07T13:02:21Z</time>
      </trkpt>
      <trkpt lat="59.3822639846" lon="18.1005186737">
        <ele>43.4</ele>
        <time>2011-05-07T13:02:30Z</time>
      </trkpt>
      <trkpt lat="59.3821787407" lon="18.1005450767">
        <ele>44.4</ele>
        <time>2011-05-07T13:02:35Z</time>
      </trkpt>
      <trkpt lat="59.3821544332" lon="18.1006064322">
        <ele>44.6</ele>
        <time>2011-05-07T13:02:37Z</time>
      </trkpt>
      <trkpt lat="59.3821055667" lon="18.1007778421">
        <ele>45</ele>
        <time>2011-05-07T13:02:41Z</time>
      </trkpt>
      <trkpt lat="59.3820810915" lon="18.1008635889">
        <ele>45.2</ele>
        <time>2011-05-07T13:02:43Z</time>
      </trkpt>
      <trkpt lat="59.3819875495" lon="18.1011130343">
        <ele>45.6</ele>
        <time>2011-05-07T13:02:49Z</time>
      </trkpt>
      <trkpt lat="59.3819114419" lon="18.1012253517">
        <ele>45.6</ele>
        <time>2011-05-07T13:02:53Z</time>
      </trkpt>
      <trkpt lat="59.3818428779" lon="18.1013627311">
        <ele>45.8</ele>
        <time>2011-05-07T13:02:57Z</time>
      </trkpt>
      <trkpt lat="59.3818023934" lon="18.1016175408">
        <ele>45.8</ele>
        <time>2011-05-07T13:03:03Z</time>
      </trkpt>
      <trkpt lat="59.3817651777" lon="18.1018548324">
        <ele>45.8</ele>
        <time>2011-05-07T13:03:08Z</time>
      </trkpt>
      <trkpt lat="59.381733075" lon="18.1020906153">
        <ele>45.8</ele>
        <time>2011-05-07T13:03:13Z</time>
      </trkpt>
      <trkpt lat="59.3817016429" lon="18.1023182677">
        <ele>45.8</ele>
        <time>2011-05-07T13:03:18Z</time>
      </trkpt>
      <trkpt lat="59.3816577218" lon="18.1025262226">
        <ele>45.8</ele>
        <time>2011-05-07T13:03:23Z</time>
      </trkpt>
      <trkpt lat="59.3816087715" lon="18.102725628">
        <ele>45.2</ele>
        <time>2011-05-07T13:03:27Z</time>
      </trkpt>
      <trkpt lat="59.3815469969" lon="18.1029300626">
        <ele>44.2</ele>
        <time>2011-05-07T13:03:32Z</time>
      </trkpt>
      <trkpt lat="59.3814394571" lon="18.1030795118">
        <ele>43.4</ele>
        <time>2011-05-07T13:03:36Z</time>
      </trkpt>
      <trkpt lat="59.3812672929" lon="18.1032455573">
        <ele>41.8</ele>
        <time>2011-05-07T13:03:41Z</time>
      </trkpt>
      <trkpt lat="59.3811673806" lon="18.1033208267">
        <ele>41.2</ele>
        <time>2011-05-07T13:03:44Z</time>
      </trkpt>
      <trkpt lat="59.3810293307" lon="18.1033836072">
        <ele>40.4</ele>
        <time>2011-05-07T13:03:49Z</time>
      </trkpt>
      <trkpt lat="59.3808714157" lon="18.103438341">
        <ele>39.8</ele>
        <time>2011-05-07T13:03:54Z</time>
      </trkpt>
      <trkpt lat="59.3806957311" lon="18.1035210703">
        <ele>38.8</ele>
        <time>2011-05-07T13:04:00Z</time>
      </trkpt>
      <trkpt lat="59.3805399954" lon="18.103587455">
        <ele>38.2</ele>
        <time>2011-05-07T13:04:05Z</time>
      </trkpt>
      <trkpt lat="59.3803897079" lon="18.1036609642">
        <ele>38</ele>
        <time>2011-05-07T13:04:10Z</time>
      </trkpt>
      <trkpt lat="59.3802716908" lon="18.1037066456">
        <ele>37</ele>
        <time>2011-05-07T13:04:15Z</time>
      </trkpt>
      <trkpt lat="59.3802304518" lon="18.1037280194">
        <ele>36.8</ele>
        <time>2011-05-07T13:04:17Z</time>
      </trkpt>
      <trkpt lat="59.3801680905" lon="18.1037588648">
        <ele>36.2</ele>
        <time>2011-05-07T13:04:21Z</time>
      </trkpt>
      <trkpt lat="59.3800768954" lon="18.103824998">
        <ele>36</ele>
        <time>2011-05-07T13:04:26Z</time>
      </trkpt>
      <trkpt lat="59.3799689365" lon="18.1039782191">
        <ele>35.8</ele>
        <time>2011-05-07T13:04:31Z</time>
      </trkpt>
      <trkpt lat="59.3799512507" lon="18.1039936418">
        <ele>35.6</ele>
        <time>2011-05-07T13:04:32Z</time>
      </trkpt>
      <trkpt lat="59.3799142027" lon="18.1040271694">
        <ele>35.6</ele>
        <time>2011-05-07T13:04:34Z</time>
      </trkpt>
      <trkpt lat="59.3798157154" lon="18.1041918738">
        <ele>35.6</ele>
        <time>2011-05-07T13:04:40Z</time>
      </trkpt>
      <trkpt lat="59.3797349139" lon="18.1043256489">
        <ele>35.4</ele>
        <time>2011-05-07T13:04:45Z</time>
      </trkpt>
      <trkpt lat="59.3796989555" lon="18.1043944643">
        <ele>35.4</ele>
        <time>2011-05-07T13:04:47Z</time>
      </trkpt>
      <trkpt lat="59.3795935951" lon="18.1045567379">
        <ele>34.8</ele>
        <time>2011-05-07T13:04:53Z</time>
      </trkpt>
      <trkpt lat="59.3794333331" lon="18.1047716498">
        <ele>34.2</ele>
        <time>2011-05-07T13:04:59Z</time>
      </trkpt>
      <trkpt lat="59.3794105344" lon="18.1047894194">
        <ele>34.2</ele>
        <time>2011-05-07T13:05:00Z</time>
      </trkpt>
      <trkpt lat="59.3792796091" lon="18.1049314926">
        <ele>33.8</ele>
        <time>2011-05-07T13:05:05Z</time>
      </trkpt>
      <trkpt lat="59.3792382863" lon="18.1049955303">
        <ele>33.8</ele>
        <time>2011-05-07T13:05:07Z</time>
      </trkpt>
      <trkpt lat="59.3791523719" lon="18.105090162">
        <ele>33.6</ele>
        <time>2011-05-07T13:05:10Z</time>
      </trkpt>
      <trkpt lat="59.3790330136" lon="18.1051789263">
        <ele>34</ele>
        <time>2011-05-07T13:05:14Z</time>
      </trkpt>
      <trkpt lat="59.3789930319" lon="18.105200384">
        <ele>34.2</ele>
        <time>2011-05-07T13:05:15Z</time>
      </trkpt>
      <trkpt lat="59.3788616876" lon="18.1053289623">
        <ele>34.6</ele>
        <time>2011-05-07T13:05:19Z</time>
      </trkpt>
      <trkpt lat="59.3787625297" lon="18.1054507513">
        <ele>34.8</ele>
        <time>2011-05-07T13:05:23Z</time>
      </trkpt>
      <trkpt lat="59.3786559119" lon="18.1055495739">
        <ele>35.4</ele>
        <time>2011-05-07T13:05:27Z</time>
      </trkpt>
      <trkpt lat="59.3785495456" lon="18.1056880429">
        <ele>36.2</ele>
        <time>2011-05-07T13:05:31Z</time>
      </trkpt>
      <trkpt lat="59.3784452748" lon="18.1059467084">
        <ele>36.8</ele>
        <time>2011-05-07T13:05:37Z</time>
      </trkpt>
      <trkpt lat="59.3784165248" lon="18.1059840916">
        <ele>36.8</ele>
        <time>2011-05-07T13:05:38Z</time>
      </trkpt>
      <trkpt lat="59.3782961608" lon="18.1061834132">
        <ele>37</ele>
        <time>2011-05-07T13:05:43Z</time>
      </trkpt>
      <trkpt lat="59.3782241602" lon="18.1063844112">
        <ele>37.2</ele>
        <time>2011-05-07T13:05:47Z</time>
      </trkpt>
      <trkpt lat="59.3781296124" lon="18.1065857444">
        <ele>37.4</ele>
        <time>2011-05-07T13:05:52Z</time>
      </trkpt>
      <trkpt lat="59.378057109" lon="18.1067983094">
        <ele>37.4</ele>
        <time>2011-05-07T13:05:56Z</time>
      </trkpt>
      <trkpt lat="59.3780255092" lon="18.1071737347">
        <ele>37.4</ele>
        <time>2011-05-07T13:06:02Z</time>
      </trkpt>
      <trkpt lat="59.378018217" lon="18.1073970285">
        <ele>37.4</ele>
        <time>2011-05-07T13:06:06Z</time>
      </trkpt>
      <trkpt lat="59.3780014532" lon="18.1077106792">
        <ele>37.4</ele>
        <time>2011-05-07T13:06:11Z</time>
      </trkpt>
      <trkpt lat="59.3779874554" lon="18.1077768962">
        <ele>37.4</ele>
        <time>2011-05-07T13:06:12Z</time>
      </trkpt>
      <trkpt lat="59.377952" lon="18.1079986813">
        <ele>37.4</ele>
        <time>2011-05-07T13:06:16Z</time>
      </trkpt>
      <trkpt lat="59.3778772334" lon="18.1082013556">
        <ele>37.4</ele>
        <time>2011-05-07T13:06:20Z</time>
      </trkpt>
      <trkpt lat="59.3778046461" lon="18.1083902837">
        <ele>37.4</ele>
        <time>2011-05-07T13:06:25Z</time>
      </trkpt>
      <trkpt lat="59.3777448832" lon="18.1085237235">
        <ele>37.4</ele>
        <time>2011-05-07T13:06:28Z</time>
      </trkpt>
      <trkpt lat="59.3776610642" lon="18.1087746776">
        <ele>37.4</ele>
        <time>2011-05-07T13:06:33Z</time>
      </trkpt>
      <trkpt lat="59.377605576" lon="18.1089695568">
        <ele>37.4</ele>
        <time>2011-05-07T13:06:37Z</time>
      </trkpt>
      <trkpt lat="59.3775466513" lon="18.1091354346">
        <ele>36.6</ele>
        <time>2011-05-07T13:06:42Z</time>
      </trkpt>
      <trkpt lat="59.3775027301" lon="18.1093290565">
        <ele>36.2</ele>
        <time>2011-05-07T13:06:47Z</time>
      </trkpt>
      <trkpt lat="59.3774530254" lon="18.109518236">
        <ele>35.8</ele>
        <time>2011-05-07T13:06:52Z</time>
      </trkpt>
      <trkpt lat="59.3773980402" lon="18.109648826">
        <ele>35.8</ele>
        <time>2011-05-07T13:06:56Z</time>
      </trkpt>
      <trkpt lat="59.3773022351" lon="18.1098810884">
        <ele>35.6</ele>
        <time>2011-05-07T13:07:01Z</time>
      </trkpt>
      <trkpt lat="59.3772439809" lon="18.1101108363">
        <ele>35.6</ele>
        <time>2011-05-07T13:07:05Z</time>
      </trkpt>
      <trkpt lat="59.3771832121" lon="18.1103296039">
        <ele>35.6</ele>
        <time>2011-05-07T13:07:09Z</time>
      </trkpt>
      <trkpt lat="59.3771425599" lon="18.1105417498">
        <ele>35.4</ele>
        <time>2011-05-07T13:07:13Z</time>
      </trkpt>
      <trkpt lat="59.3771459126" lon="18.1105849165">
        <ele>35.4</ele>
        <time>2011-05-07T13:07:14Z</time>
      </trkpt>
      <trkpt lat="59.3771511094" lon="18.1108562386">
        <ele>35.4</ele>
        <time>2011-05-07T13:07:19Z</time>
      </trkpt>
      <trkpt lat="59.37715178" lon="18.1111384572">
        <ele>35.4</ele>
        <time>2011-05-07T13:07:24Z</time>
      </trkpt>
      <trkpt lat="59.3771614191" lon="18.1114123777">
        <ele>35.4</ele>
        <time>2011-05-07T13:07:29Z</time>
      </trkpt>
      <trkpt lat="59.377140632" lon="18.1116950154">
        <ele>35.4</ele>
        <time>2011-05-07T13:07:34Z</time>
      </trkpt>
      <trkpt lat="59.3771668674" lon="18.1119489031">
        <ele>35.4</ele>
        <time>2011-05-07T13:07:38Z</time>
      </trkpt>
      <trkpt lat="59.377217997" lon="18.1121928164">
        <ele>35.4</ele>
        <time>2011-05-07T13:07:42Z</time>
      </trkpt>
      <trkpt lat="59.3772117944" lon="18.1122610451">
        <ele>35.4</ele>
        <time>2011-05-07T13:07:43Z</time>
      </trkpt>
      <trkpt lat="59.3772106209" lon="18.1124446087">
        <ele>35.4</ele>
        <time>2011-05-07T13:07:47Z</time>
      </trkpt>
      <trkpt lat="59.3772157339" lon="18.1125981651">
        <ele>35.4</ele>
        <time>2011-05-07T13:07:51Z</time>
      </trkpt>
      <trkpt lat="59.377203161" lon="18.112867727">
        <ele>35.4</ele>
        <time>2011-05-07T13:07:55Z</time>
      </trkpt>
      <trkpt lat="59.3772055918" lon="18.1129234666">
        <ele>35.4</ele>
        <time>2011-05-07T13:07:56Z</time>
      </trkpt>
      <trkpt lat="59.3771977128" lon="18.1131346905">
        <ele>35.4</ele>
        <time>2011-05-07T13:08:01Z</time>
      </trkpt>
      <trkpt lat="59.3771996406" lon="18.1131841437">
        <ele>35.4</ele>
        <time>2011-05-07T13:08:02Z</time>
      </trkpt>
      <trkpt lat="59.3772122973" lon="18.1132666216">
        <ele>35.4</ele>
        <time>2011-05-07T13:08:04Z</time>
      </trkpt>
      <trkpt lat="59.3772454058" lon="18.1134786837">
        <ele>35.4</ele>
        <time>2011-05-07T13:08:08Z</time>
      </trkpt>
      <trkpt lat="59.3772915062" lon="18.1137044921">
        <ele>35.4</ele>
        <time>2011-05-07T13:08:12Z</time>
      </trkpt>
      <trkpt lat="59.3772848845" lon="18.1137903227">
        <ele>35.4</ele>
        <time>2011-05-07T13:08:14Z</time>
      </trkpt>
      <trkpt lat="59.3773290571" lon="18.1141208211">
        <ele>35.4</ele>
        <time>2011-05-07T13:08:20Z</time>
      </trkpt>
      <trkpt lat="59.3773268778" lon="18.114182428">
        <ele>35.4</ele>
        <time>2011-05-07T13:08:21Z</time>
      </trkpt>
      <trkpt lat="59.3773398698" lon="18.1144146905">
        <ele>35.4</ele>
        <time>2011-05-07T13:08:25Z</time>
      </trkpt>
      <trkpt lat="59.3773333319" lon="18.1145841725">
        <ele>35.4</ele>
        <time>2011-05-07T13:08:28Z</time>
      </trkpt>
      <trkpt lat="59.3773375229" lon="18.1149027685">
        <ele>35.4</ele>
        <time>2011-05-07T13:08:33Z</time>
      </trkpt>
      <trkpt lat="59.377333751" lon="18.1149683988">
        <ele>35.4</ele>
        <time>2011-05-07T13:08:34Z</time>
      </trkpt>
      <trkpt lat="59.3773134668" lon="18.115336448">
        <ele>35.4</ele>
        <time>2011-05-07T13:08:39Z</time>
      </trkpt>
      <trkpt lat="59.3772916739" lon="18.1156039144">
        <ele>35.4</ele>
        <time>2011-05-07T13:08:43Z</time>
      </trkpt>
      <trkpt lat="59.377293937" lon="18.1158722191">
        <ele>35.4</ele>
        <time>2011-05-07T13:08:48Z</time>
      </trkpt>
      <trkpt lat="59.3772827052" lon="18.1159192415">
        <ele>35.4</ele>
        <time>2011-05-07T13:08:49Z</time>
      </trkpt>
      <trkpt lat="59.3772085254" lon="18.1161448823">
        <ele>35.4</ele>
        <time>2011-05-07T13:08:54Z</time>
      </trkpt>
      <trkpt lat="59.3770885804" lon="18.1164751291">
        <ele>35.4</ele>
        <time>2011-05-07T13:09:00Z</time>
      </trkpt>
      <trkpt lat="59.3769428192" lon="18.1169306016">
        <ele>35.4</ele>
        <time>2011-05-07T13:09:09Z</time>
      </trkpt>
      <trkpt lat="59.3768860737" lon="18.1171538954">
        <ele>36</ele>
        <time>2011-05-07T13:09:13Z</time>
      </trkpt>
      <trkpt lat="59.3768228742" lon="18.1173312564">
        <ele>36.4</ele>
        <time>2011-05-07T13:09:17Z</time>
      </trkpt>
      <trkpt lat="59.3767393067" lon="18.1174591642">
        <ele>36.8</ele>
        <time>2011-05-07T13:09:21Z</time>
      </trkpt>
      <trkpt lat="59.3766402326" lon="18.1177299834">
        <ele>37.6</ele>
        <time>2011-05-07T13:09:27Z</time>
      </trkpt>
      <trkpt lat="59.3766237203" lon="18.1177910874">
        <ele>37.8</ele>
        <time>2011-05-07T13:09:28Z</time>
      </trkpt>
      <trkpt lat="59.3765880972" lon="18.1181662613">
        <ele>38.6</ele>
        <time>2011-05-07T13:09:34Z</time>
      </trkpt>
      <trkpt lat="59.3765760272" lon="18.1183480647">
        <ele>38.8</ele>
        <time>2011-05-07T13:09:37Z</time>
      </trkpt>
      <trkpt lat="59.3765730936" lon="18.1185878708">
        <ele>39</ele>
        <time>2011-05-07T13:09:42Z</time>
      </trkpt>
      <trkpt lat="59.3765637059" lon="18.1189155193">
        <ele>39.2</ele>
        <time>2011-05-07T13:09:47Z</time>
      </trkpt>
      <trkpt lat="59.3765634544" lon="18.1190271662">
        <ele>39.2</ele>
        <time>2011-05-07T13:09:49Z</time>
      </trkpt>
      <trkpt lat="59.376518276" lon="18.1195414796">
        <ele>39.4</ele>
        <time>2011-05-07T13:09:58Z</time>
      </trkpt>
      <trkpt lat="59.3764595188" lon="18.1198164059">
        <ele>39.4</ele>
        <time>2011-05-07T13:10:03Z</time>
      </trkpt>
      <trkpt lat="59.376403863" lon="18.1199837087">
        <ele>39.4</ele>
        <time>2011-05-07T13:10:07Z</time>
      </trkpt>
      <trkpt lat="59.3763797231" lon="18.120031234">
        <ele>39.4</ele>
        <time>2011-05-07T13:10:08Z</time>
      </trkpt>
      <trkpt lat="59.3763216366" lon="18.1202554498">
        <ele>38.8</ele>
        <time>2011-05-07T13:10:12Z</time>
      </trkpt>
      <trkpt lat="59.3763036993" lon="18.1203128659">
        <ele>38.6</ele>
        <time>2011-05-07T13:10:13Z</time>
      </trkpt>
      <trkpt lat="59.3762520668" lon="18.1205144506">
        <ele>38.2</ele>
        <time>2011-05-07T13:10:17Z</time>
      </trkpt>
      <trkpt lat="59.3762336266" lon="18.1207523289">
        <ele>38</ele>
        <time>2011-05-07T13:10:21Z</time>
      </trkpt>
      <trkpt lat="59.3762222272" lon="18.1208074818">
        <ele>37.8</ele>
        <time>2011-05-07T13:10:22Z</time>
      </trkpt>
      <trkpt lat="59.3761293558" lon="18.1211185341">
        <ele>37.6</ele>
        <time>2011-05-07T13:10:28Z</time>
      </trkpt>
      <trkpt lat="59.3760348918" lon="18.1213128265">
        <ele>37.6</ele>
        <time>2011-05-07T13:10:33Z</time>
      </trkpt>
      <trkpt lat="59.3759461275" lon="18.121496474">
        <ele>37.6</ele>
        <time>2011-05-07T13:10:38Z</time>
      </trkpt>
      <trkpt lat="59.375831044" lon="18.1217337656">
        <ele>37.4</ele>
        <time>2011-05-07T13:10:44Z</time>
      </trkpt>
      <trkpt lat="59.3758066526" lon="18.1217709812">
        <ele>37.4</ele>
        <time>2011-05-07T13:10:45Z</time>
      </trkpt>
      <trkpt lat="59.3757300421" lon="18.1219245376">
        <ele>37.4</ele>
        <time>2011-05-07T13:10:49Z</time>
      </trkpt>
      <trkpt lat="59.375689809" lon="18.122022522">
        <ele>37.4</ele>
        <time>2011-05-07T13:10:52Z</time>
      </trkpt>
      <trkpt lat="59.3755589675" lon="18.1222863842">
        <ele>37.4</ele>
        <time>2011-05-07T13:10:58Z</time>
      </trkpt>
      <trkpt lat="59.3754589714" lon="18.1225375898">
        <ele>36.8</ele>
        <time>2011-05-07T13:11:03Z</time>
      </trkpt>
      <trkpt lat="59.3753531919" lon="18.1228046371">
        <ele>36.2</ele>
        <time>2011-05-07T13:11:09Z</time>
      </trkpt>
      <trkpt lat="59.3752612424" lon="18.123089957">
        <ele>35.2</ele>
        <time>2011-05-07T13:11:14Z</time>
      </trkpt>
      <trkpt lat="59.375148422" lon="18.1232606125">
        <ele>34.4</ele>
        <time>2011-05-07T13:11:19Z</time>
      </trkpt>
      <trkpt lat="59.3750450732" lon="18.1232933019">
        <ele>33.4</ele>
        <time>2011-05-07T13:11:23Z</time>
      </trkpt>
      <trkpt lat="59.3749968773" lon="18.1233016838">
        <ele>32.4</ele>
        <time>2011-05-07T13:11:28Z</time>
      </trkpt>
      <trkpt lat="59.374976174" lon="18.1233068805">
        <ele>30.6</ele>
        <time>2011-05-07T13:11:37Z</time>
      </trkpt>
      <trkpt lat="59.3749679597" lon="18.1233082216">
        <ele>30</ele>
        <time>2011-05-07T13:11:41Z</time>
      </trkpt>
      <trkpt lat="59.3749042573" lon="18.1233041145">
        <ele>29.6</ele>
        <time>2011-05-07T13:11:47Z</time>
      </trkpt>
      <trkpt lat="59.3747597533" lon="18.1232555833">
        <ele>28.6</ele>
        <time>2011-05-07T13:11:52Z</time>
      </trkpt>
      <trkpt lat="59.3746488608" lon="18.1232246541">
        <ele>28.2</ele>
        <time>2011-05-07T13:11:56Z</time>
      </trkpt>
      <trkpt lat="59.3745100565" lon="18.1231674057">
        <ele>26.8</ele>
        <time>2011-05-07T13:12:01Z</time>
      </trkpt>
      <trkpt lat="59.3743315221" lon="18.1231902045">
        <ele>25.4</ele>
        <time>2011-05-07T13:12:06Z</time>
      </trkpt>
      <trkpt lat="59.3743066278" lon="18.1232189544">
        <ele>25.2</ele>
        <time>2011-05-07T13:12:07Z</time>
      </trkpt>
      <trkpt lat="59.3742602759" lon="18.1234818108">
        <ele>23.2</ele>
        <time>2011-05-07T13:12:13Z</time>
      </trkpt>
      <trkpt lat="59.3742362199" lon="18.1236788693">
        <ele>21.8</ele>
        <time>2011-05-07T13:12:17Z</time>
      </trkpt>
      <trkpt lat="59.3742206295" lon="18.1240017401">
        <ele>20.2</ele>
        <time>2011-05-07T13:12:23Z</time>
      </trkpt>
      <trkpt lat="59.3741766246" lon="18.1243000519">
        <ele>19</ele>
        <time>2011-05-07T13:12:28Z</time>
      </trkpt>
      <trkpt lat="59.3741738585" lon="18.1243644249">
        <ele>18.8</ele>
        <time>2011-05-07T13:12:29Z</time>
      </trkpt>
      <trkpt lat="59.3741460306" lon="18.1246068294">
        <ele>17.8</ele>
        <time>2011-05-07T13:12:34Z</time>
      </trkpt>
      <trkpt lat="59.3741445219" lon="18.1246471464">
        <ele>17.6</ele>
        <time>2011-05-07T13:12:35Z</time>
      </trkpt>
      <trkpt lat="59.3741373134" lon="18.1248535926">
        <ele>16.8</ele>
        <time>2011-05-07T13:12:39Z</time>
      </trkpt>
      <trkpt lat="59.3741306917" lon="18.1250670795">
        <ele>15.8</ele>
        <time>2011-05-07T13:12:43Z</time>
      </trkpt>
      <trkpt lat="59.3741412529" lon="18.1252742801">
        <ele>15.2</ele>
        <time>2011-05-07T13:12:47Z</time>
      </trkpt>
      <trkpt lat="59.374214846" lon="18.1255492064">
        <ele>14.8</ele>
        <time>2011-05-07T13:12:52Z</time>
      </trkpt>
      <trkpt lat="59.3742743575" lon="18.1258958818">
        <ele>14</ele>
        <time>2011-05-07T13:12:58Z</time>
      </trkpt>
      <trkpt lat="59.3742951446" lon="18.1262849696">
        <ele>13</ele>
        <time>2011-05-07T13:13:04Z</time>
      </trkpt>
      <trkpt lat="59.3742863436" lon="18.1266371771">
        <ele>12.4</ele>
        <time>2011-05-07T13:13:09Z</time>
      </trkpt>
      <trkpt lat="59.3742533189" lon="18.1270250914">
        <ele>11.4</ele>
        <time>2011-05-07T13:13:15Z</time>
      </trkpt>
      <trkpt lat="59.3742290114" lon="18.1273365628">
        <ele>10.8</ele>
        <time>2011-05-07T13:13:20Z</time>
      </trkpt>
      <trkpt lat="59.3742179473" lon="18.127633282">
        <ele>10</ele>
        <time>2011-05-07T13:13:25Z</time>
      </trkpt>
      <trkpt lat="59.374181989" lon="18.1279625231">
        <ele>9</ele>
        <time>2011-05-07T13:13:31Z</time>
      </trkpt>
      <trkpt lat="59.3741491319" lon="18.1282472562">
        <ele>8.8</ele>
        <time>2011-05-07T13:13:36Z</time>
      </trkpt>
      <trkpt lat="59.3741039535" lon="18.1285736474">
        <ele>7.6</ele>
        <time>2011-05-07T13:13:42Z</time>
      </trkpt>
      <trkpt lat="59.37406481" lon="18.1287906548">
        <ele>7</ele>
        <time>2011-05-07T13:13:46Z</time>
      </trkpt>
      <trkpt lat="59.3740392452" lon="18.1291237515">
        <ele>6.6</ele>
        <time>2011-05-07T13:13:52Z</time>
      </trkpt>
      <trkpt lat="59.3740051309" lon="18.1294534116">
        <ele>6.4</ele>
        <time>2011-05-07T13:13:58Z</time>
      </trkpt>
      <trkpt lat="59.3739893729" lon="18.1297342053">
        <ele>6.2</ele>
        <time>2011-05-07T13:14:03Z</time>
      </trkpt>
      <trkpt lat="59.3739824997" lon="18.129941322">
        <ele>6</ele>
        <time>2011-05-07T13:14:07Z</time>
      </trkpt>
      <trkpt lat="59.3739757942" lon="18.1299986542">
        <ele>5.8</ele>
        <time>2011-05-07T13:14:08Z</time>
      </trkpt>
      <trkpt lat="59.3739526602" lon="18.1302268934">
        <ele>5.2</ele>
        <time>2011-05-07T13:14:12Z</time>
      </trkpt>
      <trkpt lat="59.3739042128" lon="18.1304700523">
        <ele>4.8</ele>
        <time>2011-05-07T13:14:17Z</time>
      </trkpt>
      <trkpt lat="59.3738664104" lon="18.1307459006">
        <ele>4.4</ele>
        <time>2011-05-07T13:14:23Z</time>
      </trkpt>
      <trkpt lat="59.373842522" lon="18.1308972777">
        <ele>4.4</ele>
        <time>2011-05-07T13:14:27Z</time>
      </trkpt>
      <trkpt lat="59.3738396722" lon="18.1309432105">
        <ele>4.4</ele>
        <time>2011-05-07T13:14:28Z</time>
      </trkpt>
      <trkpt lat="59.3738010316" lon="18.131311595">
        <ele>4.2</ele>
        <time>2011-05-07T13:14:35Z</time>
      </trkpt>
      <trkpt lat="59.3737555179" lon="18.1316481283">
        <ele>4.2</ele>
        <time>2011-05-07T13:14:41Z</time>
      </trkpt>
      <trkpt lat="59.3737163744" lon="18.131885839">
        <ele>4.2</ele>
        <time>2011-05-07T13:14:46Z</time>
      </trkpt>
      <trkpt lat="59.3736539293" lon="18.1321413193">
        <ele>4.2</ele>
        <time>2011-05-07T13:14:51Z</time>
      </trkpt>
      <trkpt lat="59.3735252671" lon="18.1324159942">
        <ele>4.2</ele>
        <time>2011-05-07T13:14:57Z</time>
      </trkpt>
      <trkpt lat="59.373367855" lon="18.1326224404">
        <ele>5.2</ele>
        <time>2011-05-07T13:15:03Z</time>
      </trkpt>
      <trkpt lat="59.3732065873" lon="18.132751354">
        <ele>5.8</ele>
        <time>2011-05-07T13:15:09Z</time>
      </trkpt>
      <trkpt lat="59.3730333334" lon="18.132850009">
        <ele>7</ele>
        <time>2011-05-07T13:15:15Z</time>
      </trkpt>
      <trkpt lat="59.3728739935" lon="18.1329220095">
        <ele>7.6</ele>
        <time>2011-05-07T13:15:20Z</time>
      </trkpt>
      <trkpt lat="59.3726823832" lon="18.1329398629">
        <ele>8.8</ele>
        <time>2011-05-07T13:15:26Z</time>
      </trkpt>
      <trkpt lat="59.3726336006" lon="18.1329464846">
        <ele>9.2</ele>
        <time>2011-05-07T13:15:28Z</time>
      </trkpt>
      <trkpt lat="59.3726174235" lon="18.1331175592">
        <ele>9.6</ele>
        <time>2011-05-07T13:15:32Z</time>
      </trkpt>
      <trkpt lat="59.3726306669" lon="18.1331613127">
        <ele>9.6</ele>
        <time>2011-05-07T13:15:33Z</time>
      </trkpt>
      <trkpt lat="59.3727362789" lon="18.1333021287">
        <ele>10</ele>
        <time>2011-05-07T13:15:38Z</time>
      </trkpt>
      <trkpt lat="59.372789001" lon="18.1333420265">
        <ele>10</ele>
        <time>2011-05-07T13:15:40Z</time>
      </trkpt>
      <trkpt lat="59.3729067667" lon="18.1334374125">
        <ele>10.2</ele>
        <time>2011-05-07T13:15:44Z</time>
      </trkpt>
      <trkpt lat="59.3730577247" lon="18.1335902984">
        <ele>10.2</ele>
        <time>2011-05-07T13:15:50Z</time>
      </trkpt>
      <trkpt lat="59.3732013905" lon="18.1338078925">
        <ele>10.2</ele>
        <time>2011-05-07T13:15:56Z</time>
      </trkpt>
      <trkpt lat="59.3733483252" lon="18.1340886862">
        <ele>10.4</ele>
        <time>2011-05-07T13:16:03Z</time>
      </trkpt>
      <trkpt lat="59.3735148735" lon="18.1342969764">
        <ele>10.4</ele>
        <time>2011-05-07T13:16:10Z</time>
      </trkpt>
      <trkpt lat="59.3737021252" lon="18.1344273987">
        <ele>10.4</ele>
        <time>2011-05-07T13:16:17Z</time>
      </trkpt>
      <trkpt lat="59.3738583638" lon="18.1344791989">
        <ele>10.4</ele>
        <time>2011-05-07T13:16:23Z</time>
      </trkpt>
      <trkpt lat="59.3739797337" lon="18.1345235391">
        <ele>10.4</ele>
        <time>2011-05-07T13:16:28Z</time>
      </trkpt>
      <trkpt lat="59.3741355532" lon="18.134614818">
        <ele>10.4</ele>
        <time>2011-05-07T13:16:34Z</time>
      </trkpt>
      <trkpt lat="59.3743077175" lon="18.1347196756">
        <ele>10.6</ele>
        <time>2011-05-07T13:16:40Z</time>
      </trkpt>
      <trkpt lat="59.3744423308" lon="18.1348052548">
        <ele>11.4</ele>
        <time>2011-05-07T13:16:46Z</time>
      </trkpt>
      <trkpt lat="59.3745428298" lon="18.1348506009">
        <ele>12.6</ele>
        <time>2011-05-07T13:16:52Z</time>
      </trkpt>
      <trkpt lat="59.3746370423" lon="18.1349049994">
        <ele>13.4</ele>
        <time>2011-05-07T13:16:57Z</time>
      </trkpt>
      <trkpt lat="59.3746503695" lon="18.1349109505">
        <ele>13.4</ele>
        <time>2011-05-07T13:16:58Z</time>
      </trkpt>
      <trkpt lat="59.374720526" lon="18.1349132975">
        <ele>14.8</ele>
        <time>2011-05-07T13:17:04Z</time>
      </trkpt>
      <trkpt lat="59.3747259743" lon="18.1349142195">
        <ele>15</ele>
        <time>2011-05-07T13:17:05Z</time>
      </trkpt>
      <trkpt lat="59.3747889223" lon="18.1349281334">
        <ele>15.8</ele>
        <time>2011-05-07T13:17:11Z</time>
      </trkpt>
      <trkpt lat="59.3748740825" lon="18.1349483338">
        <ele>17.4</ele>
        <time>2011-05-07T13:17:19Z</time>
      </trkpt>
      <trkpt lat="59.3749667863" lon="18.1349687857">
        <ele>19.6</ele>
        <time>2011-05-07T13:17:28Z</time>
      </trkpt>
      <trkpt lat="59.375040547" lon="18.1349521057">
        <ele>21.4</ele>
        <time>2011-05-07T13:17:34Z</time>
      </trkpt>
      <trkpt lat="59.3751081889" lon="18.1349439752">
        <ele>23.2</ele>
        <time>2011-05-07T13:17:40Z</time>
      </trkpt>
      <trkpt lat="59.3752332469" lon="18.1349027363">
        <ele>26.2</ele>
        <time>2011-05-07T13:17:49Z</time>
      </trkpt>
      <trkpt lat="59.3752935965" lon="18.1348461585">
        <ele>27.4</ele>
        <time>2011-05-07T13:17:54Z</time>
      </trkpt>
      <trkpt lat="59.3753407028" lon="18.1347888263">
        <ele>29</ele>
        <time>2011-05-07T13:17:59Z</time>
      </trkpt>
      <trkpt lat="59.3754032318" lon="18.1346809512">
        <ele>30.2</ele>
        <time>2011-05-07T13:18:05Z</time>
      </trkpt>
      <trkpt lat="59.3754764896" lon="18.1345044284">
        <ele>30.8</ele>
        <time>2011-05-07T13:18:10Z</time>
      </trkpt>
      <trkpt lat="59.3754964385" lon="18.1344693921">
        <ele>30.8</ele>
        <time>2011-05-07T13:18:11Z</time>
      </trkpt>
      <trkpt lat="59.3756218318" lon="18.1342863314">
        <ele>31.2</ele>
        <time>2011-05-07T13:18:17Z</time>
      </trkpt>
      <trkpt lat="59.3757179721" lon="18.1342405662">
        <ele>31.4</ele>
        <time>2011-05-07T13:18:21Z</time>
      </trkpt>
      <trkpt lat="59.3758481431" lon="18.1341831502">
        <ele>31.4</ele>
        <time>2011-05-07T13:18:26Z</time>
      </trkpt>
      <trkpt lat="59.3758711095" lon="18.1341749359">
        <ele>31.4</ele>
        <time>2011-05-07T13:18:27Z</time>
      </trkpt>
      <trkpt lat="59.3759503184" lon="18.134256408">
        <ele>32.4</ele>
        <time>2011-05-07T13:18:32Z</time>
      </trkpt>
      <trkpt lat="59.375976889" lon="18.1342787038">
        <ele>32.6</ele>
        <time>2011-05-07T13:18:33Z</time>
      </trkpt>
      <trkpt lat="59.3760677488" lon="18.1343350302">
        <ele>32.8</ele>
        <time>2011-05-07T13:18:36Z</time>
      </trkpt>
      <trkpt lat="59.3761893702" lon="18.1344732477">
        <ele>33.2</ele>
        <time>2011-05-07T13:18:42Z</time>
      </trkpt>
      <trkpt lat="59.3762114984" lon="18.1345125588">
        <ele>33.2</ele>
        <time>2011-05-07T13:18:43Z</time>
      </trkpt>
      <trkpt lat="59.376274195" lon="18.1346317495">
        <ele>33.4</ele>
        <time>2011-05-07T13:18:47Z</time>
      </trkpt>
      <trkpt lat="59.3763270848" lon="18.1347948612">
        <ele>33.4</ele>
        <time>2011-05-07T13:18:50Z</time>
      </trkpt>
      <trkpt lat="59.3763715089" lon="18.1348845476">
        <ele>33.4</ele>
        <time>2011-05-07T13:18:52Z</time>
      </trkpt>
      <trkpt lat="59.3765305973" lon="18.1352429576">
        <ele>33.6</ele>
        <time>2011-05-07T13:19:00Z</time>
      </trkpt>
      <trkpt lat="59.3766308449" lon="18.135358544">
        <ele>33.6</ele>
        <time>2011-05-07T13:19:04Z</time>
      </trkpt>
      <trkpt lat="59.3766893505" lon="18.1354023813">
        <ele>33.6</ele>
        <time>2011-05-07T13:19:06Z</time>
      </trkpt>
      <trkpt lat="59.3767948787" lon="18.1355536746">
        <ele>33.6</ele>
        <time>2011-05-07T13:19:12Z</time>
      </trkpt>
      <trkpt lat="59.3768792844" lon="18.1356024573">
        <ele>33.6</ele>
        <time>2011-05-07T13:19:16Z</time>
      </trkpt>
      <trkpt lat="59.3769981397" lon="18.1356853543">
        <ele>33.6</ele>
        <time>2011-05-07T13:19:21Z</time>
      </trkpt>
      <trkpt lat="59.3771062662" lon="18.135760037">
        <ele>33.6</ele>
        <time>2011-05-07T13:19:26Z</time>
      </trkpt>
      <trkpt lat="59.3772313242" lon="18.1357643956">
        <ele>33.6</ele>
        <time>2011-05-07T13:19:31Z</time>
      </trkpt>
      <trkpt lat="59.3773702961" lon="18.1357184628">
        <ele>33.6</ele>
        <time>2011-05-07T13:19:36Z</time>
      </trkpt>
      <trkpt lat="59.3774923366" lon="18.1358177045">
        <ele>34.2</ele>
        <time>2011-05-07T13:19:41Z</time>
      </trkpt>
      <trkpt lat="59.3775087651" lon="18.1358445266">
        <ele>34.4</ele>
        <time>2011-05-07T13:19:42Z</time>
      </trkpt>
      <trkpt lat="59.3775647562" lon="18.1361350432">
        <ele>35</ele>
        <time>2011-05-07T13:19:48Z</time>
      </trkpt>
      <trkpt lat="59.3775850404" lon="18.1362409904">
        <ele>35.2</ele>
        <time>2011-05-07T13:19:50Z</time>
      </trkpt>
      <trkpt lat="59.3775777481" lon="18.136601496">
        <ele>35.4</ele>
        <time>2011-05-07T13:19:56Z</time>
      </trkpt>
      <trkpt lat="59.3775645885" lon="18.1368685433">
        <ele>35.6</ele>
        <time>2011-05-07T13:20:00Z</time>
      </trkpt>
      <trkpt lat="59.3775596432" lon="18.1369358499">
        <ele>35.6</ele>
        <time>2011-05-07T13:20:01Z</time>
      </trkpt>
      <trkpt lat="59.3775378503" lon="18.1373494967">
        <ele>35.6</ele>
        <time>2011-05-07T13:20:07Z</time>
      </trkpt>
      <trkpt lat="59.3775264509" lon="18.1376686795">
        <ele>35.6</ele>
        <time>2011-05-07T13:20:12Z</time>
      </trkpt>
      <trkpt lat="59.3775107767" lon="18.1378936497">
        <ele>35.6</ele>
        <time>2011-05-07T13:20:16Z</time>
      </trkpt>
      <trkpt lat="59.3775058314" lon="18.1381234814">
        <ele>36.2</ele>
        <time>2011-05-07T13:20:20Z</time>
      </trkpt>
      <trkpt lat="59.3774911631" lon="18.1383445121">
        <ele>36.8</ele>
        <time>2011-05-07T13:20:24Z</time>
      </trkpt>
      <trkpt lat="59.3774922527" lon="18.1386403093">
        <ele>37.2</ele>
        <time>2011-05-07T13:20:29Z</time>
      </trkpt>
      <trkpt lat="59.3774853796" lon="18.1388512817">
        <ele>37.4</ele>
        <time>2011-05-07T13:20:33Z</time>
      </trkpt>
      <trkpt lat="59.3774715494" lon="18.1391434748">
        <ele>37.6</ele>
        <time>2011-05-07T13:20:39Z</time>
      </trkpt>
      <trkpt lat="59.3774693701" lon="18.1393293853">
        <ele>38</ele>
        <time>2011-05-07T13:20:43Z</time>
      </trkpt>
      <trkpt lat="59.3774381057" lon="18.1395826025">
        <ele>38.8</ele>
        <time>2011-05-07T13:20:48Z</time>
      </trkpt>
      <trkpt lat="59.3774381895" lon="18.1396312175">
        <ele>38.8</ele>
        <time>2011-05-07T13:20:49Z</time>
      </trkpt>
      <trkpt lat="59.3774272092" lon="18.1397505758">
        <ele>39</ele>
        <time>2011-05-07T13:20:52Z</time>
      </trkpt>
      <trkpt lat="59.3774242755" lon="18.139841687">
        <ele>39.2</ele>
        <time>2011-05-07T13:20:54Z</time>
      </trkpt>
      <trkpt lat="59.3773780074" lon="18.1404185294">
        <ele>40</ele>
        <time>2011-05-07T13:21:03Z</time>
      </trkpt>
      <trkpt lat="59.3773589805" lon="18.1406922822">
        <ele>40.8</ele>
        <time>2011-05-07T13:21:08Z</time>
      </trkpt>
      <trkpt lat="59.37734624" lon="18.1410392929">
        <ele>41.2</ele>
        <time>2011-05-07T13:21:14Z</time>
      </trkpt>
      <trkpt lat="59.3773122933" lon="18.1412811107">
        <ele>41.4</ele>
        <time>2011-05-07T13:21:18Z</time>
      </trkpt>
      <trkpt lat="59.3772757483" lon="18.1415709568">
        <ele>41.6</ele>
        <time>2011-05-07T13:21:23Z</time>
      </trkpt>
      <trkpt lat="59.3772459925" lon="18.1417911493">
        <ele>42</ele>
        <time>2011-05-07T13:21:27Z</time>
      </trkpt>
      <trkpt lat="59.3772186675" lon="18.1421078175">
        <ele>42.8</ele>
        <time>2011-05-07T13:21:33Z</time>
      </trkpt>
      <trkpt lat="59.3771892471" lon="18.1423829953">
        <ele>43.2</ele>
        <time>2011-05-07T13:21:38Z</time>
      </trkpt>
      <trkpt lat="59.3771690467" lon="18.1426867554">
        <ele>44.2</ele>
        <time>2011-05-07T13:21:43Z</time>
      </trkpt>
      <trkpt lat="59.3771568091" lon="18.1429076184">
        <ele>44.8</ele>
        <time>2011-05-07T13:21:47Z</time>
      </trkpt>
      <trkpt lat="59.3771331721" lon="18.1432656094">
        <ele>45.6</ele>
        <time>2011-05-07T13:21:53Z</time>
      </trkpt>
      <trkpt lat="59.3771470861" lon="18.1434568005">
        <ele>46.2</ele>
        <time>2011-05-07T13:21:56Z</time>
      </trkpt>
      <trkpt lat="59.3771585693" lon="18.1439182241">
        <ele>47.4</ele>
        <time>2011-05-07T13:22:04Z</time>
      </trkpt>
      <trkpt lat="59.377150355" lon="18.1442183799">
        <ele>48.6</ele>
        <time>2011-05-07T13:22:09Z</time>
      </trkpt>
      <trkpt lat="59.3771551327" lon="18.1445385685">
        <ele>49.2</ele>
        <time>2011-05-07T13:22:14Z</time>
      </trkpt>
      <trkpt lat="59.3771399615" lon="18.1448499561">
        <ele>50.6</ele>
        <time>2011-05-07T13:22:19Z</time>
      </trkpt>
      <trkpt lat="59.3771133909" lon="18.1450155825">
        <ele>51</ele>
        <time>2011-05-07T13:22:22Z</time>
      </trkpt>
      <trkpt lat="59.3770912626" lon="18.1453859786">
        <ele>51.6</ele>
        <time>2011-05-07T13:22:28Z</time>
      </trkpt>
      <trkpt lat="59.3771451583" lon="18.1456045786">
        <ele>51.8</ele>
        <time>2011-05-07T13:22:33Z</time>
      </trkpt>
      <trkpt lat="59.3771962878" lon="18.1455760801">
        <ele>52</ele>
        <time>2011-05-07T13:22:35Z</time>
      </trkpt>
      <trkpt lat="59.3773438931" lon="18.1453880741">
        <ele>52.2</ele>
        <time>2011-05-07T13:22:41Z</time>
      </trkpt>
      <trkpt lat="59.3774297238" lon="18.1451916023">
        <ele>52.2</ele>
        <time>2011-05-07T13:22:46Z</time>
      </trkpt>
      <trkpt lat="59.3775236849" lon="18.1450267304">
        <ele>52.2</ele>
        <time>2011-05-07T13:22:50Z</time>
      </trkpt>
      <trkpt lat="59.3776773251" lon="18.1448279955">
        <ele>52.2</ele>
        <time>2011-05-07T13:22:56Z</time>
      </trkpt>
      <trkpt lat="59.377774136" lon="18.1447044463">
        <ele>52.2</ele>
        <time>2011-05-07T13:23:00Z</time>
      </trkpt>
      <trkpt lat="59.3778509981" lon="18.1445456093">
        <ele>52.2</ele>
        <time>2011-05-07T13:23:04Z</time>
      </trkpt>
      <trkpt lat="59.3779502398" lon="18.1443743671">
        <ele>52.2</ele>
        <time>2011-05-07T13:23:09Z</time>
      </trkpt>
      <trkpt lat="59.3780065661" lon="18.1442193858">
        <ele>52.2</ele>
        <time>2011-05-07T13:23:13Z</time>
      </trkpt>
      <trkpt lat="59.3780592045" lon="18.1441171266">
        <ele>52.2</ele>
        <time>2011-05-07T13:23:16Z</time>
      </trkpt>
      <trkpt lat="59.3781942369" lon="18.1439684317">
        <ele>52.2</ele>
        <time>2011-05-07T13:23:23Z</time>
      </trkpt>
      <trkpt lat="59.3783402496" lon="18.1438473132">
        <ele>52.2</ele>
        <time>2011-05-07T13:23:28Z</time>
      </trkpt>
      <trkpt lat="59.3783689995" lon="18.1438068287">
        <ele>52.2</ele>
        <time>2011-05-07T13:23:29Z</time>
      </trkpt>
      <trkpt lat="59.378493806" lon="18.1436417052">
        <ele>52.2</ele>
        <time>2011-05-07T13:23:34Z</time>
      </trkpt>
      <trkpt lat="59.3785751942" lon="18.1435373506">
        <ele>52.2</ele>
        <time>2011-05-07T13:23:38Z</time>
      </trkpt>
      <trkpt lat="59.3786932952" lon="18.1433822854">
        <ele>51.8</ele>
        <time>2011-05-07T13:23:43Z</time>
      </trkpt>
      <trkpt lat="59.3787120706" lon="18.143345908">
        <ele>51.8</ele>
        <time>2011-05-07T13:23:44Z</time>
      </trkpt>
      <trkpt lat="59.3787922854" lon="18.1432494323">
        <ele>51.2</ele>
        <time>2011-05-07T13:23:48Z</time>
      </trkpt>
      <trkpt lat="59.3788171797" lon="18.1432142283">
        <ele>51.2</ele>
        <time>2011-05-07T13:23:49Z</time>
      </trkpt>
      <trkpt lat="59.3788807145" lon="18.1431149028">
        <ele>50.8</ele>
        <time>2011-05-07T13:23:52Z</time>
      </trkpt>
      <trkpt lat="59.3789024236" lon="18.1430664554">
        <ele>50.8</ele>
        <time>2011-05-07T13:23:53Z</time>
      </trkpt>
      <trkpt lat="59.3789990669" lon="18.1429262262">
        <ele>50.6</ele>
        <time>2011-05-07T13:23:57Z</time>
      </trkpt>
      <trkpt lat="59.3791139827" lon="18.1427438361">
        <ele>50.4</ele>
        <time>2011-05-07T13:24:03Z</time>
      </trkpt>
      <trkpt lat="59.3791417268" lon="18.1427259826">
        <ele>50.4</ele>
        <time>2011-05-07T13:24:04Z</time>
      </trkpt>
      <trkpt lat="59.3792299044" lon="18.1427340293">
        <ele>50.4</ele>
        <time>2011-05-07T13:24:07Z</time>
      </trkpt>
      <trkpt lat="59.3793789346" lon="18.1427508769">
        <ele>50.4</ele>
        <time>2011-05-07T13:24:12Z</time>
      </trkpt>
      <trkpt lat="59.3794666931" lon="18.1428909384">
        <ele>50.4</ele>
        <time>2011-05-07T13:24:16Z</time>
      </trkpt>
      <trkpt lat="59.3794749074" lon="18.1429520425">
        <ele>50.4</ele>
        <time>2011-05-07T13:24:17Z</time>
      </trkpt>
      <trkpt lat="59.3794764161" lon="18.1433625041">
        <ele>50.2</ele>
        <time>2011-05-07T13:24:24Z</time>
      </trkpt>
      <trkpt lat="59.3794572216" lon="18.1436799267">
        <ele>49.2</ele>
        <time>2011-05-07T13:24:30Z</time>
      </trkpt>
      <trkpt lat="59.3794614125" lon="18.1438361653">
        <ele>49</ele>
        <time>2011-05-07T13:24:33Z</time>
      </trkpt>
      <trkpt lat="59.3794017334" lon="18.1442138537">
        <ele>48.6</ele>
        <time>2011-05-07T13:24:39Z</time>
      </trkpt>
      <trkpt lat="59.3793987159" lon="18.14426557">
        <ele>48.6</ele>
        <time>2011-05-07T13:24:40Z</time>
      </trkpt>
      <trkpt lat="59.3793595724" lon="18.1445770414">
        <ele>48.4</ele>
        <time>2011-05-07T13:24:45Z</time>
      </trkpt>
      <trkpt lat="59.3793413837" lon="18.1448536441">
        <ele>48.2</ele>
        <time>2011-05-07T13:24:50Z</time>
      </trkpt>
      <trkpt lat="59.3793498494" lon="18.1451408919">
        <ele>48.2</ele>
        <time>2011-05-07T13:24:55Z</time>
      </trkpt>
      <trkpt lat="59.3793506876" lon="18.1454521118">
        <ele>48.2</ele>
        <time>2011-05-07T13:25:00Z</time>
      </trkpt>
      <trkpt lat="59.3793223568" lon="18.1457522676">
        <ele>48.2</ele>
        <time>2011-05-07T13:25:05Z</time>
      </trkpt>
      <trkpt lat="59.3792724007" lon="18.145971119">
        <ele>48.2</ele>
        <time>2011-05-07T13:25:09Z</time>
      </trkpt>
      <trkpt lat="59.3791839716" lon="18.1461831811">
        <ele>48.2</ele>
        <time>2011-05-07T13:25:14Z</time>
      </trkpt>
      <trkpt lat="59.3790985601" lon="18.1463720253">
        <ele>48.2</ele>
        <time>2011-05-07T13:25:19Z</time>
      </trkpt>
      <trkpt lat="59.3790405573" lon="18.1465524038">
        <ele>48.2</ele>
        <time>2011-05-07T13:25:24Z</time>
      </trkpt>
      <trkpt lat="59.3789818002" lon="18.1467970715">
        <ele>48.2</ele>
        <time>2011-05-07T13:25:29Z</time>
      </trkpt>
      <trkpt lat="59.3789719095" lon="18.1468404897">
        <ele>48.2</ele>
        <time>2011-05-07T13:25:30Z</time>
      </trkpt>
      <trkpt lat="59.3789099673" lon="18.1470647894">
        <ele>48.2</ele>
        <time>2011-05-07T13:25:34Z</time>
      </trkpt>
      <trkpt lat="59.3788691474" lon="18.1473726565">
        <ele>49</ele>
        <time>2011-05-07T13:25:40Z</time>
      </trkpt>
      <trkpt lat="59.3788458458" lon="18.1476454036">
        <ele>49.4</ele>
        <time>2011-05-07T13:25:45Z</time>
      </trkpt>
      <trkpt lat="59.378838805" lon="18.1478159752">
        <ele>49.8</ele>
        <time>2011-05-07T13:25:49Z</time>
      </trkpt>
      <trkpt lat="59.3788051936" lon="18.1481210764">
        <ele>49.8</ele>
        <time>2011-05-07T13:25:55Z</time>
      </trkpt>
      <trkpt lat="59.378744341" lon="18.1483720305">
        <ele>51</ele>
        <time>2011-05-07T13:26:01Z</time>
      </trkpt>
      <trkpt lat="59.3786945525" lon="18.1485258384">
        <ele>51.4</ele>
        <time>2011-05-07T13:26:05Z</time>
      </trkpt>
      <trkpt lat="59.3786823987" lon="18.148557941">
        <ele>51.4</ele>
        <time>2011-05-07T13:26:06Z</time>
      </trkpt>
      <trkpt lat="59.3786172714" lon="18.1488701668">
        <ele>51.8</ele>
        <time>2011-05-07T13:26:12Z</time>
      </trkpt>
      <trkpt lat="59.3785999208" lon="18.1489267446">
        <ele>51.8</ele>
        <time>2011-05-07T13:26:13Z</time>
      </trkpt>
      <trkpt lat="59.3785404932" lon="18.149152553">
        <ele>52</ele>
        <time>2011-05-07T13:26:17Z</time>
      </trkpt>
      <trkpt lat="59.3784834124" lon="18.1494805368">
        <ele>53</ele>
        <time>2011-05-07T13:26:23Z</time>
      </trkpt>
      <trkpt lat="59.3784564227" lon="18.1495781859">
        <ele>53.2</ele>
        <time>2011-05-07T13:26:25Z</time>
      </trkpt>
      <trkpt lat="59.3784079753" lon="18.1499110311">
        <ele>53.8</ele>
        <time>2011-05-07T13:26:31Z</time>
      </trkpt>
      <trkpt lat="59.3783756212" lon="18.1500756517">
        <ele>53.8</ele>
        <time>2011-05-07T13:26:35Z</time>
      </trkpt>
      <trkpt lat="59.3783560075" lon="18.1502281184">
        <ele>53.4</ele>
        <time>2011-05-07T13:26:38Z</time>
      </trkpt>
      <trkpt lat="59.3782757089" lon="18.1504646556">
        <ele>52.6</ele>
        <time>2011-05-07T13:26:43Z</time>
      </trkpt>
      <trkpt lat="59.3782550895" lon="18.1504915615">
        <ele>52.4</ele>
        <time>2011-05-07T13:26:44Z</time>
      </trkpt>
      <trkpt lat="59.3782276806" lon="18.1505027095">
        <ele>52.2</ele>
        <time>2011-05-07T13:26:45Z</time>
      </trkpt>
      <trkpt lat="59.3781533332" lon="18.150608489">
        <ele>51.6</ele>
        <time>2011-05-07T13:26:48Z</time>
      </trkpt>
      <trkpt lat="59.3781074842" lon="18.1507526577">
        <ele>51.2</ele>
        <time>2011-05-07T13:26:51Z</time>
      </trkpt>
      <trkpt lat="59.3780693466" lon="18.1509029452">
        <ele>50.2</ele>
        <time>2011-05-07T13:26:54Z</time>
      </trkpt>
      <trkpt lat="59.3780583663" lon="18.1509684916">
        <ele>50</ele>
        <time>2011-05-07T13:26:55Z</time>
      </trkpt>
      <trkpt lat="59.3780168759" lon="18.1512843216">
        <ele>48.8</ele>
        <time>2011-05-07T13:27:00Z</time>
      </trkpt>
      <trkpt lat="59.3779930713" lon="18.1514854872">
        <ele>48</ele>
        <time>2011-05-07T13:27:03Z</time>
      </trkpt>
      <trkpt lat="59.3779736253" lon="18.1516776004">
        <ele>47.4</ele>
        <time>2011-05-07T13:27:06Z</time>
      </trkpt>
      <trkpt lat="59.3779645728" lon="18.1519104496">
        <ele>46.2</ele>
        <time>2011-05-07T13:27:10Z</time>
      </trkpt>
      <trkpt lat="59.3779589569" lon="18.1522147125">
        <ele>45</ele>
        <time>2011-05-07T13:27:15Z</time>
      </trkpt>
      <trkpt lat="59.3779234177" lon="18.1526108411">
        <ele>43.2</ele>
        <time>2011-05-07T13:27:22Z</time>
      </trkpt>
      <trkpt lat="59.3778103458" lon="18.1529536608">
        <ele>41.6</ele>
        <time>2011-05-07T13:27:29Z</time>
      </trkpt>
      <trkpt lat="59.3776812646" lon="18.1532761964">
        <ele>40.6</ele>
        <time>2011-05-07T13:27:36Z</time>
      </trkpt>
      <trkpt lat="59.3775798436" lon="18.1535809622">
        <ele>39.2</ele>
        <time>2011-05-07T13:27:42Z</time>
      </trkpt>
      <trkpt lat="59.3774785902" lon="18.1538669527">
        <ele>38.4</ele>
        <time>2011-05-07T13:27:48Z</time>
      </trkpt>
      <trkpt lat="59.3774102778" lon="18.1540700461">
        <ele>37.4</ele>
        <time>2011-05-07T13:27:52Z</time>
      </trkpt>
      <trkpt lat="59.3773080186" lon="18.1542791745">
        <ele>36.6</ele>
        <time>2011-05-07T13:27:57Z</time>
      </trkpt>
      <trkpt lat="59.3772270494" lon="18.1545135324">
        <ele>36.2</ele>
        <time>2011-05-07T13:28:02Z</time>
      </trkpt>
      <trkpt lat="59.377159156" lon="18.1547644865">
        <ele>35.8</ele>
        <time>2011-05-07T13:28:07Z</time>
      </trkpt>
      <trkpt lat="59.3771039193" lon="18.1550261694">
        <ele>35.6</ele>
        <time>2011-05-07T13:28:12Z</time>
      </trkpt>
      <trkpt lat="59.3770474253" lon="18.1552942226">
        <ele>35.6</ele>
        <time>2011-05-07T13:28:17Z</time>
      </trkpt>
      <trkpt lat="59.3769734131" lon="18.1554612739">
        <ele>35.6</ele>
        <time>2011-05-07T13:28:21Z</time>
      </trkpt>
      <trkpt lat="59.3768685556" lon="18.1555829791">
        <ele>35.4</ele>
        <time>2011-05-07T13:28:26Z</time>
      </trkpt>
      <trkpt lat="59.376784066" lon="18.1557064444">
        <ele>35.4</ele>
        <time>2011-05-07T13:28:30Z</time>
      </trkpt>
      <trkpt lat="59.3766616064" lon="18.1558311671">
        <ele>36.4</ele>
        <time>2011-05-07T13:28:36Z</time>
      </trkpt>
      <trkpt lat="59.3765161805" lon="18.1559403833">
        <ele>37.2</ele>
        <time>2011-05-07T13:28:42Z</time>
      </trkpt>
      <trkpt lat="59.3763198764" lon="18.1560552153">
        <ele>38.2</ele>
        <time>2011-05-07T13:28:49Z</time>
      </trkpt>
      <trkpt lat="59.3761669067" lon="18.1561409621">
        <ele>39</ele>
        <time>2011-05-07T13:28:54Z</time>
      </trkpt>
      <trkpt lat="59.3760126797" lon="18.156326705">
        <ele>40.2</ele>
        <time>2011-05-07T13:29:00Z</time>
      </trkpt>
      <trkpt lat="59.3758675052" lon="18.1565570397">
        <ele>41</ele>
        <time>2011-05-07T13:29:06Z</time>
      </trkpt>
      <trkpt lat="59.3757719516" lon="18.1568224106">
        <ele>41.8</ele>
        <time>2011-05-07T13:29:12Z</time>
      </trkpt>
      <trkpt lat="59.3757544334" lon="18.1568693492">
        <ele>42</ele>
        <time>2011-05-07T13:29:13Z</time>
      </trkpt>
      <trkpt lat="59.3756028048" lon="18.1569633103">
        <ele>42.8</ele>
        <time>2011-05-07T13:29:19Z</time>
      </trkpt>
      <trkpt lat="59.3754756514" lon="18.1570182956">
        <ele>43.2</ele>
        <time>2011-05-07T13:29:24Z</time>
      </trkpt>
      <trkpt lat="59.3753527728" lon="18.1570524099">
        <ele>43.4</ele>
        <time>2011-05-07T13:29:29Z</time>
      </trkpt>
      <trkpt lat="59.3752138009" lon="18.1570682517">
        <ele>43.4</ele>
        <time>2011-05-07T13:29:34Z</time>
      </trkpt>
      <trkpt lat="59.3750712247" lon="18.1570893741">
        <ele>43.6</ele>
        <time>2011-05-07T13:29:39Z</time>
      </trkpt>
      <trkpt lat="59.3749335101" lon="18.1570887036">
        <ele>43.6</ele>
        <time>2011-05-07T13:29:44Z</time>
      </trkpt>
      <trkpt lat="59.374758077" lon="18.1571257516">
        <ele>43.6</ele>
        <time>2011-05-07T13:29:51Z</time>
      </trkpt>
      <trkpt lat="59.3745829791" lon="18.157188532">
        <ele>43.2</ele>
        <time>2011-05-07T13:29:58Z</time>
      </trkpt>
      <trkpt lat="59.3744581726" lon="18.1572291004">
        <ele>42.6</ele>
        <time>2011-05-07T13:30:03Z</time>
      </trkpt>
      <trkpt lat="59.3744494554" lon="18.1572249094">
        <ele>42.4</ele>
        <time>2011-05-07T13:30:04Z</time>
      </trkpt>
      <trkpt lat="59.3744686499" lon="18.1571941479">
        <ele>42</ele>
        <time>2011-05-07T13:30:10Z</time>
      </trkpt>
      <trkpt lat="59.3746188536" lon="18.1571016955">
        <ele>40.8</ele>
        <time>2011-05-07T13:30:16Z</time>
      </trkpt>
      <trkpt lat="59.3746298339" lon="18.1571211415">
        <ele>40.8</ele>
        <time>2011-05-07T13:30:17Z</time>
      </trkpt>
      <trkpt lat="59.3746258106" lon="18.1571287691">
        <ele>40.6</ele>
        <time>2011-05-07T13:30:18Z</time>
      </trkpt>
      <trkpt lat="59.3744624473" lon="18.1571801501">
        <ele>39.4</ele>
        <time>2011-05-07T13:30:23Z</time>
      </trkpt>
      <trkpt lat="59.3743772034" lon="18.1572007696">
        <ele>38.8</ele>
        <time>2011-05-07T13:30:26Z</time>
      </trkpt>
      <trkpt lat="59.3743844957" lon="18.1571876938">
        <ele>38.4</ele>
        <time>2011-05-07T13:30:28Z</time>
      </trkpt>
      <trkpt lat="59.3742707533" lon="18.1572271726">
        <ele>37</ele>
        <time>2011-05-07T13:30:33Z</time>
      </trkpt>
      <trkpt lat="59.3741373973" lon="18.157303364">
        <ele>35.6</ele>
        <time>2011-05-07T13:30:38Z</time>
      </trkpt>
      <trkpt lat="59.3741077253" lon="18.1573182">
        <ele>35.2</ele>
        <time>2011-05-07T13:30:39Z</time>
      </trkpt>
      <trkpt lat="59.3739613774" lon="18.1573900329">
        <ele>34.2</ele>
        <time>2011-05-07T13:30:44Z</time>
      </trkpt>
      <trkpt lat="59.3737915601" lon="18.157467314">
        <ele>32.8</ele>
        <time>2011-05-07T13:30:50Z</time>
      </trkpt>
      <trkpt lat="59.3736400991" lon="18.1575868399">
        <ele>31.4</ele>
        <time>2011-05-07T13:30:56Z</time>
      </trkpt>
      <trkpt lat="59.3734903146" lon="18.1577403963">
        <ele>30.2</ele>
        <time>2011-05-07T13:31:02Z</time>
      </trkpt>
      <trkpt lat="59.373365089" lon="18.1578964673">
        <ele>28.8</ele>
        <time>2011-05-07T13:31:07Z</time>
      </trkpt>
      <trkpt lat="59.3732517657" lon="18.1580726548">
        <ele>28</ele>
        <time>2011-05-07T13:31:12Z</time>
      </trkpt>
      <trkpt lat="59.3731105307" lon="18.1583158137">
        <ele>26.6</ele>
        <time>2011-05-07T13:31:18Z</time>
      </trkpt>
      <trkpt lat="59.3729736543" lon="18.1585537759">
        <ele>25.8</ele>
        <time>2011-05-07T13:31:24Z</time>
      </trkpt>
      <trkpt lat="59.3728425613" lon="18.1588174704">
        <ele>25.2</ele>
        <time>2011-05-07T13:31:30Z</time>
      </trkpt>
      <trkpt lat="59.3726962134" lon="18.1590882058">
        <ele>25</ele>
        <time>2011-05-07T13:31:36Z</time>
      </trkpt>
      <trkpt lat="59.372546345" lon="18.1592537483">
        <ele>24</ele>
        <time>2011-05-07T13:31:42Z</time>
      </trkpt>
      <trkpt lat="59.3723873404" lon="18.1593780519">
        <ele>23.4</ele>
        <time>2011-05-07T13:31:49Z</time>
      </trkpt>
      <trkpt lat="59.3722661381" lon="18.1594800596">
        <ele>23</ele>
        <time>2011-05-07T13:31:54Z</time>
      </trkpt>
      <trkpt lat="59.3721870968" lon="18.1595722605">
        <ele>22.4</ele>
        <time>2011-05-07T13:31:57Z</time>
      </trkpt>
      <trkpt lat="59.371949889" lon="18.1596385614">
        <ele>21.4</ele>
        <time>2011-05-07T13:32:06Z</time>
      </trkpt>
      <trkpt lat="59.3717522438" lon="18.1597580034">
        <ele>20.2</ele>
        <time>2011-05-07T13:32:13Z</time>
      </trkpt>
      <trkpt lat="59.3716245875" lon="18.1598164253">
        <ele>19.6</ele>
        <time>2011-05-07T13:32:18Z</time>
      </trkpt>
      <trkpt lat="59.3715270221" lon="18.1597138308">
        <ele>19.2</ele>
        <time>2011-05-07T13:32:22Z</time>
      </trkpt>
      <trkpt lat="59.371502547" lon="18.159614673">
        <ele>19.2</ele>
        <time>2011-05-07T13:32:24Z</time>
      </trkpt>
      <trkpt lat="59.3715165448" lon="18.1595064626">
        <ele>19</ele>
        <time>2011-05-07T13:32:26Z</time>
      </trkpt>
      <trkpt lat="59.3715525869" lon="18.1593019443">
        <ele>18.8</ele>
        <time>2011-05-07T13:32:30Z</time>
      </trkpt>
      <trkpt lat="59.3715566941" lon="18.159191387">
        <ele>18.8</ele>
        <time>2011-05-07T13:32:32Z</time>
      </trkpt>
      <trkpt lat="59.3715464682" lon="18.1591023712">
        <ele>18.8</ele>
        <time>2011-05-07T13:32:36Z</time>
      </trkpt>
      <trkpt lat="59.3715431154" lon="18.1591004434">
        <ele>18.8</ele>
        <time>2011-05-07T13:32:38Z</time>
      </trkpt>
      <trkpt lat="59.3714819275" lon="18.1589801631">
        <ele>18.4</ele>
        <time>2011-05-07T13:32:42Z</time>
      </trkpt>
      <trkpt lat="59.3715372481" lon="18.1586433784">
        <ele>17.6</ele>
        <time>2011-05-07T13:32:48Z</time>
      </trkpt>
      <trkpt lat="59.3716009505" lon="18.1582836272">
        <ele>17</ele>
        <time>2011-05-07T13:32:55Z</time>
      </trkpt>
      <trkpt lat="59.371639172" lon="18.1580289013">
        <ele>16.8</ele>
        <time>2011-05-07T13:33:00Z</time>
      </trkpt>
      <trkpt lat="59.3716623898" lon="18.1577661287">
        <ele>16.2</ele>
        <time>2011-05-07T13:33:05Z</time>
      </trkpt>
      <trkpt lat="59.3716442011" lon="18.1575357941">
        <ele>15.6</ele>
        <time>2011-05-07T13:33:10Z</time>
      </trkpt>
      <trkpt lat="59.3716292813" lon="18.1574984108">
        <ele>15.4</ele>
        <time>2011-05-07T13:33:11Z</time>
      </trkpt>
      <trkpt lat="59.3715685125" lon="18.1573358858">
        <ele>15.2</ele>
        <time>2011-05-07T13:33:15Z</time>
      </trkpt>
      <trkpt lat="59.3715483122" lon="18.157320044">
        <ele>15</ele>
        <time>2011-05-07T13:33:16Z</time>
      </trkpt>
      <trkpt lat="59.3714445442" lon="18.157358014">
        <ele>15</ele>
        <time>2011-05-07T13:33:20Z</time>
      </trkpt>
      <trkpt lat="59.3713268624" lon="18.1573236482">
        <ele>14.8</ele>
        <time>2011-05-07T13:33:24Z</time>
      </trkpt>
      <trkpt lat="59.3713007947" lon="18.1573076388">
        <ele>14.8</ele>
        <time>2011-05-07T13:33:25Z</time>
      </trkpt>
      <trkpt lat="59.3710948514" lon="18.1571263383">
        <ele>14.6</ele>
        <time>2011-05-07T13:33:32Z</time>
      </trkpt>
      <trkpt lat="59.3709200049" lon="18.1569670822">
        <ele>14.6</ele>
        <time>2011-05-07T13:33:38Z</time>
      </trkpt>
      <trkpt lat="59.3707854755" lon="18.1568414375">
        <ele>14.6</ele>
        <time>2011-05-07T13:33:43Z</time>
      </trkpt>
      <trkpt lat="59.3706264708" lon="18.1567152899">
        <ele>14.6</ele>
        <time>2011-05-07T13:33:49Z</time>
      </trkpt>
      <trkpt lat="59.3704902649" lon="18.1567345683">
        <ele>15.2</ele>
        <time>2011-05-07T13:33:54Z</time>
      </trkpt>
      <trkpt lat="59.3704033446" lon="18.1568399288">
        <ele>15.6</ele>
        <time>2011-05-07T13:33:58Z</time>
      </trkpt>
      <trkpt lat="59.3703294163" lon="18.1570546731">
        <ele>16</ele>
        <time>2011-05-07T13:34:03Z</time>
      </trkpt>
      <trkpt lat="59.3702923683" lon="18.1573692458">
        <ele>16.2</ele>
        <time>2011-05-07T13:34:09Z</time>
      </trkpt>
      <trkpt lat="59.3703352836" lon="18.1576274083">
        <ele>16.4</ele>
        <time>2011-05-07T13:34:14Z</time>
      </trkpt>
      <trkpt lat="59.3704482716" lon="18.1577914421">
        <ele>16.4</ele>
        <time>2011-05-07T13:34:19Z</time>
      </trkpt>
      <trkpt lat="59.3706118025" lon="18.1579072799">
        <ele>16.6</ele>
        <time>2011-05-07T13:34:25Z</time>
      </trkpt>
      <trkpt lat="59.3707624252" lon="18.1580516162">
        <ele>16.6</ele>
        <time>2011-05-07T13:34:31Z</time>
      </trkpt>
      <trkpt lat="59.3709187477" lon="18.1581957011">
        <ele>16.4</ele>
        <time>2011-05-07T13:34:37Z</time>
      </trkpt>
      <trkpt lat="59.3710601503" lon="18.1583065936">
        <ele>15.6</ele>
        <time>2011-05-07T13:34:42Z</time>
      </trkpt>
      <trkpt lat="59.3712002119" lon="18.1584455655">
        <ele>15.2</ele>
        <time>2011-05-07T13:34:48Z</time>
      </trkpt>
      <trkpt lat="59.3712293809" lon="18.1584836194">
        <ele>15</ele>
        <time>2011-05-07T13:34:51Z</time>
      </trkpt>
    </trkseg>
  </trk>
</gpx>